Wetterdaten: Mittwoch, 11.04.2018
Datum Zeit Temp. A. Pool Temp. Feuchte A. Luftdruck Regen Wind Richtung Richtung Sonnenschein ET UV Solar Taupunkt Windchill Windben Empfang
11.04.2018 00:00 11,7 C 9,4 C 71 % 1002,3 hPa 0,0 l/m 3,8 km/h (1 Bft) NO 54 0 min 0,000 mm 0,0 UV-I 0 W/m 6,6 C 11,7 C 4,8 km/h (1 Bft) 100,00 %
11.04.2018 00:01 11,7 C 9,4 C 71 % 1002,4 hPa 0,0 l/m 4,0 km/h (1 Bft) NO 53 0 min 0,000 mm 0,0 UV-I 0 W/m 6,6 C 11,7 C 6,4 km/h (2 Bft) 100,00 %
11.04.2018 00:02 11,7 C 9,4 C 71 % 1002,4 hPa 0,0 l/m 4,0 km/h (1 Bft) NO 54 0 min 0,000 mm 0,0 UV-I 0 W/m 6,6 C 11,7 C 4,8 km/h (1 Bft) 100,00 %
11.04.2018 00:03 11,8 C 9,4 C 70 % 1002,4 hPa 0,0 l/m 3,2 km/h (1 Bft) NO 53 0 min 0,000 mm 0,0 UV-I 0 W/m 6,5 C 11,8 C 4,8 km/h (1 Bft) 95,65 %
11.04.2018 00:04 11,7 C 9,4 C 70 % 1002,4 hPa 0,0 l/m 3,2 km/h (1 Bft) NO 54 0 min 0,000 mm 0,0 UV-I 0 W/m 6,4 C 11,7 C 4,8 km/h (1 Bft) 100,00 %
11.04.2018 00:05 11,8 C 9,4 C 71 % 1002,4 hPa 0,0 l/m 2,9 km/h (1 Bft) NO 54 0 min 0,000 mm 0,0 UV-I 0 W/m 6,7 C 11,8 C 4,8 km/h (1 Bft) 100,00 %
11.04.2018 00:06 11,8 C 9,4 C 70 % 1002,4 hPa 0,0 l/m 2,6 km/h (1 Bft) NO 53 0 min 0,000 mm 0,0 UV-I 0 W/m 6,5 C 11,8 C 3,2 km/h (1 Bft) 100,00 %
11.04.2018 00:07 11,8 C 9,4 C 70 % 1002,4 hPa 0,0 l/m 3,3 km/h (1 Bft) NO 54 0 min 0,000 mm 0,0 UV-I 0 W/m 6,5 C 11,8 C 4,8 km/h (1 Bft) 100,00 %
11.04.2018 00:08 11,8 C 9,4 C 70 % 1002,3 hPa 0,0 l/m 3,9 km/h (1 Bft) O-NO 61 0 min 0,000 mm 0,0 UV-I 0 W/m 6,5 C 11,8 C 4,8 km/h (1 Bft) 100,00 %
11.04.2018 00:09 11,8 C 9,4 C 70 % 1002,4 hPa 0,0 l/m 4,2 km/h (1 Bft) O-NO 61 0 min 0,000 mm 0,0 UV-I 0 W/m 6,5 C 11,8 C 4,8 km/h (1 Bft) 100,00 %
11.04.2018 00:10 11,8 C 9,4 C 70 % 1002,4 hPa 0,0 l/m 4,3 km/h (1 Bft) O-NO 61 0 min 0,000 mm 0,0 UV-I 0 W/m 6,5 C 11,8 C 6,4 km/h (2 Bft) 96,15 %
11.04.2018 00:11 11,9 C 9,4 C 70 % 1002,3 hPa 0,0 l/m 5,0 km/h (1 Bft) O-NO 59 0 min 0,000 mm 0,0 UV-I 0 W/m 6,6 C 11,9 C 6,4 km/h (2 Bft) 100,00 %
11.04.2018 00:12 11,8 C 9,4 C 70 % 1002,3 hPa 0,0 l/m 5,1 km/h (1 Bft) O-NO 59 0 min 0,000 mm 0,0 UV-I 0 W/m 6,5 C 11,8 C 6,4 km/h (2 Bft) 100,00 %
11.04.2018 00:13 11,8 C 9,4 C 70 % 1002,4 hPa 0,0 l/m 4,8 km/h (1 Bft) O-NO 59 0 min 0,000 mm 0,0 UV-I 0 W/m 6,5 C 11,8 C 6,4 km/h (2 Bft) 100,00 %
11.04.2018 00:14 11,8 C 9,4 C 70 % 1002,4 hPa 0,0 l/m 4,2 km/h (1 Bft) O-NO 59 0 min 0,000 mm 0,0 UV-I 0 W/m 6,5 C 11,8 C 6,4 km/h (2 Bft) 95,65 %
11.04.2018 00:15 11,7 C 9,4 C 70 % 1002,4 hPa 0,0 l/m 4,6 km/h (1 Bft) NO 54 0 min 0,000 mm 0,0 UV-I 0 W/m 6,4 C 11,7 C 6,4 km/h (2 Bft) 100,00 %
11.04.2018 00:16 11,7 C 9,4 C 71 % 1002,4 hPa 0,0 l/m 4,6 km/h (1 Bft) NO 54 0 min 0,000 mm 0,0 UV-I 0 W/m 6,6 C 11,7 C 6,4 km/h (2 Bft) 96,15 %
11.04.2018 00:17 11,7 C 9,4 C 71 % 1002,4 hPa 0,0 l/m 4,5 km/h (1 Bft) NO 54 0 min 0,000 mm 0,0 UV-I 0 W/m 6,6 C 11,7 C 4,8 km/h (1 Bft) 96,30 %
11.04.2018 00:18 11,6 C 9,4 C 71 % 1002,4 hPa 0,0 l/m 4,5 km/h (1 Bft) NO 54 0 min 0,000 mm 0,0 UV-I 0 W/m 6,5 C 11,6 C 6,4 km/h (2 Bft) 100,00 %
11.04.2018 00:19 11,6 C 9,4 C 71 % 1002,4 hPa 0,0 l/m 4,2 km/h (1 Bft) O-NO 65 0 min 0,000 mm 0,0 UV-I 0 W/m 6,5 C 11,6 C 4,8 km/h (1 Bft) 96,30 %
11.04.2018 00:20 11,6 C 9,4 C 71 % 1002,4 hPa 0,0 l/m 3,4 km/h (1 Bft) O-NO 64 0 min 0,000 mm 0,0 UV-I 0 W/m 6,5 C 11,6 C 4,8 km/h (1 Bft) 95,65 %
11.04.2018 00:21 11,6 C 9,4 C 71 % 1002,5 hPa 0,0 l/m 3,4 km/h (1 Bft) O-NO 64 0 min 0,000 mm 0,0 UV-I 0 W/m 6,5 C 11,6 C 4,8 km/h (1 Bft) 96,30 %
11.04.2018 00:22 11,6 C 9,4 C 71 % 1002,5 hPa 0,0 l/m 3,4 km/h (1 Bft) O-NO 63 0 min 0,000 mm 0,0 UV-I 0 W/m 6,5 C 11,6 C 4,8 km/h (1 Bft) 100,00 %
11.04.2018 00:23 11,6 C 9,4 C 71 % 1002,5 hPa 0,0 l/m 2,5 km/h (1 Bft) O-NO 63 0 min 0,000 mm 0,0 UV-I 0 W/m 6,5 C 11,6 C 4,8 km/h (1 Bft) 91,67 %
11.04.2018 00:24 11,6 C 9,4 C 71 % 1002,5 hPa 0,0 l/m 2,3 km/h (1 Bft) O-NO 63 0 min 0,000 mm 0,0 UV-I 0 W/m 6,5 C 11,6 C 4,8 km/h (1 Bft) 92,31 %
11.04.2018 00:25 11,6 C 9,4 C 71 % 1002,5 hPa 0,0 l/m 2,8 km/h (1 Bft) O-NO 68 0 min 0,000 mm 0,0 UV-I 0 W/m 6,5 C 11,6 C 4,8 km/h (1 Bft) 100,00 %
11.04.2018 00:26 11,6 C 9,4 C 71 % 1002,6 hPa 0,0 l/m 2,2 km/h (1 Bft) O-NO 68 0 min 0,000 mm 0,0 UV-I 0 W/m 6,5 C 11,6 C 3,2 km/h (1 Bft) 100,00 %
11.04.2018 00:27 11,6 C 9,4 C 72 % 1002,6 hPa 0,0 l/m 1,7 km/h (1 Bft) O-NO 68 0 min 0,000 mm 0,0 UV-I 0 W/m 6,7 C 11,6 C 3,2 km/h (1 Bft) 95,65 %
11.04.2018 00:28 11,4 C 9,4 C 72 % 1002,6 hPa 0,0 l/m 1,8 km/h (1 Bft) O-NO 68 0 min 0,000 mm 0,0 UV-I 0 W/m 6,5 C 11,4 C 3,2 km/h (1 Bft) 91,67 %
11.04.2018 00:29 11,3 C 9,4 C 73 % 1002,6 hPa 0,0 l/m 2,0 km/h (1 Bft) O-NO 68 0 min 0,000 mm 0,0 UV-I 0 W/m 6,6 C 11,3 C 3,2 km/h (1 Bft) 100,00 %
11.04.2018 00:30 11,2 C 9,4 C 73 % 1002,6 hPa 0,0 l/m 2,2 km/h (1 Bft) O-NO 68 0 min 0,000 mm 0,0 UV-I 0 W/m 6,5 C 11,2 C 3,2 km/h (1 Bft) 96,55 %
11.04.2018 00:31 11,1 C 9,4 C 74 % 1002,6 hPa 0,0 l/m 2,8 km/h (1 Bft) O-NO 68 0 min 0,000 mm 0,0 UV-I 0 W/m 6,6 C 11,1 C 3,2 km/h (1 Bft) 100,00 %
11.04.2018 00:32 10,9 C 9,4 C 75 % 1002,6 hPa 0,0 l/m 2,4 km/h (1 Bft) O-NO 69 0 min 0,000 mm 0,0 UV-I 0 W/m 6,6 C 10,9 C 3,2 km/h (1 Bft) 96,67 %
11.04.2018 00:33 10,7 C 9,4 C 75 % 1002,6 hPa 0,0 l/m 2,9 km/h (1 Bft) O-NO 69 0 min 0,000 mm 0,0 UV-I 0 W/m 6,5 C 10,7 C 3,2 km/h (1 Bft) 100,00 %
11.04.2018 00:34 10,5 C 9,4 C 76 % 1002,6 hPa 0,0 l/m 3,2 km/h (1 Bft) O-NO 69 0 min 0,000 mm 0,0 UV-I 0 W/m 6,5 C 10,5 C 3,2 km/h (1 Bft) 95,83 %
11.04.2018 00:35 10,4 C 9,4 C 77 % 1002,6 hPa 0,0 l/m 2,6 km/h (1 Bft) O-NO 69 0 min 0,000 mm 0,0 UV-I 0 W/m 6,5 C 10,4 C 3,2 km/h (1 Bft) 95,65 %
11.04.2018 00:36 10,2 C 9,4 C 78 % 1002,6 hPa 0,0 l/m 2,9 km/h (1 Bft) O-NO 69 0 min 0,000 mm 0,0 UV-I 0 W/m 6,5 C 10,2 C 3,2 km/h (1 Bft) 100,00 %
11.04.2018 00:37 10,2 C 9,4 C 79 % 1002,6 hPa 0,0 l/m 3,1 km/h (1 Bft) O-NO 69 0 min 0,000 mm 0,0 UV-I 0 W/m 6,7 C 10,2 C 3,2 km/h (1 Bft) 96,15 %
11.04.2018 00:38 10,1 C 9,4 C 79 % 1002,6 hPa 0,0 l/m 3,2 km/h (1 Bft) O-NO 70 0 min 0,000 mm 0,0 UV-I 0 W/m 6,6 C 10,1 C 3,2 km/h (1 Bft) 100,00 %
11.04.2018 00:39 10,1 C 9,4 C 80 % 1002,6 hPa 0,0 l/m 3,6 km/h (1 Bft) O 100 0 min 0,000 mm 0,0 UV-I 0 W/m 6,8 C 10,1 C 4,8 km/h (1 Bft) 90,91 %
11.04.2018 00:40 10,0 C 9,4 C 80 % 1002,6 hPa 0,0 l/m 3,1 km/h (1 Bft) O 101 0 min 0,000 mm 0,0 UV-I 0 W/m 6,7 C 10,0 C 4,8 km/h (1 Bft) 100,00 %
11.04.2018 00:41 10,1 C 9,4 C 80 % 1002,6 hPa 0,0 l/m 4,0 km/h (1 Bft) O 100 0 min 0,000 mm 0,0 UV-I 0 W/m 6,8 C 10,1 C 4,8 km/h (1 Bft) 95,65 %
11.04.2018 00:42 10,4 C 9,4 C 77 % 1002,6 hPa 0,0 l/m 4,2 km/h (1 Bft) O 99 0 min 0,000 mm 0,0 UV-I 0 W/m 6,5 C 10,4 C 6,4 km/h (2 Bft) 100,00 %
11.04.2018 00:43 10,7 C 9,4 C 76 % 1002,6 hPa 0,0 l/m 3,3 km/h (1 Bft) O 99 0 min 0,000 mm 0,0 UV-I 0 W/m 6,6 C 10,7 C 4,8 km/h (1 Bft) 95,65 %
11.04.2018 00:44 10,9 C 9,4 C 75 % 1002,6 hPa 0,0 l/m 3,7 km/h (1 Bft) O 101 0 min 0,000 mm 0,0 UV-I 0 W/m 6,6 C 10,9 C 4,8 km/h (1 Bft) 96,30 %
11.04.2018 00:45 11,1 C 9,4 C 74 % 1002,6 hPa 0,0 l/m 2,8 km/h (1 Bft) O 100 0 min 0,000 mm 0,0 UV-I 0 W/m 6,6 C 11,1 C 4,8 km/h (1 Bft) 100,00 %
11.04.2018 00:46 11,2 C 9,4 C 74 % 1002,6 hPa 0,0 l/m 3,5 km/h (1 Bft) O 100 0 min 0,000 mm 0,0 UV-I 0 W/m 6,7 C 11,2 C 4,8 km/h (1 Bft) 95,83 %
11.04.2018 00:47 11,3 C 9,4 C 73 % 1002,7 hPa 0,0 l/m 2,7 km/h (1 Bft) O 100 0 min 0,000 mm 0,0 UV-I 0 W/m 6,6 C 11,3 C 3,2 km/h (1 Bft) 100,00 %
11.04.2018 00:48 11,4 C 9,4 C 72 % 1002,7 hPa 0,0 l/m 2,2 km/h (1 Bft) O 100 0 min 0,000 mm 0,0 UV-I 0 W/m 6,5 C 11,4 C 3,2 km/h (1 Bft) 95,65 %
11.04.2018 00:49 11,6 C 9,4 C 72 % 1002,7 hPa 0,0 l/m 2,5 km/h (1 Bft) O 100 0 min 0,000 mm 0,0 UV-I 0 W/m 6,7 C 11,6 C 4,8 km/h (1 Bft) 100,00 %
11.04.2018 00:50 11,5 C 9,4 C 72 % 1002,7 hPa 0,0 l/m 1,6 km/h (1 Bft) O 100 0 min 0,000 mm 0,0 UV-I 0 W/m 6,6 C 11,5 C 3,2 km/h (1 Bft) 100,00 %
11.04.2018 00:51 11,3 C 9,4 C 73 % 1002,7 hPa 0,0 l/m 1,4 km/h (1 Bft) O 100 0 min 0,000 mm 0,0 UV-I 0 W/m 6,6 C 11,3 C 3,2 km/h (1 Bft) 100,00 %
11.04.2018 00:52 11,2 C 9,4 C 73 % 1002,7 hPa 0,0 l/m 0,0 km/h (0 Bft) O 100 0 min 0,000 mm 0,0 UV-I 0 W/m 6,5 C 11,2 C 0,0 km/h (0 Bft) 92,31 %
11.04.2018 00:53 10,9 C 9,4 C 74 % 1002,7 hPa 0,0 l/m 0,0 km/h (0 Bft) O 100 0 min 0,000 mm 0,0 UV-I 0 W/m 6,5 C 10,9 C 0,0 km/h (0 Bft) 100,00 %
11.04.2018 00:54 10,7 C 9,4 C 76 % 1002,7 hPa 0,0 l/m 0,0 km/h (0 Bft) O 100 0 min 0,000 mm 0,0 UV-I 0 W/m 6,6 C 10,7 C 0,0 km/h (0 Bft) 95,65 %
11.04.2018 00:55 10,6 C 9,4 C 76 % 1002,8 hPa 0,0 l/m 0,0 km/h (0 Bft) O 100 0 min 0,000 mm 0,0 UV-I 0 W/m 6,5 C 10,6 C 0,0 km/h (0 Bft) 95,83 %
11.04.2018 00:56 10,4 C 9,4 C 77 % 1002,8 hPa 0,0 l/m 0,0 km/h (0 Bft) O 100 0 min 0,000 mm 0,0 UV-I 0 W/m 6,5 C 10,4 C 0,0 km/h (0 Bft) 100,00 %
11.04.2018 00:57 10,3 C 9,4 C 77 % 1002,8 hPa 0,0 l/m 0,0 km/h (0 Bft) O 100 0 min 0,000 mm 0,0 UV-I 0 W/m 6,4 C 10,3 C 0,0 km/h (0 Bft) 95,83 %
11.04.2018 00:58 10,2 C 9,4 C 78 % 1002,8 hPa 0,0 l/m 1,9 km/h (1 Bft) O 100 0 min 0,000 mm 0,0 UV-I 0 W/m 6,5 C 10,2 C 3,2 km/h (1 Bft) 100,00 %
11.04.2018 00:59 10,2 C 9,4 C 78 % 1002,8 hPa 0,0 l/m 2,7 km/h (1 Bft) O 100 0 min 0,000 mm 0,0 UV-I 0 W/m 6,5 C 10,2 C 3,2 km/h (1 Bft) 95,83 %
11.04.2018 01:00 10,1 C 9,4 C 79 % 1002,8 hPa 0,0 l/m 2,5 km/h (1 Bft) O 100 0 min 0,025 mm 0,0 UV-I 0 W/m 6,6 C 10,1 C 3,2 km/h (1 Bft) 100,00 %
11.04.2018 01:01 10,1 C 9,4 C 79 % 1002,8 hPa 0,0 l/m 2,7 km/h (1 Bft) O 100 0 min 0,000 mm 0,0 UV-I 0 W/m 6,6 C 10,1 C 3,2 km/h (1 Bft) 96,15 %
11.04.2018 01:02 10,1 C 9,4 C 79 % 1002,9 hPa 0,0 l/m 2,1 km/h (1 Bft) O 100 0 min 0,000 mm 0,0 UV-I 0 W/m 6,6 C 10,1 C 3,2 km/h (1 Bft) 100,00 %
11.04.2018 01:03 10,0 C 9,4 C 79 % 1002,8 hPa 0,0 l/m 1,7 km/h (1 Bft) O 100 0 min 0,000 mm 0,0 UV-I 0 W/m 6,5 C 10,0 C 3,2 km/h (1 Bft) 100,00 %
11.04.2018 01:04 9,9 C 9,4 C 80 % 1002,8 hPa 0,0 l/m 0,8 km/h (0 Bft) O 100 0 min 0,000 mm 0,0 UV-I 0 W/m 6,6 C 9,9 C 1,6 km/h (1 Bft) 96,15 %
11.04.2018 01:05 9,8 C 9,4 C 80 % 1002,9 hPa 0,0 l/m 0,4 km/h (0 Bft) O 100 0 min 0,000 mm 0,0 UV-I 0 W/m 6,5 C 9,8 C 1,6 km/h (1 Bft) 100,00 %
11.04.2018 01:06 9,9 C 9,4 C 80 % 1002,9 hPa 0,0 l/m 0,2 km/h (0 Bft) O 100 0 min 0,000 mm 0,0 UV-I 0 W/m 6,6 C 9,9 C 1,6 km/h (1 Bft) 100,00 %
11.04.2018 01:07 9,9 C 9,4 C 80 % 1002,8 hPa 0,0 l/m 0,0 km/h (0 Bft) O 100 0 min 0,000 mm 0,0 UV-I 0 W/m 6,6 C 9,9 C 0,0 km/h (0 Bft) 100,00 %
11.04.2018 01:08 9,9 C 9,4 C 80 % 1002,9 hPa 0,0 l/m 0,0 km/h (0 Bft) O 100 0 min 0,000 mm 0,0 UV-I 0 W/m 6,6 C 9,9 C 0,0 km/h (0 Bft) 100,00 %
11.04.2018 01:09 9,9 C 9,4 C 81 % 1002,9 hPa 0,0 l/m 0,0 km/h (0 Bft) O 100 0 min 0,000 mm 0,0 UV-I 0 W/m 6,8 C 9,9 C 0,0 km/h (0 Bft) 95,65 %
11.04.2018 01:10 9,9 C 9,4 C 80 % 1002,9 hPa 0,0 l/m 1,4 km/h (1 Bft) O 100 0 min 0,000 mm 0,0 UV-I 0 W/m 6,6 C 9,9 C 1,6 km/h (1 Bft) 100,00 %
11.04.2018 01:11 9,9 C 9,4 C 80 % 1002,9 hPa 0,0 l/m 0,6 km/h (0 Bft) O 100 0 min 0,000 mm 0,0 UV-I 0 W/m 6,6 C 9,9 C 1,6 km/h (1 Bft) 100,00 %
11.04.2018 01:12 9,9 C 9,4 C 81 % 1002,9 hPa 0,0 l/m 0,1 km/h (0 Bft) O 100 0 min 0,000 mm 0,0 UV-I 0 W/m 6,8 C 9,9 C 1,6 km/h (1 Bft) 100,00 %
11.04.2018 01:13 9,9 C 9,4 C 80 % 1002,9 hPa 0,0 l/m 0,3 km/h (0 Bft) O 100 0 min 0,000 mm 0,0 UV-I 0 W/m 6,6 C 9,9 C 3,2 km/h (1 Bft) 100,00 %
11.04.2018 01:14 9,9 C 9,4 C 80 % 1002,9 hPa 0,0 l/m 0,9 km/h (0 Bft) O 100 0 min 0,000 mm 0,0 UV-I 0 W/m 6,6 C 9,9 C 3,2 km/h (1 Bft) 100,00 %
11.04.2018 01:15 9,9 C 9,4 C 80 % 1003,0 hPa 0,0 l/m 0,0 km/h (0 Bft) O 100 0 min 0,000 mm 0,0 UV-I 0 W/m 6,6 C 9,9 C 0,0 km/h (0 Bft) 100,00 %
11.04.2018 01:16 10,0 C 9,4 C 80 % 1002,9 hPa 0,0 l/m 0,0 km/h (0 Bft) O 100 0 min 0,000 mm 0,0 UV-I 0 W/m 6,7 C 10,0 C 0,0 km/h (0 Bft) 100,00 %
11.04.2018 01:17 10,0 C 9,4 C 80 % 1002,9 hPa 0,0 l/m 0,0 km/h (0 Bft) O 100 0 min 0,000 mm 0,0 UV-I 0 W/m 6,7 C 10,0 C 0,0 km/h (0 Bft) 95,65 %
11.04.2018 01:18 10,0 C 9,4 C 79 % 1003,0 hPa 0,0 l/m 0,0 km/h (0 Bft) O 100 0 min 0,000 mm 0,0 UV-I 0 W/m 6,5 C 10,0 C 0,0 km/h (0 Bft) 100,00 %
11.04.2018 01:19 10,0 C 9,4 C 80 % 1003,0 hPa 0,0 l/m 0,0 km/h (0 Bft) O 100 0 min 0,000 mm 0,0 UV-I 0 W/m 6,7 C 10,0 C 0,0 km/h (0 Bft) 100,00 %
11.04.2018 01:20 9,9 C 9,4 C 80 % 1003,0 hPa 0,0 l/m 0,0 km/h (0 Bft) O 100 0 min 0,000 mm 0,0 UV-I 0 W/m 6,6 C 9,9 C 0,0 km/h (0 Bft) 100,00 %
11.04.2018 01:21 9,8 C 9,4 C 80 % 1003,0 hPa 0,0 l/m 0,0 km/h (0 Bft) O 100 0 min 0,000 mm 0,0 UV-I 0 W/m 6,5 C 9,8 C 0,0 km/h (0 Bft) 100,00 %
11.04.2018 01:22 9,8 C 9,4 C 80 % 1003,0 hPa 0,0 l/m 0,0 km/h (0 Bft) O 100 0 min 0,000 mm 0,0 UV-I 0 W/m 6,5 C 9,8 C 0,0 km/h (0 Bft) 100,00 %
11.04.2018 01:23 9,7 C 9,4 C 81 % 1003,0 hPa 0,0 l/m 0,0 km/h (0 Bft) O 100 0 min 0,000 mm 0,0 UV-I 0 W/m 6,6 C 9,7 C 0,0 km/h (0 Bft) 100,00 %
11.04.2018 01:24 9,6 C 9,4 C 82 % 1003,0 hPa 0,0 l/m 0,0 km/h (0 Bft) O 100 0 min 0,000 mm 0,0 UV-I 0 W/m 6,7 C 9,6 C 0,0 km/h (0 Bft) 96,15 %
11.04.2018 01:25 9,6 C 9,4 C 82 % 1003,0 hPa 0,0 l/m 0,0 km/h (0 Bft) O 100 0 min 0,000 mm 0,0 UV-I 0 W/m 6,7 C 9,6 C 0,0 km/h (0 Bft) 100,00 %
11.04.2018 01:26 9,6 C 9,4 C 82 % 1003,0 hPa 0,0 l/m 0,0 km/h (0 Bft) O 100 0 min 0,000 mm 0,0 UV-I 0 W/m 6,7 C 9,6 C 0,0 km/h (0 Bft) 100,00 %
11.04.2018 01:27 9,6 C 9,4 C 82 % 1003,1 hPa 0,0 l/m 0,0 km/h (0 Bft) O 100 0 min 0,000 mm 0,0 UV-I 0 W/m 6,7 C 9,6 C 0,0 km/h (0 Bft) 100,00 %
11.04.2018 01:28 9,5 C 9,4 C 82 % 1003,1 hPa 0,0 l/m 0,2 km/h (0 Bft) O 100 0 min 0,000 mm 0,0 UV-I 0 W/m 6,6 C 9,5 C 1,6 km/h (1 Bft) 91,30 %
11.04.2018 01:29 9,4 C 9,4 C 82 % 1003,1 hPa 0,0 l/m 1,7 km/h (1 Bft) O 100 0 min 0,000 mm 0,0 UV-I 0 W/m 6,5 C 9,4 C 3,2 km/h (1 Bft) 100,00 %
11.04.2018 01:30 9,4 C 9,4 C 82 % 1003,0 hPa 0,0 l/m 2,5 km/h (1 Bft) O 100 0 min 0,000 mm 0,0 UV-I 0 W/m 6,5 C 9,4 C 3,2 km/h (1 Bft) 100,00 %
11.04.2018 01:31 9,4 C 9,4 C 82 % 1003,1 hPa 0,0 l/m 2,6 km/h (1 Bft) O 101 0 min 0,000 mm 0,0 UV-I 0 W/m 6,5 C 9,4 C 3,2 km/h (1 Bft) 100,00 %
11.04.2018 01:32 9,4 C 9,4 C 82 % 1003,1 hPa 0,0 l/m 1,8 km/h (1 Bft) O 101 0 min 0,000 mm 0,0 UV-I 0 W/m 6,5 C 9,4 C 3,2 km/h (1 Bft) 100,00 %
11.04.2018 01:33 9,4 C 9,4 C 82 % 1003,0 hPa 0,0 l/m 1,1 km/h (1 Bft) O 101 0 min 0,000 mm 0,0 UV-I 0 W/m 6,5 C 9,4 C 1,6 km/h (1 Bft) 100,00 %
11.04.2018 01:34 9,4 C 9,4 C 82 % 1003,0 hPa 0,0 l/m 1,9 km/h (1 Bft) O 101 0 min 0,000 mm 0,0 UV-I 0 W/m 6,5 C 9,4 C 3,2 km/h (1 Bft) 91,67 %
11.04.2018 01:35 9,5 C 9,4 C 82 % 1003,1 hPa 0,0 l/m 2,6 km/h (1 Bft) O 101 0 min 0,000 mm 0,0 UV-I 0 W/m 6,6 C 9,5 C 3,2 km/h (1 Bft) 98,17 %
11.04.2018 01:36 9,5 C 9,4 C 82 % 1003,1 hPa 0,0 l/m 3,0 km/h (1 Bft) O 101 0 min 0,000 mm 0,0 UV-I 0 W/m 6,6 C 9,5 C 3,2 km/h (1 Bft) 100,00 %
11.04.2018 01:37 9,6 C 9,4 C 82 % 1003,1 hPa 0,0 l/m 3,2 km/h (1 Bft) W-SW 242 0 min 0,000 mm 0,0 UV-I 0 W/m 6,7 C 9,6 C 3,2 km/h (1 Bft) 100,00 %
11.04.2018 01:38 9,6 C 9,4 C 81 % 1003,1 hPa 0,0 l/m 3,3 km/h (1 Bft) W-SW 242 0 min 0,000 mm 0,0 UV-I 0 W/m 6,5 C 9,6 C 4,8 km/h (1 Bft) 100,00 %
11.04.2018 01:39 9,7 C 9,4 C 81 % 1003,1 hPa 0,0 l/m 3,4 km/h (1 Bft) W-SW 242 0 min 0,000 mm 0,0 UV-I 0 W/m 6,6 C 9,7 C 4,8 km/h (1 Bft) 100,00 %
11.04.2018 01:40 9,7 C 9,4 C 81 % 1003,1 hPa 0,0 l/m 3,1 km/h (1 Bft) W-SW 242 0 min 0,000 mm 0,0 UV-I 0 W/m 6,6 C 9,7 C 3,2 km/h (1 Bft) 100,00 %
11.04.2018 01:41 9,7 C 9,4 C 81 % 1003,1 hPa 0,0 l/m 2,7 km/h (1 Bft) W-SW 242 0 min 0,000 mm 0,0 UV-I 0 W/m 6,6 C 9,7 C 3,2 km/h (1 Bft) 100,00 %
11.04.2018 01:42 9,7 C 9,4 C 81 % 1003,1 hPa 0,0 l/m 2,3 km/h (1 Bft) W-SW 242 0 min 0,000 mm 0,0 UV-I 0 W/m 6,6 C 9,7 C 3,2 km/h (1 Bft) 100,00 %
11.04.2018 01:43 9,7 C 9,4 C 80 % 1003,1 hPa 0,0 l/m 2,5 km/h (1 Bft) W-SW 242 0 min 0,000 mm 0,0 UV-I 0 W/m 6,4 C 9,7 C 3,2 km/h (1 Bft) 95,83 %
11.04.2018 01:44 9,7 C 9,4 C 80 % 1003,1 hPa 0,0 l/m 2,3 km/h (1 Bft) W-SW 242 0 min 0,000 mm 0,0 UV-I 0 W/m 6,4 C 9,7 C 3,2 km/h (1 Bft) 100,00 %
11.04.2018 01:45 9,7 C 9,4 C 80 % 1003,1 hPa 0,0 l/m 3,0 km/h (1 Bft) W-SW 242 0 min 0,000 mm 0,0 UV-I 0 W/m 6,4 C 9,7 C 3,2 km/h (1 Bft) 100,00 %
11.04.2018 01:46 9,6 C 9,4 C 80 % 1003,2 hPa 0,0 l/m 2,1 km/h (1 Bft) W-SW 242 0 min 0,000 mm 0,0 UV-I 0 W/m 6,3 C 9,6 C 3,2 km/h (1 Bft) 100,00 %
11.04.2018 01:47 9,4 C 9,4 C 81 % 1003,2 hPa 0,0 l/m 1,4 km/h (1 Bft) W-SW 242 0 min 0,000 mm 0,0 UV-I 0 W/m 6,3 C 9,4 C 3,2 km/h (1 Bft) 100,00 %
11.04.2018 01:48 9,2 C 9,4 C 81 % 1003,1 hPa 0,0 l/m 1,1 km/h (1 Bft) W-SW 242 0 min 0,000 mm 0,0 UV-I 0 W/m 6,1 C 9,2 C 1,6 km/h (1 Bft) 100,00 %
11.04.2018 01:49 9,1 C 9,4 C 82 % 1003,1 hPa 0,0 l/m 0,6 km/h (0 Bft) W-SW 242 0 min 0,000 mm 0,0 UV-I 0 W/m 6,2 C 9,1 C 1,6 km/h (1 Bft) 100,00 %
11.04.2018 01:50 8,9 C 9,4 C 83 % 1003,1 hPa 0,0 l/m 1,1 km/h (1 Bft) W-SW 242 0 min 0,000 mm 0,0 UV-I 0 W/m 6,2 C 8,9 C 3,2 km/h (1 Bft) 100,00 %
11.04.2018 01:51 8,8 C 9,4 C 83 % 1003,1 hPa 0,0 l/m 2,0 km/h (1 Bft) W-SW 242 0 min 0,000 mm 0,0 UV-I 0 W/m 6,1 C 8,8 C 3,2 km/h (1 Bft) 95,65 %
11.04.2018 01:52 8,7 C 9,4 C 84 % 1003,1 hPa 0,0 l/m 0,7 km/h (0 Bft) W-SW 242 0 min 0,000 mm 0,0 UV-I 0 W/m 6,2 C 8,7 C 1,6 km/h (1 Bft) 95,83 %
11.04.2018 01:53 8,7 C 9,4 C 84 % 1003,1 hPa 0,0 l/m 0,0 km/h (0 Bft) W-SW 242 0 min 0,000 mm 0,0 UV-I 0 W/m 6,2 C 8,7 C 0,0 km/h (0 Bft) 95,65 %
11.04.2018 01:54 8,7 C 9,4 C 84 % 1003,2 hPa 0,0 l/m 0,0 km/h (0 Bft) W-SW 242 0 min 0,000 mm 0,0 UV-I 0 W/m 6,2 C 8,7 C 0,0 km/h (0 Bft) 96,30 %
11.04.2018 01:55 8,7 C 9,4 C 84 % 1003,2 hPa 0,0 l/m 0,0 km/h (0 Bft) W-SW 242 0 min 0,000 mm 0,0 UV-I 0 W/m 6,2 C 8,7 C 0,0 km/h (0 Bft) 100,00 %
11.04.2018 01:56 8,8 C 9,4 C 84 % 1003,1 hPa 0,0 l/m 0,0 km/h (0 Bft) W-SW 242 0 min 0,000 mm 0,0 UV-I 0 W/m 6,2 C 8,8 C 0,0 km/h (0 Bft) 100,00 %
11.04.2018 01:57 8,9 C 9,4 C 84 % 1003,1 hPa 0,0 l/m 0,0 km/h (0 Bft) W-SW 242 0 min 0,000 mm 0,0 UV-I 0 W/m 6,3 C 8,9 C 0,0 km/h (0 Bft) 100,00 %
11.04.2018 01:58 9,0 C 9,4 C 84 % 1003,2 hPa 0,0 l/m 0,0 km/h (0 Bft) W-SW 242 0 min 0,000 mm 0,0 UV-I 0 W/m 6,4 C 9,0 C 0,0 km/h (0 Bft) 100,00 %
11.04.2018 01:59 9,1 C 9,4 C 83 % 1003,2 hPa 0,0 l/m 0,0 km/h (0 Bft) W-SW 242 0 min 0,000 mm 0,0 UV-I 0 W/m 6,4 C 9,1 C 0,0 km/h (0 Bft) 100,00 %
11.04.2018 02:00 9,2 C 9,4 C 83 % 1003,2 hPa 0,0 l/m 0,0 km/h (0 Bft) W-SW 242 0 min 0,000 mm 0,0 UV-I 0 W/m 6,5 C 9,2 C 0,0 km/h (0 Bft) 100,00 %
11.04.2018 02:01 9,3 C 9,4 C 82 % 1003,3 hPa 0,0 l/m 0,0 km/h (0 Bft) W-SW 242 0 min 0,000 mm 0,0 UV-I 0 W/m 6,4 C 9,3 C 0,0 km/h (0 Bft) 100,00 %
11.04.2018 02:02 9,3 C 9,4 C 82 % 1003,3 hPa 0,0 l/m 0,9 km/h (0 Bft) W-SW 242 0 min 0,000 mm 0,0 UV-I 0 W/m 6,4 C 9,3 C 3,2 km/h (1 Bft) 100,00 %
11.04.2018 02:03 9,3 C 9,4 C 82 % 1003,3 hPa 0,0 l/m 2,0 km/h (1 Bft) W-SW 242 0 min 0,000 mm 0,0 UV-I 0 W/m 6,4 C 9,3 C 3,2 km/h (1 Bft) 100,00 %
11.04.2018 02:04 9,2 C 9,4 C 82 % 1003,4 hPa 0,0 l/m 3,9 km/h (1 Bft) W-SW 242 0 min 0,000 mm 0,0 UV-I 0 W/m 6,3 C 9,2 C 4,8 km/h (1 Bft) 90,91 %
11.04.2018 02:05 9,1 C 9,4 C 82 % 1003,4 hPa 0,0 l/m 4,5 km/h (1 Bft) W-SW 242 0 min 0,000 mm 0,0 UV-I 0 W/m 6,2 C 9,1 C 4,8 km/h (1 Bft) 97,44 %
11.04.2018 02:06 8,9 C 9,4 C 82 % 1003,4 hPa 0,0 l/m 6,0 km/h (2 Bft) SW 234 0 min 0,000 mm 0,0 UV-I 0 W/m 6,0 C 8,9 C 8,0 km/h (2 Bft) 100,00 %
11.04.2018 02:07 8,8 C 9,4 C 82 % 1003,4 hPa 0,0 l/m 7,1 km/h (2 Bft) SW 234 0 min 0,000 mm 0,0 UV-I 0 W/m 5,9 C 8,3 C 8,0 km/h (2 Bft) 100,00 %
11.04.2018 02:08 8,5 C 9,4 C 83 % 1003,5 hPa 0,0 l/m 7,9 km/h (2 Bft) SW 227 0 min 0,000 mm 0,0 UV-I 0 W/m 5,8 C 7,4 C 9,7 km/h (2 Bft) 100,00 %
11.04.2018 02:09 8,4 C 9,4 C 84 % 1003,5 hPa 0,0 l/m 8,0 km/h (2 Bft) SW 232 0 min 0,000 mm 0,0 UV-I 0 W/m 5,9 C 7,2 C 9,7 km/h (2 Bft) 100,00 %
11.04.2018 02:10 8,3 C 9,4 C 85 % 1003,6 hPa 0,0 l/m 8,4 km/h (2 Bft) SW 227 0 min 0,000 mm 0,0 UV-I 0 W/m 5,9 C 6,8 C 9,7 km/h (2 Bft) 100,00 %
11.04.2018 02:11 8,2 C 9,4 C 85 % 1003,6 hPa 0,0 l/m 8,9 km/h (2 Bft) SW 227 0 min 0,000 mm 0,0 UV-I 0 W/m 5,8 C 6,3 C 11,3 km/h (2 Bft) 100,00 %
11.04.2018 02:12 8,2 C 9,4 C 86 % 1003,6 hPa 0,0 l/m 7,5 km/h (2 Bft) SW 219 0 min 0,000 mm 0,0 UV-I 0 W/m 6,0 C 7,3 C 8,0 km/h (2 Bft) 96,15 %
11.04.2018 02:13 8,3 C 9,4 C 86 % 1003,6 hPa 0,0 l/m 7,3 km/h (2 Bft) SW 219 0 min 0,000 mm 0,0 UV-I 0 W/m 6,1 C 7,6 C 8,0 km/h (2 Bft) 100,00 %
11.04.2018 02:14 8,4 C 9,4 C 86 % 1003,6 hPa 0,0 l/m 6,0 km/h (2 Bft) S-SW 212 0 min 0,000 mm 0,0 UV-I 0 W/m 6,2 C 8,4 C 8,0 km/h (2 Bft) 100,00 %
11.04.2018 02:15 8,5 C 9,4 C 86 % 1003,6 hPa 0,0 l/m 6,1 km/h (2 Bft) S-SW 212 0 min 0,000 mm 0,0 UV-I 0 W/m 6,3 C 8,5 C 6,4 km/h (2 Bft) 100,00 %
11.04.2018 02:16 8,6 C 9,4 C 85 % 1003,6 hPa 0,0 l/m 5,7 km/h (1 Bft) S-SW 211 0 min 0,000 mm 0,0 UV-I 0 W/m 6,2 C 8,6 C 8,0 km/h (2 Bft) 96,30 %
11.04.2018 02:17 8,5 C 9,4 C 84 % 1003,6 hPa 0,0 l/m 4,3 km/h (1 Bft) S-SW 211 0 min 0,000 mm 0,0 UV-I 0 W/m 6,0 C 8,5 C 6,4 km/h (2 Bft) 100,00 %
11.04.2018 02:18 8,3 C 9,4 C 84 % 1003,6 hPa 0,0 l/m 3,5 km/h (1 Bft) S-SW 211 0 min 0,000 mm 0,0 UV-I 0 W/m 5,8 C 8,3 C 4,8 km/h (1 Bft) 100,00 %
11.04.2018 02:19 8,3 C 9,4 C 85 % 1003,6 hPa 0,0 l/m 4,0 km/h (1 Bft) S-SW 211 0 min 0,000 mm 0,0 UV-I 0 W/m 5,9 C 8,3 C 4,8 km/h (1 Bft) 100,00 %
11.04.2018 02:20 8,2 C 9,4 C 85 % 1003,6 hPa 0,0 l/m 4,5 km/h (1 Bft) S-SW 211 0 min 0,000 mm 0,0 UV-I 0 W/m 5,8 C 8,2 C 6,4 km/h (2 Bft) 100,00 %
11.04.2018 02:21 8,2 C 9,4 C 86 % 1003,7 hPa 0,0 l/m 5,1 km/h (1 Bft) S-SW 211 0 min 0,000 mm 0,0 UV-I 0 W/m 6,0 C 8,2 C 6,4 km/h (2 Bft) 100,00 %
11.04.2018 02:22 8,2 C 9,4 C 85 % 1003,7 hPa 0,0 l/m 4,5 km/h (1 Bft) S-SW 211 0 min 0,000 mm 0,0 UV-I 0 W/m 5,8 C 8,2 C 4,8 km/h (1 Bft) 92,31 %
11.04.2018 02:23 8,3 C 9,4 C 86 % 1003,7 hPa 0,0 l/m 4,8 km/h (1 Bft) S-SW 211 0 min 0,000 mm 0,0 UV-I 0 W/m 6,1 C 8,3 C 6,4 km/h (2 Bft) 100,00 %
11.04.2018 02:24 8,3 C 9,4 C 86 % 1003,7 hPa 0,0 l/m 4,9 km/h (1 Bft) S-SW 211 0 min 0,000 mm 0,0 UV-I 0 W/m 6,1 C 8,3 C 6,4 km/h (2 Bft) 100,00 %
11.04.2018 02:25 8,5 C 9,4 C 86 % 1003,7 hPa 0,0 l/m 5,5 km/h (1 Bft) S-SW 211 0 min 0,000 mm 0,0 UV-I 0 W/m 6,3 C 8,5 C 6,4 km/h (2 Bft) 100,00 %
11.04.2018 02:26 8,6 C 9,4 C 85 % 1003,7 hPa 0,0 l/m 5,7 km/h (1 Bft) S-SW 211 0 min 0,000 mm 0,0 UV-I 0 W/m 6,2 C 8,6 C 6,4 km/h (2 Bft) 100,00 %
11.04.2018 02:27 8,7 C 9,4 C 85 % 1003,8 hPa 0,0 l/m 6,7 km/h (2 Bft) S-SW 207 0 min 0,000 mm 0,0 UV-I 0 W/m 6,3 C 8,5 C 8,0 km/h (2 Bft) 100,00 %
11.04.2018 02:28 8,7 C 9,4 C 84 % 1003,8 hPa 0,0 l/m 7,8 km/h (2 Bft) S-SW 205 0 min 0,000 mm 0,0 UV-I 0 W/m 6,2 C 7,6 C 9,7 km/h (2 Bft) 95,83 %
11.04.2018 02:29 8,8 C 9,4 C 84 % 1003,8 hPa 0,0 l/m 8,6 km/h (2 Bft) S-SW 202 0 min 0,000 mm 0,0 UV-I 0 W/m 6,2 C 7,2 C 11,3 km/h (2 Bft) 100,00 %
11.04.2018 02:30 8,8 C 9,4 C 84 % 1003,8 hPa 0,0 l/m 8,4 km/h (2 Bft) S-SW 207 0 min 0,000 mm 0,0 UV-I 0 W/m 6,2 C 7,3 C 9,7 km/h (2 Bft) 91,67 %
11.04.2018 02:31 8,9 C 9,4 C 84 % 1003,8 hPa 0,0 l/m 7,8 km/h (2 Bft) S-SW 205 0 min 0,000 mm 0,0 UV-I 0 W/m 6,3 C 7,8 C 9,7 km/h (2 Bft) 98,49 %
11.04.2018 02:32 8,9 C 9,4 C 83 % 1003,8 hPa 0,0 l/m 7,8 km/h (2 Bft) S-SW 207 0 min 0,000 mm 0,0 UV-I 0 W/m 6,2 C 7,8 C 9,7 km/h (2 Bft) 98,21 %
11.04.2018 02:33 9,0 C 9,4 C 83 % 1003,9 hPa 0,0 l/m 7,9 km/h (2 Bft) S-SW 207 0 min 0,000 mm 0,0 UV-I 0 W/m 6,3 C 7,9 C 9,7 km/h (2 Bft) 95,65 %
11.04.2018 02:34 9,0 C 9,4 C 83 % 1003,9 hPa 0,0 l/m 7,3 km/h (2 Bft) S-SW 204 0 min 0,000 mm 0,0 UV-I 0 W/m 6,3 C 8,3 C 9,7 km/h (2 Bft) 95,83 %
11.04.2018 02:35 9,0 C 9,4 C 83 % 1003,9 hPa 0,0 l/m 6,8 km/h (2 Bft) S-SW 202 0 min 0,000 mm 0,0 UV-I 0 W/m 6,3 C 8,7 C 9,7 km/h (2 Bft) 100,00 %
11.04.2018 02:37 9,1 C 9,4 C 83 % 1004,0 hPa 0,0 l/m 7,5 km/h (2 Bft) S-SW 201 0 min 0,000 mm 0,0 UV-I 0 W/m 6,4 C 8,3 C 11,3 km/h (2 Bft) 96,23 %
11.04.2018 02:38 9,1 C 9,4 C 83 % 1004,0 hPa 0,0 l/m 8,5 km/h (2 Bft) S-SW 192 0 min 0,000 mm 0,0 UV-I 0 W/m 6,4 C 7,6 C 11,3 km/h (2 Bft) 100,00 %
11.04.2018 02:39 9,1 C 9,4 C 83 % 1004,0 hPa 0,0 l/m 6,7 km/h (2 Bft) S 188 0 min 0,000 mm 0,0 UV-I 0 W/m 6,4 C 8,9 C 9,7 km/h (2 Bft) 95,65 %
11.04.2018 02:40 9,2 C 9,4 C 83 % 1004,0 hPa 0,0 l/m 9,2 km/h (2 Bft) S-SW 201 0 min 0,000 mm 0,0 UV-I 0 W/m 6,5 C 7,2 C 11,3 km/h (2 Bft) 100,00 %
11.04.2018 02:41 9,2 C 9,4 C 82 % 1004,0 hPa 0,0 l/m 7,2 km/h (2 Bft) S-SW 192 0 min 0,000 mm 0,0 UV-I 0 W/m 6,3 C 8,6 C 9,7 km/h (2 Bft) 91,30 %
11.04.2018 02:42 9,2 C 9,4 C 82 % 1004,0 hPa 0,0 l/m 9,0 km/h (2 Bft) S-SW 205 0 min 0,000 mm 0,0 UV-I 0 W/m 6,3 C 7,3 C 12,9 km/h (3 Bft) 100,00 %
11.04.2018 02:43 9,2 C 9,4 C 82 % 1004,0 hPa 0,0 l/m 9,1 km/h (2 Bft) S 179 0 min 0,000 mm 0,0 UV-I 0 W/m 6,3 C 7,3 C 12,9 km/h (3 Bft) 93,75 %
11.04.2018 02:44 9,3 C 9,4 C 83 % 1004,0 hPa 0,0 l/m 6,9 km/h (2 Bft) S-SW 197 0 min 0,000 mm 0,0 UV-I 0 W/m 6,6 C 8,9 C 9,7 km/h (2 Bft) 100,00 %
11.04.2018 02:45 9,3 C 9,4 C 83 % 1004,0 hPa 0,0 l/m 7,0 km/h (2 Bft) SW 215 0 min 0,000 mm 0,0 UV-I 0 W/m 6,6 C 8,9 C 9,7 km/h (2 Bft) 92,59 %
11.04.2018 02:46 9,3 C 9,4 C 83 % 1003,9 hPa 0,0 l/m 6,8 km/h (2 Bft) S-SW 204 0 min 0,000 mm 0,0 UV-I 0 W/m 6,6 C 9,0 C 11,3 km/h (2 Bft) 91,30 %
11.04.2018 02:47 9,3 C 9,4 C 83 % 1003,9 hPa 0,0 l/m 7,0 km/h (2 Bft) S 179 0 min 0,000 mm 0,0 UV-I 0 W/m 6,6 C 8,9 C 8,0 km/h (2 Bft) 100,00 %
11.04.2018 02:48 9,3 C 9,4 C 83 % 1003,9 hPa 0,0 l/m 6,8 km/h (2 Bft) S-SW 196 0 min 0,000 mm 0,0 UV-I 0 W/m 6,6 C 9,0 C 9,7 km/h (2 Bft) 91,30 %
11.04.2018 02:49 9,4 C 9,4 C 83 % 1003,9 hPa 0,0 l/m 8,9 km/h (2 Bft) S 182 0 min 0,000 mm 0,0 UV-I 0 W/m 6,7 C 7,6 C 11,3 km/h (2 Bft) 100,00 %
11.04.2018 02:50 9,4 C 9,4 C 83 % 1003,9 hPa 0,0 l/m 8,2 km/h (2 Bft) S-SW 200 0 min 0,000 mm 0,0 UV-I 0 W/m 6,7 C 8,1 C 9,7 km/h (2 Bft) 85,71 %
11.04.2018 02:51 9,4 C 9,4 C 83 % 1003,9 hPa 0,0 l/m 8,0 km/h (2 Bft) S 189 0 min 0,000 mm 0,0 UV-I 0 W/m 6,7 C 8,2 C 11,3 km/h (2 Bft) 100,00 %
11.04.2018 02:52 9,5 C 9,4 C 83 % 1003,9 hPa 0,0 l/m 9,5 km/h (2 Bft) S-SW 211 0 min 0,000 mm 0,0 UV-I 0 W/m 6,8 C 7,3 C 11,3 km/h (2 Bft) 92,31 %
11.04.2018 02:53 9,5 C 9,4 C 83 % 1003,9 hPa 0,0 l/m 9,4 km/h (2 Bft) S-SW 209 0 min 0,000 mm 0,0 UV-I 0 W/m 6,8 C 7,4 C 12,9 km/h (3 Bft) 92,59 %
11.04.2018 02:54 9,6 C 9,4 C 82 % 1003,9 hPa 0,0 l/m 7,9 km/h (2 Bft) S-SW 205 0 min 0,000 mm 0,0 UV-I 0 W/m 6,7 C 8,5 C 9,7 km/h (2 Bft) 100,00 %
11.04.2018 02:55 9,6 C 9,4 C 82 % 1003,9 hPa 0,0 l/m 6,6 km/h (2 Bft) SW 223 0 min 0,000 mm 0,0 UV-I 0 W/m 6,7 C 9,5 C 9,7 km/h (2 Bft) 96,30 %
11.04.2018 02:56 9,7 C 9,4 C 82 % 1003,9 hPa 0,0 l/m 7,4 km/h (2 Bft) S-SW 211 0 min 0,000 mm 0,0 UV-I 0 W/m 6,8 C 9,0 C 9,7 km/h (2 Bft) 95,65 %
11.04.2018 02:57 9,7 C 9,4 C 82 % 1003,9 hPa 0,0 l/m 7,7 km/h (2 Bft) SW 216 0 min 0,000 mm 0,0 UV-I 0 W/m 6,8 C 8,7 C 11,3 km/h (2 Bft) 96,30 %
11.04.2018 02:58 9,7 C 9,4 C 82 % 1003,9 hPa 0,0 l/m 9,0 km/h (2 Bft) S-SW 208 0 min 0,000 mm 0,0 UV-I 0 W/m 6,8 C 7,9 C 12,9 km/h (3 Bft) 100,00 %
11.04.2018 02:59 9,7 C 9,4 C 82 % 1003,8 hPa 0,0 l/m 6,4 km/h (2 Bft) S-SW 213 0 min 0,000 mm 0,0 UV-I 0 W/m 6,8 C 9,7 C 8,0 km/h (2 Bft) 91,67 %
11.04.2018 03:00 9,8 C 9,4 C 82 % 1003,8 hPa 0,0 l/m 7,3 km/h (2 Bft) S-SW 209 0 min 0,026 mm 0,0 UV-I 0 W/m 6,9 C 9,1 C 9,7 km/h (2 Bft) 95,65 %
11.04.2018 03:01 9,8 C 9,4 C 82 % 1003,8 hPa 0,0 l/m 8,5 km/h (2 Bft) S-SW 213 0 min 0,000 mm 0,0 UV-I 0 W/m 6,9 C 8,3 C 12,9 km/h (3 Bft) 91,67 %
11.04.2018 03:02 9,9 C 9,4 C 81 % 1003,8 hPa 0,0 l/m 7,6 km/h (2 Bft) S-SW 202 0 min 0,000 mm 0,0 UV-I 0 W/m 6,8 C 9,0 C 11,3 km/h (2 Bft) 100,00 %
11.04.2018 03:03 9,9 C 9,4 C 81 % 1003,8 hPa 0,0 l/m 8,0 km/h (2 Bft) S-SW 208 0 min 0,000 mm 0,0 UV-I 0 W/m 6,8 C 8,7 C 9,7 km/h (2 Bft) 92,31 %
11.04.2018 03:04 9,9 C 9,4 C 81 % 1003,8 hPa 0,0 l/m 8,0 km/h (2 Bft) S-SW 213 0 min 0,000 mm 0,0 UV-I 0 W/m 6,8 C 8,7 C 11,3 km/h (2 Bft) 95,83 %
11.04.2018 03:05 9,9 C 9,4 C 81 % 1003,9 hPa 0,0 l/m 7,8 km/h (2 Bft) SW 229 0 min 0,000 mm 0,0 UV-I 0 W/m 6,8 C 8,9 C 9,7 km/h (2 Bft) 92,31 %
11.04.2018 03:06 9,9 C 9,4 C 81 % 1003,9 hPa 0,0 l/m 7,3 km/h (2 Bft) SW 218 0 min 0,000 mm 0,0 UV-I 0 W/m 6,8 C 9,2 C 11,3 km/h (2 Bft) 96,30 %
11.04.2018 03:07 10,0 C 9,4 C 81 % 1003,8 hPa 0,0 l/m 8,8 km/h (2 Bft) SW 214 0 min 0,000 mm 0,0 UV-I 0 W/m 6,9 C 8,3 C 11,3 km/h (2 Bft) 100,00 %
11.04.2018 03:09 10,1 C 9,4 C 81 % 1003,8 hPa 0,0 l/m 8,5 km/h (2 Bft) SW 226 0 min 0,000 mm 0,0 UV-I 0 W/m 7,0 C 8,6 C 14,5 km/h (3 Bft) 98,21 %
11.04.2018 03:10 10,1 C 9,4 C 81 % 1003,8 hPa 0,0 l/m 9,2 km/h (2 Bft) SW 219 0 min 0,000 mm 0,0 UV-I 0 W/m 7,0 C 8,2 C 12,9 km/h (3 Bft) 92,59 %
11.04.2018 03:11 10,1 C 9,4 C 81 % 1003,8 hPa 0,0 l/m 10,3 km/h (2 Bft) SW 233 0 min 0,000 mm 0,0 UV-I 0 W/m 7,0 C 7,5 C 17,7 km/h (3 Bft) 95,65 %
11.04.2018 03:12 10,2 C 9,4 C 81 % 1003,8 hPa 0,0 l/m 9,0 km/h (2 Bft) SW 219 0 min 0,000 mm 0,0 UV-I 0 W/m 7,1 C 8,4 C 12,9 km/h (3 Bft) 86,67 %
11.04.2018 03:13 10,3 C 9,4 C 81 % 1003,8 hPa 0,0 l/m 9,7 km/h (2 Bft) SW 218 0 min 0,000 mm 0,0 UV-I 0 W/m 7,2 C 8,1 C 14,5 km/h (3 Bft) 95,65 %
11.04.2018 03:14 10,3 C 9,4 C 80 % 1003,8 hPa 0,0 l/m 8,3 km/h (2 Bft) W-SW 245 0 min 0,000 mm 0,0 UV-I 0 W/m 7,0 C 9,0 C 14,5 km/h (3 Bft) 95,83 %
11.04.2018 03:15 10,4 C 9,4 C 80 % 1003,8 hPa 0,0 l/m 10,7 km/h (2 Bft) W-SW 246 0 min 0,000 mm 0,0 UV-I 0 W/m 7,1 C 7,6 C 16,1 km/h (3 Bft) 95,65 %
11.04.2018 03:16 10,4 C 9,4 C 80 % 1003,8 hPa 0,0 l/m 13,1 km/h (3 Bft) W-SW 244 0 min 0,000 mm 0,0 UV-I 0 W/m 7,1 C 6,4 C 17,7 km/h (3 Bft) 96,30 %
11.04.2018 03:17 10,4 C 9,4 C 80 % 1003,8 hPa 0,0 l/m 15,2 km/h (3 Bft) SW 232 0 min 0,000 mm 0,0 UV-I 0 W/m 7,1 C 5,5 C 20,9 km/h (4 Bft) 96,15 %
11.04.2018 03:18 10,4 C 9,4 C 80 % 1003,9 hPa 0,0 l/m 14,9 km/h (3 Bft) W-SW 244 0 min 0,000 mm 0,0 UV-I 0 W/m 7,1 C 5,7 C 17,7 km/h (3 Bft) 96,30 %
11.04.2018 03:19 10,4 C 9,4 C 80 % 1003,8 hPa 0,0 l/m 15,9 km/h (3 Bft) W-SW 258 0 min 0,000 mm 0,0 UV-I 0 W/m 7,1 C 5,3 C 22,5 km/h (4 Bft) 100,00 %
11.04.2018 03:20 10,4 C 9,4 C 80 % 1003,9 hPa 0,0 l/m 12,5 km/h (3 Bft) W-SW 245 0 min 0,000 mm 0,0 UV-I 0 W/m 7,1 C 6,7 C 16,1 km/h (3 Bft) 96,15 %
11.04.2018 03:21 10,4 C 9,4 C 80 % 1003,8 hPa 0,0 l/m 14,2 km/h (3 Bft) W 276 0 min 0,000 mm 0,0 UV-I 0 W/m 7,1 C 6,0 C 17,7 km/h (3 Bft) 88,89 %
11.04.2018 03:22 10,5 C 9,4 C 80 % 1003,8 hPa 0,0 l/m 13,1 km/h (3 Bft) W-SW 243 0 min 0,000 mm 0,0 UV-I 0 W/m 7,2 C 6,6 C 17,7 km/h (3 Bft) 88,46 %
11.04.2018 03:23 10,6 C 9,4 C 80 % 1003,8 hPa 0,0 l/m 15,0 km/h (3 Bft) W 261 0 min 0,000 mm 0,0 UV-I 0 W/m 7,3 C 5,9 C 19,3 km/h (3 Bft) 91,67 %
11.04.2018 03:24 10,6 C 9,4 C 79 % 1003,9 hPa 0,0 l/m 15,6 km/h (3 Bft) W-SW 255 0 min 0,000 mm 0,0 UV-I 0 W/m 7,1 C 5,6 C 19,3 km/h (3 Bft) 100,00 %
11.04.2018 03:25 10,6 C 10,0 C 79 % 1003,8 hPa 0,0 l/m 13,8 km/h (3 Bft) W-SW 250 0 min 0,000 mm 0,0 UV-I 0 W/m 7,1 C 6,4 C 19,3 km/h (3 Bft) 96,67 %
11.04.2018 03:26 10,7 C 9,4 C 79 % 1003,9 hPa 0,0 l/m 16,6 km/h (3 Bft) W-SW 255 0 min 0,000 mm 0,0 UV-I 0 W/m 7,2 C 5,4 C 25,7 km/h (4 Bft) 100,00 %
11.04.2018 03:27 10,7 C 9,4 C 79 % 1003,9 hPa 0,0 l/m 17,1 km/h (3 Bft) SW 225 0 min 0,000 mm 0,0 UV-I 0 W/m 7,2 C 5,2 C 25,7 km/h (4 Bft) 95,83 %
11.04.2018 03:28 10,7 C 9,4 C 79 % 1003,9 hPa 0,0 l/m 16,7 km/h (3 Bft) SW 225 0 min 0,000 mm 0,0 UV-I 0 W/m 7,2 C 5,3 C 20,9 km/h (4 Bft) 100,00 %
11.04.2018 03:29 10,7 C 9,4 C 79 % 1004,0 hPa 0,0 l/m 13,8 km/h (3 Bft) S-SW 210 0 min 0,000 mm 0,0 UV-I 0 W/m 7,2 C 6,5 C 20,9 km/h (4 Bft) 95,83 %
11.04.2018 03:30 10,8 C 9,4 C 79 % 1003,9 hPa 0,0 l/m 15,7 km/h (3 Bft) SW 236 0 min 0,000 mm 0,0 UV-I 0 W/m 7,3 C 5,8 C 20,9 km/h (4 Bft) 100,00 %
11.04.2018 03:31 10,8 C 9,4 C 79 % 1003,9 hPa 0,0 l/m 13,9 km/h (3 Bft) W 270 0 min 0,000 mm 0,0 UV-I 0 W/m 7,3 C 6,6 C 17,7 km/h (3 Bft) 96,00 %
11.04.2018 03:32 10,8 C 9,4 C 79 % 1004,0 hPa 0,0 l/m 15,9 km/h (3 Bft) SW 231 0 min 0,000 mm 0,0 UV-I 0 W/m 7,3 C 5,7 C 19,3 km/h (3 Bft) 100,00 %
11.04.2018 03:33 10,8 C 9,4 C 79 % 1003,9 hPa 0,0 l/m 11,2 km/h (2 Bft) SW 222 0 min 0,000 mm 0,0 UV-I 0 W/m 7,3 C 7,8 C 17,7 km/h (3 Bft) 97,37 %
11.04.2018 03:34 10,8 C 10,0 C 79 % 1004,0 hPa 0,0 l/m 16,2 km/h (3 Bft) W-SW 248 0 min 0,000 mm 0,0 UV-I 0 W/m 7,3 C 5,6 C 24,1 km/h (4 Bft) 91,67 %
11.04.2018 03:35 10,8 C 9,4 C 79 % 1004,0 hPa 0,0 l/m 13,2 km/h (3 Bft) W-SW 254 0 min 0,000 mm 0,0 UV-I 0 W/m 7,3 C 6,9 C 17,7 km/h (3 Bft) 100,00 %
11.04.2018 03:36 10,8 C 9,4 C 79 % 1004,0 hPa 0,0 l/m 10,3 km/h (2 Bft) SW 235 0 min 0,000 mm 0,0 UV-I 0 W/m 7,3 C 8,3 C 16,1 km/h (3 Bft) 96,55 %
11.04.2018 03:37 10,8 C 9,4 C 79 % 1004,0 hPa 0,0 l/m 14,6 km/h (3 Bft) SW 227 0 min 0,000 mm 0,0 UV-I 0 W/m 7,3 C 6,3 C 20,9 km/h (4 Bft) 100,00 %
11.04.2018 03:38 10,8 C 9,4 C 79 % 1004,1 hPa 0,0 l/m 13,1 km/h (3 Bft) W-SW 239 0 min 0,000 mm 0,0 UV-I 0 W/m 7,3 C 6,9 C 19,3 km/h (3 Bft) 91,67 %
11.04.2018 03:39 10,8 C 10,0 C 79 % 1004,1 hPa 0,0 l/m 10,7 km/h (2 Bft) W 259 0 min 0,000 mm 0,0 UV-I 0 W/m 7,3 C 8,1 C 14,5 km/h (3 Bft) 100,00 %
11.04.2018 03:40 10,8 C 9,4 C 79 % 1004,1 hPa 0,0 l/m 11,0 km/h (2 Bft) W-SW 240 0 min 0,000 mm 0,0 UV-I 0 W/m 7,3 C 7,9 C 16,1 km/h (3 Bft) 96,30 %
11.04.2018 03:41 10,8 C 9,4 C 79 % 1004,1 hPa 0,0 l/m 9,7 km/h (2 Bft) W 263 0 min 0,000 mm 0,0 UV-I 0 W/m 7,3 C 8,6 C 12,9 km/h (3 Bft) 95,83 %
11.04.2018 03:42 10,8 C 9,4 C 79 % 1004,1 hPa 0,0 l/m 11,1 km/h (2 Bft) W-SW 257 0 min 0,000 mm 0,0 UV-I 0 W/m 7,3 C 7,9 C 14,5 km/h (3 Bft) 100,00 %
11.04.2018 03:43 10,9 C 10,0 C 79 % 1004,1 hPa 0,0 l/m 9,7 km/h (2 Bft) W 275 0 min 0,000 mm 0,0 UV-I 0 W/m 7,4 C 8,8 C 16,1 km/h (3 Bft) 96,15 %
11.04.2018 03:44 10,9 C 10,0 C 79 % 1004,1 hPa 0,0 l/m 12,2 km/h (2 Bft) W-SW 253 0 min 0,000 mm 0,0 UV-I 0 W/m 7,4 C 7,5 C 17,7 km/h (3 Bft) 100,00 %
11.04.2018 03:45 10,9 C 9,4 C 79 % 1004,1 hPa 0,0 l/m 11,9 km/h (2 Bft) W 260 0 min 0,000 mm 0,0 UV-I 0 W/m 7,4 C 7,6 C 16,1 km/h (3 Bft) 96,15 %
11.04.2018 03:46 10,9 C 10,0 C 79 % 1004,1 hPa 0,0 l/m 12,6 km/h (3 Bft) W-SW 248 0 min 0,000 mm 0,0 UV-I 0 W/m 7,4 C 7,3 C 16,1 km/h (3 Bft) 100,00 %
11.04.2018 03:47 10,9 C 9,4 C 79 % 1004,1 hPa 0,0 l/m 11,6 km/h (2 Bft) W-SW 248 0 min 0,000 mm 0,0 UV-I 0 W/m 7,4 C 7,7 C 16,1 km/h (3 Bft) 96,15 %
11.04.2018 03:48 10,9 C 10,0 C 79 % 1004,1 hPa 0,0 l/m 9,5 km/h (2 Bft) W 259 0 min 0,000 mm 0,0 UV-I 0 W/m 7,4 C 8,9 C 12,9 km/h (3 Bft) 100,00 %
11.04.2018 03:49 10,9 C 9,4 C 79 % 1004,1 hPa 0,0 l/m 11,9 km/h (2 Bft) W-SW 246 0 min 0,000 mm 0,0 UV-I 0 W/m 7,4 C 7,6 C 16,1 km/h (3 Bft) 95,65 %
11.04.2018 03:50 11,0 C 9,4 C 79 % 1004,1 hPa 0,0 l/m 11,2 km/h (2 Bft) W 262 0 min 0,000 mm 0,0 UV-I 0 W/m 7,5 C 8,1 C 16,1 km/h (3 Bft) 100,00 %
11.04.2018 03:51 11,0 C 9,4 C 79 % 1004,1 hPa 0,0 l/m 12,2 km/h (2 Bft) W-SW 246 0 min 0,000 mm 0,0 UV-I 0 W/m 7,5 C 7,6 C 17,7 km/h (3 Bft) 96,15 %
11.04.2018 03:52 11,0 C 9,4 C 79 % 1004,1 hPa 0,0 l/m 10,0 km/h (2 Bft) W-SW 246 0 min 0,000 mm 0,0 UV-I 0 W/m 7,5 C 8,7 C 12,9 km/h (3 Bft) 100,00 %
11.04.2018 03:53 11,0 C 9,4 C 79 % 1004,1 hPa 0,0 l/m 10,7 km/h (2 Bft) W 267 0 min 0,000 mm 0,0 UV-I 0 W/m 7,5 C 8,3 C 14,5 km/h (3 Bft) 96,15 %
11.04.2018 03:54 11,0 C 9,4 C 79 % 1004,1 hPa 0,0 l/m 11,0 km/h (2 Bft) W 263 0 min 0,000 mm 0,0 UV-I 0 W/m 7,5 C 8,2 C 14,5 km/h (3 Bft) 96,67 %
11.04.2018 03:55 11,1 C 9,4 C 79 % 1004,1 hPa 0,0 l/m 12,0 km/h (2 Bft) W-SW 256 0 min 0,000 mm 0,0 UV-I 0 W/m 7,6 C 7,8 C 16,1 km/h (3 Bft) 100,00 %
11.04.2018 03:56 11,1 C 10,0 C 79 % 1004,1 hPa 0,0 l/m 11,5 km/h (2 Bft) W 269 0 min 0,000 mm 0,0 UV-I 0 W/m 7,6 C 8,0 C 14,5 km/h (3 Bft) 95,65 %
11.04.2018 03:57 11,1 C 10,0 C 79 % 1004,1 hPa 0,0 l/m 9,8 km/h (2 Bft) W 269 0 min 0,000 mm 0,0 UV-I 0 W/m 7,6 C 8,9 C 12,9 km/h (3 Bft) 100,00 %
11.04.2018 03:58 11,1 C 9,4 C 79 % 1004,1 hPa 0,0 l/m 8,7 km/h (2 Bft) W-SW 244 0 min 0,000 mm 0,0 UV-I 0 W/m 7,6 C 9,6 C 11,3 km/h (2 Bft) 100,00 %
11.04.2018 03:59 11,1 C 9,4 C 79 % 1004,2 hPa 0,0 l/m 10,5 km/h (2 Bft) W 260 0 min 0,000 mm 0,0 UV-I 0 W/m 7,6 C 8,5 C 14,5 km/h (3 Bft) 100,00 %
11.04.2018 04:00 11,1 C 9,4 C 79 % 1004,2 hPa 0,0 l/m 13,8 km/h (3 Bft) W 261 0 min 0,000 mm 0,0 UV-I 0 W/m 7,6 C 7,0 C 16,1 km/h (3 Bft) 94,12 %
11.04.2018 04:01 11,1 C 9,4 C 79 % 1004,2 hPa 0,0 l/m 15,0 km/h (3 Bft) W 267 0 min 0,025 mm 0,0 UV-I 0 W/m 7,6 C 6,5 C 19,3 km/h (3 Bft) 100,00 %
11.04.2018 04:02 11,1 C 10,0 C 79 % 1004,2 hPa 0,0 l/m 10,4 km/h (2 Bft) W-SW 244 0 min 0,000 mm 0,0 UV-I 0 W/m 7,6 C 8,6 C 12,9 km/h (3 Bft) 100,00 %
11.04.2018 04:03 11,1 C 10,0 C 79 % 1004,3 hPa 0,0 l/m 10,3 km/h (2 Bft) W 259 0 min 0,000 mm 0,0 UV-I 0 W/m 7,6 C 8,6 C 14,5 km/h (3 Bft) 100,00 %
11.04.2018 04:04 11,2 C 9,4 C 79 % 1004,2 hPa 0,0 l/m 12,5 km/h (3 Bft) W 267 0 min 0,000 mm 0,0 UV-I 0 W/m 7,7 C 7,7 C 16,1 km/h (3 Bft) 100,00 %
11.04.2018 04:05 11,2 C 9,4 C 79 % 1004,2 hPa 0,0 l/m 11,4 km/h (2 Bft) W 269 0 min 0,000 mm 0,0 UV-I 0 W/m 7,7 C 8,2 C 16,1 km/h (3 Bft) 100,00 %
11.04.2018 04:06 11,2 C 10,0 C 79 % 1004,3 hPa 0,0 l/m 15,3 km/h (3 Bft) W 261 0 min 0,000 mm 0,0 UV-I 0 W/m 7,7 C 6,5 C 19,3 km/h (3 Bft) 100,00 %
11.04.2018 04:07 11,2 C 9,4 C 79 % 1004,3 hPa 0,0 l/m 10,1 km/h (2 Bft) W 263 0 min 0,000 mm 0,0 UV-I 0 W/m 7,7 C 8,9 C 12,9 km/h (3 Bft) 100,00 %
11.04.2018 04:08 11,2 C 10,0 C 79 % 1004,3 hPa 0,0 l/m 11,9 km/h (2 Bft) W 263 0 min 0,000 mm 0,0 UV-I 0 W/m 7,7 C 7,9 C 17,7 km/h (3 Bft) 91,67 %
11.04.2018 04:09 11,2 C 9,4 C 79 % 1004,3 hPa 0,0 l/m 12,5 km/h (3 Bft) W 261 0 min 0,000 mm 0,0 UV-I 0 W/m 7,7 C 7,7 C 16,1 km/h (3 Bft) 100,00 %
11.04.2018 04:10 11,2 C 10,0 C 79 % 1004,3 hPa 0,0 l/m 10,1 km/h (2 Bft) W-SW 256 0 min 0,000 mm 0,0 UV-I 0 W/m 7,7 C 8,9 C 14,5 km/h (3 Bft) 95,65 %
11.04.2018 04:11 11,2 C 9,4 C 79 % 1004,3 hPa 0,0 l/m 13,4 km/h (3 Bft) W-NW 282 0 min 0,000 mm 0,0 UV-I 0 W/m 7,7 C 7,3 C 17,7 km/h (3 Bft) 95,83 %
11.04.2018 04:12 11,2 C 10,0 C 79 % 1004,3 hPa 0,0 l/m 11,0 km/h (2 Bft) W 273 0 min 0,000 mm 0,0 UV-I 0 W/m 7,7 C 8,4 C 17,7 km/h (3 Bft) 100,00 %
11.04.2018 04:13 11,2 C 9,4 C 79 % 1004,2 hPa 0,0 l/m 9,9 km/h (2 Bft) W 275 0 min 0,000 mm 0,0 UV-I 0 W/m 7,7 C 9,0 C 16,1 km/h (3 Bft) 96,30 %
11.04.2018 04:14 11,2 C 9,4 C 79 % 1004,2 hPa 0,0 l/m 9,2 km/h (2 Bft) W 271 0 min 0,000 mm 0,0 UV-I 0 W/m 7,7 C 9,4 C 14,5 km/h (3 Bft) 100,00 %
11.04.2018 04:15 11,1 C 10,0 C 79 % 1004,2 hPa 0,0 l/m 14,8 km/h (3 Bft) W 269 0 min 0,000 mm 0,0 UV-I 0 W/m 7,6 C 6,5 C 17,7 km/h (3 Bft) 100,00 %
11.04.2018 04:16 11,1 C 9,4 C 79 % 1004,2 hPa 0,0 l/m 10,7 km/h (2 Bft) W 263 0 min 0,000 mm 0,0 UV-I 0 W/m 7,6 C 8,4 C 14,5 km/h (3 Bft) 100,00 %
11.04.2018 04:17 11,1 C 10,0 C 79 % 1004,3 hPa 0,0 l/m 12,6 km/h (3 Bft) W 275 0 min 0,000 mm 0,0 UV-I 0 W/m 7,6 C 7,5 C 16,1 km/h (3 Bft) 100,00 %
11.04.2018 04:18 11,1 C 9,4 C 79 % 1004,3 hPa 0,0 l/m 9,8 km/h (2 Bft) W 276 0 min 0,000 mm 0,0 UV-I 0 W/m 7,6 C 8,9 C 11,3 km/h (2 Bft) 100,00 %
11.04.2018 04:19 11,1 C 10,0 C 79 % 1004,3 hPa 0,0 l/m 10,6 km/h (2 Bft) W 269 0 min 0,000 mm 0,0 UV-I 0 W/m 7,6 C 8,5 C 12,9 km/h (3 Bft) 100,00 %
11.04.2018 04:20 11,1 C 10,0 C 79 % 1004,3 hPa 0,0 l/m 13,3 km/h (3 Bft) W 266 0 min 0,000 mm 0,0 UV-I 0 W/m 7,6 C 7,2 C 16,1 km/h (3 Bft) 100,00 %
11.04.2018 04:21 11,1 C 10,0 C 79 % 1004,2 hPa 0,0 l/m 11,5 km/h (2 Bft) W 269 0 min 0,000 mm 0,0 UV-I 0 W/m 7,6 C 8,0 C 14,5 km/h (3 Bft) 100,00 %
11.04.2018 04:22 11,1 C 10,0 C 79 % 1004,3 hPa 0,0 l/m 9,5 km/h (2 Bft) W 261 0 min 0,000 mm 0,0 UV-I 0 W/m 7,6 C 9,1 C 12,9 km/h (3 Bft) 96,30 %
11.04.2018 04:23 11,1 C 9,4 C 79 % 1004,2 hPa 0,0 l/m 10,9 km/h (2 Bft) W-SW 240 0 min 0,000 mm 0,0 UV-I 0 W/m 7,6 C 8,3 C 16,1 km/h (3 Bft) 100,00 %
11.04.2018 04:24 11,1 C 10,0 C 79 % 1004,2 hPa 0,0 l/m 8,3 km/h (2 Bft) W 261 0 min 0,000 mm 0,0 UV-I 0 W/m 7,6 C 9,8 C 11,3 km/h (2 Bft) 100,00 %
11.04.2018 04:25 11,1 C 10,0 C 79 % 1004,3 hPa 0,0 l/m 8,0 km/h (2 Bft) W-SW 241 0 min 0,000 mm 0,0 UV-I 0 W/m 7,6 C 10,0 C 14,5 km/h (3 Bft) 100,00 %
11.04.2018 04:26 11,1 C 9,4 C 79 % 1004,3 hPa 0,0 l/m 13,2 km/h (3 Bft) W 275 0 min 0,000 mm 0,0 UV-I 0 W/m 7,6 C 7,2 C 17,7 km/h (3 Bft) 96,30 %
11.04.2018 04:27 11,1 C 10,0 C 79 % 1004,3 hPa 0,0 l/m 14,1 km/h (3 Bft) W 265 0 min 0,000 mm 0,0 UV-I 0 W/m 7,6 C 6,8 C 17,7 km/h (3 Bft) 100,00 %
11.04.2018 04:28 11,2 C 9,4 C 79 % 1004,3 hPa 0,0 l/m 12,5 km/h (3 Bft) W-NW 288 0 min 0,000 mm 0,0 UV-I 0 W/m 7,7 C 7,7 C 20,9 km/h (4 Bft) 100,00 %
11.04.2018 04:29 11,2 C 10,0 C 79 % 1004,3 hPa 0,0 l/m 12,7 km/h (3 Bft) W 273 0 min 0,000 mm 0,0 UV-I 0 W/m 7,7 C 7,6 C 17,7 km/h (3 Bft) 100,00 %
11.04.2018 04:30 11,2 C 10,0 C 79 % 1004,3 hPa 0,0 l/m 10,8 km/h (2 Bft) W 275 0 min 0,000 mm 0,0 UV-I 0 W/m 7,7 C 8,5 C 14,5 km/h (3 Bft) 100,00 %
11.04.2018 04:31 11,2 C 9,4 C 79 % 1004,3 hPa 0,0 l/m 12,4 km/h (3 Bft) W 280 0 min 0,000 mm 0,0 UV-I 0 W/m 7,7 C 7,7 C 16,1 km/h (3 Bft) 100,00 %
11.04.2018 04:32 11,2 C 10,0 C 79 % 1004,3 hPa 0,0 l/m 15,3 km/h (3 Bft) W-SW 258 0 min 0,000 mm 0,0 UV-I 0 W/m 7,7 C 6,5 C 24,1 km/h (4 Bft) 100,00 %
11.04.2018 04:33 11,2 C 9,4 C 79 % 1004,3 hPa 0,0 l/m 13,2 km/h (3 Bft) W 271 0 min 0,000 mm 0,0 UV-I 0 W/m 7,7 C 7,3 C 17,7 km/h (3 Bft) 100,00 %
11.04.2018 04:34 11,2 C 10,0 C 78 % 1004,3 hPa 0,0 l/m 10,4 km/h (2 Bft) W 262 0 min 0,000 mm 0,0 UV-I 0 W/m 7,5 C 8,7 C 16,1 km/h (3 Bft) 95,83 %
11.04.2018 04:35 11,2 C 10,0 C 78 % 1004,3 hPa 0,0 l/m 9,3 km/h (2 Bft) W 273 0 min 0,000 mm 0,0 UV-I 0 W/m 7,5 C 9,3 C 12,9 km/h (3 Bft) 100,00 %
11.04.2018 04:36 11,2 C 9,4 C 79 % 1004,3 hPa 0,0 l/m 10,3 km/h (2 Bft) W 273 0 min 0,000 mm 0,0 UV-I 0 W/m 7,7 C 8,8 C 17,7 km/h (3 Bft) 96,15 %
11.04.2018 04:37 11,1 C 10,0 C 79 % 1004,3 hPa 0,0 l/m 12,7 km/h (3 Bft) W 266 0 min 0,000 mm 0,0 UV-I 0 W/m 7,6 C 7,5 C 16,1 km/h (3 Bft) 96,30 %
11.04.2018 04:38 11,1 C 9,4 C 79 % 1004,3 hPa 0,0 l/m 8,7 km/h (2 Bft) W-NW 286 0 min 0,000 mm 0,0 UV-I 0 W/m 7,6 C 9,6 C 12,9 km/h (3 Bft) 100,00 %
11.04.2018 04:39 11,1 C 10,0 C 79 % 1004,3 hPa 0,0 l/m 8,7 km/h (2 Bft) W-NW 295 0 min 0,000 mm 0,0 UV-I 0 W/m 7,6 C 9,6 C 12,9 km/h (3 Bft) 100,00 %
11.04.2018 04:40 11,0 C 9,4 C 79 % 1004,4 hPa 0,0 l/m 8,3 km/h (2 Bft) W-NW 288 0 min 0,000 mm 0,0 UV-I 0 W/m 7,5 C 9,7 C 11,3 km/h (2 Bft) 96,43 %
11.04.2018 04:41 10,9 C 9,4 C 79 % 1004,4 hPa 0,0 l/m 10,9 km/h (2 Bft) W-NW 282 0 min 0,000 mm 0,0 UV-I 0 W/m 7,4 C 8,1 C 17,7 km/h (3 Bft) 91,67 %
11.04.2018 04:42 10,9 C 10,0 C 79 % 1004,4 hPa 0,0 l/m 10,0 km/h (2 Bft) W 279 0 min 0,000 mm 0,0 UV-I 0 W/m 7,4 C 8,6 C 14,5 km/h (3 Bft) 100,00 %
11.04.2018 04:43 10,9 C 9,4 C 79 % 1004,4 hPa 0,0 l/m 10,6 km/h (2 Bft) W 268 0 min 0,000 mm 0,0 UV-I 0 W/m 7,4 C 8,3 C 12,9 km/h (3 Bft) 95,83 %
11.04.2018 04:44 10,9 C 10,0 C 79 % 1004,4 hPa 0,0 l/m 10,4 km/h (2 Bft) W 276 0 min 0,000 mm 0,0 UV-I 0 W/m 7,4 C 8,4 C 16,1 km/h (3 Bft) 96,15 %
11.04.2018 04:45 10,9 C 9,4 C 79 % 1004,4 hPa 0,0 l/m 8,9 km/h (2 Bft) W 273 0 min 0,000 mm 0,0 UV-I 0 W/m 7,4 C 9,2 C 11,3 km/h (2 Bft) 100,00 %
11.04.2018 04:46 10,8 C 10,0 C 79 % 1004,4 hPa 0,0 l/m 9,9 km/h (2 Bft) W 259 0 min 0,000 mm 0,0 UV-I 0 W/m 7,3 C 8,5 C 12,9 km/h (3 Bft) 94,12 %
11.04.2018 04:47 10,8 C 9,4 C 79 % 1004,4 hPa 0,0 l/m 11,8 km/h (2 Bft) W 277 0 min 0,000 mm 0,0 UV-I 0 W/m 7,3 C 7,5 C 19,3 km/h (3 Bft) 100,00 %
11.04.2018 04:48 10,8 C 10,0 C 80 % 1004,5 hPa 0,0 l/m 14,8 km/h (3 Bft) W 265 0 min 0,000 mm 0,0 UV-I 0 W/m 7,5 C 6,2 C 19,3 km/h (3 Bft) 95,65 %
11.04.2018 04:49 10,9 C 10,0 C 79 % 1004,5 hPa 0,0 l/m 11,7 km/h (2 Bft) W 266 0 min 0,000 mm 0,0 UV-I 0 W/m 7,4 C 7,7 C 14,5 km/h (3 Bft) 100,00 %
11.04.2018 04:50 10,9 C 10,0 C 79 % 1004,5 hPa 0,0 l/m 7,6 km/h (2 Bft) W 269 0 min 0,000 mm 0,0 UV-I 0 W/m 7,4 C 10,1 C 14,5 km/h (3 Bft) 95,65 %
11.04.2018 04:51 10,8 C 10,0 C 79 % 1004,5 hPa 0,0 l/m 9,2 km/h (2 Bft) W-SW 244 0 min 0,000 mm 0,0 UV-I 0 W/m 7,3 C 8,9 C 16,1 km/h (3 Bft) 100,00 %
11.04.2018 04:52 10,8 C 9,4 C 79 % 1004,5 hPa 0,0 l/m 9,6 km/h (2 Bft) W-NW 290 0 min 0,000 mm 0,0 UV-I 0 W/m 7,3 C 8,7 C 14,5 km/h (3 Bft) 98,56 %
11.04.2018 04:53 10,8 C 10,0 C 79 % 1004,5 hPa 0,0 l/m 7,5 km/h (2 Bft) W 261 0 min 0,000 mm 0,0 UV-I 0 W/m 7,3 C 10,0 C 11,3 km/h (2 Bft) 95,12 %
11.04.2018 04:54 10,8 C 10,0 C 79 % 1004,5 hPa 0,0 l/m 7,6 km/h (2 Bft) W 267 0 min 0,000 mm 0,0 UV-I 0 W/m 7,3 C 10,0 C 11,3 km/h (2 Bft) 95,83 %
11.04.2018 04:55 10,7 C 10,0 C 80 % 1004,5 hPa 0,0 l/m 8,4 km/h (2 Bft) W 267 0 min 0,000 mm 0,0 UV-I 0 W/m 7,4 C 9,3 C 11,3 km/h (2 Bft) 96,15 %
11.04.2018 04:56 10,7 C 10,0 C 80 % 1004,5 hPa 0,0 l/m 6,7 km/h (2 Bft) W 259 0 min 0,000 mm 0,0 UV-I 0 W/m 7,4 C 10,5 C 11,3 km/h (2 Bft) 100,00 %
11.04.2018 04:57 10,6 C 10,0 C 80 % 1004,5 hPa 0,0 l/m 6,8 km/h (2 Bft) W 269 0 min 0,000 mm 0,0 UV-I 0 W/m 7,3 C 10,3 C 11,3 km/h (2 Bft) 95,83 %
11.04.2018 04:58 10,6 C 10,0 C 80 % 1004,5 hPa 0,0 l/m 10,5 km/h (2 Bft) W 259 0 min 0,000 mm 0,0 UV-I 0 W/m 7,3 C 8,0 C 16,1 km/h (3 Bft) 100,00 %
11.04.2018 04:59 10,6 C 10,0 C 80 % 1004,5 hPa 0,0 l/m 9,4 km/h (2 Bft) W 267 0 min 0,000 mm 0,0 UV-I 0 W/m 7,3 C 8,6 C 12,9 km/h (3 Bft) 93,33 %
11.04.2018 05:00 10,6 C 10,0 C 80 % 1004,5 hPa 0,0 l/m 9,5 km/h (2 Bft) W 265 0 min 0,026 mm 0,0 UV-I 0 W/m 7,3 C 8,5 C 12,9 km/h (3 Bft) 100,00 %
11.04.2018 05:01 10,6 C 10,0 C 80 % 1004,5 hPa 0,0 l/m 8,0 km/h (2 Bft) W-SW 238 0 min 0,000 mm 0,0 UV-I 0 W/m 7,3 C 9,5 C 11,3 km/h (2 Bft) 95,65 %
11.04.2018 05:02 10,6 C 10,0 C 80 % 1004,5 hPa 0,0 l/m 8,3 km/h (2 Bft) W 261 0 min 0,000 mm 0,0 UV-I 0 W/m 7,3 C 9,3 C 11,3 km/h (2 Bft) 96,30 %
11.04.2018 05:03 10,5 C 10,0 C 80 % 1004,4 hPa 0,0 l/m 8,9 km/h (2 Bft) W 261 0 min 0,000 mm 0,0 UV-I 0 W/m 7,2 C 8,8 C 12,9 km/h (3 Bft) 100,00 %
11.04.2018 05:04 10,4 C 10,0 C 80 % 1004,5 hPa 0,0 l/m 10,7 km/h (2 Bft) W-SW 254 0 min 0,000 mm 0,0 UV-I 0 W/m 7,1 C 7,6 C 12,9 km/h (3 Bft) 96,30 %
11.04.2018 05:05 10,4 C 10,0 C 80 % 1004,5 hPa 0,0 l/m 10,1 km/h (2 Bft) W 264 0 min 0,000 mm 0,0 UV-I 0 W/m 7,1 C 8,0 C 11,3 km/h (2 Bft) 100,00 %
11.04.2018 05:06 10,4 C 10,0 C 81 % 1004,5 hPa 0,0 l/m 8,0 km/h (2 Bft) W-SW 250 0 min 0,000 mm 0,0 UV-I 0 W/m 7,3 C 9,3 C 9,7 km/h (2 Bft) 96,30 %
11.04.2018 05:07 10,3 C 10,0 C 81 % 1004,5 hPa 0,0 l/m 9,5 km/h (2 Bft) W 271 0 min 0,000 mm 0,0 UV-I 0 W/m 7,2 C 8,2 C 11,3 km/h (2 Bft) 100,00 %
11.04.2018 05:08 10,3 C 10,0 C 81 % 1004,5 hPa 0,0 l/m 9,7 km/h (2 Bft) W 264 0 min 0,000 mm 0,0 UV-I 0 W/m 7,2 C 8,1 C 12,9 km/h (3 Bft) 96,30 %
11.04.2018 05:09 10,2 C 10,0 C 81 % 1004,5 hPa 0,0 l/m 6,4 km/h (2 Bft) W-SW 253 0 min 0,000 mm 0,0 UV-I 0 W/m 7,1 C 10,2 C 8,0 km/h (2 Bft) 100,00 %
11.04.2018 05:10 10,2 C 10,0 C 81 % 1004,5 hPa 0,0 l/m 7,9 km/h (2 Bft) W 267 0 min 0,000 mm 0,0 UV-I 0 W/m 7,1 C 9,1 C 11,3 km/h (2 Bft) 100,00 %
11.04.2018 05:11 10,1 C 10,0 C 82 % 1004,5 hPa 0,0 l/m 8,7 km/h (2 Bft) SW 236 0 min 0,000 mm 0,0 UV-I 0 W/m 7,2 C 8,5 C 11,3 km/h (2 Bft) 100,00 %
11.04.2018 05:12 10,1 C 10,0 C 82 % 1004,5 hPa 0,0 l/m 7,1 km/h (2 Bft) W-SW 257 0 min 0,000 mm 0,0 UV-I 0 W/m 7,2 C 9,6 C 11,3 km/h (2 Bft) 100,00 %
11.04.2018 05:13 10,1 C 10,0 C 82 % 1004,5 hPa 0,0 l/m 7,4 km/h (2 Bft) W-SW 252 0 min 0,000 mm 0,0 UV-I 0 W/m 7,2 C 9,4 C 9,7 km/h (2 Bft) 96,55 %
11.04.2018 05:14 10,0 C 10,0 C 82 % 1004,5 hPa 0,0 l/m 5,9 km/h (2 Bft) W-SW 258 0 min 0,000 mm 0,0 UV-I 0 W/m 7,1 C 10,0 C 9,7 km/h (2 Bft) 100,00 %
11.04.2018 05:15 10,0 C 10,0 C 82 % 1004,5 hPa 0,0 l/m 7,9 km/h (2 Bft) W-SW 257 0 min 0,000 mm 0,0 UV-I 0 W/m 7,1 C 8,9 C 11,3 km/h (2 Bft) 95,65 %
11.04.2018 05:16 9,9 C 10,0 C 82 % 1004,5 hPa 0,0 l/m 8,4 km/h (2 Bft) W 265 0 min 0,000 mm 0,0 UV-I 0 W/m 7,0 C 8,5 C 11,3 km/h (2 Bft) 100,00 %
11.04.2018 05:17 9,9 C 10,0 C 82 % 1004,5 hPa 0,0 l/m 8,4 km/h (2 Bft) W 264 0 min 0,000 mm 0,0 UV-I 0 W/m 7,0 C 8,5 C 11,3 km/h (2 Bft) 100,00 %
11.04.2018 05:18 9,9 C 9,4 C 82 % 1004,5 hPa 0,0 l/m 8,7 km/h (2 Bft) W 260 0 min 0,000 mm 0,0 UV-I 0 W/m 7,0 C 8,3 C 11,3 km/h (2 Bft) 100,00 %
11.04.2018 05:19 9,9 C 10,0 C 82 % 1004,5 hPa 0,0 l/m 10,6 km/h (2 Bft) W 269 0 min 0,000 mm 0,0 UV-I 0 W/m 7,0 C 7,1 C 12,9 km/h (3 Bft) 100,00 %
11.04.2018 05:20 9,9 C 10,0 C 82 % 1004,6 hPa 0,0 l/m 11,3 km/h (2 Bft) W 269 0 min 0,000 mm 0,0 UV-I 0 W/m 7,0 C 6,8 C 14,5 km/h (3 Bft) 100,00 %
11.04.2018 05:21 9,9 C 10,0 C 82 % 1004,6 hPa 0,0 l/m 11,7 km/h (2 Bft) W 276 0 min 0,000 mm 0,0 UV-I 0 W/m 7,0 C 6,6 C 16,1 km/h (3 Bft) 100,00 %
11.04.2018 05:22 9,9 C 10,0 C 82 % 1004,6 hPa 0,0 l/m 10,2 km/h (2 Bft) W-SW 257 0 min 0,000 mm 0,0 UV-I 0 W/m 7,0 C 7,4 C 12,9 km/h (3 Bft) 100,00 %
11.04.2018 05:23 9,9 C 10,0 C 82 % 1004,6 hPa 0,0 l/m 11,2 km/h (2 Bft) W-SW 245 0 min 0,000 mm 0,0 UV-I 0 W/m 7,0 C 6,8 C 14,5 km/h (3 Bft) 100,00 %
11.04.2018 05:24 9,9 C 10,0 C 82 % 1004,6 hPa 0,0 l/m 9,5 km/h (2 Bft) W-SW 257 0 min 0,000 mm 0,0 UV-I 0 W/m 7,0 C 7,8 C 12,9 km/h (3 Bft) 100,00 %
11.04.2018 05:25 9,9 C 10,0 C 82 % 1004,6 hPa 0,0 l/m 8,9 km/h (2 Bft) W 271 0 min 0,000 mm 0,0 UV-I 0 W/m 7,0 C 8,2 C 12,9 km/h (3 Bft) 100,00 %
11.04.2018 05:26 9,9 C 10,0 C 82 % 1004,7 hPa 0,0 l/m 10,6 km/h (2 Bft) W 273 0 min 0,000 mm 0,0 UV-I 0 W/m 7,0 C 7,1 C 16,1 km/h (3 Bft) 100,00 %
11.04.2018 05:27 9,9 C 10,0 C 82 % 1004,7 hPa 0,0 l/m 11,8 km/h (2 Bft) W 262 0 min 0,000 mm 0,0 UV-I 0 W/m 7,0 C 6,5 C 14,5 km/h (3 Bft) 100,00 %
11.04.2018 05:28 9,9 C 10,0 C 82 % 1004,7 hPa 0,0 l/m 11,8 km/h (2 Bft) W 277 0 min 0,000 mm 0,0 UV-I 0 W/m 7,0 C 6,5 C 14,5 km/h (3 Bft) 96,15 %
11.04.2018 05:29 9,9 C 10,0 C 83 % 1004,7 hPa 0,0 l/m 13,6 km/h (3 Bft) W-SW 248 0 min 0,000 mm 0,0 UV-I 0 W/m 7,2 C 5,6 C 17,7 km/h (3 Bft) 100,00 %
11.04.2018 05:30 9,9 C 10,0 C 83 % 1004,7 hPa 0,0 l/m 13,8 km/h (3 Bft) W 266 0 min 0,000 mm 0,0 UV-I 0 W/m 7,2 C 5,5 C 17,7 km/h (3 Bft) 100,00 %
11.04.2018 05:31 9,9 C 10,0 C 83 % 1004,6 hPa 0,0 l/m 11,5 km/h (2 Bft) W 265 0 min 0,000 mm 0,0 UV-I 0 W/m 7,2 C 6,7 C 14,5 km/h (3 Bft) 98,51 %
11.04.2018 05:32 9,9 C 10,0 C 83 % 1004,6 hPa 0,0 l/m 10,7 km/h (2 Bft) W 271 0 min 0,000 mm 0,0 UV-I 0 W/m 7,2 C 7,1 C 12,9 km/h (3 Bft) 100,00 %
11.04.2018 05:33 9,9 C 10,0 C 83 % 1004,6 hPa 0,0 l/m 12,9 km/h (3 Bft) W 266 0 min 0,000 mm 0,0 UV-I 0 W/m 7,2 C 6,0 C 16,1 km/h (3 Bft) 100,00 %
11.04.2018 05:34 9,9 C 10,0 C 83 % 1004,6 hPa 0,0 l/m 14,4 km/h (3 Bft) W 259 0 min 0,000 mm 0,0 UV-I 0 W/m 7,2 C 5,3 C 17,7 km/h (3 Bft) 100,00 %
11.04.2018 05:35 9,9 C 10,0 C 83 % 1004,6 hPa 0,0 l/m 12,5 km/h (3 Bft) W 274 0 min 0,000 mm 0,0 UV-I 0 W/m 7,2 C 6,1 C 14,5 km/h (3 Bft) 95,83 %
11.04.2018 05:36 9,9 C 10,0 C 83 % 1004,6 hPa 0,0 l/m 10,8 km/h (2 Bft) W 260 0 min 0,000 mm 0,0 UV-I 0 W/m 7,2 C 7,0 C 14,5 km/h (3 Bft) 100,00 %
11.04.2018 05:37 9,9 C 10,0 C 83 % 1004,7 hPa 0,0 l/m 11,4 km/h (2 Bft) W 264 0 min 0,000 mm 0,0 UV-I 0 W/m 7,2 C 6,7 C 14,5 km/h (3 Bft) 100,00 %
11.04.2018 05:38 9,8 C 10,0 C 83 % 1004,7 hPa 0,0 l/m 11,2 km/h (2 Bft) W 262 0 min 0,000 mm 0,0 UV-I 0 W/m 7,1 C 6,7 C 14,5 km/h (3 Bft) 96,30 %
11.04.2018 05:39 9,8 C 10,0 C 83 % 1004,7 hPa 0,0 l/m 11,7 km/h (2 Bft) W 267 0 min 0,000 mm 0,0 UV-I 0 W/m 7,1 C 6,4 C 14,5 km/h (3 Bft) 100,00 %
11.04.2018 05:40 9,8 C 10,0 C 83 % 1004,8 hPa 0,0 l/m 13,4 km/h (3 Bft) W-SW 256 0 min 0,000 mm 0,0 UV-I 0 W/m 7,1 C 5,6 C 16,1 km/h (3 Bft) 100,00 %
11.04.2018 05:41 9,8 C 10,0 C 83 % 1004,7 hPa 0,0 l/m 9,8 km/h (2 Bft) W 271 0 min 0,000 mm 0,0 UV-I 0 W/m 7,1 C 7,5 C 12,9 km/h (3 Bft) 100,00 %
11.04.2018 05:42 9,8 C 10,0 C 83 % 1004,8 hPa 0,0 l/m 7,7 km/h (2 Bft) W 259 0 min 0,000 mm 0,0 UV-I 0 W/m 7,1 C 8,9 C 11,3 km/h (2 Bft) 100,00 %
11.04.2018 05:43 9,8 C 10,0 C 83 % 1004,8 hPa 0,0 l/m 6,2 km/h (2 Bft) W-SW 258 0 min 0,000 mm 0,0 UV-I 0 W/m 7,1 C 9,8 C 6,4 km/h (2 Bft) 100,00 %
11.04.2018 05:44 9,8 C 10,0 C 83 % 1004,8 hPa 0,0 l/m 5,4 km/h (1 Bft) W-SW 251 0 min 0,000 mm 0,0 UV-I 0 W/m 7,1 C 9,8 C 8,0 km/h (2 Bft) 100,00 %
11.04.2018 05:45 9,7 C 10,0 C 83 % 1004,8 hPa 0,0 l/m 6,8 km/h (2 Bft) SW 230 0 min 0,000 mm 0,0 UV-I 0 W/m 7,0 C 9,4 C 11,3 km/h (2 Bft) 100,00 %
11.04.2018 05:46 9,7 C 10,0 C 83 % 1005,0 hPa 0,0 l/m 7,4 km/h (2 Bft) W-SW 238 0 min 0,000 mm 0,0 UV-I 0 W/m 7,0 C 9,0 C 8,0 km/h (2 Bft) 100,00 %
11.04.2018 05:47 9,7 C 10,0 C 83 % 1005,0 hPa 0,0 l/m 6,0 km/h (2 Bft) SW 235 0 min 0,000 mm 0,0 UV-I 0 W/m 7,0 C 9,7 C 8,0 km/h (2 Bft) 100,00 %
11.04.2018 05:48 9,7 C 10,0 C 83 % 1005,0 hPa 0,0 l/m 5,5 km/h (1 Bft) W-SW 247 0 min 0,000 mm 0,0 UV-I 0 W/m 7,0 C 9,7 C 8,0 km/h (2 Bft) 100,00 %
11.04.2018 05:49 9,6 C 10,0 C 83 % 1005,0 hPa 0,0 l/m 5,7 km/h (1 Bft) W-SW 242 0 min 0,000 mm 0,0 UV-I 0 W/m 6,9 C 9,6 C 8,0 km/h (2 Bft) 100,00 %
11.04.2018 05:50 9,6 C 10,0 C 83 % 1005,0 hPa 0,0 l/m 5,8 km/h (2 Bft) SW 215 0 min 0,000 mm 0,0 UV-I 0 W/m 6,9 C 9,6 C 9,7 km/h (2 Bft) 100,00 %
11.04.2018 05:51 9,6 C 10,0 C 83 % 1005,1 hPa 0,0 l/m 6,0 km/h (2 Bft) W-SW 247 0 min 0,000 mm 0,0 UV-I 0 W/m 6,9 C 9,6 C 11,3 km/h (2 Bft) 100,00 %
11.04.2018 05:52 9,5 C 10,0 C 84 % 1005,1 hPa 0,0 l/m 6,5 km/h (2 Bft) W-SW 250 0 min 0,000 mm 0,0 UV-I 0 W/m 6,9 C 9,5 C 9,7 km/h (2 Bft) 100,00 %
11.04.2018 05:53 9,6 C 10,0 C 84 % 1005,0 hPa 0,0 l/m 6,1 km/h (2 Bft) W-SW 237 0 min 0,000 mm 0,0 UV-I 0 W/m 7,0 C 9,6 C 8,0 km/h (2 Bft) 100,00 %
11.04.2018 05:54 9,6 C 10,0 C 84 % 1005,1 hPa 0,0 l/m 7,4 km/h (2 Bft) W-SW 244 0 min 0,000 mm 0,0 UV-I 0 W/m 7,0 C 8,9 C 11,3 km/h (2 Bft) 100,00 %
11.04.2018 05:55 9,6 C 10,0 C 84 % 1005,1 hPa 0,0 l/m 5,9 km/h (2 Bft) W-SW 242 0 min 0,000 mm 0,0 UV-I 0 W/m 7,0 C 9,6 C 8,0 km/h (2 Bft) 100,00 %
11.04.2018 05:56 9,6 C 10,0 C 84 % 1005,1 hPa 0,0 l/m 5,6 km/h (1 Bft) W-SW 251 0 min 0,000 mm 0,0 UV-I 0 W/m 7,0 C 9,6 C 8,0 km/h (2 Bft) 100,00 %
11.04.2018 05:57 9,5 C 10,0 C 84 % 1005,1 hPa 0,0 l/m 6,7 km/h (2 Bft) W-SW 237 0 min 0,000 mm 0,0 UV-I 0 W/m 6,9 C 9,3 C 11,3 km/h (2 Bft) 100,00 %
11.04.2018 05:58 9,4 C 10,0 C 83 % 1005,1 hPa 0,0 l/m 6,8 km/h (2 Bft) SW 234 0 min 0,000 mm 0,0 UV-I 0 W/m 6,7 C 9,1 C 11,3 km/h (2 Bft) 100,00 %
11.04.2018 05:59 9,3 C 10,0 C 84 % 1005,2 hPa 0,0 l/m 7,3 km/h (2 Bft) W-SW 247 0 min 0,000 mm 0,0 UV-I 0 W/m 6,7 C 8,6 C 9,7 km/h (2 Bft) 96,30 %
11.04.2018 06:00 9,3 C 10,0 C 84 % 1005,2 hPa 0,0 l/m 7,5 km/h (2 Bft) W-SW 242 0 min 0,025 mm 0,0 UV-I 0 W/m 6,7 C 8,5 C 12,9 km/h (3 Bft) 100,00 %
11.04.2018 06:01 9,2 C 10,0 C 84 % 1005,2 hPa 0,0 l/m 6,4 km/h (2 Bft) W-SW 255 0 min 0,000 mm 0,0 UV-I 0 W/m 6,6 C 9,2 C 9,7 km/h (2 Bft) 100,00 %
11.04.2018 06:02 9,2 C 10,0 C 84 % 1005,2 hPa 0,0 l/m 8,6 km/h (2 Bft) W-SW 254 0 min 0,000 mm 0,0 UV-I 0 W/m 6,6 C 7,6 C 11,3 km/h (2 Bft) 100,00 %
11.04.2018 06:03 9,1 C 10,0 C 85 % 1005,2 hPa 0,0 l/m 8,7 km/h (2 Bft) W-SW 249 0 min 0,000 mm 0,0 UV-I 0 W/m 6,7 C 7,4 C 14,5 km/h (3 Bft) 100,00 %
11.04.2018 06:04 9,2 C 10,0 C 85 % 1005,2 hPa 0,0 l/m 11,5 km/h (2 Bft) W-SW 258 0 min 0,000 mm 0,0 UV-I 0 W/m 6,8 C 5,9 C 14,5 km/h (3 Bft) 100,00 %
11.04.2018 06:05 9,2 C 10,0 C 85 % 1005,2 hPa 0,0 l/m 8,3 km/h (2 Bft) W-SW 253 0 min 0,000 mm 0,0 UV-I 0 W/m 6,8 C 7,8 C 11,3 km/h (2 Bft) 100,00 %
11.04.2018 06:06 9,2 C 10,0 C 85 % 1005,2 hPa 0,0 l/m 9,0 km/h (2 Bft) W-SW 251 0 min 0,000 mm 0,0 UV-I 0 W/m 6,8 C 7,3 C 12,9 km/h (3 Bft) 100,00 %
11.04.2018 06:07 9,2 C 10,0 C 85 % 1005,3 hPa 0,0 l/m 9,4 km/h (2 Bft) W-SW 255 0 min 0,000 mm 0,0 UV-I 0 W/m 6,8 C 7,1 C 12,9 km/h (3 Bft) 100,00 %
11.04.2018 06:08 9,2 C 10,0 C 85 % 1005,3 hPa 0,0 l/m 12,3 km/h (3 Bft) W 275 0 min 0,000 mm 0,0 UV-I 0 W/m 6,8 C 5,4 C 14,5 km/h (3 Bft) 100,00 %
11.04.2018 06:09 9,2 C 10,0 C 85 % 1005,4 hPa 0,0 l/m 9,9 km/h (2 Bft) W 270 0 min 0,000 mm 0,0 UV-I 0 W/m 6,8 C 6,8 C 12,9 km/h (3 Bft) 100,00 %
11.04.2018 06:10 9,3 C 10,0 C 85 % 1005,3 hPa 0,0 l/m 10,7 km/h (2 Bft) W 270 0 min 0,000 mm 0,0 UV-I 0 W/m 6,9 C 6,4 C 14,5 km/h (3 Bft) 100,00 %
11.04.2018 06:11 9,3 C 10,0 C 85 % 1005,4 hPa 0,0 l/m 10,2 km/h (2 Bft) W 263 0 min 0,000 mm 0,0 UV-I 0 W/m 6,9 C 6,7 C 12,9 km/h (3 Bft) 96,15 %
11.04.2018 06:12 9,3 C 10,0 C 85 % 1005,4 hPa 0,0 l/m 10,1 km/h (2 Bft) W 259 0 min 0,000 mm 0,0 UV-I 0 W/m 6,9 C 6,8 C 12,9 km/h (3 Bft) 100,00 %
11.04.2018 06:13 9,3 C 10,0 C 85 % 1005,4 hPa 0,0 l/m 11,7 km/h (2 Bft) W 264 0 min 0,000 mm 0,0 UV-I 5 W/m 6,9 C 5,9 C 14,5 km/h (3 Bft) 100,00 %
11.04.2018 06:14 9,3 C 10,0 C 85 % 1005,4 hPa 0,0 l/m 9,8 km/h (2 Bft) W 275 0 min 0,000 mm 0,0 UV-I 5 W/m 6,9 C 6,9 C 12,9 km/h (3 Bft) 100,00 %
11.04.2018 06:15 9,3 C 10,0 C 85 % 1005,4 hPa 0,0 l/m 11,9 km/h (2 Bft) W 263 0 min 0,000 mm 0,0 UV-I 5 W/m 6,9 C 5,8 C 14,5 km/h (3 Bft) 100,00 %
11.04.2018 06:16 9,4 C 10,0 C 85 % 1005,4 hPa 0,0 l/m 13,3 km/h (3 Bft) W-SW 248 0 min 0,000 mm 0,0 UV-I 5 W/m 7,0 C 5,2 C 17,7 km/h (3 Bft) 96,15 %
11.04.2018 06:17 9,4 C 10,0 C 85 % 1005,4 hPa 0,0 l/m 13,3 km/h (3 Bft) W-NW 282 0 min 0,000 mm 0,0 UV-I 5 W/m 7,0 C 5,2 C 17,7 km/h (3 Bft) 100,00 %
11.04.2018 06:18 9,4 C 10,0 C 84 % 1005,5 hPa 0,0 l/m 12,9 km/h (3 Bft) W 263 0 min 0,000 mm 0,0 UV-I 5 W/m 6,8 C 5,4 C 14,5 km/h (3 Bft) 100,00 %
11.04.2018 06:19 9,5 C 10,0 C 84 % 1005,5 hPa 0,0 l/m 13,3 km/h (3 Bft) W 274 0 min 0,000 mm 0,0 UV-I 5 W/m 6,9 C 5,3 C 17,7 km/h (3 Bft) 100,00 %
11.04.2018 06:20 9,6 C 10,0 C 84 % 1005,6 hPa 0,0 l/m 12,0 km/h (2 Bft) W 277 0 min 0,000 mm 0,0 UV-I 5 W/m 7,0 C 6,1 C 16,1 km/h (3 Bft) 100,00 %
11.04.2018 06:21 9,6 C 10,0 C 84 % 1005,6 hPa 0,0 l/m 12,7 km/h (3 Bft) W-NW 285 0 min 0,000 mm 0,0 UV-I 5 W/m 7,0 C 5,7 C 16,1 km/h (3 Bft) 100,00 %
11.04.2018 06:22 9,6 C 10,0 C 84 % 1005,6 hPa 0,0 l/m 12,4 km/h (3 Bft) W 277 0 min 0,000 mm 0,0 UV-I 5 W/m 7,0 C 5,9 C 17,7 km/h (3 Bft) 100,00 %
11.04.2018 06:23 9,7 C 10,0 C 84 % 1005,6 hPa 0,0 l/m 11,4 km/h (2 Bft) W-SW 257 0 min 0,000 mm 0,0 UV-I 5 W/m 7,1 C 6,5 C 14,5 km/h (3 Bft) 96,15 %
11.04.2018 06:24 9,7 C 10,0 C 84 % 1005,6 hPa 0,0 l/m 9,7 km/h (2 Bft) W-SW 241 0 min 0,000 mm 0,0 UV-I 7 W/m 7,1 C 7,4 C 12,9 km/h (3 Bft) 100,00 %
11.04.2018 06:25 9,7 C 10,0 C 84 % 1005,6 hPa 0,0 l/m 12,6 km/h (3 Bft) W 269 0 min 0,000 mm 0,0 UV-I 7 W/m 7,1 C 5,9 C 14,5 km/h (3 Bft) 100,00 %
11.04.2018 06:26 9,8 C 10,0 C 84 % 1005,6 hPa 0,0 l/m 13,0 km/h (3 Bft) W 269 0 min 0,000 mm 0,0 UV-I 7 W/m 7,2 C 5,8 C 16,1 km/h (3 Bft) 100,00 %
11.04.2018 06:27 9,8 C 10,0 C 84 % 1005,6 hPa 0,0 l/m 14,6 km/h (3 Bft) W 261 0 min 0,000 mm 0,0 UV-I 7 W/m 7,2 C 5,1 C 17,7 km/h (3 Bft) 100,00 %
11.04.2018 06:28 9,8 C 10,0 C 83 % 1005,6 hPa 0,0 l/m 13,7 km/h (3 Bft) W 264 0 min 0,000 mm 0,0 UV-I 7 W/m 7,1 C 5,5 C 19,3 km/h (3 Bft) 96,30 %
11.04.2018 06:29 9,8 C 10,0 C 83 % 1005,6 hPa 0,0 l/m 12,0 km/h (2 Bft) W 281 0 min 0,000 mm 0,0 UV-I 8 W/m 7,1 C 6,3 C 16,1 km/h (3 Bft) 95,65 %
11.04.2018 06:30 9,9 C 10,0 C 83 % 1005,6 hPa 0,0 l/m 15,6 km/h (3 Bft) W 267 0 min 0,000 mm 0,0 UV-I 9 W/m 7,2 C 4,8 C 19,3 km/h (3 Bft) 100,00 %
11.04.2018 06:31 9,9 C 10,0 C 83 % 1005,6 hPa 0,0 l/m 13,6 km/h (3 Bft) W-SW 240 0 min 0,000 mm 0,0 UV-I 9 W/m 7,2 C 5,6 C 16,1 km/h (3 Bft) 95,65 %
11.04.2018 06:32 9,9 C 10,0 C 83 % 1005,7 hPa 0,0 l/m 9,9 km/h (2 Bft) W-SW 254 0 min 0,000 mm 0,0 UV-I 11 W/m 7,2 C 7,5 C 14,5 km/h (3 Bft) 100,00 %
11.04.2018 06:33 9,9 C 10,0 C 83 % 1005,7 hPa 0,0 l/m 12,5 km/h (3 Bft) SW 231 1 min 0,000 mm 0,0 UV-I 11 W/m 7,2 C 6,1 C 19,3 km/h (3 Bft) 95,65 %
11.04.2018 06:34 9,9 C 10,0 C 83 % 1005,8 hPa 0,0 l/m 15,0 km/h (3 Bft) W-SW 258 1 min 0,000 mm 0,0 UV-I 11 W/m 7,2 C 5,0 C 22,5 km/h (4 Bft) 100,00 %
11.04.2018 06:35 9,9 C 10,0 C 83 % 1005,8 hPa 0,0 l/m 11,6 km/h (2 Bft) W 261 1 min 0,000 mm 0,0 UV-I 12 W/m 7,2 C 6,6 C 16,1 km/h (3 Bft) 95,65 %
11.04.2018 06:36 10,0 C 10,0 C 83 % 1005,8 hPa 0,0 l/m 14,1 km/h (3 Bft) W-SW 251 0 min 0,000 mm 0,0 UV-I 12 W/m 7,2 C 5,5 C 17,7 km/h (3 Bft) 100,00 %
11.04.2018 06:37 10,0 C 10,0 C 83 % 1005,8 hPa 0,0 l/m 12,0 km/h (2 Bft) W 264 0 min 0,000 mm 0,0 UV-I 12 W/m 7,2 C 6,5 C 16,1 km/h (3 Bft) 100,00 %
11.04.2018 06:38 10,0 C 10,0 C 83 % 1005,8 hPa 0,0 l/m 10,4 km/h (2 Bft) SW 234 0 min 0,000 mm 0,0 UV-I 12 W/m 7,2 C 7,4 C 17,7 km/h (3 Bft) 100,00 %
11.04.2018 06:39 9,9 C 10,0 C 83 % 1005,8 hPa 0,0 l/m 11,7 km/h (2 Bft) W-SW 252 0 min 0,000 mm 0,0 UV-I 12 W/m 7,2 C 6,6 C 17,7 km/h (3 Bft) 100,00 %
11.04.2018 06:40 9,9 C 10,0 C 83 % 1005,8 hPa 0,0 l/m 10,5 km/h (2 Bft) SW 236 0 min 0,000 mm 0,0 UV-I 13 W/m 7,2 C 7,2 C 16,1 km/h (3 Bft) 96,15 %
11.04.2018 06:41 9,9 C 10,0 C 83 % 1005,8 hPa 0,0 l/m 12,4 km/h (3 Bft) W-SW 244 0 min 0,000 mm 0,0 UV-I 14 W/m 7,2 C 6,2 C 17,7 km/h (3 Bft) 90,00 %
11.04.2018 06:42 9,9 C 10,0 C 83 % 1005,8 hPa 0,0 l/m 11,9 km/h (2 Bft) W-SW 246 0 min 0,000 mm 0,0 UV-I 16 W/m 7,2 C 6,4 C 14,5 km/h (3 Bft) 96,15 %
11.04.2018 06:43 9,9 C 10,0 C 83 % 1005,8 hPa 0,0 l/m 13,6 km/h (3 Bft) W-SW 239 0 min 0,000 mm 0,0 UV-I 16 W/m 7,2 C 5,6 C 19,3 km/h (3 Bft) 91,67 %
11.04.2018 06:44 10,0 C 10,0 C 83 % 1005,8 hPa 0,0 l/m 10,8 km/h (2 Bft) W-SW 248 0 min 0,000 mm 0,0 UV-I 16 W/m 7,2 C 7,1 C 12,9 km/h (3 Bft) 100,00 %
11.04.2018 06:45 10,0 C 10,0 C 83 % 1005,8 hPa 0,0 l/m 11,5 km/h (2 Bft) W-SW 240 0 min 0,000 mm 0,0 UV-I 16 W/m 7,2 C 6,8 C 17,7 km/h (3 Bft) 91,67 %
11.04.2018 06:46 10,0 C 10,0 C 83 % 1005,8 hPa 0,0 l/m 11,3 km/h (2 Bft) W 269 0 min 0,000 mm 0,0 UV-I 16 W/m 7,2 C 6,9 C 16,1 km/h (3 Bft) 95,65 %
11.04.2018 06:47 10,0 C 10,0 C 82 % 1005,8 hPa 0,0 l/m 10,4 km/h (2 Bft) W 277 0 min 0,000 mm 0,0 UV-I 18 W/m 7,1 C 7,4 C 12,9 km/h (3 Bft) 95,83 %
11.04.2018 06:48 10,1 C 10,0 C 82 % 1005,9 hPa 0,0 l/m 12,9 km/h (3 Bft) W-NW 285 0 min 0,000 mm 0,0 UV-I 18 W/m 7,2 C 6,2 C 17,7 km/h (3 Bft) 96,15 %
11.04.2018 06:49 10,1 C 10,0 C 82 % 1005,8 hPa 0,0 l/m 10,4 km/h (2 Bft) W 267 0 min 0,000 mm 0,0 UV-I 18 W/m 7,2 C 7,5 C 14,5 km/h (3 Bft) 100,00 %
11.04.2018 06:50 10,1 C 10,0 C 82 % 1005,9 hPa 0,0 l/m 11,0 km/h (2 Bft) W 276 0 min 0,000 mm 0,0 UV-I 18 W/m 7,2 C 7,1 C 14,5 km/h (3 Bft) 94,12 %
11.04.2018 06:51 10,1 C 10,0 C 82 % 1005,9 hPa 0,0 l/m 11,8 km/h (2 Bft) W 262 0 min 0,000 mm 0,0 UV-I 18 W/m 7,2 C 6,7 C 14,5 km/h (3 Bft) 95,83 %
11.04.2018 06:52 10,1 C 10,0 C 82 % 1005,8 hPa 0,0 l/m 12,8 km/h (3 Bft) W 267 0 min 0,000 mm 0,0 UV-I 19 W/m 7,2 C 6,2 C 16,1 km/h (3 Bft) 92,31 %
11.04.2018 06:53 10,1 C 10,0 C 82 % 1005,9 hPa 0,0 l/m 12,6 km/h (3 Bft) W 265 0 min 0,000 mm 0,0 UV-I 19 W/m 7,2 C 6,3 C 16,1 km/h (3 Bft) 100,00 %
11.04.2018 06:54 10,1 C 10,0 C 82 % 1005,9 hPa 0,0 l/m 12,1 km/h (2 Bft) W 271 0 min 0,000 mm 0,0 UV-I 19 W/m 7,2 C 6,6 C 14,5 km/h (3 Bft) 96,15 %
11.04.2018 06:55 10,1 C 10,0 C 82 % 1005,9 hPa 0,0 l/m 11,9 km/h (2 Bft) W 268 0 min 0,000 mm 0,0 UV-I 19 W/m 7,2 C 6,7 C 14,5 km/h (3 Bft) 95,83 %
11.04.2018 06:56 10,1 C 10,0 C 82 % 1005,9 hPa 0,0 l/m 13,0 km/h (3 Bft) W-SW 257 0 min 0,000 mm 0,0 UV-I 19 W/m 7,2 C 6,1 C 17,7 km/h (3 Bft) 100,00 %
11.04.2018 06:57 10,1 C 10,0 C 82 % 1005,9 hPa 0,0 l/m 13,3 km/h (3 Bft) W 262 0 min 0,000 mm 0,0 UV-I 20 W/m 7,2 C 6,0 C 16,1 km/h (3 Bft) 95,65 %
11.04.2018 06:58 10,1 C 10,0 C 82 % 1005,9 hPa 0,0 l/m 13,2 km/h (3 Bft) W-SW 257 0 min 0,000 mm 0,0 UV-I 21 W/m 7,2 C 6,0 C 16,1 km/h (3 Bft) 100,00 %
11.04.2018 06:59 10,1 C 10,0 C 82 % 1005,8 hPa 0,0 l/m 14,0 km/h (3 Bft) W 261 0 min 0,000 mm 0,0 UV-I 21 W/m 7,2 C 5,7 C 17,7 km/h (3 Bft) 86,21 %
11.04.2018 07:00 10,2 C 10,0 C 82 % 1005,8 hPa 0,0 l/m 13,3 km/h (3 Bft) W 265 0 min 0,025 mm 0,0 UV-I 21 W/m 7,3 C 6,1 C 17,7 km/h (3 Bft) 95,83 %
11.04.2018 07:01 10,2 C 10,0 C 82 % 1005,8 hPa 0,0 l/m 12,6 km/h (3 Bft) W 269 0 min 0,000 mm 0,0 UV-I 21 W/m 7,3 C 6,5 C 16,1 km/h (3 Bft) 95,65 %
11.04.2018 07:02 10,2 C 10,0 C 82 % 1005,9 hPa 0,0 l/m 13,6 km/h (3 Bft) SW 225 0 min 0,000 mm 0,0 UV-I 22 W/m 7,3 C 6,0 C 17,7 km/h (3 Bft) 100,00 %
11.04.2018 07:03 10,2 C 10,0 C 82 % 1005,8 hPa 0,0 l/m 12,4 km/h (3 Bft) W 261 0 min 0,000 mm 0,0 UV-I 23 W/m 7,3 C 6,5 C 16,1 km/h (3 Bft) 92,31 %
11.04.2018 07:04 10,2 C 10,0 C 82 % 1005,9 hPa 0,0 l/m 13,2 km/h (3 Bft) W 262 0 min 0,000 mm 0,0 UV-I 23 W/m 7,3 C 6,2 C 17,7 km/h (3 Bft) 94,44 %
11.04.2018 07:05 10,2 C 10,0 C 82 % 1005,9 hPa 0,0 l/m 12,4 km/h (3 Bft) W 281 0 min 0,000 mm 0,0 UV-I 23 W/m 7,3 C 6,5 C 14,5 km/h (3 Bft) 86,96 %
11.04.2018 07:06 10,2 C 10,0 C 82 % 1005,9 hPa 0,0 l/m 11,2 km/h (2 Bft) W 277 0 min 0,000 mm 0,0 UV-I 23 W/m 7,3 C 7,2 C 12,9 km/h (3 Bft) 92,59 %
11.04.2018 07:07 10,2 C 10,0 C 82 % 1005,9 hPa 0,0 l/m 7,4 km/h (2 Bft) W 271 0 min 0,000 mm 0,0 UV-I 25 W/m 7,3 C 9,5 C 11,3 km/h (2 Bft) 100,00 %
11.04.2018 07:08 10,2 C 10,0 C 82 % 1005,9 hPa 0,0 l/m 9,3 km/h (2 Bft) W 261 0 min 0,000 mm 0,0 UV-I 25 W/m 7,3 C 8,2 C 14,5 km/h (3 Bft) 96,55 %
11.04.2018 07:09 10,2 C 10,0 C 82 % 1005,9 hPa 0,0 l/m 10,3 km/h (2 Bft) W-SW 249 0 min 0,000 mm 0,0 UV-I 26 W/m 7,3 C 7,6 C 14,5 km/h (3 Bft) 100,00 %
11.04.2018 07:10 10,2 C 10,0 C 82 % 1005,9 hPa 0,0 l/m 11,7 km/h (2 Bft) W 274 0 min 0,000 mm 0,0 UV-I 26 W/m 7,3 C 6,9 C 14,5 km/h (3 Bft) 86,67 %
11.04.2018 07:11 10,1 C 10,0 C 82 % 1005,9 hPa 0,0 l/m 9,4 km/h (2 Bft) W 264 0 min 0,000 mm 0,0 UV-I 26 W/m 7,2 C 8,1 C 11,3 km/h (2 Bft) 100,00 %
11.04.2018 07:12 10,1 C 10,0 C 82 % 1006,0 hPa 0,0 l/m 7,2 km/h (2 Bft) W 259 0 min 0,000 mm 0,0 UV-I 26 W/m 7,2 C 9,5 C 11,3 km/h (2 Bft) 84,62 %
11.04.2018 07:13 10,1 C 10,0 C 82 % 1005,9 hPa 0,0 l/m 8,3 km/h (2 Bft) W 274 0 min 0,000 mm 0,0 UV-I 28 W/m 7,2 C 8,8 C 9,7 km/h (2 Bft) 93,10 %
11.04.2018 07:14 10,1 C 10,0 C 82 % 1005,9 hPa 0,0 l/m 10,3 km/h (2 Bft) W 269 0 min 0,000 mm 0,0 UV-I 29 W/m 7,2 C 7,5 C 12,9 km/h (3 Bft) 100,00 %
11.04.2018 07:15 10,1 C 10,0 C 82 % 1005,9 hPa 0,0 l/m 10,1 km/h (2 Bft) W 262 0 min 0,000 mm 0,0 UV-I 31 W/m 7,2 C 7,6 C 16,1 km/h (3 Bft) 100,00 %
11.04.2018 07:16 10,1 C 10,0 C 82 % 1006,0 hPa 0,0 l/m 8,4 km/h (2 Bft) W-SW 238 0 min 0,000 mm 0,0 UV-I 33 W/m 7,2 C 8,7 C 11,3 km/h (2 Bft) 92,86 %
11.04.2018 07:17 10,1 C 10,0 C 82 % 1006,0 hPa 0,0 l/m 11,0 km/h (2 Bft) W-SW 250 0 min 0,000 mm 0,0 UV-I 35 W/m 7,2 C 7,1 C 12,9 km/h (3 Bft) 97,62 %
11.04.2018 07:18 10,1 C 10,0 C 82 % 1006,0 hPa 0,0 l/m 12,0 km/h (2 Bft) W-SW 254 0 min 0,000 mm 0,0 UV-I 37 W/m 7,2 C 6,6 C 14,5 km/h (3 Bft) 90,91 %
11.04.2018 07:19 10,1 C 10,0 C 82 % 1006,0 hPa 0,0 l/m 10,7 km/h (2 Bft) W 269 0 min 0,000 mm 0,0 UV-I 39 W/m 7,2 C 7,3 C 12,9 km/h (3 Bft) 96,30 %
11.04.2018 07:20 10,1 C 10,0 C 82 % 1005,9 hPa 0,0 l/m 8,0 km/h (2 Bft) W 271 0 min 0,000 mm 0,0 UV-I 41 W/m 7,2 C 9,0 C 11,3 km/h (2 Bft) 100,00 %
11.04.2018 07:21 10,1 C 10,0 C 82 % 1005,9 hPa 0,0 l/m 9,9 km/h (2 Bft) W 259 0 min 0,000 mm 0,0 UV-I 42 W/m 7,2 C 7,8 C 12,9 km/h (3 Bft) 91,67 %
11.04.2018 07:22 10,1 C 10,0 C 82 % 1005,9 hPa 0,0 l/m 9,2 km/h (2 Bft) W-NW 293 0 min 0,000 mm 0,0 UV-I 44 W/m 7,2 C 8,2 C 14,5 km/h (3 Bft) 100,00 %
11.04.2018 07:23 10,1 C 10,0 C 82 % 1006,0 hPa 0,0 l/m 9,0 km/h (2 Bft) W 271 0 min 0,000 mm 0,0 UV-I 46 W/m 7,2 C 8,3 C 11,3 km/h (2 Bft) 95,83 %
11.04.2018 07:24 10,1 C 10,0 C 82 % 1006,0 hPa 0,0 l/m 8,4 km/h (2 Bft) W-SW 252 0 min 0,000 mm 0,0 UV-I 46 W/m 7,2 C 8,7 C 11,3 km/h (2 Bft) 90,91 %
11.04.2018 07:25 10,0 C 10,0 C 83 % 1006,0 hPa 0,0 l/m 9,5 km/h (2 Bft) W 276 0 min 0,000 mm 0,0 UV-I 47 W/m 7,2 C 7,9 C 12,9 km/h (3 Bft) 96,30 %
11.04.2018 07:26 10,0 C 10,0 C 83 % 1006,1 hPa 0,0 l/m 8,2 km/h (2 Bft) W 274 0 min 0,000 mm 0,0 UV-I 47 W/m 7,2 C 8,7 C 11,3 km/h (2 Bft) 93,75 %
11.04.2018 07:27 9,9 C 10,0 C 83 % 1006,1 hPa 0,0 l/m 7,9 km/h (2 Bft) W 269 0 min 0,000 mm 0,0 UV-I 48 W/m 7,2 C 8,8 C 12,9 km/h (3 Bft) 100,00 %
11.04.2018 07:28 9,9 C 10,0 C 83 % 1006,1 hPa 0,0 l/m 8,7 km/h (2 Bft) W 267 0 min 0,000 mm 0,0 UV-I 49 W/m 7,2 C 8,3 C 11,3 km/h (2 Bft) 93,33 %
11.04.2018 07:29 9,9 C 10,0 C 83 % 1006,1 hPa 0,0 l/m 10,0 km/h (2 Bft) W-SW 258 0 min 0,000 mm 0,0 UV-I 49 W/m 7,2 C 7,5 C 11,3 km/h (2 Bft) 100,00 %
11.04.2018 07:30 9,9 C 10,0 C 83 % 1006,2 hPa 0,0 l/m 9,7 km/h (2 Bft) W 260 0 min 0,000 mm 0,0 UV-I 49 W/m 7,2 C 7,7 C 12,9 km/h (3 Bft) 92,31 %
11.04.2018 07:31 9,9 C 10,0 C 83 % 1006,2 hPa 0,0 l/m 8,4 km/h (2 Bft) W-SW 257 0 min 0,000 mm 0,0 UV-I 47 W/m 7,2 C 8,5 C 9,7 km/h (2 Bft) 100,00 %
11.04.2018 07:32 9,8 C 10,0 C 83 % 1006,1 hPa 0,0 l/m 8,5 km/h (2 Bft) W-SW 257 0 min 0,000 mm 0,0 UV-I 46 W/m 7,1 C 8,3 C 12,9 km/h (3 Bft) 93,33 %
11.04.2018 07:33 9,8 C 10,0 C 83 % 1006,1 hPa 0,0 l/m 7,9 km/h (2 Bft) W 271 0 min 0,000 mm 0,0 UV-I 46 W/m 7,1 C 8,7 C 12,9 km/h (3 Bft) 100,00 %
11.04.2018 07:34 9,8 C 10,0 C 83 % 1006,1 hPa 0,0 l/m 8,1 km/h (2 Bft) W 266 0 min 0,000 mm 0,0 UV-I 46 W/m 7,1 C 8,6 C 12,9 km/h (3 Bft) 96,30 %
11.04.2018 07:35 9,8 C 10,0 C 83 % 1006,1 hPa 0,0 l/m 11,3 km/h (2 Bft) W 263 0 min 0,000 mm 0,0 UV-I 47 W/m 7,1 C 6,6 C 14,5 km/h (3 Bft) 96,15 %
11.04.2018 07:36 9,8 C 10,0 C 83 % 1006,2 hPa 0,0 l/m 13,4 km/h (3 Bft) W-SW 244 0 min 0,000 mm 0,0 UV-I 50 W/m 7,1 C 5,6 C 16,1 km/h (3 Bft) 96,30 %
11.04.2018 07:37 9,8 C 10,0 C 83 % 1006,2 hPa 0,0 l/m 6,9 km/h (2 Bft) W 263 0 min 0,000 mm 0,0 UV-I 51 W/m 7,1 C 9,4 C 11,3 km/h (2 Bft) 100,00 %
11.04.2018 07:38 9,8 C 10,0 C 83 % 1006,1 hPa 0,0 l/m 6,7 km/h (2 Bft) W-SW 247 0 min 0,000 mm 0,0 UV-I 52 W/m 7,1 C 9,6 C 12,9 km/h (3 Bft) 95,83 %
11.04.2018 07:39 9,8 C 10,0 C 83 % 1006,2 hPa 0,0 l/m 9,3 km/h (2 Bft) W 263 0 min 0,000 mm 0,0 UV-I 54 W/m 7,1 C 7,8 C 11,3 km/h (2 Bft) 100,00 %
11.04.2018 07:40 9,8 C 10,0 C 83 % 1006,1 hPa 0,0 l/m 6,4 km/h (2 Bft) W 271 0 min 0,000 mm 0,0 UV-I 63 W/m 7,1 C 9,8 C 9,7 km/h (2 Bft) 96,30 %
11.04.2018 07:41 9,8 C 10,0 C 83 % 1006,2 hPa 0,0 l/m 4,1 km/h (1 Bft) W-SW 252 0 min 0,000 mm 0,0 UV-I 113 W/m 7,1 C 9,8 C 4,8 km/h (1 Bft) 88,24 %
11.04.2018 07:42 9,8 C 10,0 C 83 % 1006,2 hPa 0,0 l/m 3,5 km/h (1 Bft) W-SW 242 0 min 0,000 mm 0,0 UV-I 102 W/m 7,1 C 9,8 C 6,4 km/h (2 Bft) 100,00 %
11.04.2018 07:43 9,8 C 10,0 C 83 % 1006,2 hPa 0,0 l/m 4,1 km/h (1 Bft) W 267 0 min 0,000 mm 0,0 UV-I 111 W/m 7,1 C 9,8 C 6,4 km/h (2 Bft) 96,15 %
11.04.2018 07:44 9,8 C 10,0 C 83 % 1006,2 hPa 0,0 l/m 4,3 km/h (1 Bft) W 275 0 min 0,000 mm 0,0 UV-I 114 W/m 7,1 C 9,8 C 6,4 km/h (2 Bft) 95,83 %
11.04.2018 07:45 9,8 C 10,0 C 83 % 1006,2 hPa 0,0 l/m 5,0 km/h (1 Bft) W 263 0 min 0,000 mm 0,0 UV-I 111 W/m 7,1 C 9,8 C 6,4 km/h (2 Bft) 93,33 %
11.04.2018 07:46 9,8 C 10,0 C 83 % 1006,2 hPa 0,0 l/m 5,0 km/h (1 Bft) W 274 1 min 0,000 mm 0,0 UV-I 156 W/m 7,1 C 9,8 C 6,4 km/h (2 Bft) 100,00 %
11.04.2018 07:47 9,8 C 10,0 C 83 % 1006,2 hPa 0,0 l/m 3,4 km/h (1 Bft) W-SW 250 0 min 0,000 mm 0,0 UV-I 111 W/m 7,1 C 9,8 C 4,8 km/h (1 Bft) 95,83 %
11.04.2018 07:48 9,9 C 10,0 C 83 % 1006,2 hPa 0,0 l/m 5,1 km/h (1 Bft) W-SW 252 1 min 0,000 mm 0,0 UV-I 151 W/m 7,2 C 9,9 C 8,0 km/h (2 Bft) 95,65 %
11.04.2018 07:49 9,9 C 10,0 C 83 % 1006,2 hPa 0,0 l/m 5,2 km/h (1 Bft) W-SW 255 1 min 0,000 mm 0,0 UV-I 156 W/m 7,2 C 9,9 C 6,4 km/h (2 Bft) 91,67 %
11.04.2018 07:50 9,9 C 10,0 C 83 % 1006,2 hPa 0,0 l/m 4,8 km/h (1 Bft) W 263 1 min 0,000 mm 0,0 UV-I 172 W/m 7,2 C 9,9 C 6,4 km/h (2 Bft) 95,65 %
11.04.2018 07:51 10,0 C 10,0 C 83 % 1006,1 hPa 0,0 l/m 4,1 km/h (1 Bft) W 263 1 min 0,000 mm 0,0 UV-I 188 W/m 7,2 C 10,0 C 4,8 km/h (1 Bft) 100,00 %
11.04.2018 07:52 10,1 C 10,0 C 83 % 1006,2 hPa 0,0 l/m 4,5 km/h (1 Bft) W-NW 282 1 min 0,000 mm 0,0 UV-I 187 W/m 7,3 C 10,1 C 6,4 km/h (2 Bft) 91,30 %
11.04.2018 07:53 10,1 C 10,0 C 82 % 1006,1 hPa 0,0 l/m 4,7 km/h (1 Bft) W 279 1 min 0,000 mm 0,0 UV-I 186 W/m 7,2 C 10,1 C 8,0 km/h (2 Bft) 100,00 %
11.04.2018 07:54 10,2 C 10,0 C 82 % 1006,1 hPa 0,0 l/m 6,0 km/h (2 Bft) W 274 1 min 0,000 mm 0,0 UV-I 197 W/m 7,3 C 10,2 C 9,7 km/h (2 Bft) 96,55 %
11.04.2018 07:55 10,2 C 10,0 C 82 % 1006,1 hPa 0,0 l/m 5,2 km/h (1 Bft) W 273 1 min 0,000 mm 0,0 UV-I 186 W/m 7,3 C 10,2 C 6,4 km/h (2 Bft) 100,00 %
11.04.2018 07:56 10,2 C 10,0 C 82 % 1006,1 hPa 0,0 l/m 8,0 km/h (2 Bft) W-NW 288 1 min 0,000 mm 0,0 UV-I 179 W/m 7,3 C 9,1 C 11,3 km/h (2 Bft) 95,65 %
11.04.2018 07:57 10,2 C 10,0 C 82 % 1006,1 hPa 0,0 l/m 6,4 km/h (2 Bft) W 281 1 min 0,000 mm 0,0 UV-I 199 W/m 7,3 C 10,2 C 9,7 km/h (2 Bft) 95,83 %
11.04.2018 07:58 10,3 C 10,0 C 82 % 1006,1 hPa 0,0 l/m 4,6 km/h (1 Bft) W 281 1 min 0,000 mm 0,0 UV-I 196 W/m 7,4 C 10,3 C 6,4 km/h (2 Bft) 100,00 %
11.04.2018 07:59 10,3 C 10,0 C 82 % 1006,1 hPa 0,0 l/m 4,7 km/h (1 Bft) W-NW 283 1 min 0,000 mm 0,0 UV-I 198 W/m 7,4 C 10,3 C 6,4 km/h (2 Bft) 95,83 %
11.04.2018 08:00 10,3 C 10,0 C 82 % 1006,1 hPa 0,0 l/m 6,0 km/h (2 Bft) W 275 1 min 0,000 mm 0,0 UV-I 206 W/m 7,4 C 10,3 C 11,3 km/h (2 Bft) 91,30 %
11.04.2018 08:01 10,3 C 10,0 C 82 % 1006,1 hPa 0,0 l/m 8,1 km/h (2 Bft) W-NW 288 1 min 0,051 mm 0,0 UV-I 211 W/m 7,4 C 9,1 C 12,9 km/h (3 Bft) 96,30 %
11.04.2018 08:02 10,4 C 10,0 C 82 % 1006,1 hPa 0,0 l/m 4,9 km/h (1 Bft) W 281 1 min 0,000 mm 0,0 UV-I 213 W/m 7,5 C 10,4 C 6,4 km/h (2 Bft) 100,00 %
11.04.2018 08:03 10,4 C 10,0 C 82 % 1006,1 hPa 0,0 l/m 5,4 km/h (1 Bft) W 262 1 min 0,000 mm 0,0 UV-I 192 W/m 7,5 C 10,4 C 9,7 km/h (2 Bft) 95,83 %
11.04.2018 08:04 10,4 C 10,0 C 82 % 1006,1 hPa 0,0 l/m 8,6 km/h (2 Bft) W 274 1 min 0,000 mm 0,0 UV-I 211 W/m 7,5 C 8,9 C 11,3 km/h (2 Bft) 100,00 %
11.04.2018 08:05 10,5 C 10,0 C 82 % 1006,1 hPa 0,0 l/m 10,2 km/h (2 Bft) W 271 1 min 0,000 mm 0,0 UV-I 210 W/m 7,6 C 8,0 C 11,3 km/h (2 Bft) 91,67 %
11.04.2018 08:06 10,5 C 10,0 C 82 % 1006,1 hPa 0,0 l/m 8,5 km/h (2 Bft) W 273 1 min 0,000 mm 0,0 UV-I 211 W/m 7,6 C 9,1 C 11,3 km/h (2 Bft) 100,00 %
11.04.2018 08:07 10,5 C 10,0 C 82 % 1006,1 hPa 0,0 l/m 6,2 km/h (2 Bft) W 276 1 min 0,000 mm 0,0 UV-I 214 W/m 7,6 C 10,5 C 11,3 km/h (2 Bft) 95,83 %
11.04.2018 08:08 10,6 C 10,0 C 82 % 1006,1 hPa 0,0 l/m 10,4 km/h (2 Bft) W 259 1 min 0,000 mm 0,0 UV-I 211 W/m 7,7 C 8,0 C 12,9 km/h (3 Bft) 100,00 %
11.04.2018 08:09 10,6 C 10,0 C 81 % 1006,2 hPa 0,0 l/m 10,1 km/h (2 Bft) W 277 1 min 0,000 mm 0,0 UV-I 210 W/m 7,5 C 8,2 C 12,9 km/h (3 Bft) 100,00 %
11.04.2018 08:10 10,6 C 10,0 C 81 % 1006,2 hPa 0,0 l/m 12,0 km/h (2 Bft) W 267 1 min 0,000 mm 0,0 UV-I 225 W/m 7,5 C 7,2 C 14,5 km/h (3 Bft) 100,00 %
11.04.2018 08:11 10,6 C 10,0 C 81 % 1006,2 hPa 0,0 l/m 8,9 km/h (2 Bft) W-SW 257 1 min 0,000 mm 0,0 UV-I 220 W/m 7,5 C 8,9 C 12,9 km/h (3 Bft) 100,00 %
11.04.2018 08:12 10,6 C 10,0 C 81 % 1006,2 hPa 0,0 l/m 6,7 km/h (2 Bft) SW 225 1 min 0,000 mm 0,0 UV-I 226 W/m 7,5 C 10,4 C 9,7 km/h (2 Bft) 100,00 %
11.04.2018 08:13 10,6 C 10,0 C 81 % 1006,2 hPa 0,0 l/m 8,9 km/h (2 Bft) W 261 1 min 0,000 mm 0,0 UV-I 242 W/m 7,5 C 8,9 C 11,3 km/h (2 Bft) 100,00 %
11.04.2018 08:14 10,7 C 10,0 C 81 % 1006,2 hPa 0,0 l/m 9,6 km/h (2 Bft) SW 232 1 min 0,000 mm 0,0 UV-I 244 W/m 7,6 C 8,6 C 14,5 km/h (3 Bft) 100,00 %
11.04.2018 08:15 10,7 C 10,0 C 81 % 1006,2 hPa 0,0 l/m 7,1 km/h (2 Bft) W 273 1 min 0,000 mm 0,0 UV-I 207 W/m 7,6 C 10,2 C 9,7 km/h (2 Bft) 100,00 %
11.04.2018 08:16 10,7 C 10,0 C 81 % 1006,2 hPa 0,0 l/m 5,9 km/h (2 Bft) W 273 0 min 0,000 mm 0,0 UV-I 163 W/m 7,6 C 10,7 C 11,3 km/h (2 Bft) 100,00 %
11.04.2018 08:17 10,7 C 10,0 C 81 % 1006,4 hPa 0,0 l/m 4,5 km/h (1 Bft) W 273 0 min 0,000 mm 0,0 UV-I 156 W/m 7,6 C 10,7 C 6,4 km/h (2 Bft) 100,00 %
11.04.2018 08:18 10,7 C 10,0 C 81 % 1006,3 hPa 0,0 l/m 3,9 km/h (1 Bft) W-NW 298 0 min 0,000 mm 0,0 UV-I 154 W/m 7,6 C 10,7 C 6,4 km/h (2 Bft) 100,00 %
11.04.2018 08:19 10,7 C 10,0 C 81 % 1006,3 hPa 0,0 l/m 4,4 km/h (1 Bft) W 261 0 min 0,000 mm 0,0 UV-I 154 W/m 7,6 C 10,7 C 6,4 km/h (2 Bft) 100,00 %
11.04.2018 08:20 10,7 C 10,0 C 81 % 1006,3 hPa 0,0 l/m 5,9 km/h (2 Bft) W-NW 285 0 min 0,000 mm 0,0 UV-I 158 W/m 7,6 C 10,7 C 11,3 km/h (2 Bft) 95,83 %
11.04.2018 08:21 10,7 C 10,0 C 81 % 1006,4 hPa 0,0 l/m 3,7 km/h (1 Bft) W-NW 284 0 min 0,000 mm 0,0 UV-I 156 W/m 7,6 C 10,7 C 6,4 km/h (2 Bft) 100,00 %
11.04.2018 08:22 10,8 C 10,0 C 82 % 1006,4 hPa 0,0 l/m 3,6 km/h (1 Bft) S-SW 212 0 min 0,000 mm 0,0 UV-I 148 W/m 7,9 C 10,8 C 6,4 km/h (2 Bft) 96,30 %
11.04.2018 08:23 10,8 C 10,0 C 82 % 1006,4 hPa 0,0 l/m 5,6 km/h (1 Bft) SW 235 0 min 0,000 mm 0,0 UV-I 141 W/m 7,9 C 10,8 C 9,7 km/h (2 Bft) 100,00 %
11.04.2018 08:24 10,8 C 10,0 C 82 % 1006,4 hPa 0,0 l/m 6,8 km/h (2 Bft) W-SW 241 0 min 0,000 mm 0,0 UV-I 139 W/m 7,9 C 10,5 C 11,3 km/h (2 Bft) 100,00 %
11.04.2018 08:25 10,9 C 10,0 C 81 % 1006,4 hPa 0,0 l/m 5,8 km/h (2 Bft) S-SW 195 0 min 0,000 mm 0,0 UV-I 140 W/m 7,8 C 10,9 C 8,0 km/h (2 Bft) 96,30 %
11.04.2018 08:26 10,9 C 10,0 C 81 % 1006,4 hPa 0,0 l/m 8,4 km/h (2 Bft) SW 218 0 min 0,000 mm 0,0 UV-I 144 W/m 7,8 C 9,5 C 11,3 km/h (2 Bft) 100,00 %
11.04.2018 08:27 10,8 C 10,0 C 81 % 1006,4 hPa 0,0 l/m 6,4 km/h (2 Bft) S-SW 213 0 min 0,000 mm 0,0 UV-I 154 W/m 7,7 C 10,8 C 8,0 km/h (2 Bft) 100,00 %
11.04.2018 08:28 10,8 C 10,0 C 81 % 1006,5 hPa 0,0 l/m 5,0 km/h (1 Bft) W-SW 237 0 min 0,000 mm 0,0 UV-I 173 W/m 7,7 C 10,8 C 6,4 km/h (2 Bft) 100,00 %
11.04.2018 08:29 10,9 C 10,0 C 81 % 1006,5 hPa 0,0 l/m 7,3 km/h (2 Bft) SW 232 0 min 0,000 mm 0,0 UV-I 181 W/m 7,8 C 10,3 C 11,3 km/h (2 Bft) 97,96 %
11.04.2018 08:30 10,9 C 10,0 C 82 % 1006,5 hPa 0,0 l/m 5,7 km/h (1 Bft) SW 229 0 min 0,000 mm 0,0 UV-I 175 W/m 7,9 C 10,9 C 8,0 km/h (2 Bft) 100,00 %
11.04.2018 08:31 10,9 C 10,0 C 81 % 1006,5 hPa 0,0 l/m 4,3 km/h (1 Bft) W-SW 254 0 min 0,000 mm 0,0 UV-I 168 W/m 7,8 C 10,9 C 4,8 km/h (1 Bft) 100,00 %
11.04.2018 08:32 10,9 C 10,0 C 81 % 1006,5 hPa 0,0 l/m 5,6 km/h (1 Bft) W-SW 240 0 min 0,000 mm 0,0 UV-I 170 W/m 7,8 C 10,9 C 8,0 km/h (2 Bft) 100,00 %
11.04.2018 08:33 10,9 C 10,0 C 81 % 1006,6 hPa 0,0 l/m 3,3 km/h (1 Bft) W-SW 246 0 min 0,000 mm 0,0 UV-I 172 W/m 7,8 C 10,9 C 4,8 km/h (1 Bft) 100,00 %
11.04.2018 08:34 10,9 C 10,0 C 81 % 1006,6 hPa 0,0 l/m 4,3 km/h (1 Bft) SW 227 0 min 0,000 mm 0,0 UV-I 185 W/m 7,8 C 10,9 C 6,4 km/h (2 Bft) 100,00 %
11.04.2018 08:35 10,9 C 10,0 C 81 % 1006,6 hPa 0,0 l/m 3,7 km/h (1 Bft) SW 232 0 min 0,000 mm 0,5 UV-I 176 W/m 7,8 C 10,9 C 4,8 km/h (1 Bft) 100,00 %
11.04.2018 08:36 10,9 C 10,0 C 81 % 1006,6 hPa 0,0 l/m 3,8 km/h (1 Bft) W-SW 239 0 min 0,000 mm 0,5 UV-I 170 W/m 7,8 C 10,9 C 4,8 km/h (1 Bft) 100,00 %
11.04.2018 08:37 11,0 C 10,0 C 82 % 1006,6 hPa 0,0 l/m 4,5 km/h (1 Bft) W-SW 242 1 min 0,000 mm 0,5 UV-I 206 W/m 8,0 C 11,0 C 6,4 km/h (2 Bft) 100,00 %
11.04.2018 08:38 11,1 C 10,0 C 82 % 1006,6 hPa 0,0 l/m 5,3 km/h (1 Bft) W-SW 247 1 min 0,000 mm 0,6 UV-I 207 W/m 8,1 C 11,1 C 6,4 km/h (2 Bft) 100,00 %
11.04.2018 08:39 11,1 C 10,0 C 82 % 1006,5 hPa 0,0 l/m 5,7 km/h (1 Bft) W-SW 242 1 min 0,000 mm 0,6 UV-I 339 W/m 8,1 C 11,1 C 8,0 km/h (2 Bft) 100,00 %
11.04.2018 08:40 11,2 C 10,0 C 82 % 1006,5 hPa 0,0 l/m 4,2 km/h (1 Bft) W-SW 252 1 min 0,000 mm 0,6 UV-I 343 W/m 8,2 C 11,2 C 4,8 km/h (1 Bft) 100,00 %
11.04.2018 08:41 11,3 C 10,0 C 81 % 1006,5 hPa 0,0 l/m 3,8 km/h (1 Bft) W-SW 252 1 min 0,000 mm 0,6 UV-I 340 W/m 8,2 C 11,3 C 4,8 km/h (1 Bft) 95,83 %
11.04.2018 08:43 11,4 C 10,0 C 80 % 1006,4 hPa 0,0 l/m 4,0 km/h (1 Bft) W 265 2 min 0,000 mm 0,6 UV-I 332 W/m 8,1 C 11,4 C 6,4 km/h (2 Bft) 98,00 %
11.04.2018 08:44 11,4 C 10,0 C 80 % 1006,4 hPa 0,0 l/m 4,8 km/h (1 Bft) W 273 1 min 0,000 mm 0,7 UV-I 323 W/m 8,1 C 11,4 C 6,4 km/h (2 Bft) 100,00 %
11.04.2018 08:45 11,4 C 10,0 C 80 % 1006,4 hPa 0,0 l/m 3,7 km/h (1 Bft) W 274 1 min 0,000 mm 0,7 UV-I 325 W/m 8,1 C 11,4 C 4,8 km/h (1 Bft) 91,67 %
11.04.2018 08:46 11,4 C 10,0 C 80 % 1006,4 hPa 0,0 l/m 3,3 km/h (1 Bft) W 265 1 min 0,000 mm 0,6 UV-I 324 W/m 8,1 C 11,4 C 4,8 km/h (1 Bft) 100,00 %
11.04.2018 08:47 11,4 C 10,0 C 80 % 1006,4 hPa 0,0 l/m 5,0 km/h (1 Bft) SW 217 1 min 0,000 mm 0,7 UV-I 318 W/m 8,1 C 11,4 C 6,4 km/h (2 Bft) 96,15 %
11.04.2018 08:48 11,4 C 10,0 C 80 % 1006,4 hPa 0,0 l/m 4,9 km/h (1 Bft) W-NW 291 1 min 0,000 mm 0,7 UV-I 345 W/m 8,1 C 11,4 C 6,4 km/h (2 Bft) 100,00 %
11.04.2018 08:49 11,4 C 10,0 C 80 % 1006,4 hPa 0,0 l/m 6,4 km/h (2 Bft) W 274 1 min 0,000 mm 0,7 UV-I 346 W/m 8,1 C 11,4 C 9,7 km/h (2 Bft) 96,55 %
11.04.2018 08:50 11,4 C 10,0 C 80 % 1006,4 hPa 0,0 l/m 5,1 km/h (1 Bft) W 269 1 min 0,000 mm 0,7 UV-I 346 W/m 8,1 C 11,4 C 9,7 km/h (2 Bft) 96,30 %
11.04.2018 08:51 11,4 C 10,0 C 80 % 1006,4 hPa 0,0 l/m 2,6 km/h (1 Bft) W 269 1 min 0,000 mm 0,7 UV-I 369 W/m 8,1 C 11,4 C 3,2 km/h (1 Bft) 100,00 %
11.04.2018 08:52 11,4 C 10,0 C 80 % 1006,4 hPa 0,0 l/m 2,5 km/h (1 Bft) W 277 1 min 0,000 mm 0,7 UV-I 384 W/m 8,1 C 11,4 C 4,8 km/h (1 Bft) 95,83 %
11.04.2018 08:53 11,6 C 10,0 C 80 % 1006,4 hPa 0,0 l/m 8,6 km/h (2 Bft) W-SW 257 1 min 0,000 mm 0,7 UV-I 377 W/m 8,3 C 10,2 C 12,9 km/h (3 Bft) 100,00 %
11.04.2018 08:54 11,6 C 10,0 C 80 % 1006,4 hPa 0,0 l/m 7,8 km/h (2 Bft) W-NW 287 1 min 0,000 mm 0,8 UV-I 377 W/m 8,3 C 10,7 C 11,3 km/h (2 Bft) 93,33 %
11.04.2018 08:55 11,6 C 10,0 C 79 % 1006,4 hPa 0,0 l/m 4,1 km/h (1 Bft) W-NW 300 1 min 0,000 mm 0,8 UV-I 386 W/m 8,1 C 11,6 C 4,8 km/h (1 Bft) 96,15 %
11.04.2018 08:56 11,6 C 10,0 C 79 % 1006,4 hPa 0,0 l/m 6,1 km/h (2 Bft) W-NW 287 1 min 0,000 mm 0,8 UV-I 380 W/m 8,1 C 11,6 C 9,7 km/h (2 Bft) 100,00 %
11.04.2018 08:57 11,6 C 10,0 C 79 % 1006,4 hPa 0,0 l/m 3,9 km/h (1 Bft) W-NW 287 1 min 0,000 mm 0,8 UV-I 378 W/m 8,1 C 11,6 C 6,4 km/h (2 Bft) 100,00 %
11.04.2018 08:58 11,6 C 10,0 C 80 % 1006,4 hPa 0,0 l/m 2,4 km/h (1 Bft) W-NW 286 1 min 0,000 mm 0,8 UV-I 375 W/m 8,3 C 11,6 C 4,8 km/h (1 Bft) 96,30 %
11.04.2018 08:59 11,6 C 10,0 C 80 % 1006,4 hPa 0,0 l/m 3,6 km/h (1 Bft) NW 310 1 min 0,000 mm 0,8 UV-I 375 W/m 8,3 C 11,6 C 4,8 km/h (1 Bft) 96,15 %
11.04.2018 09:00 11,6 C 10,0 C 81 % 1006,4 hPa 0,0 l/m 3,8 km/h (1 Bft) W-NW 294 1 min 0,127 mm 0,8 UV-I 390 W/m 8,5 C 11,6 C 8,0 km/h (2 Bft) 100,00 %
11.04.2018 09:01 11,8 C 10,0 C 80 % 1006,4 hPa 0,0 l/m 7,5 km/h (2 Bft) W 276 1 min 0,000 mm 0,8 UV-I 391 W/m 8,5 C 11,1 C 9,7 km/h (2 Bft) 96,15 %
11.04.2018 09:02 11,8 C 10,0 C 79 % 1006,4 hPa 0,0 l/m 6,1 km/h (2 Bft) W 281 1 min 0,000 mm 0,8 UV-I 378 W/m 8,3 C 11,8 C 9,7 km/h (2 Bft) 100,00 %
11.04.2018 09:03 11,8 C 10,0 C 79 % 1006,3 hPa 0,0 l/m 4,6 km/h (1 Bft) N 350 1 min 0,000 mm 0,9 UV-I 391 W/m 8,3 C 11,8 C 8,0 km/h (2 Bft) 95,65 %
11.04.2018 09:04 11,8 C 10,0 C 80 % 1006,3 hPa 0,0 l/m 5,6 km/h (1 Bft) W 279 1 min 0,000 mm 0,9 UV-I 401 W/m 8,5 C 11,8 C 9,7 km/h (2 Bft) 95,83 %
11.04.2018 09:05 11,8 C 10,0 C 80 % 1006,3 hPa 0,0 l/m 7,6 km/h (2 Bft) NW 320 1 min 0,000 mm 0,9 UV-I 407 W/m 8,5 C 11,0 C 11,3 km/h (2 Bft) 91,67 %
11.04.2018 09:06 11,9 C 10,0 C 80 % 1006,4 hPa 0,0 l/m 5,0 km/h (1 Bft) W 266 1 min 0,000 mm 0,9 UV-I 414 W/m 8,6 C 11,9 C 6,4 km/h (2 Bft) 100,00 %
11.04.2018 09:07 11,9 C 10,0 C 80 % 1006,4 hPa 0,0 l/m 5,0 km/h (1 Bft) W 278 1 min 0,000 mm 0,8 UV-I 412 W/m 8,6 C 11,9 C 6,4 km/h (2 Bft) 95,83 %
11.04.2018 09:08 11,8 C 10,0 C 79 % 1006,4 hPa 0,0 l/m 9,8 km/h (2 Bft) W 270 1 min 0,000 mm 0,8 UV-I 410 W/m 8,3 C 9,7 C 12,9 km/h (3 Bft) 88,46 %
11.04.2018 09:09 11,8 C 10,0 C 79 % 1006,3 hPa 0,0 l/m 6,7 km/h (2 Bft) W-NW 298 0 min 0,000 mm 0,8 UV-I 168 W/m 8,3 C 11,6 C 11,3 km/h (2 Bft) 100,00 %
11.04.2018 09:10 11,7 C 10,0 C 79 % 1006,3 hPa 0,0 l/m 7,5 km/h (2 Bft) W-SW 252 0 min 0,000 mm 0,9 UV-I 179 W/m 8,2 C 11,0 C 14,5 km/h (3 Bft) 95,65 %
11.04.2018 09:11 11,7 C 10,0 C 80 % 1006,3 hPa 0,0 l/m 9,7 km/h (2 Bft) W 262 0 min 0,000 mm 0,9 UV-I 179 W/m 8,4 C 9,6 C 14,5 km/h (3 Bft) 100,00 %
11.04.2018 09:12 11,7 C 10,0 C 79 % 1006,3 hPa 0,0 l/m 7,0 km/h (2 Bft) W-SW 251 0 min 0,000 mm 1,0 UV-I 179 W/m 8,2 C 11,3 C 9,7 km/h (2 Bft) 95,65 %
11.04.2018 09:13 11,7 C 10,0 C 79 % 1006,3 hPa 0,0 l/m 3,4 km/h (1 Bft) W-SW 252 1 min 0,000 mm 1,0 UV-I 359 W/m 8,2 C 11,7 C 6,4 km/h (2 Bft) 100,00 %
11.04.2018 09:14 11,8 C 10,0 C 80 % 1006,3 hPa 0,0 l/m 2,8 km/h (1 Bft) W-SW 252 1 min 0,000 mm 1,0 UV-I 445 W/m 8,5 C 11,8 C 6,4 km/h (2 Bft) 100,00 %
11.04.2018 09:15 11,9 C 10,0 C 80 % 1006,3 hPa 0,0 l/m 4,7 km/h (1 Bft) N-NW 344 1 min 0,000 mm 1,0 UV-I 468 W/m 8,6 C 11,9 C 6,4 km/h (2 Bft) 100,00 %
11.04.2018 09:16 12,0 C 10,0 C 80 % 1006,3 hPa 0,0 l/m 4,6 km/h (1 Bft) W 280 1 min 0,000 mm 1,0 UV-I 466 W/m 8,7 C 12,0 C 6,4 km/h (2 Bft) 100,00 %
11.04.2018 09:17 12,1 C 10,0 C 79 % 1006,3 hPa 0,0 l/m 5,1 km/h (1 Bft) W 260 1 min 0,000 mm 1,0 UV-I 473 W/m 8,6 C 12,1 C 8,0 km/h (2 Bft) 95,83 %
11.04.2018 09:18 12,1 C 10,0 C 79 % 1006,2 hPa 0,0 l/m 5,0 km/h (1 Bft) N-NW 333 1 min 0,000 mm 1,0 UV-I 465 W/m 8,6 C 12,1 C 6,4 km/h (2 Bft) 100,00 %
11.04.2018 09:19 12,1 C 10,0 C 79 % 1006,2 hPa 0,0 l/m 3,6 km/h (1 Bft) NW 325 1 min 0,000 mm 1,1 UV-I 456 W/m 8,6 C 12,1 C 6,4 km/h (2 Bft) 100,00 %
11.04.2018 09:20 12,3 C 10,0 C 79 % 1006,2 hPa 0,0 l/m 7,0 km/h (2 Bft) NW 317 1 min 0,000 mm 1,1 UV-I 498 W/m 8,8 C 11,9 C 11,3 km/h (2 Bft) 100,00 %
11.04.2018 09:21 12,4 C 10,0 C 79 % 1006,3 hPa 0,0 l/m 4,7 km/h (1 Bft) NW 318 1 min 0,000 mm 1,1 UV-I 508 W/m 8,9 C 12,4 C 6,4 km/h (2 Bft) 100,00 %
11.04.2018 09:22 12,4 C 10,0 C 79 % 1006,3 hPa 0,0 l/m 4,6 km/h (1 Bft) NW 309 1 min 0,000 mm 1,1 UV-I 510 W/m 8,9 C 12,4 C 6,4 km/h (2 Bft) 96,30 %
11.04.2018 09:23 12,4 C 10,0 C 78 % 1006,2 hPa 0,0 l/m 2,8 km/h (1 Bft) NW 324 1 min 0,000 mm 1,1 UV-I 517 W/m 8,7 C 12,4 C 4,8 km/h (1 Bft) 100,00 %
11.04.2018 09:24 12,4 C 10,0 C 78 % 1006,2 hPa 0,0 l/m 7,6 km/h (2 Bft) W-SW 254 1 min 0,000 mm 1,0 UV-I 367 W/m 8,7 C 11,6 C 12,9 km/h (3 Bft) 100,00 %
11.04.2018 09:25 12,4 C 10,0 C 78 % 1006,3 hPa 0,0 l/m 3,4 km/h (1 Bft) NW 317 0 min 0,000 mm 0,9 UV-I 224 W/m 8,7 C 12,4 C 4,8 km/h (1 Bft) 100,00 %
11.04.2018 09:26 12,4 C 10,0 C 78 % 1006,3 hPa 0,0 l/m 6,2 km/h (2 Bft) NW 315 0 min 0,000 mm 0,9 UV-I 218 W/m 8,7 C 12,4 C 11,3 km/h (2 Bft) 100,00 %
11.04.2018 09:27 12,3 C 10,0 C 78 % 1006,3 hPa 0,0 l/m 4,5 km/h (1 Bft) W-NW 288 0 min 0,000 mm 0,9 UV-I 231 W/m 8,6 C 12,3 C 6,4 km/h (2 Bft) 96,55 %
11.04.2018 09:28 12,3 C 10,0 C 78 % 1006,4 hPa 0,0 l/m 6,0 km/h (2 Bft) W 281 1 min 0,000 mm 1,0 UV-I 306 W/m 8,6 C 12,3 C 9,7 km/h (2 Bft) 100,00 %
11.04.2018 09:29 12,2 C 10,0 C 78 % 1006,4 hPa 0,0 l/m 5,1 km/h (1 Bft) W 277 1 min 0,000 mm 1,1 UV-I 357 W/m 8,5 C 12,2 C 9,7 km/h (2 Bft) 100,00 %
11.04.2018 09:30 12,1 C 10,0 C 78 % 1006,4 hPa 0,0 l/m 6,3 km/h (2 Bft) W-SW 239 1 min 0,000 mm 1,1 UV-I 445 W/m 8,4 C 12,1 C 11,3 km/h (2 Bft) 100,00 %
11.04.2018 09:31 12,1 C 10,0 C 78 % 1006,4 hPa 0,0 l/m 5,4 km/h (1 Bft) W-NW 286 1 min 0,000 mm 1,2 UV-I 533 W/m 8,4 C 12,1 C 6,4 km/h (2 Bft) 100,00 %
11.04.2018 09:32 12,1 C 10,0 C 78 % 1006,4 hPa 0,0 l/m 4,9 km/h (1 Bft) NW 310 1 min 0,000 mm 1,0 UV-I 545 W/m 8,4 C 12,1 C 6,4 km/h (2 Bft) 100,00 %
11.04.2018 09:33 12,2 C 10,0 C 79 % 1006,4 hPa 0,0 l/m 5,9 km/h (2 Bft) W-NW 284 1 min 0,000 mm 1,2 UV-I 545 W/m 8,7 C 12,2 C 11,3 km/h (2 Bft) 100,00 %
11.04.2018 09:34 12,3 C 10,0 C 78 % 1006,4 hPa 0,0 l/m 7,4 km/h (2 Bft) W-NW 288 1 min 0,000 mm 1,2 UV-I 544 W/m 8,6 C 11,6 C 12,9 km/h (3 Bft) 100,00 %
11.04.2018 09:35 12,2 C 10,0 C 78 % 1006,4 hPa 0,0 l/m 5,2 km/h (1 Bft) W-NW 292 1 min 0,000 mm 1,1 UV-I 543 W/m 8,5 C 12,2 C 6,4 km/h (2 Bft) 100,00 %
11.04.2018 09:36 12,3 C 10,0 C 78 % 1006,4 hPa 0,0 l/m 3,8 km/h (1 Bft) W 276 1 min 0,000 mm 1,2 UV-I 543 W/m 8,6 C 12,3 C 6,4 km/h (2 Bft) 100,00 %
11.04.2018 09:37 12,3 C 10,0 C 78 % 1006,4 hPa 0,0 l/m 4,7 km/h (1 Bft) NW 316 1 min 0,000 mm 1,1 UV-I 543 W/m 8,6 C 12,3 C 9,7 km/h (2 Bft) 96,15 %
11.04.2018 09:38 12,3 C 10,0 C 78 % 1006,4 hPa 0,0 l/m 6,5 km/h (2 Bft) W 276 1 min 0,000 mm 1,2 UV-I 323 W/m 8,6 C 12,3 C 11,3 km/h (2 Bft) 100,00 %
11.04.2018 09:39 12,3 C 10,0 C 78 % 1006,4 hPa 0,0 l/m 4,8 km/h (1 Bft) NW 304 1 min 0,000 mm 1,2 UV-I 308 W/m 8,6 C 12,3 C 9,7 km/h (2 Bft) 100,00 %
11.04.2018 09:40 12,3 C 10,0 C 78 % 1006,5 hPa 0,0 l/m 4,2 km/h (1 Bft) NW 309 1 min 0,000 mm 1,2 UV-I 308 W/m 8,6 C 12,3 C 8,0 km/h (2 Bft) 100,00 %
11.04.2018 09:41 12,3 C 10,0 C 78 % 1006,5 hPa 0,0 l/m 5,6 km/h (1 Bft) N-NW 335 1 min 0,000 mm 1,1 UV-I 308 W/m 8,6 C 12,3 C 11,3 km/h (2 Bft) 100,00 %
11.04.2018 09:43 12,4 C 10,0 C 78 % 1006,5 hPa 0,0 l/m 7,0 km/h (2 Bft) N-NW 334 0 min 0,000 mm 1,1 UV-I 268 W/m 8,7 C 12,0 C 12,9 km/h (3 Bft) 100,00 %
11.04.2018 09:44 12,3 C 10,0 C 77 % 1006,5 hPa 0,0 l/m 5,7 km/h (1 Bft) N 355 1 min 0,000 mm 1,2 UV-I 296 W/m 8,4 C 12,3 C 6,4 km/h (2 Bft) 98,21 %
11.04.2018 09:45 12,3 C 10,0 C 78 % 1006,5 hPa 0,0 l/m 4,4 km/h (1 Bft) W-NW 298 1 min 0,000 mm 1,3 UV-I 368 W/m 8,6 C 12,3 C 6,4 km/h (2 Bft) 100,00 %
11.04.2018 09:46 12,3 C 10,0 C 77 % 1006,5 hPa 0,0 l/m 3,5 km/h (1 Bft) NW 310 1 min 0,000 mm 1,2 UV-I 311 W/m 8,4 C 12,3 C 6,4 km/h (2 Bft) 100,00 %
11.04.2018 09:47 12,2 C 10,0 C 78 % 1006,5 hPa 0,0 l/m 2,6 km/h (1 Bft) W 277 0 min 0,000 mm 1,3 UV-I 262 W/m 8,5 C 12,2 C 3,2 km/h (1 Bft) 100,00 %
11.04.2018 09:48 12,3 C 10,0 C 79 % 1006,5 hPa 0,0 l/m 3,2 km/h (1 Bft) W-NW 289 1 min 0,000 mm 1,4 UV-I 450 W/m 8,8 C 12,3 C 4,8 km/h (1 Bft) 100,00 %
11.04.2018 09:49 12,5 C 10,0 C 79 % 1006,5 hPa 0,0 l/m 4,9 km/h (1 Bft) W-SW 238 1 min 0,000 mm 1,4 UV-I 532 W/m 9,0 C 12,5 C 9,7 km/h (2 Bft) 100,00 %
11.04.2018 09:50 12,6 C 10,0 C 78 % 1006,4 hPa 0,0 l/m 7,6 km/h (2 Bft) W 265 1 min 0,000 mm 1,4 UV-I 536 W/m 8,9 C 11,8 C 11,3 km/h (2 Bft) 96,55 %
11.04.2018 09:51 12,7 C 10,0 C 78 % 1006,4 hPa 0,0 l/m 6,6 km/h (2 Bft) W-NW 296 1 min 0,000 mm 1,5 UV-I 541 W/m 9,0 C 12,6 C 12,9 km/h (3 Bft) 100,00 %
11.04.2018 09:52 12,7 C 10,0 C 77 % 1006,4 hPa 0,0 l/m 5,2 km/h (1 Bft) NW 304 1 min 0,000 mm 1,5 UV-I 570 W/m 8,8 C 12,7 C 6,4 km/h (2 Bft) 100,00 %
11.04.2018 09:53 12,7 C 10,0 C 79 % 1006,4 hPa 0,0 l/m 5,2 km/h (1 Bft) W-NW 288 1 min 0,000 mm 1,5 UV-I 585 W/m 9,2 C 12,7 C 6,4 km/h (2 Bft) 100,00 %
11.04.2018 09:54 12,8 C 10,0 C 77 % 1006,4 hPa 0,0 l/m 4,8 km/h (1 Bft) W-SW 240 1 min 0,000 mm 1,5 UV-I 561 W/m 8,9 C 12,8 C 9,7 km/h (2 Bft) 100,00 %
11.04.2018 09:55 12,8 C 10,0 C 77 % 1006,4 hPa 0,0 l/m 7,8 km/h (2 Bft) W 263 1 min 0,000 mm 1,3 UV-I 528 W/m 8,9 C 11,9 C 14,5 km/h (3 Bft) 100,00 %
11.04.2018 09:56 12,7 C 10,0 C 76 % 1006,5 hPa 0,0 l/m 6,6 km/h (2 Bft) W 279 0 min 0,000 mm 1,2 UV-I 185 W/m 8,6 C 12,6 C 12,9 km/h (3 Bft) 97,56 %
11.04.2018 09:57 12,5 C 10,0 C 76 % 1006,5 hPa 0,0 l/m 7,2 km/h (2 Bft) W 271 0 min 0,000 mm 1,2 UV-I 180 W/m 8,4 C 12,0 C 9,7 km/h (2 Bft) 100,00 %
11.04.2018 09:58 12,3 C 10,0 C 77 % 1006,5 hPa 0,0 l/m 5,6 km/h (1 Bft) SW 225 0 min 0,000 mm 1,3 UV-I 205 W/m 8,4 C 12,3 C 6,4 km/h (2 Bft) 100,00 %
11.04.2018 09:59 12,3 C 10,0 C 78 % 1006,5 hPa 0,0 l/m 4,5 km/h (1 Bft) W-NW 297 0 min 0,000 mm 1,5 UV-I 229 W/m 8,6 C 12,3 C 6,4 km/h (2 Bft) 100,00 %
11.04.2018 10:00 12,4 C 10,0 C 78 % 1006,5 hPa 0,0 l/m 3,3 km/h (1 Bft) NW 311 1 min 0,000 mm 1,6 UV-I 490 W/m 8,7 C 12,4 C 6,4 km/h (2 Bft) 100,00 %
11.04.2018 10:02 12,5 C 10,0 C 78 % 1006,6 hPa 0,0 l/m 3,2 km/h (1 Bft) N-NW 343 2 min 0,203 mm 1,6 UV-I 613 W/m 8,8 C 12,5 C 6,4 km/h (2 Bft) 100,00 %
11.04.2018 10:03 12,7 C 10,0 C 77 % 1006,5 hPa 0,0 l/m 4,6 km/h (1 Bft) N-NW 342 1 min 0,000 mm 1,7 UV-I 642 W/m 8,8 C 12,7 C 6,4 km/h (2 Bft) 100,00 %
11.04.2018 10:04 12,8 C 10,0 C 77 % 1006,5 hPa 0,0 l/m 3,4 km/h (1 Bft) N-NW 331 1 min 0,000 mm 1,7 UV-I 646 W/m 8,9 C 12,8 C 4,8 km/h (1 Bft) 100,00 %
11.04.2018 10:05 12,9 C 10,0 C 78 % 1006,5 hPa 0,0 l/m 5,2 km/h (1 Bft) NW 314 1 min 0,000 mm 1,7 UV-I 663 W/m 9,2 C 12,9 C 9,7 km/h (2 Bft) 100,00 %
11.04.2018 10:06 13,1 C 10,0 C 77 % 1006,5 hPa 0,0 l/m 6,6 km/h (2 Bft) N 355 1 min 0,000 mm 1,7 UV-I 660 W/m 9,2 C 13,0 C 9,7 km/h (2 Bft) 100,00 %
11.04.2018 10:07 13,2 C 10,0 C 77 % 1006,5 hPa 0,0 l/m 4,5 km/h (1 Bft) W-NW 283 1 min 0,000 mm 1,7 UV-I 669 W/m 9,3 C 13,2 C 6,4 km/h (2 Bft) 100,00 %
11.04.2018 10:08 13,3 C 10,0 C 77 % 1006,5 hPa 0,0 l/m 7,2 km/h (2 Bft) N-NO 12 1 min 0,000 mm 1,7 UV-I 670 W/m 9,4 C 12,8 C 11,3 km/h (2 Bft) 100,00 %
11.04.2018 10:09 13,3 C 10,0 C 76 % 1006,5 hPa 0,0 l/m 5,8 km/h (2 Bft) NW 315 1 min 0,000 mm 1,8 UV-I 659 W/m 9,2 C 13,3 C 11,3 km/h (2 Bft) 95,65 %
11.04.2018 10:10 13,3 C 10,0 C 76 % 1006,6 hPa 0,0 l/m 4,2 km/h (1 Bft) NW 319 1 min 0,000 mm 1,6 UV-I 598 W/m 9,2 C 13,3 C 6,4 km/h (2 Bft) 100,00 %
11.04.2018 10:11 13,3 C 10,0 C 76 % 1006,6 hPa 0,0 l/m 4,3 km/h (1 Bft) W 261 1 min 0,000 mm 1,3 UV-I 324 W/m 9,2 C 13,3 C 9,7 km/h (2 Bft) 100,00 %
11.04.2018 10:12 13,2 C 10,0 C 74 % 1006,6 hPa 0,0 l/m 5,6 km/h (1 Bft) SW 235 0 min 0,000 mm 1,3 UV-I 297 W/m 8,7 C 13,2 C 9,7 km/h (2 Bft) 100,00 %
11.04.2018 10:13 12,9 C 10,0 C 75 % 1006,6 hPa 0,0 l/m 7,6 km/h (2 Bft) W-SW 247 0 min 0,000 mm 1,3 UV-I 288 W/m 8,6 C 12,1 C 12,9 km/h (3 Bft) 100,00 %
11.04.2018 10:14 12,8 C 10,0 C 75 % 1006,6 hPa 0,0 l/m 8,2 km/h (2 Bft) W 279 0 min 0,000 mm 1,3 UV-I 290 W/m 8,5 C 11,7 C 11,3 km/h (2 Bft) 100,00 %
11.04.2018 10:15 12,8 C 10,0 C 76 % 1006,6 hPa 0,0 l/m 9,9 km/h (2 Bft) W 265 1 min 0,000 mm 1,8 UV-I 438 W/m 8,7 C 10,7 C 12,9 km/h (3 Bft) 100,00 %
11.04.2018 10:16 12,8 C 10,0 C 77 % 1006,6 hPa 0,0 l/m 7,7 km/h (2 Bft) W-NW 284 1 min 0,000 mm 1,8 UV-I 694 W/m 8,9 C 12,0 C 11,3 km/h (2 Bft) 100,00 %
11.04.2018 10:17 12,9 C 10,0 C 77 % 1006,7 hPa 0,0 l/m 6,3 km/h (2 Bft) W 269 1 min 0,000 mm 1,8 UV-I 693 W/m 9,0 C 12,9 C 9,7 km/h (2 Bft) 100,00 %
11.04.2018 10:18 13,0 C 10,0 C 77 % 1006,6 hPa 0,0 l/m 5,0 km/h (1 Bft) N-NW 342 1 min 0,000 mm 1,8 UV-I 686 W/m 9,1 C 13,0 C 8,0 km/h (2 Bft) 100,00 %
11.04.2018 10:19 13,2 C 10,0 C 77 % 1006,7 hPa 0,0 l/m 5,7 km/h (1 Bft) NW 319 1 min 0,000 mm 1,7 UV-I 684 W/m 9,3 C 13,2 C 8,0 km/h (2 Bft) 100,00 %
11.04.2018 10:20 13,3 C 10,0 C 76 % 1006,6 hPa 0,0 l/m 5,3 km/h (1 Bft) NW 323 1 min 0,000 mm 1,9 UV-I 689 W/m 9,2 C 13,3 C 8,0 km/h (2 Bft) 100,00 %
11.04.2018 10:21 13,4 C 10,0 C 75 % 1006,6 hPa 0,0 l/m 9,6 km/h (2 Bft) NW 326 1 min 0,000 mm 1,9 UV-I 683 W/m 9,1 C 11,6 C 12,9 km/h (3 Bft) 96,30 %
11.04.2018 10:22 13,4 C 10,0 C 75 % 1006,6 hPa 0,0 l/m 7,2 km/h (2 Bft) NW 326 1 min 0,000 mm 1,9 UV-I 652 W/m 9,1 C 12,9 C 9,7 km/h (2 Bft) 100,00 %
11.04.2018 10:23 13,4 C 10,0 C 74 % 1006,6 hPa 0,0 l/m 3,4 km/h (1 Bft) NO 35 1 min 0,000 mm 1,8 UV-I 680 W/m 8,9 C 13,4 C 4,8 km/h (1 Bft) 100,00 %
11.04.2018 10:24 13,4 C 10,0 C 74 % 1006,7 hPa 0,0 l/m 4,9 km/h (1 Bft) W-NW 298 1 min 0,000 mm 1,7 UV-I 597 W/m 8,9 C 13,4 C 6,4 km/h (2 Bft) 100,00 %
11.04.2018 10:25 13,4 C 10,0 C 74 % 1006,6 hPa 0,0 l/m 4,3 km/h (1 Bft) N-NW 344 1 min 0,000 mm 1,6 UV-I 552 W/m 8,9 C 13,4 C 9,7 km/h (2 Bft) 91,67 %
11.04.2018 10:26 13,4 C 10,0 C 75 % 1006,6 hPa 0,0 l/m 7,6 km/h (2 Bft) NW 319 1 min 0,000 mm 1,6 UV-I 360 W/m 9,1 C 12,7 C 9,7 km/h (2 Bft) 100,00 %
11.04.2018 10:27 13,3 C 10,0 C 74 % 1006,6 hPa 0,0 l/m 6,5 km/h (2 Bft) W-NW 289 1 min 0,000 mm 1,8 UV-I 444 W/m 8,8 C 13,3 C 9,7 km/h (2 Bft) 100,00 %
11.04.2018 10:28 13,1 C 10,0 C 75 % 1006,6 hPa 0,0 l/m 3,5 km/h (1 Bft) W-NW 296 1 min 0,000 mm 1,7 UV-I 466 W/m 8,8 C 13,1 C 6,4 km/h (2 Bft) 100,00 %
11.04.2018 10:29 13,0 C 10,0 C 75 % 1006,6 hPa 0,0 l/m 8,2 km/h (2 Bft) W-NW 292 1 min 0,000 mm 1,7 UV-I 466 W/m 8,7 C 11,9 C 11,3 km/h (2 Bft) 95,83 %
11.04.2018 10:30 12,9 C 10,0 C 76 % 1006,6 hPa 0,0 l/m 9,9 km/h (2 Bft) W-NW 294 1 min 0,000 mm 1,9 UV-I 632 W/m 8,8 C 10,8 C 11,3 km/h (2 Bft) 100,00 %
11.04.2018 10:31 12,9 C 10,0 C 75 % 1006,6 hPa 0,0 l/m 5,3 km/h (1 Bft) W-NW 288 1 min 0,000 mm 1,7 UV-I 635 W/m 8,6 C 12,9 C 8,0 km/h (2 Bft) 91,67 %
11.04.2018 10:32 12,7 C 10,0 C 75 % 1006,6 hPa 0,0 l/m 2,8 km/h (1 Bft) N 355 0 min 0,000 mm 1,6 UV-I 244 W/m 8,4 C 12,7 C 4,8 km/h (1 Bft) 100,00 %
11.04.2018 10:33 12,7 C 10,0 C 76 % 1006,5 hPa 0,0 l/m 2,1 km/h (1 Bft) N 355 0 min 0,000 mm 2,0 UV-I 244 W/m 8,6 C 12,7 C 4,8 km/h (1 Bft) 95,83 %
11.04.2018 10:34 12,8 C 10,0 C 76 % 1006,5 hPa 0,0 l/m 4,0 km/h (1 Bft) NW 315 0 min 0,000 mm 1,9 UV-I 244 W/m 8,7 C 12,8 C 6,4 km/h (2 Bft) 95,65 %
11.04.2018 10:35 12,9 C 10,0 C 77 % 1006,5 hPa 0,0 l/m 6,5 km/h (2 Bft) N 355 0 min 0,000 mm 1,7 UV-I 244 W/m 9,0 C 12,9 C 8,0 km/h (2 Bft) 92,59 %
11.04.2018 10:36 13,1 C 10,0 C 77 % 1006,5 hPa 0,0 l/m 6,3 km/h (2 Bft) NW 326 0 min 0,000 mm 1,7 UV-I 244 W/m 9,2 C 13,1 C 9,7 km/h (2 Bft) 95,65 %
11.04.2018 10:37 13,1 C 10,0 C 76 % 1006,5 hPa 0,0 l/m 5,6 km/h (1 Bft) W 259 0 min 0,000 mm 1,7 UV-I 263 W/m 9,0 C 13,1 C 12,9 km/h (3 Bft) 95,83 %
11.04.2018 10:38 13,1 C 10,0 C 75 % 1006,5 hPa 0,0 l/m 4,4 km/h (1 Bft) N-NW 329 1 min 0,000 mm 1,8 UV-I 360 W/m 8,8 C 13,1 C 8,0 km/h (2 Bft) 88,46 %
11.04.2018 10:39 13,1 C 10,0 C 75 % 1006,5 hPa 0,0 l/m 4,0 km/h (1 Bft) N-NO 23 1 min 0,000 mm 2,2 UV-I 360 W/m 8,8 C 13,1 C 6,4 km/h (2 Bft) 96,30 %
11.04.2018 10:40 13,2 C 10,0 C 76 % 1006,5 hPa 0,0 l/m 6,4 km/h (2 Bft) N-NW 338 1 min 0,000 mm 2,2 UV-I 578 W/m 9,1 C 13,2 C 9,7 km/h (2 Bft) 86,67 %
11.04.2018 10:41 13,4 C 10,0 C 76 % 1006,5 hPa 0,0 l/m 3,3 km/h (1 Bft) N 5 1 min 0,000 mm 2,2 UV-I 719 W/m 9,3 C 13,4 C 4,8 km/h (1 Bft) 96,88 %
11.04.2018 10:42 13,6 C 10,0 C 75 % 1006,5 hPa 0,0 l/m 5,6 km/h (1 Bft) N-NW 339 1 min 0,000 mm 2,2 UV-I 726 W/m 9,3 C 13,6 C 8,0 km/h (2 Bft) 95,83 %
11.04.2018 10:43 13,7 C 10,0 C 76 % 1006,5 hPa 0,0 l/m 5,2 km/h (1 Bft) N 360 1 min 0,000 mm 2,2 UV-I 719 W/m 9,5 C 13,7 C 8,0 km/h (2 Bft) 100,00 %
11.04.2018 10:44 13,8 C 10,0 C 75 % 1006,5 hPa 0,0 l/m 3,1 km/h (1 Bft) N 10 1 min 0,000 mm 2,1 UV-I 680 W/m 9,4 C 13,8 C 6,4 km/h (2 Bft) 92,59 %
11.04.2018 10:45 13,8 C 10,0 C 74 % 1006,5 hPa 0,0 l/m 4,0 km/h (1 Bft) W-NW 292 1 min 0,000 mm 2,2 UV-I 584 W/m 9,2 C 13,8 C 6,4 km/h (2 Bft) 96,15 %
11.04.2018 10:46 13,7 C 10,0 C 73 % 1006,5 hPa 0,0 l/m 5,6 km/h (1 Bft) NW 305 1 min 0,000 mm 2,1 UV-I 628 W/m 8,9 C 13,7 C 8,0 km/h (2 Bft) 96,30 %
11.04.2018 10:47 13,6 C 10,0 C 72 % 1006,5 hPa 0,0 l/m 4,0 km/h (1 Bft) N-NW 333 1 min 0,000 mm 1,9 UV-I 649 W/m 8,6 C 13,6 C 8,0 km/h (2 Bft) 91,30 %
11.04.2018 10:48 13,6 C 10,0 C 74 % 1006,5 hPa 0,0 l/m 6,9 km/h (2 Bft) N 355 1 min 0,000 mm 1,8 UV-I 443 W/m 9,1 C 13,3 C 8,0 km/h (2 Bft) 96,30 %
11.04.2018 10:49 13,6 C 10,0 C 74 % 1006,4 hPa 0,0 l/m 7,1 km/h (2 Bft) N-NO 23 1 min 0,000 mm 2,2 UV-I 432 W/m 9,1 C 13,2 C 8,0 km/h (2 Bft) 100,00 %
11.04.2018 10:50 13,6 C 10,0 C 74 % 1006,4 hPa 0,0 l/m 7,2 km/h (2 Bft) N-NW 339 1 min 0,000 mm 2,3 UV-I 432 W/m 9,1 C 13,1 C 8,0 km/h (2 Bft) 92,86 %
11.04.2018 10:51 13,6 C 10,0 C 74 % 1006,4 hPa 0,0 l/m 4,3 km/h (1 Bft) N-NW 344 1 min 0,000 mm 2,3 UV-I 553 W/m 9,1 C 13,6 C 9,7 km/h (2 Bft) 96,15 %
11.04.2018 10:52 13,6 C 10,0 C 74 % 1006,4 hPa 0,0 l/m 3,5 km/h (1 Bft) N-NW 338 1 min 0,000 mm 2,3 UV-I 663 W/m 9,1 C 13,6 C 4,8 km/h (1 Bft) 92,59 %
11.04.2018 10:53 13,6 C 10,0 C 74 % 1006,4 hPa 0,0 l/m 9,7 km/h (2 Bft) N-NO 21 1 min 0,000 mm 2,3 UV-I 657 W/m 9,1 C 11,7 C 14,5 km/h (3 Bft) 91,67 %
11.04.2018 10:54 13,7 C 10,0 C 73 % 1006,4 hPa 0,0 l/m 4,6 km/h (1 Bft) O-NO 65 1 min 0,000 mm 2,3 UV-I 665 W/m 8,9 C 13,7 C 6,4 km/h (2 Bft) 92,31 %
11.04.2018 10:55 13,7 C 10,0 C 74 % 1006,4 hPa 0,0 l/m 4,4 km/h (1 Bft) O-NO 63 1 min 0,000 mm 2,4 UV-I 670 W/m 9,2 C 13,7 C 6,4 km/h (2 Bft) 96,15 %
11.04.2018 10:56 13,7 C 10,0 C 74 % 1006,4 hPa 0,0 l/m 5,2 km/h (1 Bft) O-NO 63 1 min 0,000 mm 2,4 UV-I 663 W/m 9,2 C 13,7 C 6,4 km/h (2 Bft) 96,30 %
11.04.2018 10:57 13,7 C 10,0 C 74 % 1006,4 hPa 0,0 l/m 1,5 km/h (1 Bft) O-NO 63 1 min 0,000 mm 2,4 UV-I 654 W/m 9,2 C 13,7 C 3,2 km/h (1 Bft) 95,83 %
11.04.2018 10:58 13,8 C 10,0 C 73 % 1006,5 hPa 0,0 l/m 2,4 km/h (1 Bft) N-NO 21 1 min 0,000 mm 2,4 UV-I 649 W/m 9,0 C 13,8 C 4,8 km/h (1 Bft) 100,00 %
11.04.2018 10:59 13,8 C 10,0 C 73 % 1006,5 hPa 0,0 l/m 4,1 km/h (1 Bft) NW 309 1 min 0,000 mm 2,4 UV-I 658 W/m 9,0 C 13,8 C 8,0 km/h (2 Bft) 92,59 %
11.04.2018 11:00 13,8 C 10,0 C 73 % 1006,4 hPa 0,0 l/m 9,1 km/h (2 Bft) NW 310 1 min 0,000 mm 2,5 UV-I 667 W/m 9,0 C 12,2 C 12,9 km/h (3 Bft) 96,15 %
11.04.2018 11:01 13,8 C 10,0 C 73 % 1006,5 hPa 0,0 l/m 5,8 km/h (2 Bft) NO 54 1 min 0,305 mm 2,4 UV-I 661 W/m 9,0 C 13,8 C 8,0 km/h (2 Bft) 96,30 %
11.04.2018 11:02 13,8 C 10,0 C 73 % 1006,4 hPa 0,0 l/m 1,6 km/h (1 Bft) NO 53 1 min 0,000 mm 2,4 UV-I 655 W/m 9,0 C 13,8 C 3,2 km/h (1 Bft) 96,55 %
11.04.2018 11:03 13,9 C 10,0 C 74 % 1006,4 hPa 0,0 l/m 4,5 km/h (1 Bft) NW 310 1 min 0,000 mm 2,5 UV-I 658 W/m 9,3 C 13,9 C 8,0 km/h (2 Bft) 95,83 %
11.04.2018 11:04 14,0 C 10,0 C 72 % 1006,4 hPa 0,0 l/m 3,8 km/h (1 Bft) NW 312 1 min 0,000 mm 2,5 UV-I 659 W/m 9,0 C 14,0 C 6,4 km/h (2 Bft) 90,91 %
11.04.2018 11:05 13,9 C 10,0 C 72 % 1006,4 hPa 0,0 l/m 5,1 km/h (1 Bft) NW 320 1 min 0,000 mm 2,5 UV-I 657 W/m 8,9 C 13,9 C 8,0 km/h (2 Bft) 96,67 %
11.04.2018 11:06 13,8 C 10,0 C 71 % 1006,4 hPa 0,0 l/m 3,6 km/h (1 Bft) N-NW 346 1 min 0,000 mm 2,5 UV-I 661 W/m 8,6 C 13,8 C 6,4 km/h (2 Bft) 96,15 %
11.04.2018 11:07 13,8 C 10,0 C 73 % 1006,4 hPa 0,0 l/m 6,0 km/h (2 Bft) NW 306 1 min 0,000 mm 2,5 UV-I 662 W/m 9,0 C 13,8 C 8,0 km/h (2 Bft) 100,00 %
11.04.2018 11:08 13,8 C 10,0 C 73 % 1006,5 hPa 0,0 l/m 4,9 km/h (1 Bft) NW 325 1 min 0,000 mm 2,4 UV-I 663 W/m 9,0 C 13,8 C 6,4 km/h (2 Bft) 95,65 %
11.04.2018 11:09 13,7 C 10,0 C 73 % 1006,4 hPa 0,0 l/m 4,9 km/h (1 Bft) NW 304 1 min 0,000 mm 2,2 UV-I 588 W/m 8,9 C 13,7 C 6,4 km/h (2 Bft) 95,83 %
11.04.2018 11:10 13,7 C 10,0 C 72 % 1006,4 hPa 0,0 l/m 3,4 km/h (1 Bft) W-SW 255 1 min 0,000 mm 2,4 UV-I 589 W/m 8,7 C 13,7 C 6,4 km/h (2 Bft) 100,00 %
11.04.2018 11:11 13,7 C 10,0 C 74 % 1006,5 hPa 0,0 l/m 5,1 km/h (1 Bft) NO 35 1 min 0,000 mm 2,5 UV-I 629 W/m 9,2 C 13,7 C 6,4 km/h (2 Bft) 100,00 %
11.04.2018 11:12 13,7 C 10,0 C 73 % 1006,5 hPa 0,0 l/m 5,1 km/h (1 Bft) O 101 1 min 0,000 mm 2,5 UV-I 637 W/m 8,9 C 13,7 C 8,0 km/h (2 Bft) 96,55 %
11.04.2018 11:13 13,7 C 10,0 C 73 % 1006,4 hPa 0,0 l/m 3,5 km/h (1 Bft) O 82 1 min 0,000 mm 2,6 UV-I 681 W/m 8,9 C 13,7 C 6,4 km/h (2 Bft) 96,30 %
11.04.2018 11:14 13,7 C 10,0 C 73 % 1006,4 hPa 0,0 l/m 2,7 km/h (1 Bft) O 82 1 min 0,000 mm 2,6 UV-I 697 W/m 8,9 C 13,7 C 4,8 km/h (1 Bft) 100,00 %
11.04.2018 11:15 13,7 C 10,0 C 75 % 1006,4 hPa 0,0 l/m 9,6 km/h (2 Bft) NO 43 1 min 0,000 mm 2,7 UV-I 697 W/m 9,3 C 11,9 C 14,5 km/h (3 Bft) 96,88 %
11.04.2018 11:16 13,8 C 10,0 C 73 % 1006,5 hPa 0,0 l/m 8,0 km/h (2 Bft) N-NO 32 1 min 0,000 mm 2,7 UV-I 696 W/m 9,0 C 12,8 C 12,9 km/h (3 Bft) 100,00 %
11.04.2018 11:17 13,9 C 10,0 C 75 % 1006,5 hPa 0,0 l/m 5,3 km/h (1 Bft) S-SO 157 1 min 0,000 mm 2,7 UV-I 690 W/m 9,5 C 13,9 C 8,0 km/h (2 Bft) 96,15 %
11.04.2018 11:18 14,0 C 10,0 C 72 % 1006,5 hPa 0,0 l/m 3,0 km/h (1 Bft) N-NO 24 1 min 0,000 mm 2,7 UV-I 687 W/m 9,0 C 14,0 C 4,8 km/h (1 Bft) 100,00 %
11.04.2018 11:19 13,9 C 10,0 C 71 % 1006,5 hPa 0,0 l/m 3,2 km/h (1 Bft) NW 325 1 min 0,000 mm 2,7 UV-I 687 W/m 8,7 C 13,9 C 4,8 km/h (1 Bft) 91,30 %
11.04.2018 11:20 14,0 C 10,0 C 73 % 1006,5 hPa 0,0 l/m 6,2 km/h (2 Bft) N 5 1 min 0,000 mm 2,7 UV-I 690 W/m 9,2 C 14,0 C 8,0 km/h (2 Bft) 100,00 %
11.04.2018 11:21 14,2 C 10,0 C 74 % 1006,5 hPa 0,0 l/m 6,2 km/h (2 Bft) N-NO 16 1 min 0,000 mm 2,7 UV-I 695 W/m 9,6 C 14,2 C 8,0 km/h (2 Bft) 92,31 %
11.04.2018 11:22 14,3 C 10,0 C 72 % 1006,5 hPa 0,0 l/m 6,4 km/h (2 Bft) N-NO 32 1 min 0,000 mm 2,8 UV-I 698 W/m 9,3 C 14,3 C 8,0 km/h (2 Bft) 96,30 %
11.04.2018 11:23 14,4 C 10,0 C 72 % 1006,5 hPa 0,0 l/m 5,2 km/h (1 Bft) NO 36 1 min 0,000 mm 2,8 UV-I 700 W/m 9,4 C 14,4 C 6,4 km/h (2 Bft) 100,00 %
11.04.2018 11:24 14,6 C 10,0 C 73 % 1006,5 hPa 0,0 l/m 6,0 km/h (2 Bft) N-NW 345 1 min 0,000 mm 2,8 UV-I 700 W/m 9,8 C 14,6 C 8,0 km/h (2 Bft) 96,30 %
11.04.2018 11:25 14,6 C 10,0 C 70 % 1006,5 hPa 0,0 l/m 6,8 km/h (2 Bft) N 360 1 min 0,000 mm 2,8 UV-I 698 W/m 9,2 C 14,4 C 8,0 km/h (2 Bft) 100,00 %
11.04.2018 11:27 14,6 C 10,0 C 70 % 1006,5 hPa 0,0 l/m 4,8 km/h (1 Bft) W-SW 254 2 min 0,000 mm 2,8 UV-I 692 W/m 9,2 C 14,6 C 8,0 km/h (2 Bft) 94,64 %
11.04.2018 11:28 14,4 C 10,0 C 70 % 1006,5 hPa 0,0 l/m 4,7 km/h (1 Bft) W-NW 293 1 min 0,000 mm 2,8 UV-I 693 W/m 9,0 C 14,4 C 6,4 km/h (2 Bft) 91,67 %
11.04.2018 11:29 14,4 C 10,0 C 71 % 1006,5 hPa 0,0 l/m 7,7 km/h (2 Bft) W-SW 253 1 min 0,000 mm 2,8 UV-I 695 W/m 9,2 C 13,6 C 11,3 km/h (2 Bft) 95,65 %
11.04.2018 11:30 14,3 C 10,0 C 70 % 1006,5 hPa 0,0 l/m 4,9 km/h (1 Bft) W-SW 257 1 min 0,000 mm 2,8 UV-I 691 W/m 8,9 C 14,3 C 6,4 km/h (2 Bft) 95,83 %
11.04.2018 11:31 14,2 C 10,0 C 70 % 1006,5 hPa 0,0 l/m 3,9 km/h (1 Bft) W-SW 237 1 min 0,000 mm 2,8 UV-I 690 W/m 8,8 C 14,2 C 4,8 km/h (1 Bft) 95,83 %
11.04.2018 11:32 14,1 C 10,0 C 70 % 1006,5 hPa 0,0 l/m 1,6 km/h (1 Bft) W-SW 239 1 min 0,000 mm 2,8 UV-I 694 W/m 8,7 C 14,1 C 3,2 km/h (1 Bft) 96,55 %
11.04.2018 11:33 14,2 C 10,0 C 72 % 1006,4 hPa 0,0 l/m 2,5 km/h (1 Bft) N-NO 12 1 min 0,000 mm 2,9 UV-I 703 W/m 9,2 C 14,2 C 4,8 km/h (1 Bft) 95,65 %
11.04.2018 11:34 14,2 C 10,0 C 72 % 1006,4 hPa 0,0 l/m 3,6 km/h (1 Bft) N 350 1 min 0,000 mm 2,9 UV-I 707 W/m 9,2 C 14,2 C 4,8 km/h (1 Bft) 100,00 %
11.04.2018 11:35 14,2 C 10,0 C 71 % 1006,4 hPa 0,0 l/m 4,1 km/h (1 Bft) NW 321 1 min 0,000 mm 2,9 UV-I 710 W/m 9,0 C 14,2 C 6,4 km/h (2 Bft) 95,83 %
11.04.2018 11:36 14,3 C 10,0 C 72 % 1006,4 hPa 0,0 l/m 9,1 km/h (2 Bft) N-NW 347 1 min 0,000 mm 3,0 UV-I 708 W/m 9,3 C 12,8 C 12,9 km/h (3 Bft) 100,00 %
11.04.2018 11:37 14,6 C 10,0 C 73 % 1006,4 hPa 0,0 l/m 7,2 km/h (2 Bft) N-NW 336 1 min 0,000 mm 2,9 UV-I 706 W/m 9,8 C 14,1 C 9,7 km/h (2 Bft) 96,30 %
11.04.2018 11:38 14,7 C 10,0 C 71 % 1006,4 hPa 0,0 l/m 2,8 km/h (1 Bft) W-NW 293 1 min 0,000 mm 2,9 UV-I 701 W/m 9,5 C 14,7 C 4,8 km/h (1 Bft) 100,00 %
11.04.2018 11:39 14,6 C 10,0 C 69 % 1006,4 hPa 0,0 l/m 2,9 km/h (1 Bft) W-NW 293 1 min 0,000 mm 2,9 UV-I 705 W/m 9,0 C 14,6 C 4,8 km/h (1 Bft) 95,83 %
11.04.2018 11:40 14,5 C 10,0 C 69 % 1006,3 hPa 0,0 l/m 1,8 km/h (1 Bft) W-NW 296 1 min 0,000 mm 3,0 UV-I 711 W/m 8,9 C 14,5 C 3,2 km/h (1 Bft) 100,00 %
11.04.2018 11:41 14,5 C 10,0 C 70 % 1006,3 hPa 0,0 l/m 1,9 km/h (1 Bft) N-NW 343 1 min 0,000 mm 3,0 UV-I 713 W/m 9,1 C 14,5 C 3,2 km/h (1 Bft) 92,31 %
11.04.2018 11:42 14,6 C 10,0 C 70 % 1006,3 hPa 0,0 l/m 3,6 km/h (1 Bft) N 355 1 min 0,000 mm 3,0 UV-I 720 W/m 9,2 C 14,6 C 6,4 km/h (2 Bft) 96,15 %
11.04.2018 11:43 14,7 C 10,0 C 71 % 1006,3 hPa 0,0 l/m 3,6 km/h (1 Bft) N 9 1 min 0,000 mm 3,1 UV-I 722 W/m 9,5 C 14,7 C 6,4 km/h (2 Bft) 96,30 %
11.04.2018 11:44 14,7 C 10,0 C 68 % 1006,3 hPa 0,0 l/m 4,4 km/h (1 Bft) N-NW 333 1 min 0,000 mm 3,1 UV-I 722 W/m 8,9 C 14,7 C 8,0 km/h (2 Bft) 95,65 %
11.04.2018 11:45 14,8 C 10,0 C 69 % 1006,3 hPa 0,0 l/m 6,7 km/h (2 Bft) NW 307 1 min 0,000 mm 3,0 UV-I 688 W/m 9,2 C 14,6 C 9,7 km/h (2 Bft) 95,83 %
11.04.2018 11:46 14,8 C 10,0 C 69 % 1006,3 hPa 0,0 l/m 7,2 km/h (2 Bft) NO 38 1 min 0,000 mm 2,9 UV-I 629 W/m 9,2 C 14,3 C 11,3 km/h (2 Bft) 96,15 %
11.04.2018 11:47 15,0 C 10,0 C 71 % 1006,3 hPa 0,0 l/m 6,4 km/h (2 Bft) N-NO 24 1 min 0,000 mm 3,0 UV-I 666 W/m 9,8 C 15,0 C 8,0 km/h (2 Bft) 100,00 %
11.04.2018 11:48 15,1 C 10,0 C 69 % 1006,2 hPa 0,0 l/m 3,8 km/h (1 Bft) NO 40 1 min 0,000 mm 3,0 UV-I 686 W/m 9,5 C 15,1 C 4,8 km/h (1 Bft) 96,15 %
11.04.2018 11:49 15,1 C 10,0 C 69 % 1006,3 hPa 0,0 l/m 4,8 km/h (1 Bft) W 280 1 min 0,000 mm 3,0 UV-I 702 W/m 9,5 C 15,1 C 9,7 km/h (2 Bft) 100,00 %
11.04.2018 11:50 15,2 C 10,0 C 69 % 1006,3 hPa 0,0 l/m 5,4 km/h (1 Bft) N 5 1 min 0,000 mm 3,1 UV-I 711 W/m 9,6 C 15,2 C 8,0 km/h (2 Bft) 96,30 %
11.04.2018 11:51 15,3 C 10,0 C 69 % 1006,2 hPa 0,0 l/m 6,5 km/h (2 Bft) N 350 1 min 0,000 mm 3,1 UV-I 711 W/m 9,6 C 15,3 C 8,0 km/h (2 Bft) 100,00 %
11.04.2018 11:52 15,3 C 10,0 C 68 % 1006,2 hPa 0,0 l/m 7,6 km/h (2 Bft) N-NO 17 1 min 0,000 mm 3,1 UV-I 718 W/m 9,4 C 14,6 C 14,5 km/h (3 Bft) 93,33 %
11.04.2018 11:53 15,3 C 10,0 C 68 % 1006,2 hPa 0,0 l/m 10,6 km/h (2 Bft) N-NW 344 1 min 0,000 mm 3,1 UV-I 719 W/m 9,4 C 13,2 C 14,5 km/h (3 Bft) 96,15 %
11.04.2018 11:54 15,2 C 10,0 C 68 % 1006,2 hPa 0,0 l/m 9,7 km/h (2 Bft) NW 321 1 min 0,000 mm 3,1 UV-I 722 W/m 9,3 C 13,5 C 14,5 km/h (3 Bft) 95,83 %
11.04.2018 11:55 15,2 C 10,0 C 68 % 1006,2 hPa 0,0 l/m 6,4 km/h (2 Bft) N-NW 333 1 min 0,000 mm 3,1 UV-I 723 W/m 9,3 C 15,2 C 9,7 km/h (2 Bft) 100,00 %
11.04.2018 11:56 15,2 C 10,0 C 69 % 1006,2 hPa 0,0 l/m 7,1 km/h (2 Bft) N-NW 347 1 min 0,000 mm 3,1 UV-I 723 W/m 9,6 C 14,8 C 12,9 km/h (3 Bft) 96,67 %
11.04.2018 11:57 15,2 C 10,0 C 69 % 1006,1 hPa 0,0 l/m 10,1 km/h (2 Bft) N 9 1 min 0,000 mm 3,1 UV-I 721 W/m 9,6 C 13,3 C 12,9 km/h (3 Bft) 94,12 %
11.04.2018 11:58 15,3 C 10,0 C 69 % 1006,1 hPa 0,0 l/m 7,1 km/h (2 Bft) N-NO 13 1 min 0,000 mm 3,1 UV-I 724 W/m 9,6 C 14,9 C 9,7 km/h (2 Bft) 100,00 %
11.04.2018 11:59 15,3 C 10,0 C 67 % 1006,1 hPa 0,0 l/m 6,4 km/h (2 Bft) N 11 1 min 0,000 mm 3,1 UV-I 721 W/m 9,2 C 15,3 C 8,0 km/h (2 Bft) 95,65 %
11.04.2018 12:00 15,3 C 10,0 C 68 % 1006,1 hPa 0,0 l/m 6,1 km/h (2 Bft) N 350 1 min 0,381 mm 3,1 UV-I 722 W/m 9,4 C 15,3 C 9,7 km/h (2 Bft) 96,30 %
11.04.2018 12:01 15,3 C 10,0 C 68 % 1006,1 hPa 0,0 l/m 4,7 km/h (1 Bft) NW 322 1 min 0,000 mm 3,1 UV-I 724 W/m 9,4 C 15,3 C 6,4 km/h (2 Bft) 95,65 %
11.04.2018 12:02 15,2 C 10,0 C 67 % 1006,0 hPa 0,0 l/m 3,5 km/h (1 Bft) W-NW 289 1 min 0,000 mm 3,1 UV-I 726 W/m 9,1 C 15,2 C 4,8 km/h (1 Bft) 100,00 %
11.04.2018 12:03 15,0 C 10,0 C 67 % 1006,0 hPa 0,0 l/m 4,1 km/h (1 Bft) NW 323 1 min 0,000 mm 3,1 UV-I 719 W/m 8,9 C 15,0 C 6,4 km/h (2 Bft) 91,30 %
11.04.2018 12:04 14,9 C 10,0 C 68 % 1006,0 hPa 0,0 l/m 5,1 km/h (1 Bft) N-NW 335 1 min 0,000 mm 3,2 UV-I 723 W/m 9,0 C 14,9 C 6,4 km/h (2 Bft) 85,19 %
11.04.2018 12:05 14,9 C 10,0 C 69 % 1006,0 hPa 0,0 l/m 4,9 km/h (1 Bft) NW 317 1 min 0,000 mm 3,2 UV-I 721 W/m 9,3 C 14,9 C 6,4 km/h (2 Bft) 97,80 %
11.04.2018 12:06 15,1 C 10,0 C 71 % 1006,1 hPa 0,0 l/m 8,0 km/h (2 Bft) NW 324 1 min 0,000 mm 3,2 UV-I 715 W/m 9,9 C 14,2 C 12,9 km/h (3 Bft) 100,00 %
11.04.2018 12:07 15,1 C 10,0 C 69 % 1006,0 hPa 0,0 l/m 6,3 km/h (2 Bft) NW 308 1 min 0,000 mm 3,2 UV-I 716 W/m 9,5 C 15,1 C 12,9 km/h (3 Bft) 93,10 %
11.04.2018 12:08 15,1 C 10,0 C 68 % 1006,0 hPa 0,0 l/m 4,1 km/h (1 Bft) N-NW 333 1 min 0,000 mm 3,1 UV-I 710 W/m 9,2 C 15,1 C 6,4 km/h (2 Bft) 92,59 %
11.04.2018 12:09 15,1 C 10,0 C 69 % 1006,0 hPa 0,0 l/m 7,4 km/h (2 Bft) N-NO 19 1 min 0,000 mm 3,1 UV-I 703 W/m 9,5 C 14,5 C 12,9 km/h (3 Bft) 91,30 %
11.04.2018 12:10 15,1 C 10,0 C 69 % 1006,0 hPa 0,0 l/m 9,3 km/h (2 Bft) N 360 1 min 0,000 mm 3,2 UV-I 704 W/m 9,5 C 13,6 C 14,5 km/h (3 Bft) 91,67 %
11.04.2018 12:11 15,2 C 10,0 C 70 % 1006,0 hPa 0,0 l/m 9,2 km/h (2 Bft) N 9 1 min 0,000 mm 3,1 UV-I 713 W/m 9,8 C 13,7 C 14,5 km/h (3 Bft) 96,67 %
11.04.2018 12:12 15,4 C 10,0 C 69 % 1006,0 hPa 0,0 l/m 9,6 km/h (2 Bft) N-NO 28 1 min 0,000 mm 3,1 UV-I 706 W/m 9,7 C 13,7 C 12,9 km/h (3 Bft) 96,15 %
11.04.2018 12:13 15,4 C 10,0 C 68 % 1006,0 hPa 0,0 l/m 4,7 km/h (1 Bft) NO 41 1 min 0,000 mm 3,2 UV-I 718 W/m 9,5 C 15,4 C 6,4 km/h (2 Bft) 91,67 %
11.04.2018 12:14 15,4 C 10,0 C 67 % 1006,1 hPa 0,0 l/m 4,1 km/h (1 Bft) NO 40 1 min 0,000 mm 3,2 UV-I 727 W/m 9,3 C 15,4 C 6,4 km/h (2 Bft) 96,15 %
11.04.2018 12:15 15,4 C 10,0 C 69 % 1006,0 hPa 0,0 l/m 5,6 km/h (1 Bft) N-NO 32 1 min 0,000 mm 3,2 UV-I 728 W/m 9,7 C 15,4 C 8,0 km/h (2 Bft) 91,67 %
11.04.2018 12:16 15,6 C 10,0 C 68 % 1006,0 hPa 0,0 l/m 9,1 km/h (2 Bft) NW 307 1 min 0,000 mm 3,3 UV-I 745 W/m 9,7 C 14,2 C 12,9 km/h (3 Bft) 95,45 %
11.04.2018 12:17 15,4 C 10,0 C 66 % 1006,0 hPa 0,0 l/m 8,4 km/h (2 Bft) N-NO 22 1 min 0,000 mm 3,3 UV-I 744 W/m 9,1 C 14,3 C 12,9 km/h (3 Bft) 95,83 %
11.04.2018 12:18 15,4 C 10,0 C 67 % 1006,0 hPa 0,0 l/m 10,5 km/h (2 Bft) N 355 1 min 0,000 mm 3,3 UV-I 743 W/m 9,3 C 13,3 C 12,9 km/h (3 Bft) 95,65 %
11.04.2018 12:19 15,5 C 10,0 C 68 % 1006,0 hPa 0,0 l/m 3,6 km/h (1 Bft) N-NW 340 1 min 0,000 mm 3,3 UV-I 742 W/m 9,6 C 15,5 C 8,0 km/h (2 Bft) 95,83 %
11.04.2018 12:20 15,4 C 10,0 C 66 % 1006,0 hPa 0,0 l/m 5,6 km/h (1 Bft) N-NW 340 1 min 0,000 mm 3,3 UV-I 741 W/m 9,1 C 15,4 C 8,0 km/h (2 Bft) 95,65 %
11.04.2018 12:21 15,4 C 10,0 C 68 % 1006,0 hPa 0,0 l/m 7,5 km/h (2 Bft) NW 317 1 min 0,000 mm 3,3 UV-I 743 W/m 9,5 C 14,8 C 9,7 km/h (2 Bft) 95,83 %
11.04.2018 12:22 15,4 C 10,0 C 68 % 1005,9 hPa 0,0 l/m 7,5 km/h (2 Bft) N-NW 341 1 min 0,000 mm 3,3 UV-I 740 W/m 9,5 C 14,8 C 12,9 km/h (3 Bft) 95,65 %
11.04.2018 12:23 15,5 C 10,0 C 69 % 1005,9 hPa 0,0 l/m 6,1 km/h (2 Bft) W-NW 297 1 min 0,000 mm 3,3 UV-I 738 W/m 9,8 C 15,5 C 9,7 km/h (2 Bft) 91,67 %
11.04.2018 12:24 15,5 C 10,0 C 68 % 1005,9 hPa 0,0 l/m 3,5 km/h (1 Bft) W-NW 302 1 min 0,000 mm 3,3 UV-I 733 W/m 9,6 C 15,5 C 4,8 km/h (1 Bft) 100,00 %
11.04.2018 12:25 15,5 C 10,0 C 71 % 1005,9 hPa 0,0 l/m 5,9 km/h (2 Bft) NO 46 1 min 0,000 mm 3,2 UV-I 723 W/m 10,3 C 15,5 C 9,7 km/h (2 Bft) 96,15 %
11.04.2018 12:26 15,8 C 10,0 C 69 % 1005,9 hPa 0,0 l/m 8,4 km/h (2 Bft) NO 54 1 min 0,000 mm 3,3 UV-I 726 W/m 10,1 C 14,7 C 11,3 km/h (2 Bft) 96,30 %
11.04.2018 12:27 15,9 C 10,0 C 67 % 1005,9 hPa 0,0 l/m 7,3 km/h (2 Bft) O-NO 59 1 min 0,000 mm 3,3 UV-I 735 W/m 9,8 C 15,4 C 9,7 km/h (2 Bft) 96,15 %
11.04.2018 12:28 16,0 C 10,0 C 67 % 1005,9 hPa 0,0 l/m 7,9 km/h (2 Bft) NO 42 1 min 0,000 mm 3,3 UV-I 750 W/m 9,9 C 15,2 C 9,7 km/h (2 Bft) 95,83 %
11.04.2018 12:29 15,9 C 10,0 C 66 % 1006,0 hPa 0,0 l/m 11,3 km/h (2 Bft) N-NW 338 1 min 0,000 mm 3,4 UV-I 757 W/m 9,6 C 13,6 C 16,1 km/h (3 Bft) 96,15 %
11.04.2018 12:30 15,9 C 10,0 C 67 % 1005,9 hPa 0,0 l/m 8,0 km/h (2 Bft) N-NW 343 1 min 0,000 mm 3,3 UV-I 752 W/m 9,8 C 15,0 C 12,9 km/h (3 Bft) 100,00 %
11.04.2018 12:31 16,0 C 10,0 C 66 % 1005,9 hPa 0,0 l/m 3,9 km/h (1 Bft) N 350 1 min 0,000 mm 3,3 UV-I 748 W/m 9,7 C 16,0 C 6,4 km/h (2 Bft) 92,31 %
11.04.2018 12:32 15,9 C 10,0 C 66 % 1005,9 hPa 0,0 l/m 5,8 km/h (2 Bft) NO 42 1 min 0,000 mm 3,3 UV-I 749 W/m 9,6 C 15,9 C 8,0 km/h (2 Bft) 92,59 %
11.04.2018 12:33 15,9 C 10,0 C 65 % 1005,9 hPa 0,0 l/m 5,4 km/h (1 Bft) O-NO 59 1 min 0,000 mm 3,3 UV-I 749 W/m 9,3 C 15,9 C 8,0 km/h (2 Bft) 100,00 %
11.04.2018 12:34 15,9 C 10,0 C 67 % 1005,9 hPa 0,0 l/m 9,8 km/h (2 Bft) NO 53 1 min 0,000 mm 3,4 UV-I 749 W/m 9,8 C 14,2 C 14,5 km/h (3 Bft) 91,67 %
11.04.2018 12:35 16,1 C 10,0 C 67 % 1005,9 hPa 0,0 l/m 8,4 km/h (2 Bft) N-NO 27 1 min 0,000 mm 3,4 UV-I 742 W/m 10,0 C 15,1 C 12,9 km/h (3 Bft) 96,15 %
11.04.2018 12:36 16,1 C 10,0 C 66 % 1005,9 hPa 0,0 l/m 6,8 km/h (2 Bft) N 5 1 min 0,000 mm 3,3 UV-I 729 W/m 9,7 C 15,9 C 9,7 km/h (2 Bft) 95,83 %
11.04.2018 12:37 16,1 C 10,0 C 65 % 1005,9 hPa 0,0 l/m 9,2 km/h (2 Bft) N-NW 330 1 min 0,000 mm 3,3 UV-I 743 W/m 9,5 C 14,7 C 12,9 km/h (3 Bft) 100,00 %
11.04.2018 12:38 16,1 C 10,0 C 65 % 1005,9 hPa 0,0 l/m 5,4 km/h (1 Bft) N-NW 329 1 min 0,000 mm 3,3 UV-I 741 W/m 9,5 C 16,1 C 9,7 km/h (2 Bft) 94,44 %
11.04.2018 12:39 16,2 C 10,0 C 66 % 1005,9 hPa 0,0 l/m 10,4 km/h (2 Bft) N-NO 15 1 min 0,000 mm 3,3 UV-I 744 W/m 9,8 C 14,3 C 16,1 km/h (3 Bft) 100,00 %
11.04.2018 12:40 16,4 C 10,0 C 65 % 1005,9 hPa 0,0 l/m 11,3 km/h (2 Bft) NO 35 1 min 0,000 mm 3,3 UV-I 740 W/m 9,8 C 14,1 C 16,1 km/h (3 Bft) 100,00 %
11.04.2018 12:41 16,6 C 10,0 C 64 % 1005,9 hPa 0,0 l/m 10,9 km/h (2 Bft) NO 38 1 min 0,000 mm 3,3 UV-I 737 W/m 9,8 C 14,5 C 14,5 km/h (3 Bft) 100,00 %
11.04.2018 12:42 16,8 C 10,0 C 66 % 1005,9 hPa 0,0 l/m 9,9 km/h (2 Bft) O-NO 57 1 min 0,000 mm 3,3 UV-I 731 W/m 10,4 C 15,1 C 14,5 km/h (3 Bft) 95,65 %
11.04.2018 12:43 16,8 C 10,0 C 65 % 1005,9 hPa 0,0 l/m 6,6 km/h (2 Bft) O 89 1 min 0,000 mm 3,3 UV-I 733 W/m 10,2 C 16,7 C 9,7 km/h (2 Bft) 95,83 %
11.04.2018 12:44 16,8 C 10,0 C 65 % 1005,9 hPa 0,0 l/m 7,0 km/h (2 Bft) NO 36 1 min 0,000 mm 3,3 UV-I 739 W/m 10,2 C 16,5 C 12,9 km/h (3 Bft) 96,55 %
11.04.2018 12:45 16,8 C 10,0 C 66 % 1005,9 hPa 0,0 l/m 8,6 km/h (2 Bft) NO 52 1 min 0,000 mm 3,3 UV-I 740 W/m 10,4 C 15,7 C 14,5 km/h (3 Bft) 100,00 %
11.04.2018 12:46 16,9 C 10,0 C 64 % 1005,9 hPa 0,0 l/m 4,7 km/h (1 Bft) O-NO 76 1 min 0,000 mm 3,3 UV-I 744 W/m 10,0 C 16,9 C 6,4 km/h (2 Bft) 100,00 %
11.04.2018 12:47 16,8 C 10,0 C 63 % 1005,9 hPa 0,0 l/m 4,8 km/h (1 Bft) N 355 1 min 0,000 mm 3,3 UV-I 747 W/m 9,7 C 16,8 C 9,7 km/h (2 Bft) 83,33 %
11.04.2018 12:48 16,7 C 10,0 C 64 % 1005,9 hPa 0,0 l/m 6,0 km/h (2 Bft) N-NO 14 1 min 0,000 mm 3,4 UV-I 741 W/m 9,9 C 16,7 C 9,7 km/h (2 Bft) 96,15 %
11.04.2018 12:49 16,5 C 10,0 C 63 % 1005,9 hPa 0,0 l/m 4,5 km/h (1 Bft) O 89 1 min 0,000 mm 3,4 UV-I 739 W/m 9,4 C 16,5 C 6,4 km/h (2 Bft) 100,00 %
11.04.2018 12:50 16,3 C 10,0 C 63 % 1005,9 hPa 0,0 l/m 3,4 km/h (1 Bft) SO 134 1 min 0,000 mm 3,4 UV-I 749 W/m 9,2 C 16,3 C 4,8 km/h (1 Bft) 100,00 %
11.04.2018 12:51 16,3 C 10,0 C 65 % 1005,8 hPa 0,0 l/m 8,0 km/h (2 Bft) O-NO 63 1 min 0,000 mm 3,4 UV-I 748 W/m 9,7 C 15,5 C 14,5 km/h (3 Bft) 100,00 %
11.04.2018 12:52 16,5 C 10,0 C 69 % 1005,8 hPa 0,0 l/m 11,2 km/h (2 Bft) O-NO 71 1 min 0,000 mm 3,4 UV-I 749 W/m 10,8 C 14,3 C 12,9 km/h (3 Bft) 100,00 %
11.04.2018 12:53 16,6 C 10,0 C 66 % 1005,8 hPa 0,0 l/m 9,4 km/h (2 Bft) O-NO 57 1 min 0,000 mm 3,4 UV-I 751 W/m 10,2 C 15,1 C 14,5 km/h (3 Bft) 100,00 %
11.04.2018 12:54 16,7 C 10,0 C 66 % 1005,8 hPa 0,0 l/m 11,8 km/h (2 Bft) NO 46 1 min 0,000 mm 3,4 UV-I 751 W/m 10,3 C 14,3 C 14,5 km/h (3 Bft) 100,00 %
11.04.2018 12:55 16,7 C 10,0 C 62 % 1005,8 hPa 0,0 l/m 6,4 km/h (2 Bft) NO 43 1 min 0,000 mm 3,4 UV-I 752 W/m 9,4 C 16,7 C 9,7 km/h (2 Bft) 100,00 %
11.04.2018 12:56 16,4 C 10,0 C 63 % 1005,8 hPa 0,0 l/m 4,1 km/h (1 Bft) O-NO 65 1 min 0,000 mm 3,4 UV-I 752 W/m 9,3 C 16,4 C 6,4 km/h (2 Bft) 100,00 %
11.04.2018 12:57 16,3 C 10,0 C 63 % 1005,8 hPa 0,0 l/m 0,9 km/h (0 Bft) O-NO 65 1 min 0,000 mm 3,4 UV-I 748 W/m 9,2 C 16,3 C 1,6 km/h (1 Bft) 100,00 %
11.04.2018 12:58 16,1 C 10,0 C 62 % 1005,8 hPa 0,0 l/m 3,1 km/h (1 Bft) NW 311 1 min 0,000 mm 3,4 UV-I 748 W/m 8,8 C 16,1 C 6,4 km/h (2 Bft) 100,00 %
11.04.2018 12:59 15,9 C 10,0 C 63 % 1005,7 hPa 0,0 l/m 2,9 km/h (1 Bft) N-NW 333 1 min 0,000 mm 3,4 UV-I 745 W/m 8,9 C 15,9 C 4,8 km/h (1 Bft) 100,00 %
11.04.2018 13:00 15,9 C 10,0 C 63 % 1005,7 hPa 0,0 l/m 0,8 km/h (0 Bft) N 5 1 min 0,000 mm 3,4 UV-I 743 W/m 8,9 C 15,9 C 1,6 km/h (1 Bft) 100,00 %
11.04.2018 13:01 16,1 C 10,0 C 68 % 1005,7 hPa 0,0 l/m 4,3 km/h (1 Bft) NO 47 1 min 0,407 mm 3,4 UV-I 741 W/m 10,2 C 16,1 C 9,7 km/h (2 Bft) 95,83 %
11.04.2018 13:02 16,3 C 10,0 C 69 % 1005,7 hPa 0,0 l/m 9,7 km/h (2 Bft) NO 39 1 min 0,000 mm 3,4 UV-I 745 W/m 10,6 C 14,7 C 12,9 km/h (3 Bft) 100,00 %
11.04.2018 13:03 16,5 C 10,0 C 66 % 1005,6 hPa 0,0 l/m 5,3 km/h (1 Bft) N-NO 19 1 min 0,000 mm 3,4 UV-I 747 W/m 10,1 C 16,5 C 8,0 km/h (2 Bft) 100,00 %
11.04.2018 13:04 16,6 C 10,0 C 65 % 1005,6 hPa 0,0 l/m 10,5 km/h (2 Bft) NO 52 1 min 0,000 mm 3,4 UV-I 751 W/m 10,0 C 14,7 C 14,5 km/h (3 Bft) 100,00 %
11.04.2018 13:05 16,8 C 10,0 C 66 % 1005,7 hPa 0,0 l/m 12,8 km/h (3 Bft) NO 37 1 min 0,000 mm 3,4 UV-I 746 W/m 10,4 C 14,1 C 14,5 km/h (3 Bft) 100,00 %
11.04.2018 13:06 17,0 C 10,0 C 66 % 1005,7 hPa 0,0 l/m 10,5 km/h (2 Bft) N-NO 17 1 min 0,000 mm 3,4 UV-I 745 W/m 10,6 C 15,1 C 17,7 km/h (3 Bft) 100,00 %
11.04.2018 13:07 17,0 C 10,0 C 65 % 1005,6 hPa 0,0 l/m 10,9 km/h (2 Bft) N-NW 346 1 min 0,000 mm 3,4 UV-I 745 W/m 10,4 C 15,0 C 14,5 km/h (3 Bft) 100,00 %
11.04.2018 13:08 17,2 C 10,0 C 62 % 1005,6 hPa 0,0 l/m 10,6 km/h (2 Bft) N-NO 22 1 min 0,000 mm 3,4 UV-I 745 W/m 9,9 C 15,3 C 14,5 km/h (3 Bft) 95,83 %
11.04.2018 13:09 17,2 C 10,0 C 62 % 1005,6 hPa 0,0 l/m 8,3 km/h (2 Bft) N-NW 346 1 min 0,000 mm 3,4 UV-I 738 W/m 9,9 C 16,3 C 12,9 km/h (3 Bft) 100,00 %
11.04.2018 13:10 17,1 C 10,0 C 62 % 1005,6 hPa 0,0 l/m 8,0 km/h (2 Bft) N-NO 16 1 min 0,000 mm 3,4 UV-I 739 W/m 9,8 C 16,3 C 12,9 km/h (3 Bft) 100,00 %
11.04.2018 13:11 17,0 C 10,0 C 62 % 1005,6 hPa 0,0 l/m 7,6 km/h (2 Bft) O 89 1 min 0,000 mm 3,4 UV-I 740 W/m 9,7 C 16,4 C 12,9 km/h (3 Bft) 100,00 %
11.04.2018 13:12 16,8 C 10,0 C 61 % 1005,5 hPa 0,0 l/m 3,6 km/h (1 Bft) O 92 1 min 0,000 mm 3,4 UV-I 741 W/m 9,2 C 16,8 C 6,4 km/h (2 Bft) 100,00 %
11.04.2018 13:13 16,8 C 10,0 C 62 % 1005,5 hPa 0,0 l/m 4,2 km/h (1 Bft) W-NW 303 1 min 0,000 mm 3,4 UV-I 742 W/m 9,5 C 16,8 C 6,4 km/h (2 Bft) 100,00 %
11.04.2018 13:14 16,8 C 10,0 C 62 % 1005,5 hPa 0,0 l/m 6,1 km/h (2 Bft) N-NW 347 1 min 0,000 mm 3,4 UV-I 740 W/m 9,5 C 16,8 C 6,4 km/h (2 Bft) 100,00 %
11.04.2018 13:15 16,8 C 10,0 C 63 % 1005,5 hPa 0,0 l/m 8,5 km/h (2 Bft) N 11 1 min 0,000 mm 3,4 UV-I 742 W/m 9,7 C 15,8 C 12,9 km/h (3 Bft) 96,15 %
11.04.2018 13:16 16,9 C 10,0 C 63 % 1005,4 hPa 0,0 l/m 11,5 km/h (2 Bft) N-NO 24 1 min 0,000 mm 3,4 UV-I 744 W/m 9,8 C 14,6 C 14,5 km/h (3 Bft) 100,00 %
11.04.2018 13:17 16,9 C 10,0 C 62 % 1005,4 hPa 0,0 l/m 7,3 km/h (2 Bft) N-NO 33 1 min 0,000 mm 3,4 UV-I 742 W/m 9,6 C 16,4 C 12,9 km/h (3 Bft) 100,00 %
11.04.2018 13:18 16,9 C 10,0 C 64 % 1005,4 hPa 0,0 l/m 5,4 km/h (1 Bft) N-NW 333 1 min 0,000 mm 3,3 UV-I 737 W/m 10,0 C 16,9 C 9,7 km/h (2 Bft) 100,00 %
11.04.2018 13:19 17,1 C 10,0 C 64 % 1005,4 hPa 0,0 l/m 6,2 km/h (2 Bft) O-SO 117 1 min 0,000 mm 3,4 UV-I 735 W/m 10,2 C 17,1 C 9,7 km/h (2 Bft) 97,76 %
11.04.2018 13:20 17,1 C 10,0 C 62 % 1005,4 hPa 0,0 l/m 9,7 km/h (2 Bft) O-NO 57 1 min 0,000 mm 3,4 UV-I 738 W/m 9,8 C 15,6 C 14,5 km/h (3 Bft) 100,00 %
11.04.2018 13:21 17,0 C 10,0 C 62 % 1005,4 hPa 0,0 l/m 7,6 km/h (2 Bft) N-NW 328 1 min 0,000 mm 3,4 UV-I 742 W/m 9,7 C 16,4 C 11,3 km/h (2 Bft) 95,83 %
11.04.2018 13:22 17,0 C 10,0 C 62 % 1005,3 hPa 0,0 l/m 8,0 km/h (2 Bft) N 11 1 min 0,000 mm 3,4 UV-I 741 W/m 9,7 C 16,2 C 14,5 km/h (3 Bft) 95,65 %
11.04.2018 13:23 17,1 C 10,0 C 61 % 1005,3 hPa 0,0 l/m 9,9 km/h (2 Bft) N 10 1 min 0,000 mm 3,4 UV-I 742 W/m 9,5 C 15,5 C 17,7 km/h (3 Bft) 100,00 %
11.04.2018 13:24 17,2 C 10,0 C 62 % 1005,3 hPa 0,0 l/m 14,7 km/h (3 Bft) N 355 1 min 0,000 mm 3,4 UV-I 740 W/m 9,9 C 13,9 C 17,7 km/h (3 Bft) 100,00 %
11.04.2018 13:25 17,3 C 10,0 C 60 % 1005,2 hPa 0,0 l/m 9,7 km/h (2 Bft) N-NW 333 1 min 0,000 mm 3,3 UV-I 736 W/m 9,5 C 15,8 C 14,5 km/h (3 Bft) 96,30 %
11.04.2018 13:26 17,3 C 10,0 C 60 % 1005,3 hPa 0,0 l/m 7,5 km/h (2 Bft) N-NO 32 1 min 0,000 mm 3,3 UV-I 732 W/m 9,5 C 16,8 C 9,7 km/h (2 Bft) 100,00 %
11.04.2018 13:27 17,3 C 10,0 C 61 % 1005,2 hPa 0,0 l/m 7,7 km/h (2 Bft) N 9 1 min 0,000 mm 3,3 UV-I 734 W/m 9,7 C 16,7 C 11,3 km/h (2 Bft) 100,00 %
11.04.2018 13:28 17,3 C 10,0 C 61 % 1005,2 hPa 0,0 l/m 9,8 km/h (2 Bft) O-NO 76 1 min 0,000 mm 3,3 UV-I 737 W/m 9,7 C 15,7 C 14,5 km/h (3 Bft) 92,86 %
11.04.2018 13:29 17,3 C 10,0 C 63 % 1005,2 hPa 0,0 l/m 14,4 km/h (3 Bft) O-NO 67 1 min 0,000 mm 3,3 UV-I 738 W/m 10,2 C 14,2 C 19,3 km/h (3 Bft) 100,00 %
11.04.2018 13:30 17,4 C 10,0 C 63 % 1005,2 hPa 0,0 l/m 12,9 km/h (3 Bft) NO 55 1 min 0,000 mm 3,3 UV-I 738 W/m 10,3 C 14,7 C 14,5 km/h (3 Bft) 100,00 %
11.04.2018 13:31 17,6 C 10,0 C 62 % 1005,2 hPa 0,0 l/m 7,2 km/h (2 Bft) O-NO 66 1 min 0,000 mm 3,3 UV-I 738 W/m 10,2 C 17,2 C 9,7 km/h (2 Bft) 100,00 %
11.04.2018 13:32 17,6 C 10,0 C 62 % 1005,2 hPa 0,0 l/m 8,4 km/h (2 Bft) N-NO 32 1 min 0,000 mm 3,3 UV-I 737 W/m 10,2 C 16,7 C 12,9 km/h (3 Bft) 100,00 %
11.04.2018 13:33 17,6 C 10,0 C 60 % 1005,1 hPa 0,0 l/m 8,0 km/h (2 Bft) N-NO 32 1 min 0,000 mm 3,3 UV-I 738 W/m 9,7 C 16,8 C 11,3 km/h (2 Bft) 96,30 %
11.04.2018 13:34 17,6 C 10,0 C 61 % 1005,2 hPa 0,0 l/m 10,7 km/h (2 Bft) NO 54 1 min 0,000 mm 3,3 UV-I 739 W/m 10,0 C 15,7 C 17,7 km/h (3 Bft) 100,00 %
11.04.2018 13:35 17,6 C 10,0 C 61 % 1005,1 hPa 0,0 l/m 14,8 km/h (3 Bft) N 11 1 min 0,000 mm 3,3 UV-I 735 W/m 10,0 C 14,4 C 17,7 km/h (3 Bft) 100,00 %
11.04.2018 13:36 17,8 C 10,0 C 61 % 1005,1 hPa 0,0 l/m 10,8 km/h (2 Bft) NO 43 1 min 0,000 mm 3,3 UV-I 736 W/m 10,2 C 15,9 C 16,1 km/h (3 Bft) 100,00 %
11.04.2018 13:37 18,0 C 10,0 C 60 % 1005,1 hPa 0,0 l/m 10,5 km/h (2 Bft) NO 54 1 min 0,000 mm 3,3 UV-I 735 W/m 10,1 C 16,2 C 16,1 km/h (3 Bft) 100,00 %
11.04.2018 13:38 17,9 C 10,0 C 62 % 1005,1 hPa 0,0 l/m 12,1 km/h (2 Bft) NO 39 1 min 0,000 mm 3,3 UV-I 729 W/m 10,5 C 15,6 C 16,1 km/h (3 Bft) 100,00 %
11.04.2018 13:39 17,9 C 10,0 C 61 % 1005,2 hPa 0,0 l/m 15,5 km/h (3 Bft) N-NO 24 1 min 0,000 mm 3,3 UV-I 729 W/m 10,3 C 14,6 C 19,3 km/h (3 Bft) 93,33 %
11.04.2018 13:40 18,1 C 10,0 C 62 % 1005,2 hPa 0,0 l/m 13,1 km/h (3 Bft) N-NO 20 1 min 0,000 mm 3,2 UV-I 722 W/m 10,7 C 15,5 C 16,1 km/h (3 Bft) 100,00 %
11.04.2018 13:41 18,1 C 10,0 C 59 % 1005,2 hPa 0,0 l/m 8,0 km/h (2 Bft) N 9 1 min 0,000 mm 3,2 UV-I 720 W/m 10,0 C 17,4 C 12,9 km/h (3 Bft) 100,00 %
11.04.2018 13:42 17,9 C 10,0 C 59 % 1005,2 hPa 0,0 l/m 8,8 km/h (2 Bft) N-NW 333 1 min 0,000 mm 3,2 UV-I 725 W/m 9,8 C 16,8 C 12,9 km/h (3 Bft) 96,30 %
11.04.2018 13:43 17,8 C 10,0 C 59 % 1005,2 hPa 0,0 l/m 11,1 km/h (2 Bft) NO 35 1 min 0,000 mm 3,2 UV-I 720 W/m 9,7 C 15,8 C 16,1 km/h (3 Bft) 100,00 %
11.04.2018 13:44 17,8 C 10,0 C 59 % 1005,1 hPa 0,0 l/m 11,5 km/h (2 Bft) NO 36 1 min 0,000 mm 3,2 UV-I 714 W/m 9,7 C 15,7 C 14,5 km/h (3 Bft) 100,00 %
11.04.2018 13:45 17,8 C 10,0 C 60 % 1005,2 hPa 0,0 l/m 12,8 km/h (3 Bft) N-NO 13 1 min 0,000 mm 3,2 UV-I 714 W/m 9,9 C 15,2 C 17,7 km/h (3 Bft) 100,00 %
11.04.2018 13:46 17,8 C 10,0 C 60 % 1005,2 hPa 0,0 l/m 13,1 km/h (3 Bft) N 355 1 min 0,000 mm 3,2 UV-I 714 W/m 9,9 C 15,1 C 17,7 km/h (3 Bft) 95,83 %
11.04.2018 13:47 17,7 C 10,0 C 60 % 1005,2 hPa 0,0 l/m 6,1 km/h (2 Bft) N-NO 19 1 min 0,000 mm 3,2 UV-I 711 W/m 9,8 C 17,7 C 12,9 km/h (3 Bft) 96,15 %
11.04.2018 13:48 17,6 C 10,0 C 60 % 1005,2 hPa 0,0 l/m 13,9 km/h (3 Bft) N-NO 28 1 min 0,000 mm 3,1 UV-I 696 W/m 9,7 C 14,7 C 19,3 km/h (3 Bft) 96,30 %
11.04.2018 13:49 17,5 C 10,0 C 59 % 1005,1 hPa 0,0 l/m 7,9 km/h (2 Bft) N-NO 26 1 min 0,000 mm 3,1 UV-I 697 W/m 9,4 C 16,8 C 12,9 km/h (3 Bft) 100,00 %
11.04.2018 13:50 17,3 C 10,0 C 61 % 1005,1 hPa 0,0 l/m 6,9 km/h (2 Bft) N 355 1 min 0,000 mm 3,1 UV-I 699 W/m 9,7 C 17,1 C 12,9 km/h (3 Bft) 95,83 %
11.04.2018 13:51 17,3 C 10,0 C 61 % 1005,1 hPa 0,0 l/m 10,7 km/h (2 Bft) N-NO 23 1 min 0,000 mm 3,1 UV-I 686 W/m 9,7 C 15,4 C 12,9 km/h (3 Bft) 100,00 %
11.04.2018 13:52 17,4 C 10,0 C 61 % 1005,1 hPa 0,0 l/m 9,7 km/h (2 Bft) O-NO 59 1 min 0,000 mm 3,2 UV-I 694 W/m 9,8 C 15,9 C 12,9 km/h (3 Bft) 96,30 %
11.04.2018 13:53 17,4 C 10,0 C 62 % 1005,0 hPa 0,0 l/m 8,6 km/h (2 Bft) N-NO 28 1 min 0,000 mm 3,2 UV-I 710 W/m 10,0 C 16,4 C 14,5 km/h (3 Bft) 95,65 %
11.04.2018 13:54 17,7 C 10,0 C 63 % 1005,1 hPa 0,0 l/m 8,4 km/h (2 Bft) N-NW 328 1 min 0,000 mm 3,1 UV-I 711 W/m 10,6 C 16,8 C 12,9 km/h (3 Bft) 100,00 %
11.04.2018 13:55 17,8 C 10,0 C 60 % 1005,0 hPa 0,0 l/m 12,3 km/h (3 Bft) N-NO 21 1 min 0,000 mm 3,1 UV-I 709 W/m 9,9 C 15,4 C 20,9 km/h (4 Bft) 92,31 %
11.04.2018 13:56 18,0 C 10,0 C 60 % 1005,0 hPa 0,0 l/m 16,3 km/h (3 Bft) O-NO 59 1 min 0,000 mm 3,1 UV-I 708 W/m 10,1 C 14,5 C 19,3 km/h (3 Bft) 100,00 %
11.04.2018 13:57 18,1 C 10,0 C 60 % 1005,0 hPa 0,0 l/m 11,8 km/h (2 Bft) NO 53 1 min 0,000 mm 3,1 UV-I 704 W/m 10,2 C 15,9 C 16,1 km/h (3 Bft) 96,30 %
11.04.2018 13:58 18,0 C 10,0 C 59 % 1005,0 hPa 0,0 l/m 5,5 km/h (1 Bft) O-NO 61 1 min 0,000 mm 3,1 UV-I 694 W/m 9,9 C 18,0 C 8,0 km/h (2 Bft) 100,00 %
11.04.2018 13:59 17,9 C 10,0 C 61 % 1005,0 hPa 0,0 l/m 7,1 km/h (2 Bft) N-NO 24 1 min 0,000 mm 3,1 UV-I 701 W/m 10,3 C 17,6 C 12,9 km/h (3 Bft) 91,67 %
11.04.2018 14:00 18,0 C 10,0 C 62 % 1005,0 hPa 0,0 l/m 13,0 km/h (3 Bft) NO 37 1 min 0,000 mm 3,1 UV-I 702 W/m 10,6 C 15,4 C 16,1 km/h (3 Bft) 100,00 %
11.04.2018 14:01 18,1 C 10,0 C 59 % 1005,0 hPa 0,0 l/m 9,8 km/h (2 Bft) N-NO 12 1 min 0,457 mm 3,1 UV-I 712 W/m 10,0 C 16,6 C 12,9 km/h (3 Bft) 95,83 %
11.04.2018 14:02 18,1 C 10,0 C 58 % 1005,0 hPa 0,0 l/m 13,6 km/h (3 Bft) N-NO 25 1 min 0,000 mm 3,1 UV-I 711 W/m 9,7 C 15,3 C 16,1 km/h (3 Bft) 95,65 %
11.04.2018 14:03 18,1 C 10,0 C 57 % 1005,0 hPa 0,0 l/m 12,8 km/h (3 Bft) NO 35 1 min 0,000 mm 3,1 UV-I 709 W/m 9,4 C 15,6 C 14,5 km/h (3 Bft) 96,30 %
11.04.2018 14:04 17,9 C 10,0 C 57 % 1005,0 hPa 0,0 l/m 13,0 km/h (3 Bft) N-NO 17 1 min 0,000 mm 3,1 UV-I 710 W/m 9,3 C 15,3 C 16,1 km/h (3 Bft) 91,30 %
11.04.2018 14:05 18,1 C 10,0 C 60 % 1005,0 hPa 0,0 l/m 9,1 km/h (2 Bft) O 82 1 min 0,000 mm 3,1 UV-I 710 W/m 10,2 C 16,9 C 14,5 km/h (3 Bft) 100,00 %
11.04.2018 14:06 18,2 C 10,0 C 59 % 1005,0 hPa 0,0 l/m 7,6 km/h (2 Bft) O-NO 68 1 min 0,000 mm 3,1 UV-I 708 W/m 10,1 C 17,6 C 11,3 km/h (2 Bft) 95,65 %
11.04.2018 14:07 18,1 C 10,0 C 57 % 1005,0 hPa 0,0 l/m 7,7 km/h (2 Bft) O-SO 121 1 min 0,000 mm 3,1 UV-I 710 W/m 9,4 C 17,5 C 11,3 km/h (2 Bft) 100,00 %
11.04.2018 14:08 18,0 C 10,0 C 57 % 1005,0 hPa 0,0 l/m 11,0 km/h (2 Bft) O-SO 102 1 min 0,000 mm 3,1 UV-I 715 W/m 9,4 C 16,1 C 14,5 km/h (3 Bft) 92,31 %
11.04.2018 14:09 17,8 C 10,0 C 57 % 1005,0 hPa 0,0 l/m 10,8 km/h (2 Bft) O-SO 111 1 min 0,000 mm 3,1 UV-I 714 W/m 9,2 C 15,9 C 14,5 km/h (3 Bft) 96,30 %
11.04.2018 14:10 17,7 C 10,0 C 57 % 1005,0 hPa 0,0 l/m 9,7 km/h (2 Bft) O-SO 109 1 min 0,000 mm 3,1 UV-I 712 W/m 9,1 C 16,2 C 11,3 km/h (2 Bft) 100,00 %
11.04.2018 14:11 17,6 C 10,0 C 57 % 1005,0 hPa 0,0 l/m 5,3 km/h (1 Bft) O-SO 112 1 min 0,000 mm 2,5 UV-I 708 W/m 9,0 C 17,6 C 11,3 km/h (2 Bft) 96,77 %
11.04.2018 14:12 17,6 C 10,0 C 61 % 1004,9 hPa 0,0 l/m 7,2 km/h (2 Bft) O 94 1 min 0,000 mm 2,4 UV-I 705 W/m 10,0 C 17,2 C 12,9 km/h (3 Bft) 100,00 %
11.04.2018 14:13 17,6 C 10,0 C 60 % 1004,9 hPa 0,0 l/m 10,1 km/h (2 Bft) O-NO 78 1 min 0,000 mm 3,1 UV-I 701 W/m 9,7 C 16,0 C 14,5 km/h (3 Bft) 96,77 %
11.04.2018 14:14 17,7 C 10,0 C 60 % 1004,9 hPa 0,0 l/m 7,6 km/h (2 Bft) O-NO 70 1 min 0,000 mm 3,1 UV-I 703 W/m 9,8 C 17,1 C 12,9 km/h (3 Bft) 100,00 %
11.04.2018 14:15 17,8 C 10,0 C 60 % 1004,9 hPa 0,0 l/m 14,0 km/h (3 Bft) NO 38 1 min 0,000 mm 3,0 UV-I 699 W/m 9,9 C 14,9 C 17,7 km/h (3 Bft) 100,00 %
11.04.2018 14:16 17,9 C 10,0 C 61 % 1004,9 hPa 0,0 l/m 11,2 km/h (2 Bft) NO 35 1 min 0,000 mm 3,0 UV-I 707 W/m 10,3 C 15,9 C 19,3 km/h (3 Bft) 100,00 %
11.04.2018 14:17 18,1 C 10,0 C 60 % 1004,9 hPa 0,0 l/m 7,5 km/h (2 Bft) O-NO 66 1 min 0,000 mm 3,1 UV-I 709 W/m 10,2 C 17,6 C 9,7 km/h (2 Bft) 95,65 %
11.04.2018 14:18 18,2 C 10,0 C 58 % 1004,9 hPa 0,0 l/m 4,5 km/h (1 Bft) O-NO 75 1 min 0,000 mm 3,0 UV-I 710 W/m 9,8 C 18,2 C 6,4 km/h (2 Bft) 100,00 %
11.04.2018 14:19 18,1 C 10,0 C 56 % 1004,9 hPa 0,0 l/m 5,6 km/h (1 Bft) NO 51 1 min 0,000 mm 3,0 UV-I 706 W/m 9,2 C 18,1 C 6,4 km/h (2 Bft) 100,00 %
11.04.2018 14:20 18,0 C 10,0 C 59 % 1004,9 hPa 0,0 l/m 3,1 km/h (1 Bft) N-NO 27 1 min 0,000 mm 3,0 UV-I 688 W/m 9,9 C 18,0 C 4,8 km/h (1 Bft) 100,00 %
11.04.2018 14:21 18,1 C 10,0 C 59 % 1004,9 hPa 0,0 l/m 10,1 km/h (2 Bft) O-NO 59 1 min 0,000 mm 3,0 UV-I 669 W/m 10,0 C 16,5 C 14,5 km/h (3 Bft) 100,00 %
11.04.2018 14:22 18,3 C 10,0 C 60 % 1004,8 hPa 0,0 l/m 10,2 km/h (2 Bft) O-NO 61 1 min 0,000 mm 2,9 UV-I 622 W/m 10,4 C 16,7 C 14,5 km/h (3 Bft) 96,67 %
11.04.2018 14:23 18,4 C 10,0 C 61 % 1004,8 hPa 0,0 l/m 12,2 km/h (2 Bft) NO 43 1 min 0,000 mm 2,8 UV-I 637 W/m 10,7 C 16,1 C 17,7 km/h (3 Bft) 100,00 %
11.04.2018 14:24 18,6 C 10,0 C 59 % 1004,8 hPa 0,0 l/m 10,0 km/h (2 Bft) NO 44 1 min 0,000 mm 2,8 UV-I 635 W/m 10,4 C 17,1 C 14,5 km/h (3 Bft) 100,00 %
11.04.2018 14:25 18,6 C 10,0 C 58 % 1004,9 hPa 0,0 l/m 8,2 km/h (2 Bft) NO 36 1 min 0,000 mm 2,9 UV-I 676 W/m 10,2 C 17,8 C 12,9 km/h (3 Bft) 100,00 %
11.04.2018 14:26 18,6 C 10,0 C 59 % 1004,8 hPa 0,0 l/m 12,5 km/h (3 Bft) N-NO 33 1 min 0,000 mm 2,9 UV-I 683 W/m 10,4 C 16,3 C 16,1 km/h (3 Bft) 100,00 %
11.04.2018 14:28 18,8 C 10,0 C 58 % 1004,8 hPa 0,0 l/m 8,0 km/h (2 Bft) O-NO 57 2 min 0,000 mm 3,0 UV-I 696 W/m 10,4 C 18,1 C 12,9 km/h (3 Bft) 100,00 %
11.04.2018 14:29 18,7 C 10,0 C 55 % 1004,8 hPa 0,0 l/m 6,5 km/h (2 Bft) O-NO 76 1 min 0,000 mm 3,0 UV-I 693 W/m 9,5 C 18,7 C 9,7 km/h (2 Bft) 100,00 %
11.04.2018 14:30 18,5 C 10,0 C 55 % 1004,7 hPa 0,0 l/m 5,2 km/h (1 Bft) NO 54 1 min 0,000 mm 2,9 UV-I 685 W/m 9,3 C 18,5 C 12,9 km/h (3 Bft) 100,00 %
11.04.2018 14:31 18,4 C 10,0 C 58 % 1004,7 hPa 0,0 l/m 13,0 km/h (3 Bft) NO 55 1 min 0,000 mm 2,9 UV-I 689 W/m 10,0 C 15,9 C 16,1 km/h (3 Bft) 100,00 %
11.04.2018 14:32 18,6 C 10,0 C 60 % 1004,8 hPa 0,0 l/m 8,3 km/h (2 Bft) NO 40 1 min 0,000 mm 2,9 UV-I 687 W/m 10,7 C 17,8 C 11,3 km/h (2 Bft) 100,00 %
11.04.2018 14:33 18,7 C 10,0 C 59 % 1004,7 hPa 0,0 l/m 8,0 km/h (2 Bft) NO 47 1 min 0,000 mm 2,9 UV-I 685 W/m 10,5 C 18,0 C 11,3 km/h (2 Bft) 100,00 %
11.04.2018 14:34 18,7 C 10,0 C 57 % 1004,7 hPa 0,0 l/m 13,8 km/h (3 Bft) O-NO 57 1 min 0,000 mm 2,9 UV-I 675 W/m 10,0 C 16,0 C 16,1 km/h (3 Bft) 100,00 %
11.04.2018 14:35 18,8 C 10,0 C 56 % 1004,7 hPa 0,0 l/m 11,6 km/h (2 Bft) NO 38 1 min 0,000 mm 2,9 UV-I 669 W/m 9,8 C 16,8 C 16,1 km/h (3 Bft) 100,00 %
11.04.2018 14:36 18,8 C 10,0 C 57 % 1004,6 hPa 0,0 l/m 13,1 km/h (3 Bft) O-NO 73 1 min 0,000 mm 2,8 UV-I 641 W/m 10,1 C 16,3 C 16,1 km/h (3 Bft) 100,00 %
11.04.2018 14:37 18,8 C 10,0 C 58 % 1004,7 hPa 0,0 l/m 11,0 km/h (2 Bft) O-NO 57 1 min 0,000 mm 2,8 UV-I 661 W/m 10,4 C 17,0 C 14,5 km/h (3 Bft) 100,00 %
11.04.2018 14:38 18,7 C 10,0 C 56 % 1004,6 hPa 0,0 l/m 10,2 km/h (2 Bft) O 81 1 min 0,000 mm 2,8 UV-I 676 W/m 9,7 C 17,1 C 14,5 km/h (3 Bft) 96,15 %
11.04.2018 14:39 18,6 C 10,0 C 55 % 1004,7 hPa 0,0 l/m 9,3 km/h (2 Bft) NO 53 1 min 0,000 mm 2,9 UV-I 686 W/m 9,4 C 17,4 C 12,9 km/h (3 Bft) 100,00 %
11.04.2018 14:40 18,5 C 10,0 C 59 % 1004,6 hPa 0,0 l/m 11,5 km/h (2 Bft) O 86 1 min 0,000 mm 2,9 UV-I 687 W/m 10,3 C 16,5 C 14,5 km/h (3 Bft) 100,00 %
11.04.2018 14:41 18,5 C 10,0 C 55 % 1004,6 hPa 0,0 l/m 10,0 km/h (2 Bft) O-SO 115 1 min 0,000 mm 2,8 UV-I 685 W/m 9,3 C 17,0 C 14,5 km/h (3 Bft) 100,00 %
11.04.2018 14:42 18,4 C 10,0 C 56 % 1004,6 hPa 0,0 l/m 5,9 km/h (2 Bft) SO 126 1 min 0,000 mm 2,8 UV-I 684 W/m 9,5 C 18,4 C 9,7 km/h (2 Bft) 92,31 %
11.04.2018 14:43 18,3 C 10,0 C 56 % 1004,5 hPa 0,0 l/m 3,8 km/h (1 Bft) O-NO 76 1 min 0,000 mm 2,8 UV-I 679 W/m 9,4 C 18,3 C 6,4 km/h (2 Bft) 100,00 %
11.04.2018 14:44 18,2 C 10,0 C 55 % 1004,5 hPa 0,0 l/m 3,2 km/h (1 Bft) O 94 1 min 0,000 mm 2,8 UV-I 677 W/m 9,0 C 18,2 C 4,8 km/h (1 Bft) 100,00 %
11.04.2018 14:45 18,2 C 10,0 C 57 % 1004,5 hPa 0,0 l/m 7,6 km/h (2 Bft) NO 50 1 min 0,000 mm 2,8 UV-I 673 W/m 9,5 C 17,6 C 14,5 km/h (3 Bft) 100,00 %
11.04.2018 14:46 18,3 C 10,0 C 57 % 1004,5 hPa 0,0 l/m 8,6 km/h (2 Bft) NO 47 1 min 0,000 mm 2,8 UV-I 670 W/m 9,6 C 17,3 C 11,3 km/h (2 Bft) 100,00 %
11.04.2018 14:47 18,4 C 10,0 C 61 % 1004,5 hPa 0,0 l/m 11,2 km/h (2 Bft) NO 40 1 min 0,000 mm 2,8 UV-I 670 W/m 10,7 C 16,5 C 16,1 km/h (3 Bft) 95,83 %
11.04.2018 14:48 18,7 C 10,0 C 59 % 1004,5 hPa 0,0 l/m 12,2 km/h (2 Bft) O-NO 64 1 min 0,000 mm 2,8 UV-I 666 W/m 10,5 C 16,5 C 16,1 km/h (3 Bft) 100,00 %
11.04.2018 14:49 18,8 C 10,0 C 56 % 1004,5 hPa 0,0 l/m 8,9 km/h (2 Bft) O-NO 69 1 min 0,000 mm 2,7 UV-I 664 W/m 9,8 C 17,7 C 14,5 km/h (3 Bft) 100,00 %
11.04.2018 14:50 18,9 C 10,0 C 58 % 1004,5 hPa 0,0 l/m 9,6 km/h (2 Bft) NO 42 1 min 0,000 mm 2,7 UV-I 663 W/m 10,5 C 17,6 C 14,5 km/h (3 Bft) 100,00 %
11.04.2018 14:51 19,0 C 10,0 C 56 % 1004,5 hPa 0,0 l/m 7,9 km/h (2 Bft) NO 48 1 min 0,000 mm 2,7 UV-I 659 W/m 10,0 C 18,3 C 11,3 km/h (2 Bft) 100,00 %
11.04.2018 14:52 19,1 C 10,0 C 56 % 1004,5 hPa 0,0 l/m 6,2 km/h (2 Bft) NO 46 1 min 0,000 mm 2,7 UV-I 656 W/m 10,1 C 19,1 C 8,0 km/h (2 Bft) 100,00 %
11.04.2018 14:53 19,0 C 10,0 C 56 % 1004,4 hPa 0,0 l/m 4,8 km/h (1 Bft) N-NO 32 1 min 0,000 mm 2,7 UV-I 653 W/m 10,0 C 19,0 C 9,7 km/h (2 Bft) 100,00 %
11.04.2018 14:54 19,1 C 10,0 C 59 % 1004,5 hPa 0,0 l/m 8,1 km/h (2 Bft) O-NO 59 1 min 0,000 mm 2,6 UV-I 649 W/m 10,9 C 18,4 C 11,3 km/h (2 Bft) 100,00 %
11.04.2018 14:55 19,2 C 10,0 C 58 % 1004,5 hPa 0,0 l/m 11,3 km/h (2 Bft) O-SO 103 1 min 0,000 mm 2,6 UV-I 642 W/m 10,7 C 17,3 C 16,1 km/h (3 Bft) 100,00 %
11.04.2018 14:56 19,1 C 10,0 C 55 % 1004,5 hPa 0,0 l/m 12,6 km/h (3 Bft) O 101 1 min 0,000 mm 2,6 UV-I 623 W/m 9,8 C 16,8 C 14,5 km/h (3 Bft) 100,00 %
11.04.2018 14:57 18,9 C 10,0 C 54 % 1004,5 hPa 0,0 l/m 9,2 km/h (2 Bft) O-SO 105 1 min 0,000 mm 2,6 UV-I 625 W/m 9,4 C 17,7 C 12,9 km/h (3 Bft) 100,00 %
11.04.2018 14:58 18,6 C 10,0 C 54 % 1004,5 hPa 0,0 l/m 4,2 km/h (1 Bft) O-SO 113 1 min 0,000 mm 2,6 UV-I 641 W/m 9,1 C 18,6 C 6,4 km/h (2 Bft) 100,00 %
11.04.2018 14:59 18,4 C 10,0 C 56 % 1004,5 hPa 0,0 l/m 8,0 km/h (2 Bft) O-NO 65 1 min 0,000 mm 2,6 UV-I 639 W/m 9,5 C 17,7 C 12,9 km/h (3 Bft) 97,88 %
11.04.2018 15:00 18,5 C 10,0 C 57 % 1004,4 hPa 0,0 l/m 5,7 km/h (1 Bft) O-SO 102 1 min 0,000 mm 2,6 UV-I 638 W/m 9,8 C 18,5 C 8,0 km/h (2 Bft) 100,00 %
11.04.2018 15:01 18,6 C 10,0 C 57 % 1004,4 hPa 0,0 l/m 10,0 km/h (2 Bft) O 96 1 min 0,432 mm 2,6 UV-I 636 W/m 9,9 C 17,1 C 16,1 km/h (3 Bft) 100,00 %
11.04.2018 15:02 18,7 C 10,0 C 56 % 1004,4 hPa 0,0 l/m 14,1 km/h (3 Bft) SO 130 1 min 0,000 mm 2,5 UV-I 635 W/m 9,7 C 15,9 C 19,3 km/h (3 Bft) 100,00 %
11.04.2018 15:03 18,7 C 10,0 C 55 % 1004,4 hPa 0,0 l/m 7,4 km/h (2 Bft) O 100 1 min 0,000 mm 2,5 UV-I 635 W/m 9,5 C 18,2 C 16,1 km/h (3 Bft) 100,00 %
11.04.2018 15:04 18,7 C 10,0 C 54 % 1004,4 hPa 0,0 l/m 12,8 km/h (3 Bft) O 98 1 min 0,000 mm 2,5 UV-I 632 W/m 9,2 C 16,3 C 16,1 km/h (3 Bft) 91,67 %
11.04.2018 15:05 18,7 C 10,0 C 55 % 1004,4 hPa 0,0 l/m 14,2 km/h (3 Bft) O 90 1 min 0,000 mm 2,5 UV-I 629 W/m 9,5 C 15,9 C 16,1 km/h (3 Bft) 100,00 %
11.04.2018 15:06 18,6 C 10,0 C 54 % 1004,4 hPa 0,0 l/m 12,0 km/h (2 Bft) O 85 1 min 0,000 mm 2,5 UV-I 626 W/m 9,1 C 16,4 C 16,1 km/h (3 Bft) 100,00 %
11.04.2018 15:07 18,6 C 10,0 C 54 % 1004,4 hPa 0,0 l/m 6,7 km/h (2 Bft) O-NO 59 1 min 0,000 mm 2,5 UV-I 632 W/m 9,1 C 18,5 C 9,7 km/h (2 Bft) 96,15 %
11.04.2018 15:08 18,6 C 10,0 C 55 % 1004,4 hPa 0,0 l/m 10,4 km/h (2 Bft) O-SO 109 1 min 0,000 mm 2,5 UV-I 630 W/m 9,4 C 17,0 C 14,5 km/h (3 Bft) 100,00 %
11.04.2018 15:10 18,6 C 10,0 C 55 % 1004,4 hPa 0,0 l/m 13,5 km/h (3 Bft) O 84 2 min 0,000 mm 2,4 UV-I 628 W/m 9,4 C 16,0 C 16,1 km/h (3 Bft) 100,00 %
11.04.2018 15:11 18,6 C 10,0 C 55 % 1004,4 hPa 0,0 l/m 9,9 km/h (2 Bft) O 79 1 min 0,000 mm 2,4 UV-I 626 W/m 9,4 C 17,1 C 16,1 km/h (3 Bft) 100,00 %
11.04.2018 15:12 18,7 C 10,0 C 57 % 1004,4 hPa 0,0 l/m 6,9 km/h (2 Bft) O-NO 68 1 min 0,000 mm 2,4 UV-I 622 W/m 10,0 C 18,5 C 11,3 km/h (2 Bft) 100,00 %
11.04.2018 15:13 18,8 C 10,0 C 56 % 1004,4 hPa 0,0 l/m 8,7 km/h (2 Bft) NO 41 1 min 0,000 mm 2,4 UV-I 621 W/m 9,8 C 17,8 C 14,5 km/h (3 Bft) 100,00 %
11.04.2018 15:14 18,9 C 10,0 C 56 % 1004,4 hPa 0,0 l/m 11,2 km/h (2 Bft) O 84 1 min 0,000 mm 2,4 UV-I 620 W/m 9,9 C 17,0 C 16,1 km/h (3 Bft) 100,00 %
11.04.2018 15:15 19,0 C 10,0 C 55 % 1004,4 hPa 0,0 l/m 10,6 km/h (2 Bft) O-NO 64 1 min 0,000 mm 2,3 UV-I 611 W/m 9,8 C 17,3 C 16,1 km/h (3 Bft) 100,00 %
11.04.2018 15:16 19,1 C 10,0 C 55 % 1004,3 hPa 0,0 l/m 17,1 km/h (3 Bft) O-NO 69 1 min 0,000 mm 2,3 UV-I 604 W/m 9,8 C 15,7 C 22,5 km/h (4 Bft) 96,97 %
11.04.2018 15:18 19,1 C 10,0 C 55 % 1004,3 hPa 0,0 l/m 8,3 km/h (2 Bft) O 80 2 min 0,000 mm 2,3 UV-I 612 W/m 9,8 C 18,3 C 14,5 km/h (3 Bft) 98,18 %
11.04.2018 15:19 19,0 C 10,0 C 54 % 1004,3 hPa 0,0 l/m 9,6 km/h (2 Bft) NO 36 1 min 0,000 mm 2,3 UV-I 610 W/m 9,5 C 17,7 C 12,9 km/h (3 Bft) 93,33 %
11.04.2018 15:20 19,1 C 10,0 C 56 % 1004,2 hPa 0,0 l/m 11,8 km/h (2 Bft) NO 48 1 min 0,000 mm 2,3 UV-I 608 W/m 10,1 C 17,1 C 17,7 km/h (3 Bft) 100,00 %
11.04.2018 15:21 19,4 C 10,0 C 56 % 1004,3 hPa 0,0 l/m 12,4 km/h (3 Bft) NO 50 1 min 0,000 mm 2,3 UV-I 607 W/m 10,4 C 17,2 C 19,3 km/h (3 Bft) 100,00 %
11.04.2018 15:23 19,5 C 10,0 C 55 % 1004,3 hPa 0,0 l/m 12,1 km/h (2 Bft) O-NO 72 2 min 0,000 mm 2,2 UV-I 601 W/m 10,2 C 17,4 C 17,7 km/h (3 Bft) 95,12 %
11.04.2018 15:24 19,4 C 10,0 C 53 % 1004,3 hPa 0,0 l/m 16,5 km/h (3 Bft) O-NO 69 1 min 0,000 mm 2,2 UV-I 605 W/m 9,6 C 16,2 C 19,3 km/h (3 Bft) 100,00 %
11.04.2018 15:25 19,2 C 10,0 C 53 % 1004,3 hPa 0,0 l/m 16,6 km/h (3 Bft) O-NO 75 1 min 0,000 mm 2,2 UV-I 605 W/m 9,4 C 15,9 C 20,9 km/h (4 Bft) 100,00 %
11.04.2018 15:26 19,2 C 10,0 C 53 % 1004,2 hPa 0,0 l/m 15,7 km/h (3 Bft) O 87 1 min 0,000 mm 2,2 UV-I 604 W/m 9,4 C 16,1 C 17,7 km/h (3 Bft) 100,00 %
11.04.2018 15:27 19,1 C 10,0 C 54 % 1004,3 hPa 0,0 l/m 13,1 km/h (3 Bft) O-NO 62 1 min 0,000 mm 2,2 UV-I 603 W/m 9,6 C 16,7 C 16,1 km/h (3 Bft) 100,00 %
11.04.2018 15:28 19,1 C 10,0 C 56 % 1004,3 hPa 0,0 l/m 13,3 km/h (3 Bft) NO 53 1 min 0,000 mm 2,2 UV-I 605 W/m 10,1 C 16,6 C 17,7 km/h (3 Bft) 100,00 %
11.04.2018 15:29 19,1 C 10,0 C 55 % 1004,2 hPa 0,0 l/m 8,8 km/h (2 Bft) O 99 1 min 0,000 mm 2,2 UV-I 601 W/m 9,8 C 18,1 C 12,9 km/h (3 Bft) 100,00 %
11.04.2018 15:30 19,1 C 10,0 C 55 % 1004,2 hPa 0,0 l/m 9,1 km/h (2 Bft) O 98 1 min 0,000 mm 2,2 UV-I 599 W/m 9,8 C 18,0 C 12,9 km/h (3 Bft) 100,00 %
11.04.2018 15:31 19,1 C 10,0 C 54 % 1004,2 hPa 0,0 l/m 9,7 km/h (2 Bft) O 88 1 min 0,000 mm 2,2 UV-I 596 W/m 9,6 C 17,8 C 12,9 km/h (3 Bft) 100,00 %
11.04.2018 15:32 19,0 C 10,0 C 54 % 1004,2 hPa 0,0 l/m 10,8 km/h (2 Bft) O 85 1 min 0,000 mm 2,1 UV-I 596 W/m 9,5 C 17,3 C 16,1 km/h (3 Bft) 95,65 %
11.04.2018 15:33 19,1 C 10,0 C 55 % 1004,2 hPa 0,0 l/m 12,0 km/h (2 Bft) O-NO 67 1 min 0,000 mm 2,1 UV-I 597 W/m 9,8 C 17,0 C 14,5 km/h (3 Bft) 95,56 %
11.04.2018 15:34 19,2 C 10,0 C 56 % 1004,1 hPa 0,0 l/m 7,9 km/h (2 Bft) NO 38 1 min 0,000 mm 2,1 UV-I 596 W/m 10,2 C 18,6 C 9,7 km/h (2 Bft) 100,00 %
11.04.2018 15:35 19,3 C 10,0 C 55 % 1004,1 hPa 0,0 l/m 7,2 km/h (2 Bft) NO 53 1 min 0,000 mm 2,1 UV-I 588 W/m 10,0 C 19,0 C 11,3 km/h (2 Bft) 95,65 %
11.04.2018 15:36 19,4 C 10,0 C 57 % 1004,0 hPa 0,0 l/m 12,5 km/h (3 Bft) O-NO 59 1 min 0,000 mm 2,1 UV-I 593 W/m 10,7 C 17,2 C 16,1 km/h (3 Bft) 100,00 %
11.04.2018 15:38 19,6 C 10,0 C 54 % 1004,0 hPa 0,0 l/m 13,1 km/h (3 Bft) O 87 2 min 0,000 mm 2,0 UV-I 586 W/m 10,0 C 17,3 C 20,9 km/h (4 Bft) 95,45 %
11.04.2018 15:39 19,5 C 10,0 C 52 % 1004,0 hPa 0,0 l/m 20,1 km/h (4 Bft) O-NO 68 1 min 0,000 mm 2,0 UV-I 570 W/m 9,4 C 15,5 C 24,1 km/h (4 Bft) 91,67 %
11.04.2018 15:40 19,4 C 10,0 C 51 % 1003,9 hPa 0,0 l/m 21,6 km/h (4 Bft) O-NO 78 1 min 0,000 mm 2,0 UV-I 583 W/m 9,0 C 15,1 C 25,7 km/h (4 Bft) 100,00 %
11.04.2018 15:41 19,3 C 10,0 C 52 % 1003,9 hPa 0,0 l/m 17,6 km/h (3 Bft) O 84 1 min 0,000 mm 2,0 UV-I 588 W/m 9,2 C 15,8 C 24,1 km/h (4 Bft) 96,30 %
11.04.2018 15:43 19,2 C 10,0 C 52 % 1003,8 hPa 0,0 l/m 12,3 km/h (3 Bft) O-NO 75 2 min 0,000 mm 2,0 UV-I 573 W/m 9,1 C 17,0 C 19,3 km/h (3 Bft) 95,45 %
11.04.2018 15:44 19,1 C 10,0 C 52 % 1003,8 hPa 0,0 l/m 9,8 km/h (2 Bft) O 84 1 min 0,000 mm 2,0 UV-I 574 W/m 9,0 C 17,7 C 16,1 km/h (3 Bft) 96,15 %
11.04.2018 15:45 19,1 C 10,0 C 54 % 1003,8 hPa 0,0 l/m 12,5 km/h (3 Bft) O 86 1 min 0,000 mm 2,0 UV-I 559 W/m 9,6 C 16,8 C 14,5 km/h (3 Bft) 100,00 %
11.04.2018 15:46 19,2 C 10,0 C 54 % 1003,8 hPa 0,0 l/m 16,0 km/h (3 Bft) O 86 1 min 0,000 mm 1,9 UV-I 557 W/m 9,7 C 16,0 C 19,3 km/h (3 Bft) 96,15 %
11.04.2018 15:47 19,1 C 10,0 C 52 % 1003,8 hPa 0,0 l/m 11,4 km/h (2 Bft) NO 53 1 min 0,000 mm 1,9 UV-I 565 W/m 9,0 C 17,2 C 17,7 km/h (3 Bft) 100,00 %
11.04.2018 15:48 19,1 C 10,0 C 53 % 1003,8 hPa 0,0 l/m 13,2 km/h (3 Bft) O-NO 69 1 min 0,000 mm 1,9 UV-I 553 W/m 9,3 C 16,6 C 17,7 km/h (3 Bft) 96,15 %
11.04.2018 15:49 19,2 C 10,0 C 53 % 1003,8 hPa 0,0 l/m 18,8 km/h (3 Bft) O 80 1 min 0,000 mm 1,9 UV-I 566 W/m 9,4 C 15,4 C 24,1 km/h (4 Bft) 100,00 %
11.04.2018 15:50 19,1 C 10,0 C 52 % 1003,9 hPa 0,0 l/m 13,6 km/h (3 Bft) O 86 1 min 0,000 mm 1,9 UV-I 572 W/m 9,0 C 16,5 C 16,1 km/h (3 Bft) 92,86 %
11.04.2018 15:51 19,2 C 10,0 C 54 % 1003,8 hPa 0,0 l/m 8,6 km/h (2 Bft) O-NO 78 1 min 0,000 mm 1,9 UV-I 571 W/m 9,7 C 18,3 C 11,3 km/h (2 Bft) 93,33 %
11.04.2018 15:52 19,3 C 10,0 C 54 % 1003,8 hPa 0,0 l/m 13,4 km/h (3 Bft) O-NO 61 1 min 0,000 mm 1,9 UV-I 570 W/m 9,8 C 16,8 C 17,7 km/h (3 Bft) 100,00 %
11.04.2018 15:53 19,3 C 10,0 C 52 % 1003,8 hPa 0,0 l/m 13,2 km/h (3 Bft) O-SO 102 1 min 0,000 mm 1,8 UV-I 553 W/m 9,2 C 16,9 C 17,7 km/h (3 Bft) 100,00 %
11.04.2018 15:54 19,2 C 10,0 C 53 % 1003,7 hPa 0,0 l/m 12,0 km/h (2 Bft) O 82 1 min 0,000 mm 1,8 UV-I 540 W/m 9,4 C 17,1 C 16,1 km/h (3 Bft) 97,06 %
11.04.2018 15:55 19,2 C 10,0 C 53 % 1003,7 hPa 0,0 l/m 14,9 km/h (3 Bft) NO 42 1 min 0,000 mm 1,8 UV-I 552 W/m 9,4 C 16,3 C 20,9 km/h (4 Bft) 94,12 %
11.04.2018 15:56 19,3 C 10,0 C 53 % 1003,7 hPa 0,0 l/m 15,7 km/h (3 Bft) O-NO 65 1 min 0,000 mm 1,8 UV-I 550 W/m 9,5 C 16,2 C 19,3 km/h (3 Bft) 100,00 %
11.04.2018 15:57 19,4 C 10,0 C 53 % 1003,7 hPa 0,0 l/m 13,0 km/h (3 Bft) NO 51 1 min 0,000 mm 1,8 UV-I 544 W/m 9,6 C 17,1 C 17,7 km/h (3 Bft) 91,30 %
11.04.2018 15:58 19,5 C 10,0 C 52 % 1003,7 hPa 0,0 l/m 12,8 km/h (3 Bft) O-NO 57 1 min 0,000 mm 1,8 UV-I 541 W/m 9,4 C 17,2 C 17,7 km/h (3 Bft) 97,88 %
11.04.2018 15:59 19,6 C 10,0 C 54 % 1003,8 hPa 0,0 l/m 15,2 km/h (3 Bft) O-NO 69 1 min 0,000 mm 1,8 UV-I 541 W/m 10,0 C 16,7 C 19,3 km/h (3 Bft) 97,73 %
11.04.2018 16:00 19,6 C 10,0 C 54 % 1003,8 hPa 0,0 l/m 14,6 km/h (3 Bft) O-SO 103 1 min 0,000 mm 1,7 UV-I 536 W/m 10,0 C 16,9 C 17,7 km/h (3 Bft) 96,30 %
11.04.2018 16:01 19,5 C 10,0 C 52 % 1003,8 hPa 0,0 l/m 12,4 km/h (3 Bft) O 88 1 min 0,406 mm 1,7 UV-I 530 W/m 9,4 C 17,3 C 16,1 km/h (3 Bft) 95,65 %
11.04.2018 16:02 19,4 C 10,0 C 51 % 1003,9 hPa 0,0 l/m 10,4 km/h (2 Bft) O-NO 71 1 min 0,000 mm 1,7 UV-I 529 W/m 9,0 C 17,8 C 12,9 km/h (3 Bft) 100,00 %
11.04.2018 16:03 19,3 C 10,0 C 51 % 1003,8 hPa 0,0 l/m 6,7 km/h (2 Bft) O-NO 67 1 min 0,000 mm 1,7 UV-I 532 W/m 8,9 C 19,2 C 9,7 km/h (2 Bft) 100,00 %
11.04.2018 16:04 19,3 C 10,0 C 53 % 1003,8 hPa 0,0 l/m 8,1 km/h (2 Bft) O-NO 74 1 min 0,000 mm 1,7 UV-I 527 W/m 9,5 C 18,6 C 14,5 km/h (3 Bft) 100,00 %
11.04.2018 16:05 19,4 C 10,0 C 53 % 1003,8 hPa 0,0 l/m 12,0 km/h (2 Bft) NO 42 1 min 0,000 mm 1,7 UV-I 525 W/m 9,6 C 17,3 C 16,1 km/h (3 Bft) 100,00 %
11.04.2018 16:06 19,6 C 10,0 C 54 % 1003,8 hPa 0,0 l/m 6,8 km/h (2 Bft) O 97 1 min 0,000 mm 1,7 UV-I 518 W/m 10,0 C 19,4 C 9,7 km/h (2 Bft) 100,00 %
11.04.2018 16:07 19,7 C 10,0 C 52 % 1003,8 hPa 0,0 l/m 6,0 km/h (2 Bft) O-SO 118 1 min 0,000 mm 1,6 UV-I 516 W/m 9,6 C 19,7 C 9,7 km/h (2 Bft) 100,00 %
11.04.2018 16:08 19,8 C 10,0 C 52 % 1003,8 hPa 0,0 l/m 10,0 km/h (2 Bft) O 86 1 min 0,000 mm 1,6 UV-I 505 W/m 9,7 C 18,4 C 14,5 km/h (3 Bft) 96,15 %
11.04.2018 16:09 19,7 C 10,0 C 51 % 1003,8 hPa 0,0 l/m 9,2 km/h (2 Bft) O-SO 120 1 min 0,000 mm 1,5 UV-I 444 W/m 9,3 C 18,6 C 16,1 km/h (3 Bft) 100,00 %
11.04.2018 16:10 19,6 C 10,0 C 52 % 1003,8 hPa 0,0 l/m 14,6 km/h (3 Bft) O 93 1 min 0,000 mm 1,5 UV-I 493 W/m 9,5 C 16,9 C 19,3 km/h (3 Bft) 96,15 %
11.04.2018 16:11 19,5 C 10,0 C 51 % 1003,8 hPa 0,0 l/m 10,9 km/h (2 Bft) O-SO 118 1 min 0,000 mm 1,5 UV-I 475 W/m 9,1 C 17,8 C 17,7 km/h (3 Bft) 100,00 %
11.04.2018 16:12 19,4 C 10,0 C 51 % 1003,8 hPa 0,0 l/m 10,6 km/h (2 Bft) SO 142 1 min 0,000 mm 1,5 UV-I 499 W/m 9,0 C 17,8 C 16,1 km/h (3 Bft) 100,00 %
11.04.2018 16:13 19,3 C 10,0 C 50 % 1003,9 hPa 0,0 l/m 9,9 km/h (2 Bft) SO 132 1 min 0,000 mm 1,5 UV-I 495 W/m 8,6 C 17,9 C 14,5 km/h (3 Bft) 100,00 %
11.04.2018 16:14 19,3 C 10,0 C 52 % 1003,8 hPa 0,0 l/m 9,7 km/h (2 Bft) O-SO 121 1 min 0,000 mm 1,5 UV-I 494 W/m 9,2 C 18,0 C 12,9 km/h (3 Bft) 100,00 %
11.04.2018 16:15 19,3 C 10,0 C 51 % 1003,8 hPa 0,0 l/m 10,6 km/h (2 Bft) O-SO 103 1 min 0,000 mm 1,5 UV-I 492 W/m 8,9 C 17,7 C 16,1 km/h (3 Bft) 100,00 %
11.04.2018 16:16 19,3 C 10,0 C 52 % 1003,8 hPa 0,0 l/m 12,9 km/h (3 Bft) O 92 1 min 0,000 mm 1,5 UV-I 492 W/m 9,2 C 17,0 C 19,3 km/h (3 Bft) 100,00 %
11.04.2018 16:17 19,4 C 10,0 C 51 % 1003,8 hPa 0,0 l/m 12,7 km/h (3 Bft) O-SO 107 1 min 0,000 mm 1,5 UV-I 491 W/m 9,0 C 17,1 C 14,5 km/h (3 Bft) 100,00 %
11.04.2018 16:18 19,4 C 10,0 C 51 % 1003,7 hPa 0,0 l/m 12,2 km/h (2 Bft) O-NO 74 1 min 0,000 mm 1,5 UV-I 488 W/m 9,0 C 17,3 C 16,1 km/h (3 Bft) 97,91 %
11.04.2018 16:19 19,5 C 10,0 C 53 % 1003,7 hPa 0,0 l/m 11,9 km/h (2 Bft) O-SO 102 1 min 0,000 mm 1,5 UV-I 486 W/m 9,7 C 17,5 C 17,7 km/h (3 Bft) 100,00 %
11.04.2018 16:20 19,6 C 10,0 C 51 % 1003,8 hPa 0,0 l/m 13,3 km/h (3 Bft) O 89 1 min 0,000 mm 1,4 UV-I 483 W/m 9,2 C 17,2 C 16,1 km/h (3 Bft) 100,00 %
11.04.2018 16:21 19,7 C 10,0 C 52 % 1003,7 hPa 0,0 l/m 12,7 km/h (3 Bft) O-NO 78 1 min 0,000 mm 1,4 UV-I 482 W/m 9,6 C 17,5 C 16,1 km/h (3 Bft) 96,30 %
11.04.2018 16:22 19,7 C 10,0 C 51 % 1003,7 hPa 0,0 l/m 8,7 km/h (2 Bft) O 88 1 min 0,000 mm 1,4 UV-I 482 W/m 9,3 C 18,8 C 17,7 km/h (3 Bft) 100,00 %
11.04.2018 16:23 19,7 C 10,0 C 51 % 1003,7 hPa 0,0 l/m 7,2 km/h (2 Bft) O-NO 68 1 min 0,000 mm 1,4 UV-I 477 W/m 9,3 C 19,4 C 11,3 km/h (2 Bft) 100,00 %
11.04.2018 16:24 19,7 C 10,0 C 52 % 1003,7 hPa 0,0 l/m 10,5 km/h (2 Bft) O-NO 76 1 min 0,000 mm 1,4 UV-I 474 W/m 9,6 C 18,1 C 16,1 km/h (3 Bft) 100,00 %
11.04.2018 16:25 19,7 C 10,0 C 49 % 1003,7 hPa 0,0 l/m 13,5 km/h (3 Bft) O-NO 78 1 min 0,000 mm 1,4 UV-I 468 W/m 8,7 C 17,3 C 16,1 km/h (3 Bft) 100,00 %
11.04.2018 16:26 19,7 C 10,0 C 49 % 1003,7 hPa 0,0 l/m 13,1 km/h (3 Bft) O 80 1 min 0,000 mm 1,4 UV-I 463 W/m 8,7 C 17,4 C 16,1 km/h (3 Bft) 100,00 %
11.04.2018 16:27 19,6 C 10,0 C 51 % 1003,7 hPa 0,0 l/m 7,6 km/h (2 Bft) O-NO 61 1 min 0,000 mm 1,3 UV-I 459 W/m 9,2 C 19,1 C 11,3 km/h (2 Bft) 100,00 %
11.04.2018 16:28 19,7 C 10,0 C 51 % 1003,6 hPa 0,0 l/m 5,7 km/h (1 Bft) O-NO 69 1 min 0,000 mm 1,3 UV-I 455 W/m 9,3 C 19,7 C 8,0 km/h (2 Bft) 100,00 %
11.04.2018 16:29 19,8 C 10,0 C 51 % 1003,6 hPa 0,0 l/m 6,4 km/h (2 Bft) O-SO 104 1 min 0,000 mm 1,3 UV-I 452 W/m 9,4 C 19,8 C 9,7 km/h (2 Bft) 100,00 %
11.04.2018 16:30 19,8 C 10,0 C 51 % 1003,6 hPa 0,0 l/m 11,7 km/h (2 Bft) O 82 1 min 0,000 mm 1,3 UV-I 449 W/m 9,4 C 17,9 C 16,1 km/h (3 Bft) 100,00 %
11.04.2018 16:31 19,8 C 10,0 C 51 % 1003,6 hPa 0,0 l/m 18,1 km/h (3 Bft) O-SO 104 1 min 0,000 mm 1,3 UV-I 434 W/m 9,4 C 16,3 C 25,7 km/h (4 Bft) 100,00 %
11.04.2018 16:32 19,7 C 10,0 C 50 % 1003,6 hPa 0,0 l/m 13,0 km/h (3 Bft) O 84 1 min 0,000 mm 1,2 UV-I 409 W/m 9,0 C 17,4 C 16,1 km/h (3 Bft) 100,00 %
11.04.2018 16:33 19,6 C 10,0 C 52 % 1003,6 hPa 0,0 l/m 14,4 km/h (3 Bft) O-NO 76 1 min 0,000 mm 1,2 UV-I 410 W/m 9,5 C 16,9 C 17,7 km/h (3 Bft) 100,00 %
11.04.2018 16:34 19,6 C 10,0 C 51 % 1003,6 hPa 0,0 l/m 13,2 km/h (3 Bft) NO 41 1 min 0,000 mm 1,2 UV-I 427 W/m 9,2 C 17,2 C 17,7 km/h (3 Bft) 100,00 %
11.04.2018 16:35 19,6 C 10,0 C 53 % 1003,6 hPa 0,0 l/m 14,5 km/h (3 Bft) O 92 1 min 0,000 mm 1,2 UV-I 426 W/m 9,8 C 16,9 C 17,7 km/h (3 Bft) 100,00 %
11.04.2018 16:36 19,7 C 10,0 C 52 % 1003,6 hPa 0,0 l/m 12,5 km/h (3 Bft) O-NO 69 1 min 0,000 mm 1,2 UV-I 418 W/m 9,6 C 17,5 C 17,7 km/h (3 Bft) 100,00 %
11.04.2018 16:37 19,7 C 10,0 C 50 % 1003,6 hPa 0,0 l/m 14,8 km/h (3 Bft) O 101 1 min 0,000 mm 1,2 UV-I 416 W/m 9,0 C 16,9 C 20,9 km/h (4 Bft) 100,00 %
11.04.2018 16:38 19,7 C 10,0 C 52 % 1003,6 hPa 0,0 l/m 12,5 km/h (3 Bft) O 98 1 min 0,000 mm 1,2 UV-I 421 W/m 9,6 C 17,5 C 17,7 km/h (3 Bft) 100,00 %
11.04.2018 16:39 19,6 C 10,0 C 51 % 1003,6 hPa 0,0 l/m 15,2 km/h (3 Bft) O 97 1 min 0,000 mm 1,2 UV-I 411 W/m 9,2 C 16,7 C 19,3 km/h (3 Bft) 100,00 %
11.04.2018 16:40 19,6 C 10,0 C 50 % 1003,6 hPa 0,0 l/m 15,3 km/h (3 Bft) O 82 1 min 0,000 mm 1,1 UV-I 386 W/m 8,9 C 16,7 C 20,9 km/h (4 Bft) 96,67 %
11.04.2018 16:41 19,6 C 10,0 C 51 % 1003,6 hPa 0,0 l/m 13,8 km/h (3 Bft) O 92 1 min 0,000 mm 1,1 UV-I 402 W/m 9,2 C 17,1 C 22,5 km/h (4 Bft) 100,00 %
11.04.2018 16:42 19,5 C 10,0 C 50 % 1003,6 hPa 0,0 l/m 17,9 km/h (3 Bft) O-NO 76 1 min 0,000 mm 1,1 UV-I 405 W/m 8,8 C 16,0 C 22,5 km/h (4 Bft) 100,00 %
11.04.2018 16:43 19,4 C 10,0 C 50 % 1003,6 hPa 0,0 l/m 13,5 km/h (3 Bft) O-NO 76 1 min 0,000 mm 1,1 UV-I 402 W/m 8,7 C 16,9 C 16,1 km/h (3 Bft) 100,00 %
11.04.2018 16:44 19,4 C 10,0 C 52 % 1003,6 hPa 0,0 l/m 13,1 km/h (3 Bft) O 80 1 min 0,000 mm 1,1 UV-I 397 W/m 9,3 C 17,0 C 17,7 km/h (3 Bft) 100,00 %
11.04.2018 16:45 19,4 C 10,0 C 51 % 1003,6 hPa 0,0 l/m 8,2 km/h (2 Bft) O-NO 58 1 min 0,000 mm 1,1 UV-I 394 W/m 9,0 C 18,6 C 12,9 km/h (3 Bft) 100,00 %
11.04.2018 16:46 19,4 C 10,0 C 51 % 1003,6 hPa 0,0 l/m 13,8 km/h (3 Bft) O-NO 69 1 min 0,000 mm 1,1 UV-I 384 W/m 9,0 C 16,8 C 17,7 km/h (3 Bft) 100,00 %
11.04.2018 16:47 19,4 C 10,0 C 51 % 1003,6 hPa 0,0 l/m 14,2 km/h (3 Bft) O-NO 78 1 min 0,000 mm 1,0 UV-I 369 W/m 9,0 C 16,7 C 16,1 km/h (3 Bft) 100,00 %
11.04.2018 16:48 19,4 C 10,0 C 51 % 1003,5 hPa 0,0 l/m 15,0 km/h (3 Bft) O-NO 74 1 min 0,000 mm 1,0 UV-I 374 W/m 9,0 C 16,5 C 17,7 km/h (3 Bft) 100,00 %
11.04.2018 16:49 19,4 C 10,0 C 52 % 1003,5 hPa 0,0 l/m 13,6 km/h (3 Bft) O-NO 76 1 min 0,000 mm 1,0 UV-I 369 W/m 9,3 C 16,9 C 17,7 km/h (3 Bft) 100,00 %
11.04.2018 16:50 19,4 C 10,0 C 52 % 1003,5 hPa 0,0 l/m 11,1 km/h (2 Bft) O-SO 111 1 min 0,000 mm 1,0 UV-I 361 W/m 9,3 C 17,6 C 16,1 km/h (3 Bft) 95,83 %
11.04.2018 16:51 19,4 C 10,0 C 52 % 1003,5 hPa 0,0 l/m 10,4 km/h (2 Bft) O-NO 59 1 min 0,000 mm 1,0 UV-I 377 W/m 9,3 C 17,8 C 16,1 km/h (3 Bft) 100,00 %
11.04.2018 16:52 19,5 C 10,0 C 52 % 1003,5 hPa 0,0 l/m 11,0 km/h (2 Bft) O 81 1 min 0,000 mm 1,0 UV-I 383 W/m 9,4 C 17,8 C 16,1 km/h (3 Bft) 93,33 %
11.04.2018 16:53 19,6 C 10,0 C 52 % 1003,5 hPa 0,0 l/m 9,7 km/h (2 Bft) O-NO 71 1 min 0,000 mm 1,0 UV-I 374 W/m 9,5 C 18,3 C 12,9 km/h (3 Bft) 100,00 %
11.04.2018 16:54 19,6 C 10,0 C 52 % 1003,5 hPa 0,0 l/m 13,2 km/h (3 Bft) O 95 1 min 0,000 mm 1,0 UV-I 373 W/m 9,5 C 17,2 C 16,1 km/h (3 Bft) 92,31 %
11.04.2018 16:55 19,6 C 10,0 C 52 % 1003,5 hPa 0,0 l/m 14,7 km/h (3 Bft) O-NO 67 1 min 0,000 mm 1,0 UV-I 376 W/m 9,5 C 16,8 C 19,3 km/h (3 Bft) 100,00 %
11.04.2018 16:56 19,7 C 10,0 C 52 % 1003,5 hPa 0,0 l/m 13,2 km/h (3 Bft) N-NO 28 1 min 0,000 mm 1,0 UV-I 378 W/m 9,6 C 17,3 C 20,9 km/h (4 Bft) 95,65 %
11.04.2018 16:58 19,8 C 10,0 C 52 % 1003,5 hPa 0,0 l/m 8,6 km/h (2 Bft) NO 44 2 min 0,000 mm 1,0 UV-I 375 W/m 9,7 C 18,9 C 14,5 km/h (3 Bft) 97,56 %
11.04.2018 16:59 19,9 C 10,0 C 52 % 1003,5 hPa 0,0 l/m 13,3 km/h (3 Bft) N-NO 24 1 min 0,000 mm 0,9 UV-I 371 W/m 9,7 C 17,6 C 16,1 km/h (3 Bft) 96,30 %
11.04.2018 17:00 19,9 C 10,0 C 52 % 1003,5 hPa 0,0 l/m 16,1 km/h (3 Bft) O 81 1 min 0,000 mm 0,9 UV-I 369 W/m 9,7 C 16,9 C 17,7 km/h (3 Bft) 100,00 %
11.04.2018 17:01 19,9 C 10,0 C 51 % 1003,5 hPa 0,0 l/m 11,6 km/h (2 Bft) O-NO 69 1 min 0,330 mm 0,9 UV-I 367 W/m 9,5 C 18,0 C 14,5 km/h (3 Bft) 96,30 %
11.04.2018 17:02 19,9 C 10,0 C 52 % 1003,5 hPa 0,0 l/m 11,6 km/h (2 Bft) O-NO 63 1 min 0,000 mm 0,9 UV-I 362 W/m 9,7 C 18,0 C 16,1 km/h (3 Bft) 100,00 %
11.04.2018 17:03 19,9 C 10,0 C 52 % 1003,5 hPa 0,0 l/m 13,6 km/h (3 Bft) O-SO 108 1 min 0,000 mm 0,9 UV-I 360 W/m 9,7 C 17,5 C 16,1 km/h (3 Bft) 96,30 %
11.04.2018 17:04 19,9 C 10,0 C 53 % 1003,5 hPa 0,0 l/m 12,5 km/h (3 Bft) O-NO 69 1 min 0,000 mm 0,9 UV-I 354 W/m 10,0 C 17,8 C 16,1 km/h (3 Bft) 100,00 %
11.04.2018 17:05 19,9 C 10,0 C 51 % 1003,5 hPa 0,0 l/m 12,4 km/h (3 Bft) O 97 1 min 0,000 mm 0,8 UV-I 343 W/m 9,5 C 17,8 C 19,3 km/h (3 Bft) 96,30 %
11.04.2018 17:06 19,8 C 10,0 C 53 % 1003,5 hPa 0,0 l/m 15,4 km/h (3 Bft) O-SO 108 1 min 0,000 mm 0,8 UV-I 324 W/m 9,9 C 16,9 C 19,3 km/h (3 Bft) 100,00 %
11.04.2018 17:07 19,8 C 10,0 C 52 % 1003,5 hPa 0,0 l/m 16,6 km/h (3 Bft) O 101 1 min 0,000 mm 0,8 UV-I 280 W/m 9,7 C 16,6 C 20,9 km/h (4 Bft) 91,67 %
11.04.2018 17:08 19,7 C 10,0 C 51 % 1003,5 hPa 0,0 l/m 12,6 km/h (3 Bft) O 88 1 min 0,000 mm 0,7 UV-I 259 W/m 9,3 C 17,5 C 16,1 km/h (3 Bft) 96,15 %
11.04.2018 17:09 19,7 C 10,0 C 51 % 1003,5 hPa 0,0 l/m 10,8 km/h (2 Bft) O 79 1 min 0,000 mm 0,8 UV-I 294 W/m 9,3 C 18,0 C 16,1 km/h (3 Bft) 100,00 %
11.04.2018 17:10 19,6 C 10,0 C 50 % 1003,5 hPa 0,0 l/m 11,5 km/h (2 Bft) O 95 1 min 0,000 mm 0,8 UV-I 296 W/m 8,9 C 17,7 C 16,1 km/h (3 Bft) 100,00 %
11.04.2018 17:11 19,6 C 10,0 C 52 % 1003,5 hPa 0,0 l/m 11,9 km/h (2 Bft) O 92 1 min 0,000 mm 0,7 UV-I 275 W/m 9,5 C 17,6 C 19,3 km/h (3 Bft) 95,65 %
11.04.2018 17:12 19,6 C 10,0 C 52 % 1003,5 hPa 0,0 l/m 14,1 km/h (3 Bft) O-NO 77 1 min 0,000 mm 0,7 UV-I 267 W/m 9,5 C 17,0 C 17,7 km/h (3 Bft) 92,59 %
11.04.2018 17:13 19,6 C 10,0 C 51 % 1003,5 hPa 0,0 l/m 15,2 km/h (3 Bft) O 96 1 min 0,000 mm 0,7 UV-I 249 W/m 9,2 C 16,7 C 20,9 km/h (4 Bft) 100,00 %
11.04.2018 17:14 19,5 C 10,0 C 52 % 1003,5 hPa 0,0 l/m 13,7 km/h (3 Bft) O-NO 67 1 min 0,000 mm 0,7 UV-I 229 W/m 9,4 C 17,0 C 17,7 km/h (3 Bft) 97,22 %
11.04.2018 17:15 19,5 C 10,0 C 51 % 1003,5 hPa 0,0 l/m 14,5 km/h (3 Bft) O-NO 71 1 min 0,000 mm 0,7 UV-I 274 W/m 9,1 C 16,8 C 19,3 km/h (3 Bft) 100,00 %
11.04.2018 17:16 19,5 C 10,0 C 51 % 1003,5 hPa 0,0 l/m 17,5 km/h (3 Bft) O-NO 65 1 min 0,000 mm 0,7 UV-I 283 W/m 9,1 C 16,1 C 20,9 km/h (4 Bft) 96,97 %
11.04.2018 17:17 19,5 C 10,0 C 52 % 1003,5 hPa 0,0 l/m 16,2 km/h (3 Bft) O-NO 75 1 min 0,000 mm 0,7 UV-I 264 W/m 9,4 C 16,4 C 19,3 km/h (3 Bft) 100,00 %
11.04.2018 17:18 19,5 C 10,0 C 53 % 1003,5 hPa 0,0 l/m 14,9 km/h (3 Bft) O-NO 62 1 min 0,000 mm 0,7 UV-I 254 W/m 9,7 C 16,7 C 19,3 km/h (3 Bft) 91,67 %
11.04.2018 17:19 19,5 C 10,0 C 53 % 1003,5 hPa 0,0 l/m 14,7 km/h (3 Bft) NO 45 1 min 0,000 mm 0,7 UV-I 258 W/m 9,7 C 16,7 C 19,3 km/h (3 Bft) 100,00 %
11.04.2018 17:20 19,5 C 10,0 C 52 % 1003,5 hPa 0,0 l/m 15,6 km/h (3 Bft) O-NO 68 1 min 0,000 mm 0,6 UV-I 268 W/m 9,4 C 16,5 C 17,7 km/h (3 Bft) 96,88 %
11.04.2018 17:21 19,5 C 10,0 C 53 % 1003,5 hPa 0,0 l/m 10,4 km/h (2 Bft) O 82 1 min 0,000 mm 0,6 UV-I 281 W/m 9,7 C 18,0 C 16,1 km/h (3 Bft) 100,00 %
11.04.2018 17:22 19,6 C 10,0 C 54 % 1003,5 hPa 0,0 l/m 10,1 km/h (2 Bft) O-NO 76 1 min 0,000 mm 0,6 UV-I 286 W/m 10,0 C 18,2 C 14,5 km/h (3 Bft) 92,59 %
11.04.2018 17:23 19,6 C 10,0 C 54 % 1003,5 hPa 0,0 l/m 11,8 km/h (2 Bft) O-NO 57 1 min 0,000 mm 0,6 UV-I 272 W/m 10,0 C 17,6 C 16,1 km/h (3 Bft) 95,00 %
11.04.2018 17:24 19,6 C 10,0 C 53 % 1003,5 hPa 0,0 l/m 11,2 km/h (2 Bft) O-NO 78 1 min 0,000 mm 0,6 UV-I 259 W/m 9,8 C 17,8 C 14,5 km/h (3 Bft) 100,00 %
11.04.2018 17:25 19,6 C 10,0 C 52 % 1003,5 hPa 0,0 l/m 15,4 km/h (3 Bft) O 90 1 min 0,000 mm 0,6 UV-I 258 W/m 9,5 C 16,7 C 17,7 km/h (3 Bft) 97,95 %
11.04.2018 17:26 19,6 C 10,0 C 53 % 1003,5 hPa 0,0 l/m 13,1 km/h (3 Bft) O-NO 75 1 min 0,000 mm 0,6 UV-I 254 W/m 9,8 C 17,3 C 16,1 km/h (3 Bft) 95,74 %
11.04.2018 17:28 19,6 C 10,0 C 54 % 1003,5 hPa 0,0 l/m 14,8 km/h (3 Bft) NO 49 2 min 0,000 mm 0,6 UV-I 275 W/m 10,0 C 16,8 C 19,3 km/h (3 Bft) 92,45 %
11.04.2018 17:29 19,6 C 10,0 C 53 % 1003,5 hPa 0,0 l/m 13,0 km/h (3 Bft) O-NO 59 1 min 0,000 mm 0,6 UV-I 244 W/m 9,8 C 17,3 C 17,7 km/h (3 Bft) 100,00 %
11.04.2018 17:30 19,6 C 10,0 C 52 % 1003,5 hPa 0,0 l/m 13,4 km/h (3 Bft) NO 56 1 min 0,000 mm 0,5 UV-I 212 W/m 9,5 C 17,2 C 16,1 km/h (3 Bft) 100,00 %
11.04.2018 17:31 19,5 C 10,0 C 53 % 1003,5 hPa 0,0 l/m 12,3 km/h (3 Bft) O-NO 69 0 min 0,000 mm 0,5 UV-I 185 W/m 9,7 C 17,4 C 14,5 km/h (3 Bft) 93,94 %
11.04.2018 17:33 19,4 C 10,0 C 53 % 1003,4 hPa 0,0 l/m 12,6 km/h (3 Bft) O-NO 69 0 min 0,000 mm 0,5 UV-I 178 W/m 9,6 C 17,2 C 19,3 km/h (3 Bft) 96,23 %
11.04.2018 17:34 19,4 C 10,0 C 53 % 1003,4 hPa 0,0 l/m 13,9 km/h (3 Bft) O 99 0 min 0,000 mm 0,5 UV-I 180 W/m 9,6 C 16,8 C 17,7 km/h (3 Bft) 85,71 %
11.04.2018 17:35 19,4 C 10,0 C 52 % 1003,4 hPa 0,0 l/m 16,0 km/h (3 Bft) O-SO 111 0 min 0,000 mm 0,5 UV-I 187 W/m 9,3 C 16,3 C 20,9 km/h (4 Bft) 100,00 %
11.04.2018 17:36 19,4 C 10,0 C 53 % 1003,4 hPa 0,0 l/m 16,6 km/h (3 Bft) O-NO 65 0 min 0,000 mm 0,5 UV-I 172 W/m 9,6 C 16,1 C 24,1 km/h (4 Bft) 92,31 %
11.04.2018 17:37 19,4 C 10,0 C 54 % 1003,4 hPa 0,0 l/m 13,0 km/h (3 Bft) O-NO 59 0 min 0,000 mm 0,5 UV-I 169 W/m 9,8 C 17,1 C 17,7 km/h (3 Bft) 100,00 %
11.04.2018 17:38 19,3 C 10,0 C 53 % 1003,4 hPa 0,0 l/m 15,1 km/h (3 Bft) O-NO 63 0 min 0,000 mm 0,5 UV-I 172 W/m 9,5 C 16,4 C 17,7 km/h (3 Bft) 93,33 %
11.04.2018 17:39 19,3 C 10,0 C 52 % 1003,4 hPa 0,0 l/m 12,5 km/h (3 Bft) O-NO 65 0 min 0,000 mm 0,5 UV-I 184 W/m 9,2 C 17,1 C 19,3 km/h (3 Bft) 96,55 %
11.04.2018 17:40 19,3 C 10,0 C 52 % 1003,4 hPa 0,0 l/m 17,8 km/h (3 Bft) O-NO 70 1 min 0,000 mm 0,0 UV-I 191 W/m 9,2 C 15,8 C 22,5 km/h (4 Bft) 89,66 %
11.04.2018 17:41 19,3 C 10,0 C 52 % 1003,4 hPa 0,0 l/m 16,6 km/h (3 Bft) O-NO 69 1 min 0,000 mm 0,0 UV-I 192 W/m 9,2 C 16,0 C 19,3 km/h (3 Bft) 91,67 %
11.04.2018 17:42 19,3 C 10,0 C 52 % 1003,4 hPa 0,0 l/m 13,9 km/h (3 Bft) O 96 0 min 0,000 mm 0,0 UV-I 177 W/m 9,2 C 16,7 C 19,3 km/h (3 Bft) 96,15 %
11.04.2018 17:43 19,3 C 10,0 C 53 % 1003,4 hPa 0,0 l/m 13,8 km/h (3 Bft) O-NO 71 0 min 0,000 mm 0,0 UV-I 169 W/m 9,5 C 16,7 C 19,3 km/h (3 Bft) 91,67 %
11.04.2018 17:44 19,3 C 10,0 C 53 % 1003,4 hPa 0,0 l/m 16,3 km/h (3 Bft) O 96 0 min 0,000 mm 0,0 UV-I 167 W/m 9,5 C 16,1 C 19,3 km/h (3 Bft) 96,15 %
11.04.2018 17:45 19,3 C 10,0 C 53 % 1003,4 hPa 0,0 l/m 13,9 km/h (3 Bft) O-NO 77 0 min 0,000 mm 0,0 UV-I 172 W/m 9,5 C 16,7 C 17,7 km/h (3 Bft) 100,00 %
11.04.2018 17:46 19,3 C 10,0 C 53 % 1003,4 hPa 0,0 l/m 13,2 km/h (3 Bft) O-NO 72 0 min 0,000 mm 0,0 UV-I 178 W/m 9,5 C 16,9 C 16,1 km/h (3 Bft) 96,30 %
11.04.2018 17:48 19,3 C 10,0 C 52 % 1003,4 hPa 0,0 l/m 14,5 km/h (3 Bft) O-NO 69 2 min 0,000 mm 0,0 UV-I 186 W/m 9,2 C 16,5 C 17,7 km/h (3 Bft) 90,91 %
11.04.2018 17:49 19,3 C 10,0 C 52 % 1003,4 hPa 0,0 l/m 12,1 km/h (2 Bft) O 82 1 min 0,000 mm 0,0 UV-I 192 W/m 9,2 C 17,2 C 14,5 km/h (3 Bft) 96,88 %
11.04.2018 17:50 19,3 C 10,0 C 54 % 1003,4 hPa 0,0 l/m 10,3 km/h (2 Bft) O-NO 65 0 min 0,000 mm 0,0 UV-I 167 W/m 9,8 C 17,8 C 12,9 km/h (3 Bft) 96,30 %
11.04.2018 17:51 19,3 C 10,0 C 52 % 1003,4 hPa 0,0 l/m 12,0 km/h (2 Bft) NO 53 0 min 0,000 mm 0,0 UV-I 150 W/m 9,2 C 17,2 C 14,5 km/h (3 Bft) 90,91 %
11.04.2018 17:52 19,3 C 10,0 C 54 % 1003,4 hPa 0,0 l/m 11,5 km/h (2 Bft) O-NO 67 0 min 0,000 mm 0,0 UV-I 144 W/m 9,8 C 17,4 C 14,5 km/h (3 Bft) 93,33 %
11.04.2018 17:53 19,3 C 10,0 C 53 % 1003,4 hPa 0,0 l/m 13,5 km/h (3 Bft) O-NO 78 0 min 0,000 mm 0,0 UV-I 137 W/m 9,5 C 16,8 C 19,3 km/h (3 Bft) 92,31 %
11.04.2018 17:54 19,3 C 10,0 C 53 % 1003,4 hPa 0,0 l/m 12,9 km/h (3 Bft) O 89 0 min 0,000 mm 0,0 UV-I 129 W/m 9,5 C 17,0 C 19,3 km/h (3 Bft) 100,00 %
11.04.2018 17:55 19,3 C 10,0 C 52 % 1003,4 hPa 0,0 l/m 15,5 km/h (3 Bft) O-NO 67 0 min 0,000 mm 0,0 UV-I 130 W/m 9,2 C 16,3 C 19,3 km/h (3 Bft) 92,31 %
11.04.2018 17:56 19,2 C 10,0 C 53 % 1003,3 hPa 0,0 l/m 15,8 km/h (3 Bft) O-NO 71 0 min 0,000 mm 0,0 UV-I 127 W/m 9,4 C 16,1 C 20,9 km/h (4 Bft) 91,67 %
11.04.2018 17:57 19,2 C 10,0 C 53 % 1003,3 hPa 0,0 l/m 16,3 km/h (3 Bft) O-NO 72 0 min 0,000 mm 0,0 UV-I 120 W/m 9,4 C 16,0 C 20,9 km/h (4 Bft) 95,65 %
11.04.2018 17:58 19,2 C 10,0 C 52 % 1003,3 hPa 0,0 l/m 15,6 km/h (3 Bft) O 93 0 min 0,000 mm 0,0 UV-I 117 W/m 9,1 C 16,1 C 19,3 km/h (3 Bft) 96,30 %
11.04.2018 17:59 19,2 C 10,0 C 53 % 1003,3 hPa 0,0 l/m 16,5 km/h (3 Bft) O-NO 63 0 min 0,000 mm 0,0 UV-I 115 W/m 9,4 C 15,9 C 20,9 km/h (4 Bft) 100,00 %
11.04.2018 18:00 19,2 C 10,0 C 53 % 1003,3 hPa 0,0 l/m 14,4 km/h (3 Bft) O 82 0 min 0,000 mm 0,0 UV-I 114 W/m 9,4 C 16,4 C 19,3 km/h (3 Bft) 95,83 %
11.04.2018 18:02 19,1 C 10,0 C 52 % 1003,3 hPa 0,0 l/m 14,7 km/h (3 Bft) O-NO 78 0 min 0,229 mm 0,0 UV-I 109 W/m 9,0 C 16,2 C 20,9 km/h (4 Bft) 95,45 %
11.04.2018 18:03 19,1 C 10,0 C 52 % 1003,3 hPa 0,0 l/m 14,6 km/h (3 Bft) O-NO 59 0 min 0,000 mm 0,0 UV-I 107 W/m 9,0 C 16,3 C 17,7 km/h (3 Bft) 100,00 %
11.04.2018 18:04 19,1 C 10,0 C 53 % 1003,3 hPa 0,0 l/m 10,3 km/h (2 Bft) O-NO 70 0 min 0,000 mm 0,0 UV-I 106 W/m 9,3 C 17,5 C 16,1 km/h (3 Bft) 100,00 %
11.04.2018 18:05 19,1 C 10,0 C 53 % 1003,3 hPa 0,0 l/m 10,3 km/h (2 Bft) O 86 0 min 0,000 mm 0,0 UV-I 105 W/m 9,3 C 17,5 C 12,9 km/h (3 Bft) 100,00 %
11.04.2018 18:06 19,1 C 10,0 C 54 % 1003,3 hPa 0,0 l/m 7,7 km/h (2 Bft) O-NO 71 0 min 0,000 mm 0,0 UV-I 105 W/m 9,6 C 18,5 C 11,3 km/h (2 Bft) 92,59 %
11.04.2018 18:07 19,0 C 10,0 C 54 % 1003,3 hPa 0,0 l/m 8,1 km/h (2 Bft) NO 54 0 min 0,000 mm 0,0 UV-I 105 W/m 9,5 C 18,3 C 12,9 km/h (3 Bft) 100,00 %
11.04.2018 18:08 19,0 C 10,0 C 54 % 1003,3 hPa 0,0 l/m 12,9 km/h (3 Bft) O-NO 73 0 min 0,000 mm 0,0 UV-I 104 W/m 9,5 C 16,6 C 17,7 km/h (3 Bft) 100,00 %
11.04.2018 18:09 19,0 C 10,0 C 54 % 1003,4 hPa 0,0 l/m 11,9 km/h (2 Bft) O-NO 61 0 min 0,000 mm 0,0 UV-I 104 W/m 9,5 C 16,9 C 14,5 km/h (3 Bft) 100,00 %
11.04.2018 18:10 18,9 C 10,0 C 54 % 1003,3 hPa 0,0 l/m 11,8 km/h (2 Bft) O-NO 69 0 min 0,000 mm 0,0 UV-I 103 W/m 9,4 C 16,8 C 19,3 km/h (3 Bft) 100,00 %
11.04.2018 18:11 18,9 C 10,0 C 54 % 1003,3 hPa 0,0 l/m 14,0 km/h (3 Bft) O-NO 67 0 min 0,000 mm 0,0 UV-I 102 W/m 9,4 C 16,2 C 19,3 km/h (3 Bft) 100,00 %
11.04.2018 18:12 18,9 C 10,0 C 54 % 1003,3 hPa 0,0 l/m 11,5 km/h (2 Bft) NO 45 0 min 0,000 mm 0,0 UV-I 101 W/m 9,4 C 16,9 C 14,5 km/h (3 Bft) 96,55 %
11.04.2018 18:13 18,9 C 10,0 C 54 % 1003,3 hPa 0,0 l/m 11,1 km/h (2 Bft) O-NO 70 0 min 0,000 mm 0,0 UV-I 98 W/m 9,4 C 17,0 C 16,1 km/h (3 Bft) 100,00 %
11.04.2018 18:14 18,9 C 10,0 C 54 % 1003,3 hPa 0,0 l/m 11,3 km/h (2 Bft) O-NO 75 0 min 0,000 mm 0,0 UV-I 98 W/m 9,4 C 17,0 C 14,5 km/h (3 Bft) 100,00 %
11.04.2018 18:15 18,9 C 10,0 C 54 % 1003,3 hPa 0,0 l/m 9,1 km/h (2 Bft) O-NO 71 0 min 0,000 mm 0,0 UV-I 97 W/m 9,4 C 17,8 C 12,9 km/h (3 Bft) 100,00 %
11.04.2018 18:16 18,9 C 10,0 C 55 % 1003,3 hPa 0,0 l/m 13,0 km/h (3 Bft) O 92 0 min 0,000 mm 0,0 UV-I 97 W/m 9,7 C 16,5 C 17,7 km/h (3 Bft) 100,00 %
11.04.2018 18:17 18,9 C 10,0 C 55 % 1003,3 hPa 0,0 l/m 13,5 km/h (3 Bft) O 80 0 min 0,000 mm 0,0 UV-I 96 W/m 9,7 C 16,3 C 17,7 km/h (3 Bft) 100,00 %
11.04.2018 18:19 18,8 C 10,0 C 54 % 1003,3 hPa 0,0 l/m 14,5 km/h (3 Bft) O 92 0 min 0,000 mm 0,0 UV-I 95 W/m 9,3 C 15,9 C 20,9 km/h (4 Bft) 100,00 %
11.04.2018 18:20 18,8 C 10,0 C 54 % 1003,3 hPa 0,0 l/m 17,9 km/h (3 Bft) O 97 0 min 0,000 mm 0,0 UV-I 93 W/m 9,3 C 15,1 C 20,9 km/h (4 Bft) 100,00 %
11.04.2018 18:21 18,8 C 10,0 C 54 % 1003,3 hPa 0,0 l/m 15,2 km/h (3 Bft) O-NO 73 0 min 0,000 mm 0,0 UV-I 93 W/m 9,3 C 15,7 C 19,3 km/h (3 Bft) 100,00 %
11.04.2018 18:22 18,8 C 10,0 C 54 % 1003,2 hPa 0,0 l/m 16,0 km/h (3 Bft) O-NO 63 0 min 0,000 mm 0,0 UV-I 93 W/m 9,3 C 15,5 C 19,3 km/h (3 Bft) 92,31 %
11.04.2018 18:23 18,8 C 10,0 C 54 % 1003,2 hPa 0,0 l/m 15,2 km/h (3 Bft) O 85 0 min 0,000 mm 0,0 UV-I 93 W/m 9,3 C 15,7 C 19,3 km/h (3 Bft) 100,00 %
11.04.2018 18:24 18,8 C 10,0 C 54 % 1003,3 hPa 0,0 l/m 13,0 km/h (3 Bft) O 90 0 min 0,000 mm 0,0 UV-I 91 W/m 9,3 C 16,3 C 17,7 km/h (3 Bft) 100,00 %
11.04.2018 18:25 18,8 C 10,0 C 54 % 1003,2 hPa 0,0 l/m 14,2 km/h (3 Bft) O-NO 71 0 min 0,000 mm 0,0 UV-I 91 W/m 9,3 C 16,0 C 16,1 km/h (3 Bft) 100,00 %
11.04.2018 18:26 18,8 C 10,0 C 55 % 1003,3 hPa 0,0 l/m 13,0 km/h (3 Bft) O-NO 78 0 min 0,000 mm 0,0 UV-I 91 W/m 9,6 C 16,3 C 14,5 km/h (3 Bft) 100,00 %
11.04.2018 18:27 18,7 C 10,0 C 55 % 1003,3 hPa 0,0 l/m 11,2 km/h (2 Bft) O 79 0 min 0,000 mm 0,0 UV-I 91 W/m 9,5 C 16,8 C 14,5 km/h (3 Bft) 96,55 %
11.04.2018 18:28 18,7 C 10,0 C 54 % 1003,2 hPa 0,0 l/m 13,3 km/h (3 Bft) O 87 0 min 0,000 mm 0,0 UV-I 91 W/m 9,2 C 16,1 C 16,1 km/h (3 Bft) 100,00 %
11.04.2018 18:29 18,7 C 10,0 C 55 % 1003,2 hPa 0,0 l/m 10,6 km/h (2 Bft) O 91 0 min 0,000 mm 0,0 UV-I 91 W/m 9,5 C 17,0 C 14,5 km/h (3 Bft) 100,00 %
11.04.2018 18:30 18,7 C 10,0 C 55 % 1003,3 hPa 0,0 l/m 13,5 km/h (3 Bft) O 82 0 min 0,000 mm 0,0 UV-I 90 W/m 9,5 C 16,1 C 16,1 km/h (3 Bft) 100,00 %
11.04.2018 18:31 18,7 C 10,0 C 55 % 1003,3 hPa 0,0 l/m 12,9 km/h (3 Bft) O-NO 65 0 min 0,000 mm 0,0 UV-I 90 W/m 9,5 C 16,3 C 17,7 km/h (3 Bft) 100,00 %
11.04.2018 18:32 18,6 C 10,0 C 54 % 1003,3 hPa 0,0 l/m 11,0 km/h (2 Bft) O 98 0 min 0,000 mm 0,0 UV-I 90 W/m 9,1 C 16,7 C 17,7 km/h (3 Bft) 100,00 %
11.04.2018 18:33 18,7 C 10,0 C 55 % 1003,3 hPa 0,0 l/m 8,7 km/h (2 Bft) O-NO 57 0 min 0,000 mm 0,0 UV-I 89 W/m 9,5 C 17,7 C 12,9 km/h (3 Bft) 100,00 %
11.04.2018 18:34 18,7 C 10,0 C 55 % 1003,3 hPa 0,0 l/m 11,7 km/h (2 Bft) O 84 0 min 0,000 mm 0,0 UV-I 88 W/m 9,5 C 16,6 C 14,5 km/h (3 Bft) 100,00 %
11.04.2018 18:35 18,6 C 10,0 C 55 % 1003,3 hPa 0,0 l/m 9,3 km/h (2 Bft) O 91 0 min 0,000 mm 0,0 UV-I 88 W/m 9,4 C 17,4 C 14,5 km/h (3 Bft) 100,00 %
11.04.2018 18:36 18,6 C 10,0 C 55 % 1003,3 hPa 0,0 l/m 10,8 km/h (2 Bft) O 86 0 min 0,000 mm 0,0 UV-I 86 W/m 9,4 C 16,8 C 14,5 km/h (3 Bft) 100,00 %
11.04.2018 18:38 18,6 C 10,0 C 54 % 1003,3 hPa 0,0 l/m 10,0 km/h (2 Bft) O-NO 68 0 min 0,000 mm 0,0 UV-I 85 W/m 9,1 C 17,1 C 14,5 km/h (3 Bft) 100,00 %
11.04.2018 18:39 18,7 C 10,0 C 54 % 1003,3 hPa 0,0 l/m 12,3 km/h (3 Bft) O-NO 65 0 min 0,000 mm 0,0 UV-I 84 W/m 9,2 C 16,4 C 16,1 km/h (3 Bft) 100,00 %
11.04.2018 18:40 18,7 C 10,0 C 54 % 1003,3 hPa 0,0 l/m 12,0 km/h (2 Bft) O 94 0 min 0,000 mm 0,0 UV-I 83 W/m 9,2 C 16,5 C 16,1 km/h (3 Bft) 100,00 %
11.04.2018 18:41 18,7 C 10,0 C 55 % 1003,3 hPa 0,0 l/m 14,3 km/h (3 Bft) O 88 0 min 0,000 mm 0,0 UV-I 82 W/m 9,5 C 15,9 C 17,7 km/h (3 Bft) 100,00 %
11.04.2018 18:42 18,7 C 10,0 C 54 % 1003,3 hPa 0,0 l/m 9,5 km/h (2 Bft) O 88 0 min 0,000 mm 0,0 UV-I 79 W/m 9,2 C 17,4 C 12,9 km/h (3 Bft) 100,00 %
11.04.2018 18:43 18,7 C 10,0 C 54 % 1003,2 hPa 0,0 l/m 12,2 km/h (2 Bft) O-NO 65 0 min 0,000 mm 0,0 UV-I 77 W/m 9,2 C 16,5 C 17,7 km/h (3 Bft) 100,00 %
11.04.2018 18:44 18,7 C 10,0 C 55 % 1003,2 hPa 0,0 l/m 11,7 km/h (2 Bft) O 91 0 min 0,000 mm 0,0 UV-I 76 W/m 9,5 C 16,6 C 14,5 km/h (3 Bft) 100,00 %
11.04.2018 18:45 18,6 C 10,0 C 55 % 1003,2 hPa 0,0 l/m 13,9 km/h (3 Bft) O 86 0 min 0,000 mm 0,0 UV-I 75 W/m 9,4 C 15,9 C 19,3 km/h (3 Bft) 100,00 %
11.04.2018 18:46 18,6 C 10,0 C 54 % 1003,2 hPa 0,0 l/m 12,6 km/h (3 Bft) O-NO 57 0 min 0,000 mm 0,0 UV-I 71 W/m 9,1 C 16,2 C 16,1 km/h (3 Bft) 100,00 %
11.04.2018 18:47 18,6 C 10,0 C 54 % 1003,3 hPa 0,0 l/m 13,6 km/h (3 Bft) O 94 0 min 0,000 mm 0,0 UV-I 69 W/m 9,1 C 15,9 C 16,1 km/h (3 Bft) 100,00 %
11.04.2018 18:48 18,6 C 10,0 C 55 % 1003,3 hPa 0,0 l/m 9,1 km/h (2 Bft) O 94 0 min 0,000 mm 0,0 UV-I 69 W/m 9,4 C 17,4 C 12,9 km/h (3 Bft) 100,00 %
11.04.2018 18:49 18,5 C 10,0 C 55 % 1003,3 hPa 0,0 l/m 12,7 km/h (3 Bft) O 96 0 min 0,000 mm 0,0 UV-I 66 W/m 9,3 C 16,1 C 17,7 km/h (3 Bft) 100,00 %
11.04.2018 18:50 18,4 C 10,0 C 55 % 1003,3 hPa 0,0 l/m 10,2 km/h (2 Bft) O-SO 107 0 min 0,000 mm 0,0 UV-I 63 W/m 9,2 C 16,8 C 14,5 km/h (3 Bft) 100,00 %
11.04.2018 18:51 18,4 C 10,0 C 55 % 1003,3 hPa 0,0 l/m 10,2 km/h (2 Bft) O-SO 103 0 min 0,000 mm 0,0 UV-I 61 W/m 9,2 C 16,8 C 16,1 km/h (3 Bft) 100,00 %
11.04.2018 18:52 18,3 C 10,0 C 56 % 1003,3 hPa 0,0 l/m 10,9 km/h (2 Bft) O 79 0 min 0,000 mm 0,0 UV-I 59 W/m 9,4 C 16,4 C 14,5 km/h (3 Bft) 100,00 %
11.04.2018 18:53 18,3 C 10,0 C 56 % 1003,3 hPa 0,0 l/m 10,7 km/h (2 Bft) O 80 0 min 0,000 mm 0,0 UV-I 56 W/m 9,4 C 16,5 C 12,9 km/h (3 Bft) 100,00 %
11.04.2018 18:54 18,3 C 10,0 C 56 % 1003,3 hPa 0,0 l/m 10,2 km/h (2 Bft) O 100 0 min 0,000 mm 0,0 UV-I 54 W/m 9,4 C 16,7 C 12,9 km/h (3 Bft) 100,00 %
11.04.2018 18:55 18,3 C 10,0 C 56 % 1003,3 hPa 0,0 l/m 12,9 km/h (3 Bft) O 90 0 min 0,000 mm 0,0 UV-I 54 W/m 9,4 C 15,8 C 14,5 km/h (3 Bft) 95,83 %
11.04.2018 18:56 18,2 C 10,0 C 56 % 1003,3 hPa 0,0 l/m 13,0 km/h (3 Bft) O-NO 68 0 min 0,000 mm 0,0 UV-I 52 W/m 9,3 C 15,6 C 17,7 km/h (3 Bft) 100,00 %
11.04.2018 18:57 18,2 C 10,0 C 56 % 1003,3 hPa 0,0 l/m 11,6 km/h (2 Bft) O 100 0 min 0,000 mm 0,0 UV-I 50 W/m 9,3 C 16,1 C 14,5 km/h (3 Bft) 100,00 %
11.04.2018 18:58 18,2 C 10,0 C 56 % 1003,3 hPa 0,0 l/m 12,5 km/h (3 Bft) O-SO 107 0 min 0,000 mm 0,0 UV-I 48 W/m 9,3 C 15,8 C 17,7 km/h (3 Bft) 100,00 %
11.04.2018 18:59 18,2 C 10,0 C 56 % 1003,3 hPa 0,0 l/m 11,8 km/h (2 Bft) O-SO 103 0 min 0,000 mm 0,0 UV-I 47 W/m 9,3 C 16,0 C 16,1 km/h (3 Bft) 96,55 %
11.04.2018 19:00 18,2 C 10,0 C 55 % 1003,3 hPa 0,0 l/m 10,5 km/h (2 Bft) O 99 0 min 0,000 mm 0,0 UV-I 46 W/m 9,0 C 16,5 C 14,5 km/h (3 Bft) 100,00 %
11.04.2018 19:01 18,2 C 10,0 C 56 % 1003,3 hPa 0,0 l/m 9,0 km/h (2 Bft) O-SO 120 0 min 0,127 mm 0,0 UV-I 44 W/m 9,3 C 17,0 C 12,9 km/h (3 Bft) 100,00 %
11.04.2018 19:02 18,2 C 10,0 C 56 % 1003,4 hPa 0,0 l/m 10,7 km/h (2 Bft) O 98 0 min 0,000 mm 0,0 UV-I 43 W/m 9,3 C 16,4 C 16,1 km/h (3 Bft) 100,00 %
11.04.2018 19:03 18,2 C 10,0 C 56 % 1003,3 hPa 0,0 l/m 12,2 km/h (2 Bft) O 99 0 min 0,000 mm 0,0 UV-I 41 W/m 9,3 C 15,9 C 16,1 km/h (3 Bft) 96,15 %
11.04.2018 19:04 18,2 C 10,0 C 56 % 1003,3 hPa 0,0 l/m 12,6 km/h (3 Bft) O 80 0 min 0,000 mm 0,0 UV-I 40 W/m 9,3 C 15,8 C 16,1 km/h (3 Bft) 96,30 %
11.04.2018 19:05 18,1 C 10,0 C 56 % 1003,3 hPa 0,0 l/m 13,0 km/h (3 Bft) O 84 0 min 0,000 mm 0,0 UV-I 39 W/m 9,2 C 15,5 C 17,7 km/h (3 Bft) 100,00 %
11.04.2018 19:06 18,1 C 10,0 C 56 % 1003,3 hPa 0,0 l/m 13,3 km/h (3 Bft) O 82 0 min 0,000 mm 0,0 UV-I 39 W/m 9,2 C 15,4 C 16,1 km/h (3 Bft) 100,00 %
11.04.2018 19:07 18,1 C 10,0 C 56 % 1003,3 hPa 0,0 l/m 13,4 km/h (3 Bft) O 94 0 min 0,000 mm 0,0 UV-I 37 W/m 9,2 C 15,4 C 17,7 km/h (3 Bft) 100,00 %
11.04.2018 19:08 18,0 C 10,0 C 56 % 1003,3 hPa 0,0 l/m 13,6 km/h (3 Bft) O-NO 77 0 min 0,000 mm 0,0 UV-I 36 W/m 9,1 C 15,2 C 16,1 km/h (3 Bft) 95,24 %
11.04.2018 19:09 18,0 C 10,0 C 56 % 1003,3 hPa 0,0 l/m 14,4 km/h (3 Bft) O 101 0 min 0,000 mm 0,0 UV-I 35 W/m 9,1 C 15,0 C 17,7 km/h (3 Bft) 100,00 %
11.04.2018 19:10 18,0 C 10,0 C 56 % 1003,3 hPa 0,0 l/m 13,3 km/h (3 Bft) O-NO 76 0 min 0,000 mm 0,0 UV-I 33 W/m 9,1 C 15,3 C 17,7 km/h (3 Bft) 96,67 %
11.04.2018 19:11 18,0 C 10,0 C 56 % 1003,3 hPa 0,0 l/m 11,3 km/h (2 Bft) O-SO 105 0 min 0,000 mm 0,0 UV-I 33 W/m 9,1 C 16,0 C 14,5 km/h (3 Bft) 100,00 %
11.04.2018 19:12 17,9 C 10,0 C 56 % 1003,3 hPa 0,0 l/m 9,8 km/h (2 Bft) O-SO 108 0 min 0,000 mm 0,0 UV-I 32 W/m 9,0 C 16,4 C 12,9 km/h (3 Bft) 100,00 %
11.04.2018 19:13 17,9 C 10,0 C 56 % 1003,3 hPa 0,0 l/m 9,8 km/h (2 Bft) O 86 0 min 0,000 mm 0,0 UV-I 32 W/m 9,0 C 16,4 C 12,9 km/h (3 Bft) 100,00 %
11.04.2018 19:14 17,9 C 10,0 C 56 % 1003,3 hPa 0,0 l/m 11,1 km/h (2 Bft) O 94 0 min 0,000 mm 0,0 UV-I 31 W/m 9,0 C 15,9 C 14,5 km/h (3 Bft) 100,00 %
11.04.2018 19:15 17,9 C 10,0 C 56 % 1003,3 hPa 0,0 l/m 11,3 km/h (2 Bft) O-NO 67 0 min 0,000 mm 0,0 UV-I 30 W/m 9,0 C 15,8 C 16,1 km/h (3 Bft) 100,00 %
11.04.2018 19:16 17,8 C 10,0 C 57 % 1003,3 hPa 0,0 l/m 9,7 km/h (2 Bft) NO 56 0 min 0,000 mm 0,0 UV-I 30 W/m 9,2 C 16,3 C 14,5 km/h (3 Bft) 100,00 %
11.04.2018 19:17 17,8 C 10,0 C 57 % 1003,3 hPa 0,0 l/m 8,9 km/h (2 Bft) O 87 0 min 0,000 mm 0,0 UV-I 28 W/m 9,2 C 16,7 C 11,3 km/h (2 Bft) 100,00 %
11.04.2018 19:18 17,8 C 10,0 C 57 % 1003,4 hPa 0,0 l/m 9,4 km/h (2 Bft) O-NO 63 0 min 0,000 mm 0,0 UV-I 28 W/m 9,2 C 16,4 C 12,9 km/h (3 Bft) 100,00 %
11.04.2018 19:19 17,8 C 10,0 C 57 % 1003,3 hPa 0,0 l/m 10,9 km/h (2 Bft) O 85 0 min 0,000 mm 0,0 UV-I 27 W/m 9,2 C 15,9 C 14,5 km/h (3 Bft) 96,15 %
11.04.2018 19:20 17,8 C 10,0 C 57 % 1003,3 hPa 0,0 l/m 8,6 km/h (2 Bft) O 87 0 min 0,000 mm 0,0 UV-I 26 W/m 9,2 C 16,8 C 11,3 km/h (2 Bft) 100,00 %
11.04.2018 19:21 17,7 C 10,0 C 58 % 1003,3 hPa 0,0 l/m 11,6 km/h (2 Bft) O-NO 73 0 min 0,000 mm 0,0 UV-I 26 W/m 9,3 C 15,5 C 17,7 km/h (3 Bft) 91,30 %
11.04.2018 19:22 17,7 C 10,0 C 58 % 1003,3 hPa 0,0 l/m 11,4 km/h (2 Bft) O-NO 65 0 min 0,000 mm 0,0 UV-I 25 W/m 9,3 C 15,6 C 14,5 km/h (3 Bft) 100,00 %
11.04.2018 19:23 17,7 C 10,0 C 57 % 1003,3 hPa 0,0 l/m 13,2 km/h (3 Bft) O-NO 71 0 min 0,000 mm 0,0 UV-I 25 W/m 9,1 C 15,0 C 17,7 km/h (3 Bft) 83,33 %
11.04.2018 19:24 17,7 C 10,0 C 57 % 1003,3 hPa 0,0 l/m 13,8 km/h (3 Bft) O 90 0 min 0,000 mm 0,0 UV-I 23 W/m 9,1 C 14,8 C 16,1 km/h (3 Bft) 100,00 %
11.04.2018 19:25 17,7 C 10,0 C 57 % 1003,2 hPa 0,0 l/m 13,8 km/h (3 Bft) O-NO 63 0 min 0,000 mm 0,0 UV-I 23 W/m 9,1 C 14,8 C 16,1 km/h (3 Bft) 91,67 %
11.04.2018 19:26 17,7 C 10,0 C 57 % 1003,3 hPa 0,0 l/m 13,7 km/h (3 Bft) O-NO 65 0 min 0,000 mm 0,0 UV-I 22 W/m 9,1 C 14,8 C 17,7 km/h (3 Bft) 100,00 %
11.04.2018 19:27 17,7 C 10,0 C 57 % 1003,2 hPa 0,0 l/m 12,4 km/h (3 Bft) O-NO 61 0 min 0,000 mm 0,0 UV-I 21 W/m 9,1 C 15,2 C 16,1 km/h (3 Bft) 95,83 %
11.04.2018 19:28 17,7 C 10,0 C 56 % 1003,2 hPa 0,0 l/m 16,3 km/h (3 Bft) O-NO 76 0 min 0,000 mm 0,0 UV-I 20 W/m 8,8 C 14,1 C 19,3 km/h (3 Bft) 96,15 %
11.04.2018 19:29 17,7 C 10,0 C 56 % 1003,2 hPa 0,0 l/m 15,1 km/h (3 Bft) O-NO 65 0 min 0,000 mm 0,0 UV-I 19 W/m 8,8 C 14,4 C 17,7 km/h (3 Bft) 100,00 %
11.04.2018 19:30 17,7 C 10,0 C 57 % 1003,2 hPa 0,0 l/m 15,4 km/h (3 Bft) O-NO 76 0 min 0,000 mm 0,0 UV-I 19 W/m 9,1 C 14,4 C 17,7 km/h (3 Bft) 96,55 %
11.04.2018 19:31 17,7 C 10,0 C 57 % 1003,2 hPa 0,0 l/m 15,6 km/h (3 Bft) O 96 0 min 0,000 mm 0,0 UV-I 18 W/m 9,1 C 14,3 C 20,9 km/h (4 Bft) 100,00 %
11.04.2018 19:32 17,7 C 10,0 C 56 % 1003,2 hPa 0,0 l/m 14,3 km/h (3 Bft) O 79 0 min 0,000 mm 0,0 UV-I 17 W/m 8,8 C 14,7 C 16,1 km/h (3 Bft) 95,65 %
11.04.2018 19:33 17,7 C 10,0 C 57 % 1003,2 hPa 0,0 l/m 13,1 km/h (3 Bft) O 98 1 min 0,000 mm 0,0 UV-I 16 W/m 9,1 C 15,0 C 16,1 km/h (3 Bft) 96,30 %
11.04.2018 19:34 17,7 C 10,0 C 56 % 1003,3 hPa 0,0 l/m 14,7 km/h (3 Bft) O-NO 74 1 min 0,000 mm 0,0 UV-I 15 W/m 8,8 C 14,5 C 17,7 km/h (3 Bft) 92,86 %
11.04.2018 19:35 17,7 C 10,0 C 57 % 1003,3 hPa 0,0 l/m 10,9 km/h (2 Bft) O-NO 64 1 min 0,000 mm 0,0 UV-I 14 W/m 9,1 C 15,8 C 12,9 km/h (3 Bft) 100,00 %
11.04.2018 19:36 17,6 C 10,0 C 57 % 1003,2 hPa 0,0 l/m 12,2 km/h (2 Bft) O-NO 71 1 min 0,000 mm 0,0 UV-I 12 W/m 9,0 C 15,2 C 16,1 km/h (3 Bft) 95,65 %
11.04.2018 19:37 17,6 C 10,0 C 56 % 1003,3 hPa 0,0 l/m 10,2 km/h (2 Bft) O 84 1 min 0,000 mm 0,0 UV-I 12 W/m 8,7 C 15,9 C 12,9 km/h (3 Bft) 100,00 %
11.04.2018 19:38 17,5 C 10,0 C 57 % 1003,3 hPa 0,0 l/m 12,1 km/h (2 Bft) O 82 0 min 0,000 mm 0,0 UV-I 11 W/m 8,9 C 15,1 C 14,5 km/h (3 Bft) 91,30 %
11.04.2018 19:39 17,5 C 10,0 C 57 % 1003,3 hPa 0,0 l/m 11,0 km/h (2 Bft) O 81 0 min 0,000 mm 0,0 UV-I 11 W/m 8,9 C 15,5 C 12,9 km/h (3 Bft) 95,83 %
11.04.2018 19:40 17,4 C 10,0 C 57 % 1003,3 hPa 0,0 l/m 11,5 km/h (2 Bft) O-NO 61 0 min 0,000 mm 0,0 UV-I 9 W/m 8,8 C 15,2 C 14,5 km/h (3 Bft) 100,00 %
11.04.2018 19:41 17,4 C 10,0 C 57 % 1003,3 hPa 0,0 l/m 11,1 km/h (2 Bft) O 81 0 min 0,000 mm 0,0 UV-I 9 W/m 8,8 C 15,4 C 14,5 km/h (3 Bft) 95,83 %
11.04.2018 19:42 17,4 C 10,0 C 57 % 1003,3 hPa 0,0 l/m 12,4 km/h (3 Bft) O-NO 67 0 min 0,000 mm 0,0 UV-I 8 W/m 8,8 C 14,9 C 16,1 km/h (3 Bft) 100,00 %
11.04.2018 19:43 17,4 C 10,0 C 57 % 1003,3 hPa 0,0 l/m 9,3 km/h (2 Bft) O-NO 74 0 min 0,000 mm 0,0 UV-I 7 W/m 8,8 C 16,1 C 12,9 km/h (3 Bft) 96,15 %
11.04.2018 19:44 17,3 C 10,0 C 58 % 1003,3 hPa 0,0 l/m 9,1 km/h (2 Bft) O-NO 73 0 min 0,000 mm 0,0 UV-I 7 W/m 9,0 C 16,0 C 12,9 km/h (3 Bft) 100,00 %
11.04.2018 19:45 17,3 C 10,0 C 58 % 1003,3 hPa 0,0 l/m 9,7 km/h (2 Bft) O-NO 67 0 min 0,000 mm 0,0 UV-I 8 W/m 9,0 C 15,8 C 16,1 km/h (3 Bft) 100,00 %
11.04.2018 19:50 17,1 C 10,0 C 59 % 1003,4 hPa 0,0 l/m 9,7 km/h (2 Bft) O 90 0 min 0,000 mm 0,0 UV-I 5 W/m 9,0 C 15,6 C 14,5 km/h (3 Bft) 100,00 %
11.04.2018 19:53 17,1 C 10,0 C 59 % 1003,3 hPa 0,0 l/m 9,1 km/h (2 Bft) O-SO 113 0 min 0,000 mm 0,0 UV-I 5 W/m 9,0 C 15,8 C 12,9 km/h (3 Bft) 95,83 %
11.04.2018 19:54 17,1 C 10,0 C 58 % 1003,4 hPa 0,0 l/m 7,5 km/h (2 Bft) O 96 0 min 0,000 mm 0,0 UV-I 5 W/m 8,8 C 16,5 C 12,9 km/h (3 Bft) 95,65 %
11.04.2018 19:55 17,1 C 10,0 C 59 % 1003,4 hPa 0,0 l/m 10,9 km/h (2 Bft) O 96 0 min 0,000 mm 0,0 UV-I 5 W/m 9,0 C 15,1 C 14,5 km/h (3 Bft) 100,00 %
11.04.2018 19:56 17,1 C 10,0 C 59 % 1003,3 hPa 0,0 l/m 9,2 km/h (2 Bft) O 98 0 min 0,000 mm 0,0 UV-I 2 W/m 9,0 C 15,8 C 11,3 km/h (2 Bft) 100,00 %
11.04.2018 19:57 17,1 C 10,0 C 58 % 1003,3 hPa 0,0 l/m 8,1 km/h (2 Bft) O 95 0 min 0,000 mm 0,0 UV-I 0 W/m 8,8 C 16,3 C 11,3 km/h (2 Bft) 100,00 %
11.04.2018 19:58 17,1 C 10,0 C 58 % 1003,3 hPa 0,0 l/m 7,0 km/h (2 Bft) O-NO 74 0 min 0,000 mm 0,0 UV-I 0 W/m 8,8 C 16,8 C 12,9 km/h (3 Bft) 95,83 %
11.04.2018 19:59 17,1 C 10,0 C 58 % 1003,3 hPa 0,0 l/m 8,1 km/h (2 Bft) O 84 0 min 0,000 mm 0,0 UV-I 0 W/m 8,8 C 16,3 C 12,9 km/h (3 Bft) 100,00 %
11.04.2018 20:00 17,1 C 10,0 C 59 % 1003,3 hPa 0,0 l/m 9,9 km/h (2 Bft) O 84 0 min 0,000 mm 0,0 UV-I 0 W/m 9,0 C 15,5 C 12,9 km/h (3 Bft) 95,83 %
11.04.2018 20:01 16,9 C 10,0 C 59 % 1003,3 hPa 0,0 l/m 9,0 km/h (2 Bft) O 91 0 min 0,076 mm 0,0 UV-I 0 W/m 8,8 C 15,6 C 11,3 km/h (2 Bft) 100,00 %
11.04.2018 20:02 16,9 C 10,0 C 59 % 1003,3 hPa 0,0 l/m 10,3 km/h (2 Bft) O-SO 113 0 min 0,000 mm 0,0 UV-I 0 W/m 8,8 C 15,1 C 12,9 km/h (3 Bft) 95,83 %
11.04.2018 20:03 16,9 C 10,0 C 60 % 1003,3 hPa 0,0 l/m 8,2 km/h (2 Bft) O 97 0 min 0,000 mm 0,0 UV-I 0 W/m 9,1 C 16,0 C 11,3 km/h (2 Bft) 91,30 %
11.04.2018 20:04 16,8 C 10,0 C 60 % 1003,3 hPa 0,0 l/m 7,1 km/h (2 Bft) O 82 0 min 0,000 mm 0,0 UV-I 0 W/m 9,0 C 16,4 C 11,3 km/h (2 Bft) 100,00 %
11.04.2018 20:05 16,8 C 10,0 C 60 % 1003,2 hPa 0,0 l/m 8,7 km/h (2 Bft) O-SO 102 0 min 0,000 mm 0,0 UV-I 0 W/m 9,0 C 15,7 C 12,9 km/h (3 Bft) 96,15 %
11.04.2018 20:06 16,8 C 10,0 C 60 % 1003,3 hPa 0,0 l/m 9,0 km/h (2 Bft) O-NO 66 0 min 0,000 mm 0,0 UV-I 0 W/m 9,0 C 15,5 C 12,9 km/h (3 Bft) 100,00 %
11.04.2018 20:07 16,8 C 10,0 C 60 % 1003,2 hPa 0,0 l/m 9,7 km/h (2 Bft) O-NO 61 0 min 0,000 mm 0,0 UV-I 0 W/m 9,0 C 15,2 C 12,9 km/h (3 Bft) 100,00 %
11.04.2018 20:08 16,8 C 10,0 C 60 % 1003,2 hPa 0,0 l/m 11,3 km/h (2 Bft) O 80 0 min 0,000 mm 0,0 UV-I 0 W/m 9,0 C 14,6 C 14,5 km/h (3 Bft) 100,00 %
11.04.2018 20:09 16,7 C 10,0 C 61 % 1003,2 hPa 0,0 l/m 10,6 km/h (2 Bft) O 94 0 min 0,000 mm 0,0 UV-I 0 W/m 9,1 C 14,8 C 14,5 km/h (3 Bft) 96,88 %
11.04.2018 20:10 16,7 C 10,0 C 61 % 1003,2 hPa 0,0 l/m 11,3 km/h (2 Bft) O-NO 78 0 min 0,000 mm 0,0 UV-I 0 W/m 9,1 C 14,5 C 14,5 km/h (3 Bft) 100,00 %
11.04.2018 20:11 16,6 C 10,0 C 61 % 1003,2 hPa 0,0 l/m 11,3 km/h (2 Bft) O 86 0 min 0,000 mm 0,0 UV-I 0 W/m 9,0 C 14,4 C 12,9 km/h (3 Bft) 100,00 %
11.04.2018 20:12 16,6 C 10,0 C 61 % 1003,3 hPa 0,0 l/m 10,5 km/h (2 Bft) O 93 0 min 0,000 mm 0,0 UV-I 0 W/m 9,0 C 14,7 C 12,9 km/h (3 Bft) 100,00 %
11.04.2018 20:13 16,6 C 10,0 C 60 % 1003,2 hPa 0,0 l/m 10,1 km/h (2 Bft) O-NO 78 0 min 0,000 mm 0,0 UV-I 0 W/m 8,8 C 14,8 C 12,9 km/h (3 Bft) 100,00 %
11.04.2018 20:14 16,6 C 10,0 C 61 % 1003,2 hPa 0,0 l/m 9,5 km/h (2 Bft) O 84 0 min 0,000 mm 0,0 UV-I 0 W/m 9,0 C 15,1 C 12,9 km/h (3 Bft) 100,00 %
11.04.2018 20:15 16,6 C 10,0 C 61 % 1003,2 hPa 0,0 l/m 10,3 km/h (2 Bft) O 90 0 min 0,000 mm 0,0 UV-I 0 W/m 9,0 C 14,8 C 12,9 km/h (3 Bft) 100,00 %
11.04.2018 20:16 16,6 C 10,0 C 61 % 1003,2 hPa 0,0 l/m 10,4 km/h (2 Bft) O 92 0 min 0,000 mm 0,0 UV-I 0 W/m 9,0 C 14,7 C 12,9 km/h (3 Bft) 96,30 %
11.04.2018 20:17 16,6 C 10,0 C 60 % 1003,2 hPa 0,0 l/m 9,3 km/h (2 Bft) O-NO 75 0 min 0,000 mm 0,0 UV-I 0 W/m 8,8 C 15,2 C 12,9 km/h (3 Bft) 100,00 %
11.04.2018 20:18 16,6 C 10,0 C 60 % 1003,2 hPa 0,0 l/m 13,7 km/h (3 Bft) O 85 0 min 0,000 mm 0,0 UV-I 0 W/m 8,8 C 13,5 C 16,1 km/h (3 Bft) 93,33 %
11.04.2018 20:19 16,6 C 10,0 C 60 % 1003,2 hPa 0,0 l/m 11,4 km/h (2 Bft) O 100 0 min 0,000 mm 0,0 UV-I 0 W/m 8,8 C 14,3 C 17,7 km/h (3 Bft) 100,00 %
11.04.2018 20:20 16,6 C 10,0 C 60 % 1003,3 hPa 0,0 l/m 11,8 km/h (2 Bft) O-SO 102 0 min 0,000 mm 0,0 UV-I 0 W/m 8,8 C 14,2 C 14,5 km/h (3 Bft) 100,00 %
11.04.2018 20:21 16,6 C 10,0 C 60 % 1003,2 hPa 0,0 l/m 11,8 km/h (2 Bft) O-SO 106 0 min 0,000 mm 0,0 UV-I 0 W/m 8,8 C 14,2 C 14,5 km/h (3 Bft) 97,91 %
11.04.2018 20:23 16,6 C 10,0 C 60 % 1003,3 hPa 0,0 l/m 12,9 km/h (3 Bft) O 85 0 min 0,000 mm 0,0 UV-I 0 W/m 8,8 C 13,8 C 17,7 km/h (3 Bft) 100,00 %
11.04.2018 20:24 16,6 C 10,0 C 59 % 1003,3 hPa 0,0 l/m 14,5 km/h (3 Bft) O-SO 114 0 min 0,000 mm 0,0 UV-I 0 W/m 8,6 C 13,3 C 17,7 km/h (3 Bft) 100,00 %
11.04.2018 20:25 16,6 C 10,0 C 59 % 1003,3 hPa 0,0 l/m 12,2 km/h (2 Bft) O 101 0 min 0,000 mm 0,0 UV-I 0 W/m 8,6 C 14,0 C 14,5 km/h (3 Bft) 100,00 %
11.04.2018 20:26 16,7 C 10,0 C 59 % 1003,3 hPa 0,0 l/m 11,1 km/h (2 Bft) O 92 0 min 0,000 mm 0,0 UV-I 0 W/m 8,6 C 14,6 C 14,5 km/h (3 Bft) 97,37 %
11.04.2018 20:27 16,7 C 10,0 C 58 % 1003,3 hPa 0,0 l/m 13,2 km/h (3 Bft) O 92 0 min 0,000 mm 0,0 UV-I 0 W/m 8,4 C 13,8 C 17,7 km/h (3 Bft) 96,30 %
11.04.2018 20:28 16,8 C 10,0 C 58 % 1003,3 hPa 0,0 l/m 8,4 km/h (2 Bft) O-SO 111 0 min 0,000 mm 0,0 UV-I 0 W/m 8,5 C 15,8 C 16,1 km/h (3 Bft) 100,00 %
11.04.2018 20:29 16,8 C 10,0 C 58 % 1003,3 hPa 0,0 l/m 13,1 km/h (3 Bft) O 101 0 min 0,000 mm 0,0 UV-I 0 W/m 8,5 C 14,0 C 16,1 km/h (3 Bft) 100,00 %
11.04.2018 20:30 16,9 C 10,0 C 57 % 1003,3 hPa 0,0 l/m 12,6 km/h (3 Bft) O 92 0 min 0,000 mm 0,0 UV-I 0 W/m 8,3 C 14,3 C 16,1 km/h (3 Bft) 100,00 %
11.04.2018 20:31 16,9 C 10,0 C 57 % 1003,3 hPa 0,0 l/m 13,5 km/h (3 Bft) O-SO 105 0 min 0,000 mm 0,0 UV-I 0 W/m 8,3 C 14,0 C 17,7 km/h (3 Bft) 93,33 %
11.04.2018 20:32 16,9 C 10,0 C 57 % 1003,3 hPa 0,0 l/m 13,6 km/h (3 Bft) O 96 0 min 0,000 mm 0,0 UV-I 0 W/m 8,3 C 13,9 C 16,1 km/h (3 Bft) 100,00 %
11.04.2018 20:33 16,9 C 10,0 C 57 % 1003,3 hPa 0,0 l/m 11,4 km/h (2 Bft) O-NO 75 0 min 0,000 mm 0,0 UV-I 0 W/m 8,3 C 14,7 C 14,5 km/h (3 Bft) 100,00 %
11.04.2018 20:34 16,9 C 10,0 C 57 % 1003,3 hPa 0,0 l/m 11,2 km/h (2 Bft) O-SO 111 0 min 0,000 mm 0,0 UV-I 0 W/m 8,3 C 14,8 C 14,5 km/h (3 Bft) 100,00 %
11.04.2018 20:35 16,9 C 10,0 C 57 % 1003,3 hPa 0,0 l/m 12,9 km/h (3 Bft) O 98 0 min 0,000 mm 0,0 UV-I 0 W/m 8,3 C 14,2 C 16,1 km/h (3 Bft) 100,00 %
11.04.2018 20:36 16,9 C 10,0 C 58 % 1003,3 hPa 0,0 l/m 11,3 km/h (2 Bft) O 101 0 min 0,000 mm 0,0 UV-I 0 W/m 8,6 C 14,7 C 14,5 km/h (3 Bft) 100,00 %
11.04.2018 20:37 16,8 C 10,0 C 58 % 1003,3 hPa 0,0 l/m 10,9 km/h (2 Bft) O-SO 119 0 min 0,000 mm 0,0 UV-I 0 W/m 8,5 C 14,8 C 12,9 km/h (3 Bft) 100,00 %
11.04.2018 20:38 16,8 C 10,0 C 58 % 1003,3 hPa 0,0 l/m 7,5 km/h (2 Bft) O-SO 119 0 min 0,000 mm 0,0 UV-I 0 W/m 8,5 C 16,2 C 11,3 km/h (2 Bft) 100,00 %
11.04.2018 20:39 16,8 C 10,0 C 58 % 1003,3 hPa 0,0 l/m 13,7 km/h (3 Bft) O 88 0 min 0,000 mm 0,0 UV-I 0 W/m 8,5 C 13,8 C 17,7 km/h (3 Bft) 100,00 %
11.04.2018 20:40 16,8 C 10,0 C 58 % 1003,4 hPa 0,0 l/m 10,1 km/h (2 Bft) O-SO 107 0 min 0,000 mm 0,0 UV-I 0 W/m 8,5 C 15,1 C 14,5 km/h (3 Bft) 100,00 %
11.04.2018 20:41 16,8 C 10,0 C 57 % 1003,4 hPa 0,0 l/m 13,8 km/h (3 Bft) O-SO 115 0 min 0,000 mm 0,0 UV-I 0 W/m 8,2 C 13,7 C 16,1 km/h (3 Bft) 100,00 %
11.04.2018 20:42 16,9 C 10,0 C 57 % 1003,3 hPa 0,0 l/m 11,1 km/h (2 Bft) O 90 0 min 0,000 mm 0,0 UV-I 0 W/m 8,3 C 14,8 C 12,9 km/h (3 Bft) 100,00 %
11.04.2018 20:43 16,8 C 10,0 C 57 % 1003,3 hPa 0,0 l/m 6,5 km/h (2 Bft) O-SO 111 0 min 0,000 mm 0,0 UV-I 0 W/m 8,2 C 16,8 C 11,3 km/h (2 Bft) 100,00 %
11.04.2018 20:44 16,8 C 10,0 C 58 % 1003,3 hPa 0,0 l/m 8,6 km/h (2 Bft) O-SO 109 0 min 0,000 mm 0,0 UV-I 0 W/m 8,5 C 15,7 C 12,9 km/h (3 Bft) 100,00 %
11.04.2018 20:45 16,8 C 10,0 C 58 % 1003,3 hPa 0,0 l/m 9,7 km/h (2 Bft) O-SO 114 0 min 0,000 mm 0,0 UV-I 0 W/m 8,5 C 15,2 C 12,9 km/h (3 Bft) 96,88 %
11.04.2018 20:46 16,8 C 10,0 C 58 % 1003,3 hPa 0,0 l/m 10,1 km/h (2 Bft) O 91 0 min 0,000 mm 0,0 UV-I 0 W/m 8,5 C 15,1 C 12,9 km/h (3 Bft) 100,00 %
11.04.2018 20:47 16,7 C 10,0 C 58 % 1003,3 hPa 0,0 l/m 8,1 km/h (2 Bft) O 101 0 min 0,000 mm 0,0 UV-I 0 W/m 8,4 C 15,8 C 11,3 km/h (2 Bft) 100,00 %
11.04.2018 20:48 16,7 C 10,0 C 58 % 1003,3 hPa 0,0 l/m 7,9 km/h (2 Bft) O-SO 108 0 min 0,000 mm 0,0 UV-I 0 W/m 8,4 C 15,9 C 11,3 km/h (2 Bft) 100,00 %
11.04.2018 20:49 16,7 C 10,0 C 58 % 1003,3 hPa 0,0 l/m 11,7 km/h (2 Bft) O 98 0 min 0,000 mm 0,0 UV-I 0 W/m 8,4 C 14,3 C 14,5 km/h (3 Bft) 100,00 %
11.04.2018 20:50 16,7 C 10,0 C 58 % 1003,4 hPa 0,0 l/m 10,0 km/h (2 Bft) O-SO 104 0 min 0,000 mm 0,0 UV-I 0 W/m 8,4 C 15,0 C 12,9 km/h (3 Bft) 100,00 %
11.04.2018 20:51 16,6 C 10,0 C 59 % 1003,4 hPa 0,0 l/m 9,9 km/h (2 Bft) O 95 0 min 0,000 mm 0,0 UV-I 0 W/m 8,6 C 14,9 C 12,9 km/h (3 Bft) 100,00 %
11.04.2018 20:52 16,6 C 10,0 C 59 % 1003,4 hPa 0,0 l/m 6,2 km/h (2 Bft) SO 127 0 min 0,000 mm 0,0 UV-I 0 W/m 8,6 C 16,6 C 8,0 km/h (2 Bft) 100,00 %
11.04.2018 20:53 16,6 C 10,0 C 59 % 1003,4 hPa 0,0 l/m 7,2 km/h (2 Bft) O 94 0 min 0,000 mm 0,0 UV-I 0 W/m 8,6 C 16,2 C 11,3 km/h (2 Bft) 100,00 %
11.04.2018 20:54 16,6 C 10,0 C 59 % 1003,4 hPa 0,0 l/m 10,3 km/h (2 Bft) O 98 0 min 0,000 mm 0,0 UV-I 0 W/m 8,6 C 14,8 C 14,5 km/h (3 Bft) 92,31 %
11.04.2018 20:55 16,5 C 10,0 C 59 % 1003,4 hPa 0,0 l/m 6,6 km/h (2 Bft) O-SO 123 0 min 0,000 mm 0,0 UV-I 0 W/m 8,5 C 16,4 C 11,3 km/h (2 Bft) 100,00 %
11.04.2018 20:56 16,5 C 10,0 C 59 % 1003,4 hPa 0,0 l/m 8,6 km/h (2 Bft) O 89 0 min 0,000 mm 0,0 UV-I 0 W/m 8,5 C 15,4 C 11,3 km/h (2 Bft) 100,00 %
11.04.2018 20:58 16,4 C 10,0 C 59 % 1003,4 hPa 0,0 l/m 11,1 km/h (2 Bft) O-SO 105 0 min 0,000 mm 0,0 UV-I 0 W/m 8,4 C 14,2 C 16,1 km/h (3 Bft) 100,00 %
11.04.2018 20:59 16,4 C 10,0 C 59 % 1003,4 hPa 0,0 l/m 9,3 km/h (2 Bft) O-SO 103 0 min 0,000 mm 0,0 UV-I 0 W/m 8,4 C 15,0 C 11,3 km/h (2 Bft) 100,00 %
11.04.2018 21:00 16,4 C 10,0 C 59 % 1003,4 hPa 0,0 l/m 11,2 km/h (2 Bft) O 80 0 min 0,000 mm 0,0 UV-I 0 W/m 8,4 C 14,2 C 14,5 km/h (3 Bft) 100,00 %
11.04.2018 21:01 16,5 C 10,0 C 59 % 1003,4 hPa 0,0 l/m 8,9 km/h (2 Bft) O 97 0 min 0,051 mm 0,0 UV-I 0 W/m 8,5 C 15,3 C 12,9 km/h (3 Bft) 100,00 %
11.04.2018 21:02 16,5 C 10,0 C 59 % 1003,4 hPa 0,0 l/m 9,7 km/h (2 Bft) SO 124 0 min 0,000 mm 0,0 UV-I 0 W/m 8,5 C 14,9 C 14,5 km/h (3 Bft) 100,00 %
11.04.2018 21:03 16,4 C 10,0 C 59 % 1003,4 hPa 0,0 l/m 7,7 km/h (2 Bft) O 85 0 min 0,000 mm 0,0 UV-I 0 W/m 8,4 C 15,7 C 11,3 km/h (2 Bft) 100,00 %
11.04.2018 21:04 16,4 C 10,0 C 59 % 1003,4 hPa 0,0 l/m 8,4 km/h (2 Bft) O 96 0 min 0,000 mm 0,0 UV-I 0 W/m 8,4 C 15,4 C 12,9 km/h (3 Bft) 95,65 %
11.04.2018 21:05 16,4 C 10,0 C 59 % 1003,5 hPa 0,0 l/m 8,6 km/h (2 Bft) O 96 0 min 0,000 mm 0,0 UV-I 0 W/m 8,4 C 15,3 C 11,3 km/h (2 Bft) 100,00 %
11.04.2018 21:06 16,4 C 10,0 C 59 % 1003,4 hPa 0,0 l/m 10,2 km/h (2 Bft) O 96 0 min 0,000 mm 0,0 UV-I 0 W/m 8,4 C 14,6 C 11,3 km/h (2 Bft) 97,97 %
11.04.2018 21:07 16,4 C 10,0 C 59 % 1003,4 hPa 0,0 l/m 11,8 km/h (2 Bft) O-SO 113 0 min 0,000 mm 0,0 UV-I 0 W/m 8,4 C 14,0 C 14,5 km/h (3 Bft) 97,73 %
11.04.2018 21:08 16,4 C 10,0 C 59 % 1003,5 hPa 0,0 l/m 7,8 km/h (2 Bft) O-SO 112 0 min 0,000 mm 0,0 UV-I 0 W/m 8,4 C 15,7 C 11,3 km/h (2 Bft) 100,00 %
11.04.2018 21:09 16,4 C 10,0 C 59 % 1003,5 hPa 0,0 l/m 7,6 km/h (2 Bft) O 98 0 min 0,000 mm 0,0 UV-I 0 W/m 8,4 C 15,8 C 11,3 km/h (2 Bft) 96,55 %
11.04.2018 21:10 16,4 C 10,0 C 59 % 1003,4 hPa 0,0 l/m 11,4 km/h (2 Bft) O 93 0 min 0,000 mm 0,0 UV-I 0 W/m 8,4 C 14,1 C 14,5 km/h (3 Bft) 95,65 %
11.04.2018 21:11 16,4 C 10,0 C 59 % 1003,4 hPa 0,0 l/m 11,3 km/h (2 Bft) O 97 0 min 0,000 mm 0,0 UV-I 0 W/m 8,4 C 14,1 C 12,9 km/h (3 Bft) 100,00 %
11.04.2018 21:12 16,4 C 10,0 C 59 % 1003,5 hPa 0,0 l/m 11,7 km/h (2 Bft) O 98 0 min 0,000 mm 0,0 UV-I 0 W/m 8,4 C 14,0 C 16,1 km/h (3 Bft) 91,67 %
11.04.2018 21:13 16,3 C 10,0 C 60 % 1003,5 hPa 0,0 l/m 9,6 km/h (2 Bft) O-SO 111 0 min 0,000 mm 0,0 UV-I 0 W/m 8,5 C 14,7 C 12,9 km/h (3 Bft) 100,00 %
11.04.2018 21:14 16,3 C 10,0 C 60 % 1003,4 hPa 0,0 l/m 7,6 km/h (2 Bft) O-SO 103 0 min 0,000 mm 0,0 UV-I 0 W/m 8,5 C 15,7 C 12,9 km/h (3 Bft) 97,56 %
11.04.2018 21:15 16,3 C 10,0 C 60 % 1003,5 hPa 0,0 l/m 11,3 km/h (2 Bft) O-SO 104 0 min 0,000 mm 0,0 UV-I 0 W/m 8,5 C 14,0 C 14,5 km/h (3 Bft) 96,30 %
11.04.2018 21:16 16,3 C 10,0 C 60 % 1003,4 hPa 0,0 l/m 12,9 km/h (3 Bft) O 80 0 min 0,000 mm 0,0 UV-I 0 W/m 8,5 C 13,4 C 16,1 km/h (3 Bft) 100,00 %
11.04.2018 21:17 16,3 C 10,0 C 60 % 1003,4 hPa 0,0 l/m 11,3 km/h (2 Bft) O-SO 105 0 min 0,000 mm 0,0 UV-I 0 W/m 8,5 C 14,0 C 16,1 km/h (3 Bft) 96,15 %
11.04.2018 21:18 16,3 C 10,0 C 60 % 1003,4 hPa 0,0 l/m 10,4 km/h (2 Bft) O 83 0 min 0,000 mm 0,0 UV-I 0 W/m 8,5 C 14,4 C 16,1 km/h (3 Bft) 100,00 %
11.04.2018 21:19 16,3 C 10,0 C 60 % 1003,4 hPa 0,0 l/m 11,3 km/h (2 Bft) O 89 0 min 0,000 mm 0,0 UV-I 0 W/m 8,5 C 14,0 C 14,5 km/h (3 Bft) 95,65 %
11.04.2018 21:20 16,2 C 10,0 C 60 % 1003,4 hPa 0,0 l/m 13,4 km/h (3 Bft) O 92 0 min 0,000 mm 0,0 UV-I 0 W/m 8,4 C 13,2 C 16,1 km/h (3 Bft) 100,00 %
11.04.2018 21:21 16,2 C 10,0 C 60 % 1003,4 hPa 0,0 l/m 13,2 km/h (3 Bft) O 97 0 min 0,000 mm 0,0 UV-I 0 W/m 8,4 C 13,2 C 19,3 km/h (3 Bft) 100,00 %
11.04.2018 21:22 16,2 C 10,0 C 60 % 1003,4 hPa 0,0 l/m 13,3 km/h (3 Bft) O-SO 105 0 min 0,000 mm 0,0 UV-I 0 W/m 8,4 C 13,2 C 16,1 km/h (3 Bft) 93,18 %
11.04.2018 21:23 16,2 C 10,0 C 60 % 1003,3 hPa 0,0 l/m 13,2 km/h (3 Bft) O-SO 120 0 min 0,000 mm 0,0 UV-I 0 W/m 8,4 C 13,2 C 17,7 km/h (3 Bft) 90,91 %
11.04.2018 21:24 16,2 C 10,0 C 60 % 1003,3 hPa 0,0 l/m 11,9 km/h (2 Bft) O 101 0 min 0,000 mm 0,0 UV-I 0 W/m 8,4 C 13,7 C 14,5 km/h (3 Bft) 93,33 %
11.04.2018 21:25 16,2 C 10,0 C 59 % 1003,4 hPa 0,0 l/m 14,2 km/h (3 Bft) O-SO 105 0 min 0,000 mm 0,0 UV-I 0 W/m 8,2 C 12,9 C 17,7 km/h (3 Bft) 91,30 %
11.04.2018 21:26 16,2 C 10,0 C 59 % 1003,3 hPa 0,0 l/m 11,0 km/h (2 Bft) O-SO 107 0 min 0,000 mm 0,0 UV-I 0 W/m 8,2 C 14,0 C 16,1 km/h (3 Bft) 93,33 %
11.04.2018 21:27 16,2 C 10,0 C 59 % 1003,3 hPa 0,0 l/m 11,7 km/h (2 Bft) O-SO 103 0 min 0,000 mm 0,0 UV-I 0 W/m 8,2 C 13,8 C 14,5 km/h (3 Bft) 93,33 %
11.04.2018 21:28 16,3 C 10,0 C 59 % 1003,3 hPa 0,0 l/m 14,5 km/h (3 Bft) O-SO 103 0 min 0,000 mm 0,0 UV-I 0 W/m 8,3 C 12,9 C 17,7 km/h (3 Bft) 100,00 %
11.04.2018 21:29 16,3 C 10,0 C 59 % 1003,3 hPa 0,0 l/m 13,4 km/h (3 Bft) O-SO 103 0 min 0,000 mm 0,0 UV-I 0 W/m 8,3 C 13,3 C 17,7 km/h (3 Bft) 92,31 %
11.04.2018 21:30 16,3 C 10,0 C 59 % 1003,3 hPa 0,0 l/m 13,1 km/h (3 Bft) SO 125 0 min 0,000 mm 0,0 UV-I 0 W/m 8,3 C 13,4 C 16,1 km/h (3 Bft) 100,00 %
11.04.2018 21:31 16,3 C 10,0 C 58 % 1003,3 hPa 0,0 l/m 13,0 km/h (3 Bft) O-SO 115 0 min 0,000 mm 0,0 UV-I 0 W/m 8,0 C 13,4 C 16,1 km/h (3 Bft) 94,12 %
11.04.2018 21:32 16,3 C 10,0 C 58 % 1003,3 hPa 0,0 l/m 11,8 km/h (2 Bft) O 100 0 min 0,000 mm 0,0 UV-I 0 W/m 8,0 C 13,8 C 14,5 km/h (3 Bft) 91,67 %
11.04.2018 21:33 16,3 C 10,0 C 58 % 1003,3 hPa 0,0 l/m 11,6 km/h (2 Bft) SO 132 0 min 0,000 mm 0,0 UV-I 0 W/m 8,0 C 13,9 C 12,9 km/h (3 Bft) 100,00 %
11.04.2018 21:34 16,2 C 10,0 C 59 % 1003,3 hPa 0,0 l/m 10,5 km/h (2 Bft) O-SO 104 0 min 0,000 mm 0,0 UV-I 0 W/m 8,2 C 14,2 C 14,5 km/h (3 Bft) 86,21 %
11.04.2018 21:35 16,2 C 10,0 C 58 % 1003,3 hPa 0,0 l/m 6,4 km/h (2 Bft) O-SO 116 0 min 0,000 mm 0,0 UV-I 0 W/m 7,9 C 16,2 C 9,7 km/h (2 Bft) 100,00 %
11.04.2018 21:36 16,2 C 10,0 C 58 % 1003,3 hPa 0,0 l/m 8,0 km/h (2 Bft) O-SO 117 0 min 0,000 mm 0,0 UV-I 0 W/m 7,9 C 15,4 C 12,9 km/h (3 Bft) 92,31 %
11.04.2018 21:38 16,1 C 10,0 C 58 % 1003,3 hPa 0,0 l/m 8,5 km/h (2 Bft) O 82 0 min 0,000 mm 0,0 UV-I 0 W/m 7,8 C 15,0 C 12,9 km/h (3 Bft) 97,37 %
11.04.2018 21:39 16,1 C 10,0 C 58 % 1003,3 hPa 0,0 l/m 9,7 km/h (2 Bft) O 82 0 min 0,000 mm 0,0 UV-I 0 W/m 7,8 C 14,5 C 12,9 km/h (3 Bft) 100,00 %
11.04.2018 21:40 16,2 C 10,0 C 57 % 1003,2 hPa 0,0 l/m 9,2 km/h (2 Bft) O-SO 105 0 min 0,000 mm 0,0 UV-I 0 W/m 7,7 C 14,8 C 12,9 km/h (3 Bft) 86,96 %
11.04.2018 21:41 16,2 C 10,0 C 57 % 1003,3 hPa 0,0 l/m 8,9 km/h (2 Bft) O 100 0 min 0,000 mm 0,0 UV-I 0 W/m 7,7 C 14,9 C 12,9 km/h (3 Bft) 92,59 %
11.04.2018 21:42 16,3 C 10,0 C 57 % 1003,2 hPa 0,0 l/m 9,6 km/h (2 Bft) O-SO 103 0 min 0,000 mm 0,0 UV-I 0 W/m 7,8 C 14,7 C 12,9 km/h (3 Bft) 100,00 %
11.04.2018 21:43 16,3 C 10,0 C 56 % 1003,3 hPa 0,0 l/m 9,9 km/h (2 Bft) O 101 0 min 0,000 mm 0,0 UV-I 0 W/m 7,5 C 14,6 C 12,9 km/h (3 Bft) 92,59 %
11.04.2018 21:44 16,4 C 10,0 C 56 % 1003,2 hPa 0,0 l/m 10,0 km/h (2 Bft) O-SO 104 0 min 0,000 mm 0,0 UV-I 0 W/m 7,6 C 14,7 C 12,9 km/h (3 Bft) 100,00 %
11.04.2018 21:45 16,4 C 10,0 C 56 % 1003,2 hPa 0,0 l/m 11,1 km/h (2 Bft) O-SO 109 0 min 0,000 mm 0,0 UV-I 0 W/m 7,6 C 14,2 C 16,1 km/h (3 Bft) 83,33 %
11.04.2018 21:46 16,4 C 10,0 C 56 % 1003,3 hPa 0,0 l/m 9,7 km/h (2 Bft) O-SO 106 0 min 0,000 mm 0,0 UV-I 0 W/m 7,6 C 14,8 C 11,3 km/h (2 Bft) 100,00 %
11.04.2018 21:47 16,4 C 10,0 C 57 % 1003,2 hPa 0,0 l/m 10,6 km/h (2 Bft) O-SO 117 0 min 0,000 mm 0,0 UV-I 0 W/m 7,9 C 14,4 C 12,9 km/h (3 Bft) 91,67 %
11.04.2018 21:48 16,4 C 10,0 C 56 % 1003,3 hPa 0,0 l/m 5,6 km/h (1 Bft) SO 136 0 min 0,000 mm 0,0 UV-I 0 W/m 7,6 C 16,4 C 11,3 km/h (2 Bft) 95,65 %
11.04.2018 21:49 16,3 C 10,0 C 56 % 1003,3 hPa 0,0 l/m 7,5 km/h (2 Bft) O 98 0 min 0,000 mm 0,0 UV-I 0 W/m 7,5 C 15,7 C 11,3 km/h (2 Bft) 96,30 %
11.04.2018 21:50 16,3 C 10,0 C 56 % 1003,2 hPa 0,0 l/m 5,0 km/h (1 Bft) O 99 0 min 0,000 mm 0,0 UV-I 0 W/m 7,5 C 16,3 C 6,4 km/h (2 Bft) 91,30 %
11.04.2018 21:51 16,3 C 10,0 C 56 % 1003,2 hPa 0,0 l/m 7,0 km/h (2 Bft) O-SO 117 0 min 0,000 mm 0,0 UV-I 0 W/m 7,5 C 16,0 C 12,9 km/h (3 Bft) 100,00 %
11.04.2018 21:52 16,3 C 10,0 C 55 % 1003,2 hPa 0,0 l/m 9,7 km/h (2 Bft) O-SO 106 0 min 0,000 mm 0,0 UV-I 0 W/m 7,2 C 14,7 C 11,3 km/h (2 Bft) 91,67 %
11.04.2018 21:53 16,4 C 10,0 C 55 % 1003,1 hPa 0,0 l/m 9,5 km/h (2 Bft) O-SO 104 0 min 0,000 mm 0,0 UV-I 0 W/m 7,3 C 14,9 C 14,5 km/h (3 Bft) 96,88 %
11.04.2018 21:54 16,3 C 10,0 C 55 % 1003,1 hPa 0,0 l/m 8,9 km/h (2 Bft) O 89 0 min 0,000 mm 0,0 UV-I 0 W/m 7,2 C 15,0 C 12,9 km/h (3 Bft) 92,59 %
11.04.2018 21:55 16,3 C 10,0 C 55 % 1003,1 hPa 0,0 l/m 7,3 km/h (2 Bft) O-SO 113 0 min 0,000 mm 0,0 UV-I 0 W/m 7,2 C 15,8 C 11,3 km/h (2 Bft) 100,00 %
11.04.2018 21:56 16,3 C 10,0 C 56 % 1003,1 hPa 0,0 l/m 11,2 km/h (2 Bft) O 98 0 min 0,000 mm 0,0 UV-I 0 W/m 7,5 C 14,1 C 14,5 km/h (3 Bft) 96,67 %
11.04.2018 21:57 16,3 C 10,0 C 56 % 1003,1 hPa 0,0 l/m 9,0 km/h (2 Bft) O-SO 104 0 min 0,000 mm 0,0 UV-I 0 W/m 7,5 C 15,0 C 12,9 km/h (3 Bft) 100,00 %
11.04.2018 21:58 16,3 C 10,0 C 56 % 1003,1 hPa 0,0 l/m 7,0 km/h (2 Bft) O-SO 111 0 min 0,000 mm 0,0 UV-I 0 W/m 7,5 C 16,0 C 11,3 km/h (2 Bft) 96,30 %
11.04.2018 21:59 16,3 C 10,0 C 56 % 1003,1 hPa 0,0 l/m 3,7 km/h (1 Bft) O-SO 114 0 min 0,000 mm 0,0 UV-I 0 W/m 7,5 C 16,3 C 6,4 km/h (2 Bft) 92,86 %
11.04.2018 22:00 16,2 C 10,0 C 56 % 1003,1 hPa 0,0 l/m 5,5 km/h (1 Bft) O-SO 115 0 min 0,000 mm 0,0 UV-I 0 W/m 7,4 C 16,2 C 9,7 km/h (2 Bft) 96,30 %
11.04.2018 22:02 16,2 C 10,0 C 56 % 1003,1 hPa 0,0 l/m 5,3 km/h (1 Bft) O 98 0 min 0,051 mm 0,0 UV-I 0 W/m 7,4 C 16,2 C 9,7 km/h (2 Bft) 98,00 %
11.04.2018 22:03 16,2 C 10,0 C 56 % 1003,1 hPa 0,0 l/m 4,2 km/h (1 Bft) O 98 0 min 0,000 mm 0,0 UV-I 0 W/m 7,4 C 16,2 C 4,8 km/h (1 Bft) 96,15 %
11.04.2018 22:04 16,1 C 10,0 C 56 % 1003,2 hPa 0,0 l/m 6,6 km/h (2 Bft) O-SO 105 0 min 0,000 mm 0,0 UV-I 0 W/m 7,3 C 16,0 C 9,7 km/h (2 Bft) 100,00 %
11.04.2018 22:05 16,1 C 10,0 C 57 % 1003,1 hPa 0,0 l/m 5,2 km/h (1 Bft) O-SO 111 0 min 0,000 mm 0,0 UV-I 0 W/m 7,6 C 16,1 C 9,7 km/h (2 Bft) 97,86 %
11.04.2018 22:06 16,1 C 10,0 C 57 % 1003,2 hPa 0,0 l/m 6,5 km/h (2 Bft) O-SO 115 0 min 0,000 mm 0,0 UV-I 0 W/m 7,6 C 16,1 C 9,7 km/h (2 Bft) 97,37 %
11.04.2018 22:08 15,9 C 10,0 C 57 % 1003,2 hPa 0,0 l/m 7,5 km/h (2 Bft) O-SO 112 0 min 0,000 mm 0,0 UV-I 0 W/m 7,4 C 15,3 C 12,9 km/h (3 Bft) 94,34 %
11.04.2018 22:09 15,8 C 10,0 C 58 % 1003,2 hPa 0,0 l/m 10,1 km/h (2 Bft) O-SO 108 0 min 0,000 mm 0,0 UV-I 0 W/m 7,6 C 14,0 C 11,3 km/h (2 Bft) 96,15 %
11.04.2018 22:10 15,8 C 10,0 C 57 % 1003,2 hPa 0,0 l/m 6,7 km/h (2 Bft) O-SO 106 0 min 0,000 mm 0,0 UV-I 0 W/m 7,3 C 15,6 C 11,3 km/h (2 Bft) 100,00 %
11.04.2018 22:11 15,8 C 10,0 C 57 % 1003,2 hPa 0,0 l/m 11,8 km/h (2 Bft) O 99 0 min 0,000 mm 0,0 UV-I 0 W/m 7,3 C 13,3 C 14,5 km/h (3 Bft) 96,30 %
11.04.2018 22:12 15,8 C 10,0 C 57 % 1003,2 hPa 0,0 l/m 10,8 km/h (2 Bft) O 87 0 min 0,000 mm 0,0 UV-I 0 W/m 7,3 C 13,7 C 12,9 km/h (3 Bft) 96,15 %
11.04.2018 22:13 15,8 C 10,0 C 57 % 1003,2 hPa 0,0 l/m 11,3 km/h (2 Bft) O 88 0 min 0,000 mm 0,0 UV-I 0 W/m 7,3 C 13,5 C 12,9 km/h (3 Bft) 93,33 %
11.04.2018 22:14 15,8 C 10,0 C 57 % 1003,2 hPa 0,0 l/m 11,0 km/h (2 Bft) O 92 0 min 0,000 mm 0,0 UV-I 0 W/m 7,3 C 13,6 C 14,5 km/h (3 Bft) 97,14 %
11.04.2018 22:15 15,8 C 10,0 C 57 % 1003,2 hPa 0,0 l/m 10,5 km/h (2 Bft) SO 125 0 min 0,000 mm 0,0 UV-I 0 W/m 7,3 C 13,8 C 12,9 km/h (3 Bft) 100,00 %
11.04.2018 22:16 15,8 C 10,0 C 57 % 1003,1 hPa 0,0 l/m 9,0 km/h (2 Bft) O 92 0 min 0,000 mm 0,0 UV-I 0 W/m 7,3 C 14,5 C 12,9 km/h (3 Bft) 100,00 %
11.04.2018 22:17 15,7 C 10,0 C 57 % 1003,1 hPa 0,0 l/m 10,4 km/h (2 Bft) O-SO 107 0 min 0,000 mm 0,0 UV-I 0 W/m 7,2 C 13,7 C 14,5 km/h (3 Bft) 100,00 %
11.04.2018 22:18 15,7 C 10,0 C 57 % 1003,1 hPa 0,0 l/m 11,9 km/h (2 Bft) SO 130 0 min 0,000 mm 0,0 UV-I 0 W/m 7,2 C 13,1 C 14,5 km/h (3 Bft) 100,00 %
11.04.2018 22:19 15,7 C 10,0 C 57 % 1003,1 hPa 0,0 l/m 9,0 km/h (2 Bft) O-SO 118 0 min 0,000 mm 0,0 UV-I 0 W/m 7,2 C 14,3 C 14,5 km/h (3 Bft) 100,00 %
11.04.2018 22:20 15,7 C 10,0 C 57 % 1003,2 hPa 0,0 l/m 11,5 km/h (2 Bft) S-SO 154 0 min 0,000 mm 0,0 UV-I 0 W/m 7,2 C 13,3 C 14,5 km/h (3 Bft) 100,00 %
11.04.2018 22:21 15,7 C 10,0 C 57 % 1003,1 hPa 0,0 l/m 7,2 km/h (2 Bft) O-SO 121 0 min 0,000 mm 0,0 UV-I 0 W/m 7,2 C 15,3 C 11,3 km/h (2 Bft) 100,00 %
11.04.2018 22:22 15,6 C 10,0 C 58 % 1003,1 hPa 0,0 l/m 10,1 km/h (2 Bft) O-SO 121 0 min 0,000 mm 0,0 UV-I 0 W/m 7,4 C 13,7 C 12,9 km/h (3 Bft) 100,00 %
11.04.2018 22:23 15,5 C 10,0 C 58 % 1003,1 hPa 0,0 l/m 8,4 km/h (2 Bft) SO 130 0 min 0,000 mm 0,0 UV-I 0 W/m 7,3 C 14,4 C 12,9 km/h (3 Bft) 100,00 %
11.04.2018 22:24 15,4 C 10,0 C 58 % 1003,1 hPa 0,0 l/m 10,6 km/h (2 Bft) O-SO 107 0 min 0,000 mm 0,0 UV-I 0 W/m 7,2 C 13,3 C 12,9 km/h (3 Bft) 100,00 %
11.04.2018 22:25 15,4 C 10,0 C 58 % 1003,1 hPa 0,0 l/m 7,6 km/h (2 Bft) SO 146 0 min 0,000 mm 0,0 UV-I 0 W/m 7,2 C 14,7 C 11,3 km/h (2 Bft) 100,00 %
11.04.2018 22:26 15,4 C 10,0 C 58 % 1003,1 hPa 0,0 l/m 6,4 km/h (2 Bft) S-SO 153 0 min 0,000 mm 0,0 UV-I 0 W/m 7,2 C 15,4 C 11,3 km/h (2 Bft) 97,86 %
11.04.2018 22:27 15,4 C 10,0 C 57 % 1003,1 hPa 0,0 l/m 9,7 km/h (2 Bft) O-SO 103 0 min 0,000 mm 0,0 UV-I 0 W/m 6,9 C 13,7 C 14,5 km/h (3 Bft) 100,00 %
11.04.2018 22:28 15,4 C 10,0 C 57 % 1003,0 hPa 0,0 l/m 6,9 km/h (2 Bft) O-SO 115 0 min 0,000 mm 0,0 UV-I 0 W/m 6,9 C 15,1 C 11,3 km/h (2 Bft) 100,00 %
11.04.2018 22:29 15,4 C 10,0 C 57 % 1003,1 hPa 0,0 l/m 10,1 km/h (2 Bft) O-SO 121 0 min 0,000 mm 0,0 UV-I 0 W/m 6,9 C 13,5 C 16,1 km/h (3 Bft) 100,00 %
11.04.2018 22:30 15,4 C 10,0 C 57 % 1003,0 hPa 0,0 l/m 9,2 km/h (2 Bft) SO 127 0 min 0,000 mm 0,0 UV-I 0 W/m 6,9 C 13,9 C 12,9 km/h (3 Bft) 100,00 %
11.04.2018 22:31 15,4 C 10,0 C 57 % 1003,0 hPa 0,0 l/m 7,0 km/h (2 Bft) O-SO 113 0 min 0,000 mm 0,0 UV-I 0 W/m 6,9 C 15,1 C 14,5 km/h (3 Bft) 100,00 %
11.04.2018 22:32 15,4 C 10,0 C 57 % 1003,0 hPa 0,0 l/m 9,6 km/h (2 Bft) O-SO 117 0 min 0,000 mm 0,0 UV-I 0 W/m 6,9 C 13,7 C 12,9 km/h (3 Bft) 100,00 %
11.04.2018 22:33 15,4 C 10,0 C 57 % 1003,0 hPa 0,0 l/m 12,7 km/h (3 Bft) SO 124 0 min 0,000 mm 0,0 UV-I 0 W/m 6,9 C 12,5 C 17,7 km/h (3 Bft) 92,86 %
11.04.2018 22:34 15,4 C 10,0 C 56 % 1003,0 hPa 0,0 l/m 11,3 km/h (2 Bft) SO 126 0 min 0,000 mm 0,0 UV-I 0 W/m 6,7 C 13,0 C 17,7 km/h (3 Bft) 100,00 %
11.04.2018 22:35 15,4 C 10,0 C 56 % 1003,0 hPa 0,0 l/m 12,5 km/h (3 Bft) SO 126 0 min 0,000 mm 0,0 UV-I 0 W/m 6,7 C 12,5 C 16,1 km/h (3 Bft) 100,00 %
11.04.2018 22:36 15,4 C 10,0 C 56 % 1003,0 hPa 0,0 l/m 12,4 km/h (3 Bft) O 96 0 min 0,000 mm 0,0 UV-I 0 W/m 6,7 C 12,6 C 14,5 km/h (3 Bft) 100,00 %
11.04.2018 22:37 15,4 C 10,0 C 56 % 1003,0 hPa 0,0 l/m 12,9 km/h (3 Bft) O-SO 120 0 min 0,000 mm 0,0 UV-I 0 W/m 6,7 C 12,4 C 20,9 km/h (4 Bft) 100,00 %
11.04.2018 22:38 15,5 C 10,0 C 55 % 1003,0 hPa 0,0 l/m 12,2 km/h (2 Bft) O-SO 120 0 min 0,000 mm 0,0 UV-I 0 W/m 6,5 C 12,8 C 17,7 km/h (3 Bft) 100,00 %
11.04.2018 22:39 15,5 C 10,0 C 55 % 1003,0 hPa 0,0 l/m 12,9 km/h (3 Bft) O 90 0 min 0,000 mm 0,0 UV-I 0 W/m 6,5 C 12,5 C 16,1 km/h (3 Bft) 100,00 %
11.04.2018 22:40 15,6 C 10,0 C 55 % 1003,0 hPa 0,0 l/m 12,7 km/h (3 Bft) O 94 0 min 0,000 mm 0,0 UV-I 0 W/m 6,6 C 12,7 C 16,1 km/h (3 Bft) 100,00 %
11.04.2018 22:41 15,6 C 10,0 C 55 % 1003,0 hPa 0,0 l/m 12,2 km/h (2 Bft) O 98 0 min 0,000 mm 0,0 UV-I 0 W/m 6,6 C 12,9 C 19,3 km/h (3 Bft) 96,15 %
11.04.2018 22:42 15,6 C 10,0 C 55 % 1003,0 hPa 0,0 l/m 12,8 km/h (3 Bft) O 99 0 min 0,000 mm 0,0 UV-I 0 W/m 6,6 C 12,7 C 14,5 km/h (3 Bft) 100,00 %
11.04.2018 22:43 15,6 C 10,0 C 55 % 1003,0 hPa 0,0 l/m 13,9 km/h (3 Bft) O 83 0 min 0,000 mm 0,0 UV-I 0 W/m 6,6 C 12,3 C 17,7 km/h (3 Bft) 100,00 %
11.04.2018 22:44 15,6 C 10,0 C 55 % 1003,0 hPa 0,0 l/m 15,3 km/h (3 Bft) O 83 0 min 0,000 mm 0,0 UV-I 0 W/m 6,6 C 11,8 C 20,9 km/h (4 Bft) 100,00 %
11.04.2018 22:45 15,6 C 10,0 C 55 % 1003,0 hPa 0,0 l/m 16,3 km/h (3 Bft) O 101 0 min 0,000 mm 0,0 UV-I 0 W/m 6,6 C 11,5 C 24,1 km/h (4 Bft) 100,00 %
11.04.2018 22:46 15,6 C 10,0 C 55 % 1002,9 hPa 0,0 l/m 17,8 km/h (3 Bft) SO 130 0 min 0,000 mm 0,0 UV-I 0 W/m 6,6 C 11,1 C 25,7 km/h (4 Bft) 100,00 %
11.04.2018 22:47 15,6 C 10,0 C 55 % 1003,0 hPa 0,0 l/m 11,2 km/h (2 Bft) O 98 0 min 0,000 mm 0,0 UV-I 0 W/m 6,6 C 13,3 C 14,5 km/h (3 Bft) 100,00 %
11.04.2018 22:48 15,6 C 10,0 C 55 % 1003,0 hPa 0,0 l/m 14,3 km/h (3 Bft) O-SO 115 0 min 0,000 mm 0,0 UV-I 0 W/m 6,6 C 12,1 C 17,7 km/h (3 Bft) 100,00 %
11.04.2018 22:49 15,5 C 10,0 C 55 % 1003,0 hPa 0,0 l/m 11,6 km/h (2 Bft) SO 125 0 min 0,000 mm 0,0 UV-I 0 W/m 6,5 C 13,0 C 16,1 km/h (3 Bft) 100,00 %
11.04.2018 22:50 15,6 C 10,0 C 54 % 1003,0 hPa 0,0 l/m 15,3 km/h (3 Bft) O-SO 111 0 min 0,000 mm 0,0 UV-I 0 W/m 6,3 C 11,8 C 20,9 km/h (4 Bft) 100,00 %
11.04.2018 22:51 15,6 C 10,0 C 54 % 1002,9 hPa 0,0 l/m 15,3 km/h (3 Bft) O-SO 109 0 min 0,000 mm 0,0 UV-I 0 W/m 6,3 C 11,8 C 19,3 km/h (3 Bft) 100,00 %
11.04.2018 22:52 15,6 C 10,0 C 54 % 1003,0 hPa 0,0 l/m 15,6 km/h (3 Bft) O-SO 108 0 min 0,000 mm 0,0 UV-I 0 W/m 6,3 C 11,7 C 24,1 km/h (4 Bft) 100,00 %
11.04.2018 22:53 15,6 C 10,0 C 53 % 1003,0 hPa 0,0 l/m 15,2 km/h (3 Bft) O-SO 112 0 min 0,000 mm 0,0 UV-I 0 W/m 6,1 C 11,9 C 20,9 km/h (4 Bft) 100,00 %
11.04.2018 22:54 15,7 C 10,0 C 53 % 1003,0 hPa 0,0 l/m 16,2 km/h (3 Bft) O 98 0 min 0,000 mm 0,0 UV-I 0 W/m 6,1 C 11,7 C 20,9 km/h (4 Bft) 100,00 %
11.04.2018 22:55 15,7 C 10,0 C 53 % 1003,0 hPa 0,0 l/m 15,9 km/h (3 Bft) O-SO 108 0 min 0,000 mm 0,0 UV-I 0 W/m 6,1 C 11,8 C 22,5 km/h (4 Bft) 100,00 %
11.04.2018 22:56 15,7 C 10,0 C 53 % 1002,9 hPa 0,0 l/m 17,9 km/h (3 Bft) O-SO 116 0 min 0,000 mm 0,0 UV-I 0 W/m 6,1 C 11,2 C 24,1 km/h (4 Bft) 100,00 %
11.04.2018 22:57 15,7 C 10,0 C 53 % 1003,0 hPa 0,0 l/m 14,1 km/h (3 Bft) O 101 0 min 0,000 mm 0,0 UV-I 0 W/m 6,1 C 12,3 C 19,3 km/h (3 Bft) 100,00 %
11.04.2018 22:58 15,7 C 10,0 C 53 % 1003,0 hPa 0,0 l/m 16,8 km/h (3 Bft) SO 129 0 min 0,000 mm 0,0 UV-I 0 W/m 6,1 C 11,5 C 19,3 km/h (3 Bft) 100,00 %
11.04.2018 22:59 15,8 C 10,0 C 52 % 1003,0 hPa 0,0 l/m 15,7 km/h (3 Bft) O-SO 111 0 min 0,000 mm 0,0 UV-I 0 W/m 6,0 C 11,9 C 19,3 km/h (3 Bft) 100,00 %
11.04.2018 23:00 15,8 C 10,0 C 52 % 1003,0 hPa 0,0 l/m 12,7 km/h (3 Bft) O 92 0 min 0,000 mm 0,0 UV-I 0 W/m 6,0 C 12,9 C 16,1 km/h (3 Bft) 100,00 %
11.04.2018 23:02 15,8 C 10,0 C 52 % 1003,0 hPa 0,0 l/m 13,5 km/h (3 Bft) O 95 0 min 0,076 mm 0,0 UV-I 0 W/m 6,0 C 12,7 C 16,1 km/h (3 Bft) 100,00 %
11.04.2018 23:03 15,8 C 10,0 C 52 % 1003,0 hPa 0,0 l/m 11,4 km/h (2 Bft) O-SO 114 0 min 0,000 mm 0,0 UV-I 0 W/m 6,0 C 13,4 C 16,1 km/h (3 Bft) 100,00 %
11.04.2018 23:04 15,8 C 10,0 C 52 % 1003,0 hPa 0,0 l/m 9,7 km/h (2 Bft) O-SO 103 0 min 0,000 mm 0,0 UV-I 0 W/m 6,0 C 14,1 C 11,3 km/h (2 Bft) 100,00 %
11.04.2018 23:05 15,8 C 10,0 C 52 % 1003,0 hPa 0,0 l/m 16,1 km/h (3 Bft) O-SO 104 0 min 0,000 mm 0,0 UV-I 0 W/m 6,0 C 11,8 C 22,5 km/h (4 Bft) 100,00 %
11.04.2018 23:06 15,8 C 10,0 C 51 % 1003,0 hPa 0,0 l/m 14,0 km/h (3 Bft) O-SO 121 0 min 0,000 mm 0,0 UV-I 0 W/m 5,7 C 12,5 C 20,9 km/h (4 Bft) 100,00 %
11.04.2018 23:07 15,8 C 10,0 C 51 % 1003,0 hPa 0,0 l/m 16,4 km/h (3 Bft) O-SO 103 0 min 0,000 mm 0,0 UV-I 0 W/m 5,7 C 11,7 C 19,3 km/h (3 Bft) 100,00 %
11.04.2018 23:08 15,8 C 10,0 C 51 % 1003,0 hPa 0,0 l/m 15,1 km/h (3 Bft) O 99 0 min 0,000 mm 0,0 UV-I 0 W/m 5,7 C 12,1 C 20,9 km/h (4 Bft) 100,00 %
11.04.2018 23:09 15,9 C 10,0 C 51 % 1003,0 hPa 0,0 l/m 15,2 km/h (3 Bft) O 87 0 min 0,000 mm 0,0 UV-I 0 W/m 5,8 C 12,2 C 20,9 km/h (4 Bft) 100,00 %
11.04.2018 23:10 15,9 C 10,0 C 51 % 1003,0 hPa 0,0 l/m 13,6 km/h (3 Bft) O 96 0 min 0,000 mm 0,0 UV-I 0 W/m 5,8 C 12,7 C 17,7 km/h (3 Bft) 100,00 %
11.04.2018 23:11 15,8 C 10,0 C 51 % 1002,9 hPa 0,0 l/m 14,3 km/h (3 Bft) O 94 0 min 0,000 mm 0,0 UV-I 0 W/m 5,7 C 12,4 C 19,3 km/h (3 Bft) 100,00 %
11.04.2018 23:12 15,8 C 10,0 C 51 % 1002,9 hPa 0,0 l/m 16,6 km/h (3 Bft) O 79 0 min 0,000 mm 0,0 UV-I 0 W/m 5,7 C 11,7 C 20,9 km/h (4 Bft) 100,00 %
11.04.2018 23:13 15,8 C 10,0 C 51 % 1002,9 hPa 0,0 l/m 16,1 km/h (3 Bft) O 95 0 min 0,000 mm 0,0 UV-I 0 W/m 5,7 C 11,8 C 20,9 km/h (4 Bft) 100,00 %
11.04.2018 23:14 15,8 C 10,0 C 51 % 1003,0 hPa 0,0 l/m 13,7 km/h (3 Bft) O-SO 107 0 min 0,000 mm 0,0 UV-I 0 W/m 5,7 C 12,6 C 17,7 km/h (3 Bft) 100,00 %
11.04.2018 23:15 15,8 C 10,0 C 51 % 1003,0 hPa 0,0 l/m 14,8 km/h (3 Bft) O 96 0 min 0,000 mm 0,0 UV-I 0 W/m 5,7 C 12,2 C 20,9 km/h (4 Bft) 100,00 %
11.04.2018 23:16 15,8 C 10,0 C 51 % 1003,0 hPa 0,0 l/m 14,3 km/h (3 Bft) O-SO 105 0 min 0,000 mm 0,0 UV-I 0 W/m 5,7 C 12,4 C 19,3 km/h (3 Bft) 95,83 %
11.04.2018 23:17 15,8 C 10,0 C 51 % 1003,0 hPa 0,0 l/m 15,2 km/h (3 Bft) O-SO 109 0 min 0,000 mm 0,0 UV-I 0 W/m 5,7 C 12,1 C 17,7 km/h (3 Bft) 100,00 %
11.04.2018 23:18 15,8 C 10,0 C 51 % 1003,0 hPa 0,0 l/m 14,2 km/h (3 Bft) O 92 0 min 0,000 mm 0,0 UV-I 0 W/m 5,7 C 12,4 C 17,7 km/h (3 Bft) 100,00 %
11.04.2018 23:19 15,8 C 10,0 C 51 % 1003,0 hPa 0,0 l/m 11,4 km/h (2 Bft) O 91 0 min 0,000 mm 0,0 UV-I 0 W/m 5,7 C 13,4 C 16,1 km/h (3 Bft) 100,00 %
11.04.2018 23:20 15,8 C 10,0 C 51 % 1002,9 hPa 0,0 l/m 13,3 km/h (3 Bft) O 80 0 min 0,000 mm 0,0 UV-I 0 W/m 5,7 C 12,7 C 16,1 km/h (3 Bft) 100,00 %
11.04.2018 23:21 15,8 C 10,0 C 51 % 1002,9 hPa 0,0 l/m 11,7 km/h (2 Bft) O 101 0 min 0,000 mm 0,0 UV-I 0 W/m 5,7 C 13,3 C 14,5 km/h (3 Bft) 100,00 %
11.04.2018 23:22 15,7 C 10,0 C 52 % 1003,0 hPa 0,0 l/m 12,6 km/h (3 Bft) O-SO 111 0 min 0,000 mm 0,0 UV-I 0 W/m 5,9 C 12,9 C 14,5 km/h (3 Bft) 100,00 %
11.04.2018 23:23 15,7 C 10,0 C 52 % 1002,9 hPa 0,0 l/m 10,5 km/h (2 Bft) O-SO 113 0 min 0,000 mm 0,0 UV-I 0 W/m 5,9 C 13,7 C 12,9 km/h (3 Bft) 95,65 %
11.04.2018 23:24 15,7 C 10,0 C 52 % 1003,0 hPa 0,0 l/m 12,1 km/h (2 Bft) O-SO 104 0 min 0,000 mm 0,0 UV-I 0 W/m 5,9 C 13,0 C 14,5 km/h (3 Bft) 100,00 %
11.04.2018 23:25 15,6 C 10,0 C 52 % 1002,9 hPa 0,0 l/m 13,6 km/h (3 Bft) O 101 0 min 0,000 mm 0,0 UV-I 0 W/m 5,8 C 12,4 C 16,1 km/h (3 Bft) 96,30 %
11.04.2018 23:26 15,6 C 10,0 C 52 % 1002,9 hPa 0,0 l/m 12,7 km/h (3 Bft) O 94 0 min 0,000 mm 0,0 UV-I 0 W/m 5,8 C 12,7 C 16,1 km/h (3 Bft) 100,00 %
11.04.2018 23:27 15,6 C 10,0 C 52 % 1002,9 hPa 0,0 l/m 10,7 km/h (2 Bft) O 100 0 min 0,000 mm 0,0 UV-I 0 W/m 5,8 C 13,5 C 14,5 km/h (3 Bft) 95,83 %
11.04.2018 23:28 15,6 C 10,0 C 52 % 1002,9 hPa 0,0 l/m 11,9 km/h (2 Bft) O 84 0 min 0,000 mm 0,0 UV-I 0 W/m 5,8 C 13,0 C 16,1 km/h (3 Bft) 100,00 %
11.04.2018 23:29 15,5 C 10,0 C 53 % 1002,8 hPa 0,0 l/m 10,8 km/h (2 Bft) O-SO 104 0 min 0,000 mm 0,0 UV-I 0 W/m 6,0 C 13,3 C 12,9 km/h (3 Bft) 96,30 %
11.04.2018 23:30 15,4 C 10,0 C 53 % 1002,9 hPa 0,0 l/m 9,7 km/h (2 Bft) O-NO 72 0 min 0,000 mm 0,0 UV-I 0 W/m 5,9 C 13,7 C 14,5 km/h (3 Bft) 95,65 %
11.04.2018 23:31 15,4 C 10,0 C 53 % 1002,9 hPa 0,0 l/m 8,9 km/h (2 Bft) O 90 0 min 0,000 mm 0,0 UV-I 0 W/m 5,9 C 14,1 C 12,9 km/h (3 Bft) 100,00 %
11.04.2018 23:33 15,2 C 10,0 C 55 % 1002,9 hPa 0,0 l/m 8,9 km/h (2 Bft) O-NO 63 0 min 0,000 mm 0,0 UV-I 0 W/m 6,2 C 13,9 C 11,3 km/h (2 Bft) 97,73 %
11.04.2018 23:34 15,1 C 10,0 C 55 % 1002,9 hPa 0,0 l/m 8,5 km/h (2 Bft) O-NO 74 0 min 0,000 mm 0,0 UV-I 0 W/m 6,1 C 13,9 C 12,9 km/h (3 Bft) 92,31 %
11.04.2018 23:35 15,0 C 10,0 C 56 % 1002,9 hPa 0,0 l/m 10,1 km/h (2 Bft) O-NO 60 0 min 0,000 mm 0,0 UV-I 0 W/m 6,3 C 13,1 C 12,9 km/h (3 Bft) 100,00 %
11.04.2018 23:36 14,9 C 10,0 C 56 % 1002,9 hPa 0,0 l/m 10,7 km/h (2 Bft) O-NO 67 0 min 0,000 mm 0,0 UV-I 0 W/m 6,2 C 12,7 C 14,5 km/h (3 Bft) 95,65 %
11.04.2018 23:38 14,8 C 10,0 C 57 % 1002,9 hPa 0,0 l/m 11,8 km/h (2 Bft) O 83 0 min 0,000 mm 0,0 UV-I 0 W/m 6,4 C 12,1 C 14,5 km/h (3 Bft) 98,11 %
11.04.2018 23:39 14,7 C 10,0 C 57 % 1002,9 hPa 0,0 l/m 13,3 km/h (3 Bft) O 88 0 min 0,000 mm 0,0 UV-I 0 W/m 6,3 C 11,4 C 16,1 km/h (3 Bft) 100,00 %
11.04.2018 23:40 14,7 C 10,0 C 57 % 1002,9 hPa 0,0 l/m 11,4 km/h (2 Bft) O 81 0 min 0,000 mm 0,0 UV-I 0 W/m 6,3 C 12,2 C 14,5 km/h (3 Bft) 92,31 %
11.04.2018 23:41 14,7 C 10,0 C 58 % 1002,9 hPa 0,0 l/m 10,3 km/h (2 Bft) O-NO 65 0 min 0,000 mm 0,0 UV-I 0 W/m 6,5 C 12,6 C 12,9 km/h (3 Bft) 96,30 %
11.04.2018 23:42 14,6 C 10,0 C 58 % 1002,9 hPa 0,0 l/m 12,6 km/h (3 Bft) O-NO 68 0 min 0,000 mm 0,0 UV-I 0 W/m 6,4 C 11,6 C 16,1 km/h (3 Bft) 100,00 %
11.04.2018 23:43 14,6 C 10,0 C 58 % 1002,8 hPa 0,0 l/m 13,4 km/h (3 Bft) O-NO 78 0 min 0,000 mm 0,0 UV-I 0 W/m 6,4 C 11,3 C 16,1 km/h (3 Bft) 91,67 %
11.04.2018 23:44 14,6 C 10,0 C 57 % 1002,9 hPa 0,0 l/m 13,6 km/h (3 Bft) O-NO 76 0 min 0,000 mm 0,0 UV-I 0 W/m 6,2 C 11,2 C 17,7 km/h (3 Bft) 100,00 %
11.04.2018 23:45 14,6 C 10,0 C 58 % 1002,9 hPa 0,0 l/m 13,4 km/h (3 Bft) O 88 0 min 0,000 mm 0,0 UV-I 0 W/m 6,4 C 11,3 C 17,7 km/h (3 Bft) 95,83 %
11.04.2018 23:46 14,6 C 10,0 C 59 % 1002,9 hPa 0,0 l/m 13,1 km/h (3 Bft) O 83 0 min 0,000 mm 0,0 UV-I 0 W/m 6,7 C 11,4 C 16,1 km/h (3 Bft) 100,00 %
11.04.2018 23:47 14,5 C 10,0 C 59 % 1002,9 hPa 0,0 l/m 10,4 km/h (2 Bft) O 94 0 min 0,000 mm 0,0 UV-I 0 W/m 6,6 C 12,4 C 12,9 km/h (3 Bft) 95,65 %
11.04.2018 23:48 14,5 C 10,0 C 59 % 1002,9 hPa 0,0 l/m 12,5 km/h (3 Bft) O 85 0 min 0,000 mm 0,0 UV-I 0 W/m 6,6 C 11,5 C 16,1 km/h (3 Bft) 100,00 %
11.04.2018 23:49 14,4 C 10,0 C 59 % 1002,9 hPa 0,0 l/m 12,7 km/h (3 Bft) O 86 0 min 0,000 mm 0,0 UV-I 0 W/m 6,5 C 11,3 C 14,5 km/h (3 Bft) 95,65 %
11.04.2018 23:50 14,4 C 10,0 C 58 % 1002,9 hPa 0,0 l/m 10,2 km/h (2 Bft) O 97 0 min 0,000 mm 0,0 UV-I 0 W/m 6,2 C 12,4 C 14,5 km/h (3 Bft) 96,30 %
11.04.2018 23:51 14,4 C 10,0 C 59 % 1002,9 hPa 0,0 l/m 9,7 km/h (2 Bft) O 98 0 min 0,000 mm 0,0 UV-I 0 W/m 6,5 C 12,6 C 12,9 km/h (3 Bft) 100,00 %
11.04.2018 23:52 14,5 C 10,0 C 58 % 1002,8 hPa 0,0 l/m 10,7 km/h (2 Bft) O 84 0 min 0,000 mm 0,0 UV-I 0 W/m 6,3 C 12,2 C 14,5 km/h (3 Bft) 93,33 %
11.04.2018 23:53 14,6 C 10,0 C 58 % 1002,8 hPa 0,0 l/m 10,2 km/h (2 Bft) O-SO 102 0 min 0,000 mm 0,0 UV-I 0 W/m 6,4 C 12,6 C 12,9 km/h (3 Bft) 100,00 %
11.04.2018 23:54 14,6 C 10,0 C 57 % 1002,8 hPa 0,0 l/m 9,0 km/h (2 Bft) O-SO 107 0 min 0,000 mm 0,0 UV-I 0 W/m 6,2 C 13,2 C 11,3 km/h (2 Bft) 91,67 %
11.04.2018 23:55 14,7 C 10,0 C 57 % 1002,8 hPa 0,0 l/m 8,1 km/h (2 Bft) O 86 0 min 0,000 mm 0,0 UV-I 0 W/m 6,3 C 13,7 C 11,3 km/h (2 Bft) 100,00 %
11.04.2018 23:56 14,7 C 10,0 C 57 % 1002,8 hPa 0,0 l/m 7,6 km/h (2 Bft) O 85 0 min 0,000 mm 0,0 UV-I 0 W/m 6,3 C 14,0 C 9,7 km/h (2 Bft) 93,33 %
11.04.2018 23:57 14,7 C 10,0 C 57 % 1002,8 hPa 0,0 l/m 5,5 km/h (1 Bft) O 86 0 min 0,000 mm 0,0 UV-I 0 W/m 6,3 C 14,7 C 6,4 km/h (2 Bft) 100,00 %
11.04.2018 23:58 14,7 C 10,0 C 57 % 1002,8 hPa 0,0 l/m 5,2 km/h (1 Bft) O 96 0 min 0,000 mm 0,0 UV-I 0 W/m 6,3 C 14,7 C 9,7 km/h (2 Bft) 100,00 %
11.04.2018 23:59 14,7 C 10,0 C 57 % 1002,8 hPa 0,0 l/m 7,2 km/h (2 Bft) O-SO 105 0 min 0,000 mm 0,0 UV-I 0 W/m 6,3 C 14,2 C 11,3 km/h (2 Bft) 95,65 %
_ Min-Zeit 02:11 00:00 16:25 00:00 - 00:52 - - - - - - 23:06 06:30 00:52 12:47
Minimum _ 8,2 C 9,4 C 49 % 1002,3 hPa - 0,0 km/h (0 Bft) - - - - - - 5,7 C 4,8 C 0,0 km/h (0 Bft) 83,33 %
_ Max-Zeit 16:59 03:25 02:12 10:17 00:00 15:40 - - 08:43 14:01 12:29 12:29 14:54 16:29 03:26 00:00
Maximum _ 19,9 C 10,0 C 86 % 1006,7 hPa 0,0 l/m 21,6 km/h
O-NO (4 Bft)
- - 2 min 0,457 mm 3,4 UV-I 757 W/m 10,9 C 19,8 C 25,7 km/h
W-SW (4 Bft)
100,00 %
Durchschnitt _ 14,2 C 9,9 C 68 % 1004,4 hPa #0,0 l/m 8,9 km/h (2 Bft) O - #9:13 h #3,861 mm 2,1 UV-I 398 W/m 8,2 C 12,7 C 12,3 km/h (3 Bft) 97,90 %